<?xml version='1.0' encoding='UTF-8'?><gpx version="1.1" creator="JPX - https://github.com/jenetics/jpx" xmlns="http://www.topografix.com/GPX/1/1"><trk><trkseg><trkpt lat="45.59699175542581" lon="3.299887092181238"><ele>547.0</ele><time>2026-05-01T14:16:32.002Z</time></trkpt><trkpt lat="45.59696308824059" lon="3.2997880246901787"><ele>547.0</ele><time>2026-05-01T14:17:32Z</time></trkpt><trkpt lat="45.596922988383454" lon="3.299706046031876"><ele>547.0</ele><time>2026-05-01T14:17:34Z</time></trkpt><trkpt lat="45.59680380663345" lon="3.2996699755686754"><ele>547.0</ele><time>2026-05-01T14:17:39.001Z</time></trkpt><trkpt lat="45.596693786424495" lon="3.2997187284563974"><ele>547.0</ele><time>2026-05-01T14:17:40.001Z</time></trkpt><trkpt lat="45.59658678318599" lon="3.2997459302858814"><ele>547.0</ele><time>2026-05-01T14:17:41.001Z</time></trkpt><trkpt lat="45.59650633707162" lon="3.2997765163075177"><ele>547.0</ele><time>2026-05-01T14:17:42.001Z</time></trkpt><trkpt lat="45.59641721074839" lon="3.299791679221907"><ele>547.0</ele><time>2026-05-01T14:17:43.001Z</time></trkpt><trkpt lat="45.596335089443194" lon="3.299827679177273"><ele>547.0</ele><time>2026-05-01T14:17:44.001Z</time></trkpt><trkpt lat="45.596251370026245" lon="3.299837646266229"><ele>547.0</ele><time>2026-05-01T14:17:45.001Z</time></trkpt><trkpt lat="45.59617749261209" lon="3.2998625621759134"><ele>547.0</ele><time>2026-05-01T14:17:46.001Z</time></trkpt><trkpt lat="45.59611334520226" lon="3.299909544166061"><ele>547.0</ele><time>2026-05-01T14:17:47.001Z</time></trkpt><trkpt lat="45.59606815467756" lon="3.2999996184406153"><ele>547.0</ele><time>2026-05-01T14:17:48.001Z</time></trkpt><trkpt lat="45.59606141237258" lon="3.300141630954486"><ele>547.0</ele><time>2026-05-01T14:17:49.001Z</time></trkpt><trkpt lat="45.59608561474389" lon="3.3002803706422754"><ele>547.0</ele><time>2026-05-01T14:17:50.001Z</time></trkpt><trkpt lat="45.596144065039205" lon="3.30041536849972"><ele>547.0</ele><time>2026-05-01T14:17:51.001Z</time></trkpt><trkpt lat="45.59617425388759" lon="3.3005773955667586"><ele>545.5</ele><time>2026-05-01T14:17:52.001Z</time></trkpt><trkpt lat="45.59624467393575" lon="3.300723194028657"><ele>544.0</ele><time>2026-05-01T14:17:53.001Z</time></trkpt><trkpt lat="45.59628550990635" lon="3.3008930830635315"><ele>542.5</ele><time>2026-05-01T14:17:54.001Z</time></trkpt><trkpt lat="45.596327779531876" lon="3.301065677817116"><ele>541.0</ele><time>2026-05-01T14:17:55.001Z</time></trkpt><trkpt lat="45.59637238818191" lon="3.301235584043013"><ele>541.0</ele><time>2026-05-01T14:17:56.001Z</time></trkpt><trkpt lat="45.59641896531376" lon="3.301409512125427"><ele>541.0</ele><time>2026-05-01T14:17:57.001Z</time></trkpt><trkpt lat="45.59646641501775" lon="3.301586813172188"><ele>541.0</ele><time>2026-05-01T14:17:58.001Z</time></trkpt><trkpt lat="45.59650736178848" lon="3.301772147705897"><ele>541.0</ele><time>2026-05-01T14:17:59.001Z</time></trkpt><trkpt lat="45.59653767587508" lon="3.3019645366817354"><ele>539.75</ele><time>2026-05-01T14:18:00.001Z</time></trkpt><trkpt lat="45.59653059011108" lon="3.3021450065346416"><ele>538.5</ele><time>2026-05-01T14:18:01.001Z</time></trkpt><trkpt lat="45.596517746160465" lon="3.3023107678789865"><ele>537.25</ele><time>2026-05-01T14:18:02.001Z</time></trkpt><trkpt lat="45.596482592902234" lon="3.3024762486110997"><ele>536.0</ele><time>2026-05-01T14:18:03.001Z</time></trkpt><trkpt lat="45.59644563996821" lon="3.3026483161582423"><ele>534.75</ele><time>2026-05-01T14:18:04.001Z</time></trkpt><trkpt lat="45.596407386844206" lon="3.3028264379324446"><ele>533.5</ele><time>2026-05-01T14:18:05.001Z</time></trkpt><trkpt lat="45.5963806015784" lon="3.303018095141601"><ele>532.25</ele><time>2026-05-01T14:18:06.001Z</time></trkpt><trkpt lat="45.5963159513227" lon="3.303217619934417"><ele>531.0</ele><time>2026-05-01T14:18:07.001Z</time></trkpt><trkpt lat="45.5962751225011" lon="3.3034374363920604"><ele>530.0</ele><time>2026-05-01T14:18:08.001Z</time></trkpt><trkpt lat="45.596252354619274" lon="3.3036677810374857"><ele>529.0</ele><time>2026-05-01T14:18:09.001Z</time></trkpt><trkpt lat="45.59621960522723" lon="3.3039051020785433"><ele>528.0</ele><time>2026-05-01T14:18:10.001Z</time></trkpt><trkpt lat="45.596193694149434" lon="3.3041545307930096"><ele>523.6666666666666</ele><time>2026-05-01T14:18:11.001Z</time></trkpt><trkpt lat="45.59616417850703" lon="3.3044178434682854"><ele>519.3333333333333</ele><time>2026-05-01T14:18:12.001Z</time></trkpt><trkpt lat="45.59613091349684" lon="3.3046879671610854"><ele>515.0</ele><time>2026-05-01T14:18:13.001Z</time></trkpt><trkpt lat="45.5960993574745" lon="3.3049327887696163"><ele>514.25</ele><time>2026-05-01T14:18:14.001Z</time></trkpt><trkpt lat="45.5960697075271" lon="3.3051497893189334"><ele>513.5</ele><time>2026-05-01T14:18:15.001Z</time></trkpt><trkpt lat="45.59604285884541" lon="3.305336288471892"><ele>512.75</ele><time>2026-05-01T14:18:16.001Z</time></trkpt><trkpt lat="45.59599440087666" lon="3.305495126642779"><ele>512.0</ele><time>2026-05-01T14:18:17.001Z</time></trkpt><trkpt lat="45.595947641103436" lon="3.305643802064912"><ele>511.0</ele><time>2026-05-01T14:18:18.001Z</time></trkpt><trkpt lat="45.59585169650058" lon="3.3057438144278026"><ele>510.0</ele><time>2026-05-01T14:18:19.001Z</time></trkpt><trkpt lat="45.59572819461283" lon="3.30583564514771"><ele>509.0</ele><time>2026-05-01T14:18:20.001Z</time></trkpt><trkpt lat="45.595586023208746" lon="3.3059288586365994"><ele>508.0</ele><time>2026-05-01T14:18:21.001Z</time></trkpt><trkpt lat="45.59544400461382" lon="3.3059945621209095"><ele>505.6666666666667</ele><time>2026-05-01T14:18:22.001Z</time></trkpt><trkpt lat="45.595336294846746" lon="3.3061139994385886"><ele>503.33333333333337</ele><time>2026-05-01T14:18:23.001Z</time></trkpt><trkpt lat="45.59528279917988" lon="3.306300502288356"><ele>501.0</ele><time>2026-05-01T14:18:24.001Z</time></trkpt><trkpt lat="45.595253626652536" lon="3.306549536586973"><ele>500.33333333333337</ele><time>2026-05-01T14:18:25.001Z</time></trkpt><trkpt lat="45.59524053309109" lon="3.3068282797162287"><ele>499.6666666666667</ele><time>2026-05-01T14:18:26.001Z</time></trkpt><trkpt lat="45.595220168353464" lon="3.3070830287113506"><ele>499.0</ele><time>2026-05-01T14:18:27.001Z</time></trkpt><trkpt lat="45.59519079324059" lon="3.3073450821635957"><ele>498.25</ele><time>2026-05-01T14:18:28.001Z</time></trkpt><trkpt lat="45.59517435267846" lon="3.3075660289051494"><ele>497.5</ele><time>2026-05-01T14:18:29.001Z</time></trkpt><trkpt lat="45.59522304935227" lon="3.307746479286418"><ele>496.75</ele><time>2026-05-01T14:18:30.001Z</time></trkpt><trkpt lat="45.59532493420018" lon="3.3079063117888854"><ele>496.0</ele><time>2026-05-01T14:18:31.001Z</time></trkpt><trkpt lat="45.59549049484232" lon="3.3079072530380538"><ele>496.0</ele><time>2026-05-01T14:18:32.001Z</time></trkpt><trkpt lat="45.59560917953037" lon="3.3078812506002544"><ele>496.0</ele><time>2026-05-01T14:18:33.001Z</time></trkpt><trkpt lat="45.59578303679984" lon="3.3076699483306737"><ele>496.0</ele><time>2026-05-01T14:18:36Z</time></trkpt><trkpt lat="45.59604320671831" lon="3.3074993883573782"><ele>493.5</ele><time>2026-05-01T14:18:37Z</time></trkpt><trkpt lat="45.59635216457976" lon="3.3074805199933546"><ele>491.0</ele><time>2026-05-01T14:18:38Z</time></trkpt><trkpt lat="45.59651305389133" lon="3.3075919796892608"><ele>491.0</ele><time>2026-05-01T14:18:39Z</time></trkpt><trkpt lat="45.59662545112271" lon="3.3077779161036904"><ele>491.0</ele><time>2026-05-01T14:18:40Z</time></trkpt><trkpt lat="45.59666647252116" lon="3.307921506488076"><ele>491.0</ele><time>2026-05-01T14:18:41Z</time></trkpt><trkpt lat="45.59660867319558" lon="3.3082349674273837"><ele>490.3333333333333</ele><time>2026-05-01T14:18:42Z</time></trkpt><trkpt lat="45.59652183580505" lon="3.3084643604802464"><ele>489.66666666666663</ele><time>2026-05-01T14:18:43Z</time></trkpt><trkpt lat="45.59635454386129" lon="3.3086176109994483"><ele>489.0</ele><time>2026-05-01T14:18:44Z</time></trkpt><trkpt lat="45.596189109586795" lon="3.3087731639041507"><ele>486.5</ele><time>2026-05-01T14:18:45Z</time></trkpt><trkpt lat="45.59600171928495" lon="3.30895093755438"><ele>484.0</ele><time>2026-05-01T14:18:46Z</time></trkpt><trkpt lat="45.59579340631993" lon="3.3091548795218"><ele>484.0</ele><time>2026-05-01T14:18:47Z</time></trkpt><trkpt lat="45.59559807417386" lon="3.3093892698421516"><ele>484.0</ele><time>2026-05-01T14:18:48Z</time></trkpt><trkpt lat="45.59542397655322" lon="3.309651851615916"><ele>481.0</ele><time>2026-05-01T14:18:49Z</time></trkpt><trkpt lat="45.59524762713479" lon="3.3099189268433165"><ele>478.0</ele><time>2026-05-01T14:18:50Z</time></trkpt><trkpt lat="45.59511609348772" lon="3.310186864707427"><ele>478.0</ele><time>2026-05-01T14:18:51Z</time></trkpt><trkpt lat="45.595028092903604" lon="3.310504418824873"><ele>478.0</ele><time>2026-05-01T14:18:52Z</time></trkpt><trkpt lat="45.594987548870975" lon="3.310845352283398"><ele>476.5</ele><time>2026-05-01T14:18:53Z</time></trkpt><trkpt lat="45.59492562572045" lon="3.311188166918465"><ele>475.0</ele><time>2026-05-01T14:18:54Z</time></trkpt><trkpt lat="45.59486523800229" lon="3.311542860306659"><ele>474.33333333333337</ele><time>2026-05-01T14:18:55Z</time></trkpt><trkpt lat="45.594817037566614" lon="3.311876351015653"><ele>473.66666666666663</ele><time>2026-05-01T14:18:56Z</time></trkpt><trkpt lat="45.59475958609666" lon="3.312123918471337"><ele>473.0</ele><time>2026-05-01T14:18:57Z</time></trkpt><trkpt lat="45.59466926056333" lon="3.3123310529443994"><ele>473.0</ele><time>2026-05-01T14:18:58Z</time></trkpt><trkpt lat="45.59452497391028" lon="3.3124694563949806"><ele>473.0</ele><time>2026-05-01T14:18:59Z</time></trkpt><trkpt lat="45.59432988708374" lon="3.312572867239623"><ele>473.0</ele><time>2026-05-01T14:19:00Z</time></trkpt><trkpt lat="45.594133284320506" lon="3.3125924884485216"><ele>470.66666666666663</ele><time>2026-05-01T14:19:01Z</time></trkpt><trkpt lat="45.59393226698068" lon="3.312590653935955"><ele>468.33333333333337</ele><time>2026-05-01T14:19:02Z</time></trkpt><trkpt lat="45.59377390942601" lon="3.3125980702525215"><ele>466.0</ele><time>2026-05-01T14:19:03Z</time></trkpt><trkpt lat="45.593627470984174" lon="3.312680939990574"><ele>465.0</ele><time>2026-05-01T14:19:04Z</time></trkpt><trkpt lat="45.593549810286746" lon="3.3127972812133573"><ele>464.0</ele><time>2026-05-01T14:19:05Z</time></trkpt><trkpt lat="45.59345164220054" lon="3.3129678023675218"><ele>463.0</ele><time>2026-05-01T14:19:06Z</time></trkpt><trkpt lat="45.593333653340856" lon="3.313188989588739"><ele>462.33333333333337</ele><time>2026-05-01T14:19:07Z</time></trkpt><trkpt lat="45.59323176528201" lon="3.3134153532287183"><ele>461.66666666666663</ele><time>2026-05-01T14:19:08Z</time></trkpt><trkpt lat="45.59309643613059" lon="3.3136401918106615"><ele>461.0</ele><time>2026-05-01T14:19:09Z</time></trkpt><trkpt lat="45.59294003072208" lon="3.3138377431429347"><ele>458.3333333333333</ele><time>2026-05-01T14:19:10Z</time></trkpt><trkpt lat="45.59277348539824" lon="3.3139995006687277"><ele>455.66666666666663</ele><time>2026-05-01T14:19:11Z</time></trkpt><trkpt lat="45.59257782970263" lon="3.3141312438137756"><ele>453.0</ele><time>2026-05-01T14:19:12Z</time></trkpt><trkpt lat="45.592374789364406" lon="3.314254498859288"><ele>453.0</ele><time>2026-05-01T14:19:13Z</time></trkpt><trkpt lat="45.592173535309826" lon="3.3143944460742727"><ele>453.0</ele><time>2026-05-01T14:19:14Z</time></trkpt><trkpt lat="45.59197551015358" lon="3.314516345901678"><ele>453.0</ele><time>2026-05-01T14:19:15Z</time></trkpt><trkpt lat="45.59180911525645" lon="3.3146299162630894"><ele>452.66666666666663</ele><time>2026-05-01T14:19:16Z</time></trkpt><trkpt lat="45.59167560952116" lon="3.314792662547074"><ele>452.3333333333333</ele><time>2026-05-01T14:19:17Z</time></trkpt><trkpt lat="45.591566805087595" lon="3.3150130513984055"><ele>452.0</ele><time>2026-05-01T14:19:18Z</time></trkpt><trkpt lat="45.59148133525478" lon="3.315280734951496"><ele>451.3333333333333</ele><time>2026-05-01T14:19:19Z</time></trkpt><trkpt lat="45.59145348255845" lon="3.315586458079295"><ele>450.66666666666663</ele><time>2026-05-01T14:19:20Z</time></trkpt><trkpt lat="45.59145334806127" lon="3.315879703530632"><ele>450.0</ele><time>2026-05-01T14:19:21Z</time></trkpt><trkpt lat="45.591422948506114" lon="3.3161143684752483"><ele>450.0</ele><time>2026-05-01T14:19:22Z</time></trkpt><trkpt lat="45.59133859372439" lon="3.3163255830800176"><ele>450.0</ele><time>2026-05-01T14:19:23Z</time></trkpt><trkpt lat="45.59121438425713" lon="3.3165167482834184"><ele>450.0</ele><time>2026-05-01T14:19:24Z</time></trkpt><trkpt lat="45.59104706558239" lon="3.316653918409213"><ele>450.66666666666663</ele><time>2026-05-01T14:19:25Z</time></trkpt><trkpt lat="45.59086077556271" lon="3.316744387249532"><ele>451.3333333333333</ele><time>2026-05-01T14:19:26Z</time></trkpt><trkpt lat="45.59068707170762" lon="3.316834940647002"><ele>452.0</ele><time>2026-05-01T14:19:27Z</time></trkpt><trkpt lat="45.59050819251439" lon="3.316909206803391"><ele>451.3333333333333</ele><time>2026-05-01T14:19:28Z</time></trkpt><trkpt lat="45.590310599017556" lon="3.3169996893482727"><ele>450.66666666666663</ele><time>2026-05-01T14:19:29Z</time></trkpt><trkpt lat="45.59011044586644" lon="3.317104481952392"><ele>450.0</ele><time>2026-05-01T14:19:30Z</time></trkpt><trkpt lat="45.58991198871503" lon="3.317244031894967"><ele>449.0</ele><time>2026-05-01T14:19:31Z</time></trkpt><trkpt lat="45.5897281492761" lon="3.317455940525039"><ele>448.0</ele><time>2026-05-01T14:19:32Z</time></trkpt><trkpt lat="45.58955748752826" lon="3.317696710170285"><ele>446.0</ele><time>2026-05-01T14:19:33Z</time></trkpt><trkpt lat="45.58939443273112" lon="3.3179311439681807"><ele>444.0</ele><time>2026-05-01T14:19:34Z</time></trkpt><trkpt lat="45.58922948131307" lon="3.3181633950445883"><ele>444.0</ele><time>2026-05-01T14:19:35Z</time></trkpt><trkpt lat="45.58906024689134" lon="3.318393199312153"><ele>444.0</ele><time>2026-05-01T14:19:36Z</time></trkpt><trkpt lat="45.588885834808444" lon="3.318629855918588"><ele>444.0</ele><time>2026-05-01T14:19:37Z</time></trkpt><trkpt lat="45.5887063558623" lon="3.318872853649369"><ele>444.0</ele><time>2026-05-01T14:19:38Z</time></trkpt><trkpt lat="45.588525814195826" lon="3.3191248821106574"><ele>441.0</ele><time>2026-05-01T14:19:39Z</time></trkpt><trkpt lat="45.58834120135049" lon="3.319385037709745"><ele>438.0</ele><time>2026-05-01T14:19:40Z</time></trkpt><trkpt lat="45.58815631518318" lon="3.3196462371945943"><ele>437.0</ele><time>2026-05-01T14:19:41Z</time></trkpt><trkpt lat="45.587968403325036" lon="3.319900040725245"><ele>436.0</ele><time>2026-05-01T14:19:42Z</time></trkpt><trkpt lat="45.58777642336235" lon="3.320156786954535"><ele>436.0</ele><time>2026-05-01T14:19:43Z</time></trkpt><trkpt lat="45.58758085049965" lon="3.320423273850577"><ele>436.0</ele><time>2026-05-01T14:19:44Z</time></trkpt><trkpt lat="45.58738220594356" lon="3.320692093926552"><ele>436.0</ele><time>2026-05-01T14:19:45Z</time></trkpt><trkpt lat="45.58718198231505" lon="3.320965184768652"><ele>436.0</ele><time>2026-05-01T14:19:46Z</time></trkpt><trkpt lat="45.58698468385051" lon="3.321234360536588"><ele>435.0</ele><time>2026-05-01T14:19:47Z</time></trkpt><trkpt lat="45.58678531384636" lon="3.321504772227356"><ele>434.0</ele><time>2026-05-01T14:19:48Z</time></trkpt><trkpt lat="45.58658906673917" lon="3.321776210707309"><ele>434.0</ele><time>2026-05-01T14:19:49Z</time></trkpt><trkpt lat="45.5863922554806" lon="3.3220460999512174"><ele>434.0</ele><time>2026-05-01T14:19:50.001Z</time></trkpt><trkpt lat="45.58619237724943" lon="3.322317562260771"><ele>434.0</ele><time>2026-05-01T14:19:51.001Z</time></trkpt><trkpt lat="45.58599358509932" lon="3.322587917781565"><ele>434.0</ele><time>2026-05-01T14:19:52.001Z</time></trkpt><trkpt lat="45.58579331029793" lon="3.3228589150560937"><ele>433.5</ele><time>2026-05-01T14:19:53.001Z</time></trkpt><trkpt lat="45.585595079982134" lon="3.3231268323721723"><ele>433.0</ele><time>2026-05-01T14:19:54.001Z</time></trkpt><trkpt lat="45.585401140424445" lon="3.323389924979632"><ele>434.0</ele><time>2026-05-01T14:19:55.001Z</time></trkpt><trkpt lat="45.58522584996591" lon="3.323633792441522"><ele>435.0</ele><time>2026-05-01T14:19:56.001Z</time></trkpt><trkpt lat="45.58506519042676" lon="3.3238532563571828"><ele>434.33333333333337</ele><time>2026-05-01T14:19:57.001Z</time></trkpt><trkpt lat="45.58491198834067" lon="3.3240556126429137"><ele>433.6666666666667</ele><time>2026-05-01T14:19:58.001Z</time></trkpt><trkpt lat="45.58476882953796" lon="3.324244926441929"><ele>433.0</ele><time>2026-05-01T14:19:59.001Z</time></trkpt><trkpt lat="45.58463706457173" lon="3.3244232526995776"><ele>433.0</ele><time>2026-05-01T14:20:00.001Z</time></trkpt><trkpt lat="45.58451546639186" lon="3.3245969999397533"><ele>433.0</ele><time>2026-05-01T14:20:01.001Z</time></trkpt><trkpt lat="45.5843960303016" lon="3.324779437860532"><ele>433.0</ele><time>2026-05-01T14:20:02.001Z</time></trkpt><trkpt lat="45.584274101430864" lon="3.3249581945497937"><ele>430.5</ele><time>2026-05-01T14:20:03.001Z</time></trkpt><trkpt lat="45.58416042765836" lon="3.3251369223687948"><ele>428.0</ele><time>2026-05-01T14:20:04.001Z</time></trkpt><trkpt lat="45.58431215900035" lon="3.32567849894928"><ele>427.0</ele><time>2026-05-01T14:20:05.001Z</time></trkpt><trkpt lat="45.58428860491574" lon="3.326015801629355"><ele>426.0</ele><time>2026-05-01T14:20:06.001Z</time></trkpt><trkpt lat="45.58425620002683" lon="3.326354414854287"><ele>425.0</ele><time>2026-05-01T14:20:07.001Z</time></trkpt><trkpt lat="45.58422263070591" lon="3.32666625496908"><ele>424.0</ele><time>2026-05-01T14:20:08.001Z</time></trkpt><trkpt lat="45.58419359462972" lon="3.3269519207359863"><ele>423.0</ele><time>2026-05-01T14:20:09.001Z</time></trkpt><trkpt lat="45.584164289970985" lon="3.3272195494091896"><ele>423.0</ele><time>2026-05-01T14:20:10.001Z</time></trkpt><trkpt lat="45.584105035263704" lon="3.3274607495424195"><ele>423.0</ele><time>2026-05-01T14:20:11.001Z</time></trkpt><trkpt lat="45.58400745370331" lon="3.327679225308862"><ele>423.0</ele><time>2026-05-01T14:20:12.001Z</time></trkpt><trkpt lat="45.583874974353385" lon="3.327876857089107"><ele>423.0</ele><time>2026-05-01T14:20:13.001Z</time></trkpt><trkpt lat="45.583697375329876" lon="3.3280252201378837"><ele>423.0</ele><time>2026-05-01T14:20:14.001Z</time></trkpt><trkpt lat="45.583490843384254" lon="3.328124959893566"><ele>423.0</ele><time>2026-05-01T14:20:15.001Z</time></trkpt><trkpt lat="45.58328815791794" lon="3.3281947751682597"><ele>422.66666666666663</ele><time>2026-05-01T14:20:16.001Z</time></trkpt><trkpt lat="45.58309771488728" lon="3.328212300714487"><ele>422.3333333333333</ele><time>2026-05-01T14:20:17.001Z</time></trkpt><trkpt lat="45.58292054577104" lon="3.3282033091285137"><ele>422.0</ele><time>2026-05-01T14:20:18.001Z</time></trkpt><trkpt lat="45.58278520597884" lon="3.32827779480603"><ele>422.0</ele><time>2026-05-01T14:20:19.001Z</time></trkpt><trkpt lat="45.58261499661901" lon="3.3284312825050613"><ele>422.0</ele><time>2026-05-01T14:20:20.001Z</time></trkpt><trkpt lat="45.582450466774105" lon="3.3286636675124845"><ele>422.0</ele><time>2026-05-01T14:20:21.001Z</time></trkpt><trkpt lat="45.582266207278096" lon="3.3288346843103223"><ele>421.5</ele><time>2026-05-01T14:20:22.001Z</time></trkpt><trkpt lat="45.582057442596096" lon="3.329024749747959"><ele>421.0</ele><time>2026-05-01T14:20:23.001Z</time></trkpt><trkpt lat="45.581875119281946" lon="3.329177842759143"><ele>418.5</ele><time>2026-05-01T14:20:24.001Z</time></trkpt><trkpt lat="45.581666967879706" lon="3.3293560739186794"><ele>416.0</ele><time>2026-05-01T14:20:25.001Z</time></trkpt><trkpt lat="45.581475760667644" lon="3.3295162359654573"><ele>416.0</ele><time>2026-05-01T14:20:26.001Z</time></trkpt><trkpt lat="45.581320121976965" lon="3.3296477401814695"><ele>416.0</ele><time>2026-05-01T14:20:27.001Z</time></trkpt><trkpt lat="45.58119698543595" lon="3.3297404619454714"><ele>416.0</ele><time>2026-05-01T14:20:28.001Z</time></trkpt><trkpt lat="45.581062880501165" lon="3.3297941570248035"><ele>416.66666666666663</ele><time>2026-05-01T14:20:29.001Z</time></trkpt><trkpt lat="45.580899292611754" lon="3.3297409751555445"><ele>417.33333333333337</ele><time>2026-05-01T14:20:30.001Z</time></trkpt><trkpt lat="45.58074767728121" lon="3.3295733317079144"><ele>418.0</ele><time>2026-05-01T14:20:31.001Z</time></trkpt><trkpt lat="45.58064387380807" lon="3.3293559396287247"><ele>418.0</ele><time>2026-05-01T14:20:32.001Z</time></trkpt><trkpt lat="45.58051994949724" lon="3.329206995349562"><ele>418.0</ele><time>2026-05-01T14:20:33.001Z</time></trkpt><trkpt lat="45.58034881373019" lon="3.3291178566724966"><ele>418.0</ele><time>2026-05-01T14:20:34.001Z</time></trkpt><trkpt lat="45.580148939564566" lon="3.329077409541344"><ele>418.6666666666667</ele><time>2026-05-01T14:20:35.001Z</time></trkpt><trkpt lat="45.57995858230009" lon="3.328999619142536"><ele>419.33333333333337</ele><time>2026-05-01T14:20:36.001Z</time></trkpt><trkpt lat="45.57975806359892" lon="3.3289041851025925"><ele>420.0</ele><time>2026-05-01T14:20:37.001Z</time></trkpt><trkpt lat="45.579579919141956" lon="3.328856930784021"><ele>419.33333333333337</ele><time>2026-05-01T14:20:38.001Z</time></trkpt><trkpt lat="45.57938408076912" lon="3.3288628168100955"><ele>418.6666666666667</ele><time>2026-05-01T14:20:39.001Z</time></trkpt><trkpt lat="45.579183594737515" lon="3.3289624273234506"><ele>418.0</ele><time>2026-05-01T14:20:40.001Z</time></trkpt><trkpt lat="45.57900396822095" lon="3.329122464505183"><ele>416.33333333333337</ele><time>2026-05-01T14:20:41Z</time></trkpt><trkpt lat="45.57884675082139" lon="3.3292206957584267"><ele>414.66666666666663</ele><time>2026-05-01T14:20:42Z</time></trkpt><trkpt lat="45.57871567928268" lon="3.329260038818759"><ele>413.0</ele><time>2026-05-01T14:20:43Z</time></trkpt><trkpt lat="45.57856797504445" lon="3.329190862780315"><ele>413.0</ele><time>2026-05-01T14:20:44Z</time></trkpt><trkpt lat="45.578416928064776" lon="3.329000790710271"><ele>413.0</ele><time>2026-05-01T14:20:45Z</time></trkpt><trkpt lat="45.57827243617975" lon="3.3288129604594854"><ele>413.0</ele><time>2026-05-01T14:20:46Z</time></trkpt><trkpt lat="45.57808643517761" lon="3.3287002703977975"><ele>413.0</ele><time>2026-05-01T14:20:47Z</time></trkpt><trkpt lat="45.577888096743564" lon="3.328653258445068"><ele>413.0</ele><time>2026-05-01T14:20:48Z</time></trkpt><trkpt lat="45.57771012878715" lon="3.3286725525531153"><ele>413.0</ele><time>2026-05-01T14:20:49Z</time></trkpt><trkpt lat="45.57756047490226" lon="3.3287972248010593"><ele>410.3333333333333</ele><time>2026-05-01T14:20:50Z</time></trkpt><trkpt lat="45.577454544631856" lon="3.329026851345665"><ele>407.66666666666663</ele><time>2026-05-01T14:20:51Z</time></trkpt><trkpt lat="45.577381113289455" lon="3.32930551149969"><ele>405.0</ele><time>2026-05-01T14:20:52Z</time></trkpt><trkpt lat="45.57729131787689" lon="3.329579836694036"><ele>404.0</ele><time>2026-05-01T14:20:53Z</time></trkpt><trkpt lat="45.577165048503794" lon="3.3297999715467874"><ele>403.0</ele><time>2026-05-01T14:20:54Z</time></trkpt><trkpt lat="45.57697912278789" lon="3.32988773590932"><ele>402.0</ele><time>2026-05-01T14:20:55Z</time></trkpt><trkpt lat="45.57678805557989" lon="3.3298978291859376"><ele>402.0</ele><time>2026-05-01T14:20:56Z</time></trkpt><trkpt lat="45.57666810622356" lon="3.329839737942255"><ele>402.0</ele><time>2026-05-01T14:20:57Z</time></trkpt><trkpt lat="45.57652378235789" lon="3.329779409468122"><ele>402.0</ele><time>2026-05-01T14:21:02Z</time></trkpt><trkpt lat="45.57640054951504" lon="3.329764584809124"><ele>402.0</ele><time>2026-05-01T14:21:03Z</time></trkpt><trkpt lat="45.576258927428775" lon="3.329748684135361"><ele>406.66666666666663</ele><time>2026-05-01T14:21:04Z</time></trkpt><trkpt lat="45.576119043002755" lon="3.3298010833182183"><ele>411.3333333333333</ele><time>2026-05-01T14:21:05Z</time></trkpt><trkpt lat="45.57599436197788" lon="3.3299710071376385"><ele>416.0</ele><time>2026-05-01T14:21:06Z</time></trkpt><trkpt lat="45.57592708886114" lon="3.3302479813395993"><ele>416.0</ele><time>2026-05-01T14:21:07Z</time></trkpt><trkpt lat="45.575881471632044" lon="3.3305493843449834"><ele>416.0</ele><time>2026-05-01T14:21:08Z</time></trkpt><trkpt lat="45.57579977029413" lon="3.330813393812135"><ele>416.0</ele><time>2026-05-01T14:21:09Z</time></trkpt><trkpt lat="45.575646196960165" lon="3.3310398488116877"><ele>413.0</ele><time>2026-05-01T14:21:10Z</time></trkpt><trkpt lat="45.57549327130705" lon="3.331299800758804"><ele>410.0</ele><time>2026-05-01T14:21:11Z</time></trkpt><trkpt lat="45.575365247138535" lon="3.3315688940062747"><ele>404.0</ele><time>2026-05-01T14:21:12Z</time></trkpt><trkpt lat="45.575337811662536" lon="3.331906907609076"><ele>398.0</ele><time>2026-05-01T14:21:13Z</time></trkpt><trkpt lat="45.57538146114739" lon="3.332285480418624"><ele>398.0</ele><time>2026-05-01T14:21:14Z</time></trkpt><trkpt lat="45.575369471717515" lon="3.3326620392033712"><ele>398.0</ele><time>2026-05-01T14:21:15Z</time></trkpt><trkpt lat="45.57532885728017" lon="3.3329942711848353"><ele>403.0</ele><time>2026-05-01T14:21:16Z</time></trkpt><trkpt lat="45.57527939834223" lon="3.3333321603433532"><ele>408.0</ele><time>2026-05-01T14:21:17Z</time></trkpt><trkpt lat="45.57529427387858" lon="3.3336839499184414"><ele>403.0</ele><time>2026-05-01T14:21:18Z</time></trkpt><trkpt lat="45.575397070944874" lon="3.3340417548487187"><ele>398.0</ele><time>2026-05-01T14:21:19Z</time></trkpt><trkpt lat="45.57549870771923" lon="3.3344027878635405"><ele>399.5</ele><time>2026-05-01T14:21:20Z</time></trkpt><trkpt lat="45.57559378820736" lon="3.334765033159905"><ele>401.0</ele><time>2026-05-01T14:21:21Z</time></trkpt><trkpt lat="45.57568104903439" lon="3.3351272973051"><ele>401.0</ele><time>2026-05-01T14:21:22Z</time></trkpt><trkpt lat="45.57577190146645" lon="3.335487737754449"><ele>401.0</ele><time>2026-05-01T14:21:23Z</time></trkpt><trkpt lat="45.57585706387486" lon="3.3358470260761144"><ele>402.5</ele><time>2026-05-01T14:21:24Z</time></trkpt><trkpt lat="45.575942336289266" lon="3.33620843065465"><ele>404.0</ele><time>2026-05-01T14:21:25Z</time></trkpt><trkpt lat="45.57603311855813" lon="3.3365724425185666"><ele>405.5</ele><time>2026-05-01T14:21:26Z</time></trkpt><trkpt lat="45.57612351468823" lon="3.336919009726629"><ele>407.0</ele><time>2026-05-01T14:21:27Z</time></trkpt><trkpt lat="45.57617041814124" lon="3.3372492215416805"><ele>408.0</ele><time>2026-05-01T14:21:28Z</time></trkpt><trkpt lat="45.57618188582822" lon="3.337581202017697"><ele>409.0</ele><time>2026-05-01T14:21:29Z</time></trkpt><trkpt lat="45.576154809685" lon="3.3379427054235435"><ele>409.0</ele><time>2026-05-01T14:21:30Z</time></trkpt><trkpt lat="45.576124305877286" lon="3.3383122410759927"><ele>409.0</ele><time>2026-05-01T14:21:31Z</time></trkpt><trkpt lat="45.576105568582925" lon="3.33869832959544"><ele>408.5</ele><time>2026-05-01T14:21:32Z</time></trkpt><trkpt lat="45.576068463221276" lon="3.339087900739071"><ele>408.0</ele><time>2026-05-01T14:21:33Z</time></trkpt><trkpt lat="45.576017013068565" lon="3.3394743947615932"><ele>410.5</ele><time>2026-05-01T14:21:34Z</time></trkpt><trkpt lat="45.575980475472946" lon="3.3398643727154957"><ele>413.0</ele><time>2026-05-01T14:21:35Z</time></trkpt><trkpt lat="45.575943816001725" lon="3.3402546972552223"><ele>414.5</ele><time>2026-05-01T14:21:36Z</time></trkpt><trkpt lat="45.575907263563266" lon="3.340646374513005"><ele>416.0</ele><time>2026-05-01T14:21:37Z</time></trkpt><trkpt lat="45.57588430960238" lon="3.341034122448315"><ele>417.0</ele><time>2026-05-01T14:21:38Z</time></trkpt><trkpt lat="45.575852844344176" lon="3.341409939195679"><ele>418.0</ele><time>2026-05-01T14:21:39Z</time></trkpt><trkpt lat="45.57582474592354" lon="3.341767541841077"><ele>418.0</ele><time>2026-05-01T14:21:40Z</time></trkpt><trkpt lat="45.57576264441102" lon="3.3420805697395966"><ele>418.0</ele><time>2026-05-01T14:21:41Z</time></trkpt><trkpt lat="45.57565459588403" lon="3.3423563530880567"><ele>418.0</ele><time>2026-05-01T14:21:42Z</time></trkpt><trkpt lat="45.57548349476404" lon="3.342610954779368"><ele>420.5</ele><time>2026-05-01T14:21:43Z</time></trkpt><trkpt lat="45.57530234991151" lon="3.342862495771087"><ele>423.0</ele><time>2026-05-01T14:21:44Z</time></trkpt><trkpt lat="45.57513045525439" lon="3.3431182925266327"><ele>423.0</ele><time>2026-05-01T14:21:45Z</time></trkpt><trkpt lat="45.57494338830045" lon="3.343352383294654"><ele>423.0</ele><time>2026-05-01T14:21:46Z</time></trkpt><trkpt lat="45.57475865161736" lon="3.343608091135806"><ele>423.0</ele><time>2026-05-01T14:21:47Z</time></trkpt><trkpt lat="45.5745724250678" lon="3.3438621170336864"><ele>423.0</ele><time>2026-05-01T14:21:48Z</time></trkpt><trkpt lat="45.57438391120865" lon="3.344110890530569"><ele>423.5</ele><time>2026-05-01T14:21:49Z</time></trkpt><trkpt lat="45.57419395232976" lon="3.344362952779319"><ele>424.0</ele><time>2026-05-01T14:21:50Z</time></trkpt><trkpt lat="45.57400411505982" lon="3.344614514055152"><ele>424.5</ele><time>2026-05-01T14:21:51Z</time></trkpt><trkpt lat="45.573812108981876" lon="3.3448657094356142"><ele>425.0</ele><time>2026-05-01T14:21:52Z</time></trkpt><trkpt lat="45.57362079123948" lon="3.3451209052952113"><ele>425.5</ele><time>2026-05-01T14:21:53Z</time></trkpt><trkpt lat="45.573432198438695" lon="3.34538176226767"><ele>426.0</ele><time>2026-05-01T14:21:54Z</time></trkpt><trkpt lat="45.57324266011574" lon="3.345646949230476"><ele>426.5</ele><time>2026-05-01T14:21:55Z</time></trkpt><trkpt lat="45.57304744094066" lon="3.3459106166782986"><ele>427.0</ele><time>2026-05-01T14:21:56Z</time></trkpt><trkpt lat="45.5728496197099" lon="3.346168860229966"><ele>428.0</ele><time>2026-05-01T14:21:57Z</time></trkpt><trkpt lat="45.57265487835416" lon="3.346432896560213"><ele>429.0</ele><time>2026-05-01T14:21:58.001Z</time></trkpt><trkpt lat="45.572461996844254" lon="3.3466977744777453"><ele>429.0</ele><time>2026-05-01T14:21:59.001Z</time></trkpt><trkpt lat="45.572264960365594" lon="3.3469647618044203"><ele>429.0</ele><time>2026-05-01T14:22:00.001Z</time></trkpt><trkpt lat="45.5720585790078" lon="3.3472176396788123"><ele>431.5</ele><time>2026-05-01T14:22:01.001Z</time></trkpt><trkpt lat="45.57185698267512" lon="3.3474603154050597"><ele>434.0</ele><time>2026-05-01T14:22:02.001Z</time></trkpt><trkpt lat="45.571627996769756" lon="3.3476437619351547"><ele>434.0</ele><time>2026-05-01T14:22:03.001Z</time></trkpt><trkpt lat="45.5713750938453" lon="3.3477901402231"><ele>434.0</ele><time>2026-05-01T14:22:04.001Z</time></trkpt><trkpt lat="45.57115027171392" lon="3.347968998748144"><ele>438.5</ele><time>2026-05-01T14:22:05.001Z</time></trkpt><trkpt lat="45.57091643567695" lon="3.348127349107825"><ele>443.0</ele><time>2026-05-01T14:22:06.001Z</time></trkpt><trkpt lat="45.57060575597096" lon="3.3480617442923677"><ele>444.5</ele><time>2026-05-01T14:22:07.001Z</time></trkpt><trkpt lat="45.57034974307419" lon="3.348156699383093"><ele>446.0</ele><time>2026-05-01T14:22:08.001Z</time></trkpt><trkpt lat="45.57009236315098" lon="3.348238492457289"><ele>446.0</ele><time>2026-05-01T14:22:09.001Z</time></trkpt><trkpt lat="45.56984089062" lon="3.3483309548760447"><ele>446.0</ele><time>2026-05-01T14:22:10.001Z</time></trkpt><trkpt lat="45.56959009413466" lon="3.348423172808179"><ele>447.5</ele><time>2026-05-01T14:22:11.001Z</time></trkpt><trkpt lat="45.56933985561872" lon="3.348518549283904"><ele>449.0</ele><time>2026-05-01T14:22:12.001Z</time></trkpt><trkpt lat="45.56910904322186" lon="3.3486033308460357"><ele>449.0</ele><time>2026-05-01T14:22:13.001Z</time></trkpt><trkpt lat="45.568905035167376" lon="3.348679588085369"><ele>449.0</ele><time>2026-05-01T14:22:14.001Z</time></trkpt><trkpt lat="45.56871224820555" lon="3.348792711661396"><ele>449.0</ele><time>2026-05-01T14:22:15.001Z</time></trkpt><trkpt lat="45.56852409296405" lon="3.348956199041061"><ele>452.5</ele><time>2026-05-01T14:22:16.001Z</time></trkpt><trkpt lat="45.568337235563824" lon="3.349145773978509"><ele>456.0</ele><time>2026-05-01T14:22:17.001Z</time></trkpt><trkpt lat="45.56814088795651" lon="3.3493350576623935"><ele>456.0</ele><time>2026-05-01T14:22:18.001Z</time></trkpt><trkpt lat="45.567942663607084" lon="3.349532717707815"><ele>456.0</ele><time>2026-05-01T14:22:19.001Z</time></trkpt><trkpt lat="45.56773788696308" lon="3.349729014200883"><ele>457.5</ele><time>2026-05-01T14:22:20.001Z</time></trkpt><trkpt lat="45.56752574319816" lon="3.3499275885197752"><ele>459.0</ele><time>2026-05-01T14:22:21.001Z</time></trkpt><trkpt lat="45.56731200498894" lon="3.3501289103553975"><ele>459.0</ele><time>2026-05-01T14:22:22.001Z</time></trkpt><trkpt lat="45.56709976450758" lon="3.3503287883661237"><ele>459.0</ele><time>2026-05-01T14:22:23.001Z</time></trkpt><trkpt lat="45.56688555522119" lon="3.3505336743109675"><ele>461.5</ele><time>2026-05-01T14:22:24.001Z</time></trkpt><trkpt lat="45.56667026356485" lon="3.3507364387247494"><ele>464.0</ele><time>2026-05-01T14:22:25.001Z</time></trkpt><trkpt lat="45.56645211693788" lon="3.3509441650133494"><ele>464.0</ele><time>2026-05-01T14:22:26.001Z</time></trkpt><trkpt lat="45.566235851076485" lon="3.351155911152846"><ele>464.0</ele><time>2026-05-01T14:22:27.001Z</time></trkpt><trkpt lat="45.5660162690352" lon="3.3513682240154723"><ele>466.5</ele><time>2026-05-01T14:22:28.001Z</time></trkpt><trkpt lat="45.5657945694456" lon="3.3515842250125303"><ele>469.0</ele><time>2026-05-01T14:22:29.001Z</time></trkpt><trkpt lat="45.565565820016126" lon="3.351800536262395"><ele>469.5</ele><time>2026-05-01T14:22:30.001Z</time></trkpt><trkpt lat="45.56533923298411" lon="3.3520173956306385"><ele>470.0</ele><time>2026-05-01T14:22:31.001Z</time></trkpt><trkpt lat="45.56511121804135" lon="3.352239846245605"><ele>471.5</ele><time>2026-05-01T14:22:32.001Z</time></trkpt><trkpt lat="45.56488089095641" lon="3.3524642868521237"><ele>473.0</ele><time>2026-05-01T14:22:33.001Z</time></trkpt><trkpt lat="45.56464804452181" lon="3.3526838561174084"><ele>474.0</ele><time>2026-05-01T14:22:34.001Z</time></trkpt><trkpt lat="45.564410041241594" lon="3.35289681578644"><ele>475.0</ele><time>2026-05-01T14:22:35.001Z</time></trkpt><trkpt lat="45.56416534321148" lon="3.353094772320035"><ele>475.0</ele><time>2026-05-01T14:22:36.001Z</time></trkpt><trkpt lat="45.56391450939906" lon="3.3532773582145916"><ele>475.0</ele><time>2026-05-01T14:22:37.001Z</time></trkpt><trkpt lat="45.56366273286386" lon="3.3534692515376676"><ele>475.0</ele><time>2026-05-01T14:22:38.001Z</time></trkpt><trkpt lat="45.563408887436125" lon="3.353657984805662"><ele>475.0</ele><time>2026-05-01T14:22:39.001Z</time></trkpt><trkpt lat="45.5631512090473" lon="3.3538463688132265"><ele>476.5</ele><time>2026-05-01T14:22:40.001Z</time></trkpt><trkpt lat="45.56289502474933" lon="3.354029797176113"><ele>478.0</ele><time>2026-05-01T14:22:41.001Z</time></trkpt><trkpt lat="45.56264995163634" lon="3.354219598693821"><ele>478.0</ele><time>2026-05-01T14:22:42.001Z</time></trkpt><trkpt lat="45.56240487653627" lon="3.3543992145647255"><ele>478.0</ele><time>2026-05-01T14:22:43.001Z</time></trkpt><trkpt lat="45.56216435374309" lon="3.3545833946794534"><ele>479.0</ele><time>2026-05-01T14:22:44.001Z</time></trkpt><trkpt lat="45.561919123038365" lon="3.3547671034435647"><ele>480.0</ele><time>2026-05-01T14:22:45.001Z</time></trkpt><trkpt lat="45.561679694937595" lon="3.3549471268765045"><ele>480.0</ele><time>2026-05-01T14:22:46.001Z</time></trkpt><trkpt lat="45.561444846361354" lon="3.355116433214611"><ele>480.0</ele><time>2026-05-01T14:22:47Z</time></trkpt><trkpt lat="45.56123256659293" lon="3.355271473527815"><ele>479.66666666666663</ele><time>2026-05-01T14:22:48Z</time></trkpt><trkpt lat="45.56104329491712" lon="3.3554131119014685"><ele>479.3333333333333</ele><time>2026-05-01T14:22:49Z</time></trkpt><trkpt lat="45.56088826262993" lon="3.35552540988965"><ele>479.0</ele><time>2026-05-01T14:22:50Z</time></trkpt><trkpt lat="45.560760965645905" lon="3.3556159005004025"><ele>478.66666666666663</ele><time>2026-05-01T14:22:51Z</time></trkpt><trkpt lat="45.560644119096494" lon="3.3557283335379333"><ele>478.33333333333337</ele><time>2026-05-01T14:22:52Z</time></trkpt><trkpt lat="45.560545231227145" lon="3.3559055490154117"><ele>478.0</ele><time>2026-05-01T14:22:53Z</time></trkpt><trkpt lat="45.560481145789545" lon="3.3561344652680605"><ele>478.0</ele><time>2026-05-01T14:22:54Z</time></trkpt><trkpt lat="45.560454671796016" lon="3.3564113271881775"><ele>478.0</ele><time>2026-05-01T14:22:55Z</time></trkpt><trkpt lat="45.560424653355945" lon="3.3566998472437946"><ele>478.0</ele><time>2026-05-01T14:22:56Z</time></trkpt><trkpt lat="45.560388206889854" lon="3.357016100321"><ele>474.5</ele><time>2026-05-01T14:22:57Z</time></trkpt><trkpt lat="45.5603253247982" lon="3.3573328888525533"><ele>471.0</ele><time>2026-05-01T14:22:58Z</time></trkpt><trkpt lat="45.56021918054837" lon="3.3576507812882674"><ele>471.0</ele><time>2026-05-01T14:22:59Z</time></trkpt><trkpt lat="45.56007745648017" lon="3.357960106960151"><ele>471.0</ele><time>2026-05-01T14:23:00Z</time></trkpt><trkpt lat="45.559929625697265" lon="3.358253613270179"><ele>469.66666666666663</ele><time>2026-05-01T14:23:01Z</time></trkpt><trkpt lat="45.55978322516358" lon="3.3584950397715922"><ele>468.3333333333333</ele><time>2026-05-01T14:23:02Z</time></trkpt><trkpt lat="45.55961393917477" lon="3.35870070650671"><ele>467.0</ele><time>2026-05-01T14:23:03Z</time></trkpt><trkpt lat="45.5594214127662" lon="3.358876816128721"><ele>466.3333333333333</ele><time>2026-05-01T14:23:04Z</time></trkpt><trkpt lat="45.55921478472171" lon="3.3590228627638234"><ele>465.66666666666663</ele><time>2026-05-01T14:23:05Z</time></trkpt><trkpt lat="45.55902914024835" lon="3.359182623025216"><ele>465.0</ele><time>2026-05-01T14:23:06Z</time></trkpt><trkpt lat="45.55886637224528" lon="3.3593891212819176"><ele>465.0</ele><time>2026-05-01T14:23:07Z</time></trkpt><trkpt lat="45.55873432199635" lon="3.3596188002505984"><ele>465.0</ele><time>2026-05-01T14:23:08Z</time></trkpt><trkpt lat="45.5586174695071" lon="3.3598732246319947"><ele>465.0</ele><time>2026-05-01T14:23:09Z</time></trkpt><trkpt lat="45.5585252302463" lon="3.360126840918853"><ele>464.0</ele><time>2026-05-01T14:23:10Z</time></trkpt><trkpt lat="45.55846487457703" lon="3.360337870481563"><ele>463.0</ele><time>2026-05-01T14:23:11Z</time></trkpt><trkpt lat="45.55842079121803" lon="3.3605514735089677"><ele>462.0</ele><time>2026-05-01T14:23:12Z</time></trkpt><trkpt lat="45.55842891069927" lon="3.3608193829037885"><ele>461.0</ele><time>2026-05-01T14:23:13Z</time></trkpt><trkpt lat="45.55847510979083" lon="3.3611230228668036"><ele>460.0</ele><time>2026-05-01T14:23:14Z</time></trkpt><trkpt lat="45.558484317861605" lon="3.3614277583500387"><ele>459.0</ele><time>2026-05-01T14:23:15Z</time></trkpt><trkpt lat="45.55843342849245" lon="3.3617352675035534"><ele>458.0</ele><time>2026-05-01T14:23:16Z</time></trkpt><trkpt lat="45.558347107832745" lon="3.362071554274673"><ele>457.0</ele><time>2026-05-01T14:23:17Z</time></trkpt><trkpt lat="45.55824610640094" lon="3.362409452813964"><ele>456.0</ele><time>2026-05-01T14:23:18Z</time></trkpt><trkpt lat="45.55813249886617" lon="3.3627074402984083"><ele>455.0</ele><time>2026-05-01T14:23:19Z</time></trkpt><trkpt lat="45.55797214383708" lon="3.3629482332471086"><ele>453.5</ele><time>2026-05-01T14:23:20Z</time></trkpt><trkpt lat="45.557763179122546" lon="3.363141735047944"><ele>452.0</ele><time>2026-05-01T14:23:21Z</time></trkpt><trkpt lat="45.55751890869583" lon="3.3633133537506055"><ele>452.0</ele><time>2026-05-01T14:23:22Z</time></trkpt><trkpt lat="45.55727989213713" lon="3.3634850939098273"><ele>452.0</ele><time>2026-05-01T14:23:23Z</time></trkpt><trkpt lat="45.55704239168271" lon="3.363673067624379"><ele>451.0</ele><time>2026-05-01T14:23:24Z</time></trkpt><trkpt lat="45.5567893544743" lon="3.363846577792999"><ele>450.0</ele><time>2026-05-01T14:23:25Z</time></trkpt><trkpt lat="45.55652984963135" lon="3.364025951636192"><ele>450.0</ele><time>2026-05-01T14:23:26Z</time></trkpt><trkpt lat="45.55627838131531" lon="3.3641669868605866"><ele>450.0</ele><time>2026-05-01T14:23:27Z</time></trkpt><trkpt lat="45.55605511417699" lon="3.364278892703864"><ele>448.66666666666663</ele><time>2026-05-01T14:23:28Z</time></trkpt><trkpt lat="45.55584932430584" lon="3.3643864074840515"><ele>447.3333333333333</ele><time>2026-05-01T14:23:29Z</time></trkpt><trkpt lat="45.55564601518782" lon="3.364508887859112"><ele>446.0</ele><time>2026-05-01T14:23:30Z</time></trkpt><trkpt lat="45.555453043751676" lon="3.3646653107006697"><ele>447.0</ele><time>2026-05-01T14:23:31Z</time></trkpt><trkpt lat="45.55527320971981" lon="3.3648597318167357"><ele>448.0</ele><time>2026-05-01T14:23:32Z</time></trkpt><trkpt lat="45.555098451283314" lon="3.365080870233383"><ele>448.0</ele><time>2026-05-01T14:23:33Z</time></trkpt><trkpt lat="45.55493931776179" lon="3.3652947083517937"><ele>448.0</ele><time>2026-05-01T14:23:34Z</time></trkpt><trkpt lat="45.554758736058915" lon="3.3654601094123415"><ele>448.0</ele><time>2026-05-01T14:23:35Z</time></trkpt><trkpt lat="45.55454360072858" lon="3.3655304498436327"><ele>447.0</ele><time>2026-05-01T14:23:36Z</time></trkpt><trkpt lat="45.55430016580568" lon="3.3655956067384913"><ele>446.0</ele><time>2026-05-01T14:23:37Z</time></trkpt><trkpt lat="45.554041184824385" lon="3.365648432408069"><ele>446.0</ele><time>2026-05-01T14:23:38Z</time></trkpt><trkpt lat="45.55379508916653" lon="3.365609825951927"><ele>446.0</ele><time>2026-05-01T14:23:39Z</time></trkpt><trkpt lat="45.55353024814916" lon="3.365530539616389"><ele>444.5</ele><time>2026-05-01T14:23:40Z</time></trkpt><trkpt lat="45.5532600530521" lon="3.3655124331565434"><ele>443.0</ele><time>2026-05-01T14:23:41Z</time></trkpt><trkpt lat="45.55299730359968" lon="3.3654876406358443"><ele>446.0</ele><time>2026-05-01T14:23:42Z</time></trkpt><trkpt lat="45.55272494346042" lon="3.3654564871958006"><ele>449.0</ele><time>2026-05-01T14:23:43Z</time></trkpt><trkpt lat="45.55246418270973" lon="3.3654712868114856"><ele>449.0</ele><time>2026-05-01T14:23:44Z</time></trkpt><trkpt lat="45.55224570611012" lon="3.36548099299135"><ele>449.0</ele><time>2026-05-01T14:23:45Z</time></trkpt><trkpt lat="45.55207942471616" lon="3.365521370556249"><ele>449.0</ele><time>2026-05-01T14:23:46Z</time></trkpt><trkpt lat="45.55194953012968" lon="3.3656492209809215"><ele>451.66666666666663</ele><time>2026-05-01T14:23:47Z</time></trkpt><trkpt lat="45.55186618303335" lon="3.3658820877243407"><ele>454.33333333333337</ele><time>2026-05-01T14:23:48Z</time></trkpt><trkpt lat="45.55177358658695" lon="3.366131749812673"><ele>457.0</ele><time>2026-05-01T14:23:49Z</time></trkpt><trkpt lat="45.55170626136456" lon="3.366353187551979"><ele>457.0</ele><time>2026-05-01T14:23:50Z</time></trkpt><trkpt lat="45.55164038375235" lon="3.366540777397816"><ele>457.0</ele><time>2026-05-01T14:23:51Z</time></trkpt><trkpt lat="45.55157133561904" lon="3.3667056103033492"><ele>457.0</ele><time>2026-05-01T14:23:52Z</time></trkpt><trkpt lat="45.55150256909838" lon="3.3668808353645416"><ele>457.0</ele><time>2026-05-01T14:23:53Z</time></trkpt><trkpt lat="45.55143679305184" lon="3.367058397217122"><ele>456.75</ele><time>2026-05-01T14:23:54Z</time></trkpt><trkpt lat="45.5513722264646" lon="3.3672317781994097"><ele>456.5</ele><time>2026-05-01T14:23:55Z</time></trkpt><trkpt lat="45.55130585678242" lon="3.3674031723795257"><ele>456.25</ele><time>2026-05-01T14:23:56Z</time></trkpt><trkpt lat="45.55124239907082" lon="3.36756876113769"><ele>456.0</ele><time>2026-05-01T14:23:57Z</time></trkpt><trkpt lat="45.55117935568422" lon="3.367725561169288"><ele>454.5</ele><time>2026-05-01T14:23:58Z</time></trkpt><trkpt lat="45.551118759083415" lon="3.367881757955104"><ele>453.0</ele><time>2026-05-01T14:23:59Z</time></trkpt><trkpt lat="45.551064468685034" lon="3.368029670422872"><ele>451.5</ele><time>2026-05-01T14:24:00Z</time></trkpt><trkpt lat="45.551015378984026" lon="3.368167496821955"><ele>450.0</ele><time>2026-05-01T14:24:01Z</time></trkpt><trkpt lat="45.550970648197264" lon="3.368295665969252"><ele>450.0</ele><time>2026-05-01T14:24:02Z</time></trkpt><trkpt lat="45.55093254028171" lon="3.368381759450921"><ele>450.0</ele><time>2026-05-01T14:24:03Z</time></trkpt><trkpt lat="45.55088438294306" lon="3.3684959027990553"><ele>450.0</ele><time>2026-05-01T14:24:05.001Z</time></trkpt><trkpt lat="45.550844563906104" lon="3.368583288992341"><ele>450.0</ele><time>2026-05-01T14:24:07.001Z</time></trkpt><trkpt lat="45.550791408539055" lon="3.368633581760327"><ele>450.0</ele><time>2026-05-01T14:24:09.001Z</time></trkpt><trkpt lat="45.55071822833862" lon="3.368708033261495"><ele>450.0</ele><time>2026-05-01T14:24:12.001Z</time></trkpt><trkpt lat="45.550729006239905" lon="3.3688611447479984"><ele>450.4</ele><time>2026-05-01T14:24:13.001Z</time></trkpt><trkpt lat="45.55071208266624" lon="3.3689853890985697"><ele>450.8</ele><time>2026-05-01T14:24:14.001Z</time></trkpt><trkpt lat="45.550688894495" lon="3.3691260966230927"><ele>451.20000000000005</ele><time>2026-05-01T14:24:15.001Z</time></trkpt><trkpt lat="45.55064383123774" lon="3.369268390172309"><ele>451.6</ele><time>2026-05-01T14:24:16.001Z</time></trkpt><trkpt lat="45.55061152158272" lon="3.3694230675414985"><ele>452.0</ele><time>2026-05-01T14:24:17.001Z</time></trkpt><trkpt lat="45.550581201676344" lon="3.3695719197063263"><ele>451.40000000000003</ele><time>2026-05-01T14:24:18.001Z</time></trkpt><trkpt lat="45.55055085261535" lon="3.3697213664362944"><ele>450.80000000000007</ele><time>2026-05-01T14:24:19.001Z</time></trkpt><trkpt lat="45.550539049563525" lon="3.369866811442973"><ele>450.2</ele><time>2026-05-01T14:24:20.001Z</time></trkpt><trkpt lat="45.55051326570128" lon="3.3699970410815836"><ele>449.6</ele><time>2026-05-01T14:24:21.001Z</time></trkpt><trkpt lat="45.55048938702754" lon="3.3701052439759533"><ele>449.0</ele><time>2026-05-01T14:24:22.001Z</time></trkpt><trkpt lat="45.55046766445279" lon="3.3702062397646264"><ele>449.0</ele><time>2026-05-01T14:24:23.001Z</time></trkpt><trkpt lat="45.55044887456885" lon="3.37035646645153"><ele>449.0</ele><time>2026-05-01T14:24:25.001Z</time></trkpt><trkpt lat="45.55042345282178" lon="3.370502814224887"><ele>449.0</ele><time>2026-05-01T14:24:35.001Z</time></trkpt><trkpt lat="45.550385844523404" lon="3.3706750223441584"><ele>449.0</ele><time>2026-05-01T14:24:37.001Z</time></trkpt><trkpt lat="45.55043030838651" lon="3.3707977718962394"><ele>449.0</ele><time>2026-05-01T14:24:38.001Z</time></trkpt><trkpt lat="45.55047323570254" lon="3.370917718678285"><ele>449.0</ele><time>2026-05-01T14:24:39.001Z</time></trkpt><trkpt lat="45.55052683556269" lon="3.371042461216541"><ele>449.0</ele><time>2026-05-01T14:24:40.001Z</time></trkpt><trkpt lat="45.55056208012561" lon="3.371173713671551"><ele>449.0</ele><time>2026-05-01T14:24:41.001Z</time></trkpt><trkpt lat="45.550643853576695" lon="3.3712717498462195"><ele>449.0</ele><time>2026-05-01T14:24:42.001Z</time></trkpt><trkpt lat="45.55069908221462" lon="3.37139597824316"><ele>449.0</ele><time>2026-05-01T14:24:43.001Z</time></trkpt><trkpt lat="45.55074184792918" lon="3.3715333135490315"><ele>450.0</ele><time>2026-05-01T14:24:44.001Z</time></trkpt><trkpt lat="45.550791166751985" lon="3.371669727834587"><ele>451.0</ele><time>2026-05-01T14:24:45.001Z</time></trkpt><trkpt lat="45.550847760147064" lon="3.3718042152553345"><ele>452.0</ele><time>2026-05-01T14:24:46.001Z</time></trkpt><trkpt lat="45.55090106030372" lon="3.371936146230456"><ele>453.0</ele><time>2026-05-01T14:24:47.001Z</time></trkpt><trkpt lat="45.5509574563611" lon="3.3720726266671592"><ele>454.0</ele><time>2026-05-01T14:24:48.001Z</time></trkpt><trkpt lat="45.55099622717184" lon="3.372207202068817"><ele>454.2</ele><time>2026-05-01T14:24:49.001Z</time></trkpt><trkpt lat="45.55104180057956" lon="3.3723362460856836"><ele>454.4</ele><time>2026-05-01T14:24:50.001Z</time></trkpt><trkpt lat="45.55109519490984" lon="3.3724551633244504"><ele>454.6</ele><time>2026-05-01T14:24:51.001Z</time></trkpt><trkpt lat="45.551150573123294" lon="3.372569724222264"><ele>454.8</ele><time>2026-05-01T14:24:52.001Z</time></trkpt><trkpt lat="45.55119380673028" lon="3.3726877611681227"><ele>455.0</ele><time>2026-05-01T14:24:53Z</time></trkpt><trkpt lat="45.55121768865309" lon="3.37280655104543"><ele>455.6</ele><time>2026-05-01T14:24:54Z</time></trkpt><trkpt lat="45.551243799343915" lon="3.372939367584389"><ele>456.2</ele><time>2026-05-01T14:24:55Z</time></trkpt><trkpt lat="45.55127995028283" lon="3.3730581435330365"><ele>456.79999999999995</ele><time>2026-05-01T14:24:56Z</time></trkpt><trkpt lat="45.55131144374356" lon="3.3731865466354676"><ele>457.4</ele><time>2026-05-01T14:24:57Z</time></trkpt><trkpt lat="45.55134258319005" lon="3.3733155230998273"><ele>458.0</ele><time>2026-05-01T14:24:58Z</time></trkpt><trkpt lat="45.551375411127985" lon="3.3734474042471465"><ele>458.59999999999997</ele><time>2026-05-01T14:24:59Z</time></trkpt><trkpt lat="45.55140926252869" lon="3.3735793422764564"><ele>459.19999999999993</ele><time>2026-05-01T14:25:00Z</time></trkpt><trkpt lat="45.551449600648496" lon="3.373708667312333"><ele>459.8</ele><time>2026-05-01T14:25:01Z</time></trkpt><trkpt lat="45.55148736436769" lon="3.373834675021232"><ele>460.4</ele><time>2026-05-01T14:25:02Z</time></trkpt><trkpt lat="45.55152477395776" lon="3.373973342571638"><ele>461.0</ele><time>2026-05-01T14:25:03Z</time></trkpt><trkpt lat="45.5515637526824" lon="3.374123593692354"><ele>461.5</ele><time>2026-05-01T14:25:04Z</time></trkpt><trkpt lat="45.55158553896922" lon="3.374290493739161"><ele>462.0</ele><time>2026-05-01T14:25:05Z</time></trkpt><trkpt lat="45.55164189751623" lon="3.3744437538117573"><ele>462.5</ele><time>2026-05-01T14:25:06Z</time></trkpt><trkpt lat="45.55168132241104" lon="3.374613447181251"><ele>463.0</ele><time>2026-05-01T14:25:07Z</time></trkpt><trkpt lat="45.551723372036584" lon="3.374789979094331"><ele>463.0</ele><time>2026-05-01T14:25:08Z</time></trkpt><trkpt lat="45.551766827184665" lon="3.374973094534701"><ele>463.0</ele><time>2026-05-01T14:25:09Z</time></trkpt><trkpt lat="45.55181261707452" lon="3.3751670792741195"><ele>463.0</ele><time>2026-05-01T14:25:10Z</time></trkpt><trkpt lat="45.5518630570966" lon="3.3753740976010946"><ele>463.0</ele><time>2026-05-01T14:25:11Z</time></trkpt><trkpt lat="45.551915962519466" lon="3.3755861706353487"><ele>462.6666666666667</ele><time>2026-05-01T14:25:12Z</time></trkpt><trkpt lat="45.55196853466849" lon="3.3757951074590244"><ele>462.33333333333337</ele><time>2026-05-01T14:25:13Z</time></trkpt><trkpt lat="45.552019798527056" lon="3.376007383417631"><ele>462.0</ele><time>2026-05-01T14:25:14Z</time></trkpt><trkpt lat="45.5520772293682" lon="3.376214155952709"><ele>463.0</ele><time>2026-05-01T14:25:15Z</time></trkpt><trkpt lat="45.55213062334077" lon="3.3764200478859645"><ele>464.0</ele><time>2026-05-01T14:25:16Z</time></trkpt><trkpt lat="45.55217884787602" lon="3.3766165266284367"><ele>465.0</ele><time>2026-05-01T14:25:17Z</time></trkpt><trkpt lat="45.55222228473667" lon="3.376805990966628"><ele>466.0</ele><time>2026-05-01T14:25:18Z</time></trkpt><trkpt lat="45.55224771847691" lon="3.3770095191804574"><ele>467.33333333333337</ele><time>2026-05-01T14:25:19Z</time></trkpt><trkpt lat="45.55224277783491" lon="3.37722467997596"><ele>468.66666666666663</ele><time>2026-05-01T14:25:20Z</time></trkpt><trkpt lat="45.55221429567668" lon="3.377448588896617"><ele>470.0</ele><time>2026-05-01T14:25:21Z</time></trkpt><trkpt lat="45.55218242835705" lon="3.377682959622403"><ele>470.0</ele><time>2026-05-01T14:25:22Z</time></trkpt><trkpt lat="45.55214727312503" lon="3.377936346804491"><ele>470.0</ele><time>2026-05-01T14:25:23Z</time></trkpt><trkpt lat="45.55211258330921" lon="3.378192697577867"><ele>470.0</ele><time>2026-05-01T14:25:24Z</time></trkpt><trkpt lat="45.55207630414906" lon="3.378457400054831"><ele>470.0</ele><time>2026-05-01T14:25:25Z</time></trkpt><trkpt lat="45.55204198111498" lon="3.3787262389728534"><ele>470.0</ele><time>2026-05-01T14:25:26Z</time></trkpt><trkpt lat="45.55200679612958" lon="3.3789940885807153"><ele>470.0</ele><time>2026-05-01T14:25:27Z</time></trkpt><trkpt lat="45.551968772267" lon="3.379260263088187"><ele>469.0</ele><time>2026-05-01T14:25:28Z</time></trkpt><trkpt lat="45.55193327192719" lon="3.379512208735775"><ele>468.0</ele><time>2026-05-01T14:25:29Z</time></trkpt><trkpt lat="45.55190472056932" lon="3.3797484773312014"><ele>467.0</ele><time>2026-05-01T14:25:30Z</time></trkpt><trkpt lat="45.551872614827616" lon="3.379979380636277"><ele>467.0</ele><time>2026-05-01T14:25:31Z</time></trkpt><trkpt lat="45.55184025627031" lon="3.380205754788919"><ele>467.0</ele><time>2026-05-01T14:25:32Z</time></trkpt><trkpt lat="45.55181048786375" lon="3.3804310330471146"><ele>467.0</ele><time>2026-05-01T14:25:33Z</time></trkpt><trkpt lat="45.55180015221447" lon="3.3806614520009837"><ele>467.66666666666663</ele><time>2026-05-01T14:25:34Z</time></trkpt><trkpt lat="45.551822349743354" lon="3.380895982652882"><ele>468.33333333333337</ele><time>2026-05-01T14:25:35Z</time></trkpt><trkpt lat="45.55186957763032" lon="3.38112859164247"><ele>469.0</ele><time>2026-05-01T14:25:36Z</time></trkpt><trkpt lat="45.551943408167446" lon="3.381349174051845"><ele>466.6666666666667</ele><time>2026-05-01T14:25:37Z</time></trkpt><trkpt lat="45.55203037355085" lon="3.3815728300831016"><ele>464.33333333333337</ele><time>2026-05-01T14:25:38Z</time></trkpt><trkpt lat="45.552131522564885" lon="3.3818003803728756"><ele>462.0</ele><time>2026-05-01T14:25:39Z</time></trkpt><trkpt lat="45.552243587452935" lon="3.3820287600911616"><ele>467.0</ele><time>2026-05-01T14:25:40Z</time></trkpt><trkpt lat="45.55236184209179" lon="3.382253189102591"><ele>472.0</ele><time>2026-05-01T14:25:41Z</time></trkpt><trkpt lat="45.55244806010906" lon="3.3825095187493055"><ele>477.0</ele><time>2026-05-01T14:25:42Z</time></trkpt><trkpt lat="45.55246490719562" lon="3.3828089133097055"><ele>477.5</ele><time>2026-05-01T14:25:43Z</time></trkpt><trkpt lat="45.552469603736085" lon="3.3831213026990246"><ele>478.0</ele><time>2026-05-01T14:25:44Z</time></trkpt><trkpt lat="45.55244253692865" lon="3.383448952746471"><ele>478.0</ele><time>2026-05-01T14:25:45Z</time></trkpt><trkpt lat="45.55240085319185" lon="3.3837992672972153"><ele>478.0</ele><time>2026-05-01T14:25:46Z</time></trkpt><trkpt lat="45.55236658643922" lon="3.3841711452064627"><ele>478.0</ele><time>2026-05-01T14:25:47Z</time></trkpt><trkpt lat="45.55231764475576" lon="3.3845126764692206"><ele>478.0</ele><time>2026-05-01T14:25:48Z</time></trkpt><trkpt lat="45.55227978499583" lon="3.384820946022572"><ele>477.6666666666667</ele><time>2026-05-01T14:25:49Z</time></trkpt><trkpt lat="45.55225930299702" lon="3.385109257034331"><ele>477.33333333333337</ele><time>2026-05-01T14:25:50Z</time></trkpt><trkpt lat="45.55228779787969" lon="3.385395627421074"><ele>477.0</ele><time>2026-05-01T14:25:51Z</time></trkpt><trkpt lat="45.55238103030674" lon="3.3856744809317916"><ele>476.66666666666663</ele><time>2026-05-01T14:25:52Z</time></trkpt><trkpt lat="45.55249219508258" lon="3.385945312132262"><ele>476.3333333333333</ele><time>2026-05-01T14:25:53Z</time></trkpt><trkpt lat="45.552492655953365" lon="3.386267116169216"><ele>476.0</ele><time>2026-05-01T14:25:54Z</time></trkpt><trkpt lat="45.552499833539066" lon="3.386613127616257"><ele>477.5</ele><time>2026-05-01T14:25:55Z</time></trkpt><trkpt lat="45.552538202179875" lon="3.386963686297719"><ele>479.0</ele><time>2026-05-01T14:25:56Z</time></trkpt><trkpt lat="45.552591350988905" lon="3.3873216050197956"><ele>479.5</ele><time>2026-05-01T14:25:57Z</time></trkpt><trkpt lat="45.55269368941651" lon="3.387647523220473"><ele>480.0</ele><time>2026-05-01T14:25:58Z</time></trkpt><trkpt lat="45.55285163535966" lon="3.3879518454257225"><ele>487.0</ele><time>2026-05-01T14:25:59Z</time></trkpt><trkpt lat="45.55301049155842" lon="3.388266100115187"><ele>494.0</ele><time>2026-05-01T14:26:00Z</time></trkpt><trkpt lat="45.55319028271794" lon="3.388559642189553"><ele>494.0</ele><time>2026-05-01T14:26:01Z</time></trkpt><trkpt lat="45.55338479774907" lon="3.388821840978415"><ele>494.0</ele><time>2026-05-01T14:26:02Z</time></trkpt><trkpt lat="45.553573239487456" lon="3.389019233764164"><ele>491.0</ele><time>2026-05-01T14:26:03Z</time></trkpt><trkpt lat="45.55379313280173" lon="3.3891334549065855"><ele>488.0</ele><time>2026-05-01T14:26:04Z</time></trkpt><trkpt lat="45.554032996617764" lon="3.389193416963768"><ele>488.0</ele><time>2026-05-01T14:26:05Z</time></trkpt><trkpt lat="45.55428833282435" lon="3.3892055648809056"><ele>488.0</ele><time>2026-05-01T14:26:06Z</time></trkpt><trkpt lat="45.55454760765049" lon="3.389196605824082"><ele>492.5</ele><time>2026-05-01T14:26:07Z</time></trkpt><trkpt lat="45.5548096646376" lon="3.3891886979787755"><ele>497.0</ele><time>2026-05-01T14:26:08Z</time></trkpt><trkpt lat="45.55504146183509" lon="3.3891643791393258"><ele>497.0</ele><time>2026-05-01T14:26:09Z</time></trkpt><trkpt lat="45.5552397642594" lon="3.389100043571152"><ele>497.0</ele><time>2026-05-01T14:26:10.001Z</time></trkpt><trkpt lat="45.555426639385544" lon="3.3891082072143743"><ele>497.0</ele><time>2026-05-01T14:26:11.001Z</time></trkpt><trkpt lat="45.55558667048856" lon="3.3892377820053627"><ele>495.3333333333333</ele><time>2026-05-01T14:26:12.001Z</time></trkpt><trkpt lat="45.55571520008686" lon="3.3894017779123073"><ele>493.66666666666663</ele><time>2026-05-01T14:26:13.001Z</time></trkpt><trkpt lat="45.555759061158184" lon="3.389637605255902"><ele>492.0</ele><time>2026-05-01T14:26:14.001Z</time></trkpt><trkpt lat="45.55578025183934" lon="3.3898405815463577"><ele>492.0</ele><time>2026-05-01T14:26:15.001Z</time></trkpt><trkpt lat="45.55578632806855" lon="3.3900286149223513"><ele>492.0</ele><time>2026-05-01T14:26:16.001Z</time></trkpt><trkpt lat="45.55578383099177" lon="3.3902414239244036"><ele>492.0</ele><time>2026-05-01T14:26:17.001Z</time></trkpt><trkpt lat="45.555749151237016" lon="3.390422517800533"><ele>492.0</ele><time>2026-05-01T14:26:18.001Z</time></trkpt><trkpt lat="45.55570111789793" lon="3.3906505418735757"><ele>492.5</ele><time>2026-05-01T14:26:19.001Z</time></trkpt><trkpt lat="45.55559125983668" lon="3.3908894994783365"><ele>493.0</ele><time>2026-05-01T14:26:20.001Z</time></trkpt><trkpt lat="45.555453049523734" lon="3.391272613123027"><ele>494.0</ele><time>2026-05-01T14:26:21.001Z</time></trkpt><trkpt lat="45.55536384025441" lon="3.39148567907769"><ele>495.0</ele><time>2026-05-01T14:26:22.001Z</time></trkpt><trkpt lat="45.555144963325844" lon="3.39226160915391"><ele>495.0</ele><time>2026-05-01T14:26:23.001Z</time></trkpt><trkpt lat="45.55519682418094" lon="3.3925478885189126"><ele>495.0</ele><time>2026-05-01T14:26:24.001Z</time></trkpt><trkpt lat="45.555273555297" lon="3.392840386913834"><ele>495.0</ele><time>2026-05-01T14:26:25.001Z</time></trkpt><trkpt lat="45.555370526453714" lon="3.393159575432869"><ele>500.66666666666663</ele><time>2026-05-01T14:26:26.001Z</time></trkpt><trkpt lat="45.55543531629677" lon="3.3933746170849686"><ele>506.3333333333333</ele><time>2026-05-01T14:26:27.001Z</time></trkpt><trkpt lat="45.55548554310606" lon="3.393616488358577"><ele>512.0</ele><time>2026-05-01T14:26:28.001Z</time></trkpt><trkpt lat="45.55551591301939" lon="3.3938463156622176"><ele>512.0</ele><time>2026-05-01T14:26:29.001Z</time></trkpt><trkpt lat="45.55553690168755" lon="3.3939845566458247"><ele>512.0</ele><time>2026-05-01T14:26:30.001Z</time></trkpt><trkpt lat="45.55500793735111" lon="3.3941330618175933"><ele>505.3333333333333</ele><time>2026-05-01T14:26:31.001Z</time></trkpt><trkpt lat="45.554788338304334" lon="3.3942470871176353"><ele>498.66666666666663</ele><time>2026-05-01T14:26:32.001Z</time></trkpt><trkpt lat="45.5545995707467" lon="3.394375976321233"><ele>492.0</ele><time>2026-05-01T14:26:33.001Z</time></trkpt><trkpt lat="45.55438703071803" lon="3.394485516900567"><ele>492.0</ele><time>2026-05-01T14:26:34.001Z</time></trkpt><trkpt lat="45.55414106454415" lon="3.3945678743666026"><ele>492.0</ele><time>2026-05-01T14:26:35.001Z</time></trkpt><trkpt lat="45.55389860990419" lon="3.3946118929008113"><ele>494.66666666666663</ele><time>2026-05-01T14:26:36.001Z</time></trkpt><trkpt lat="45.553685162351705" lon="3.3946774502365464"><ele>497.3333333333333</ele><time>2026-05-01T14:26:37.001Z</time></trkpt><trkpt lat="45.5535080387863" lon="3.3947809136058718"><ele>500.0</ele><time>2026-05-01T14:26:38.001Z</time></trkpt><trkpt lat="45.55334176200225" lon="3.394995435841381"><ele>500.0</ele><time>2026-05-01T14:26:39.001Z</time></trkpt><trkpt lat="45.553166999089285" lon="3.3952340743886396"><ele>500.0</ele><time>2026-05-01T14:26:40.001Z</time></trkpt><trkpt lat="45.5530156754916" lon="3.3954543654678457"><ele>501.0</ele><time>2026-05-01T14:26:41.001Z</time></trkpt><trkpt lat="45.55292116291821" lon="3.3957007666417884"><ele>502.0</ele><time>2026-05-01T14:26:42.001Z</time></trkpt><trkpt lat="45.552975373147035" lon="3.395914951298625"><ele>503.0</ele><time>2026-05-01T14:26:43.001Z</time></trkpt><trkpt lat="45.55311560271259" lon="3.3961829198534246"><ele>504.5</ele><time>2026-05-01T14:26:44.001Z</time></trkpt><trkpt lat="45.55339908363145" lon="3.396504467531659"><ele>506.0</ele><time>2026-05-01T14:26:45.001Z</time></trkpt><trkpt lat="45.55347783424821" lon="3.396769399753845"><ele>506.0</ele><time>2026-05-01T14:26:46.001Z</time></trkpt><trkpt lat="45.5534733616133" lon="3.397100709302404"><ele>506.0</ele><time>2026-05-01T14:26:47.001Z</time></trkpt><trkpt lat="45.553360623147235" lon="3.3973996419234864"><ele>507.0</ele><time>2026-05-01T14:26:48.001Z</time></trkpt><trkpt lat="45.55319379565843" lon="3.3976959877100055"><ele>508.0</ele><time>2026-05-01T14:26:49.001Z</time></trkpt><trkpt lat="45.55301155403201" lon="3.397941691097904"><ele>514.5</ele><time>2026-05-01T14:26:50.001Z</time></trkpt><trkpt lat="45.552833375732234" lon="3.398211853938589"><ele>521.0</ele><time>2026-05-01T14:26:51.001Z</time></trkpt><trkpt lat="45.552676994429454" lon="3.3984088328104205"><ele>521.0</ele><time>2026-05-01T14:26:52.001Z</time></trkpt><trkpt lat="45.55255835858654" lon="3.3985599312794905"><ele>521.0</ele><time>2026-05-01T14:26:53.001Z</time></trkpt><trkpt lat="45.55251035453044" lon="3.398744929669855"><ele>521.0</ele><time>2026-05-01T14:26:54.001Z</time></trkpt><trkpt lat="45.552510996899535" lon="3.398911533416074"><ele>521.0</ele><time>2026-05-01T14:26:55.001Z</time></trkpt><trkpt lat="45.552574375867366" lon="3.39905065300473"><ele>520.6666666666666</ele><time>2026-05-01T14:26:56.001Z</time></trkpt><trkpt lat="45.55267206731689" lon="3.3991539149659507"><ele>520.3333333333334</ele><time>2026-05-01T14:26:57.001Z</time></trkpt><trkpt lat="45.5527807731099" lon="3.39939265973825"><ele>520.0</ele><time>2026-05-01T14:26:58.001Z</time></trkpt><trkpt lat="45.552854449769434" lon="3.3997178369101637"><ele>526.5</ele><time>2026-05-01T14:26:59Z</time></trkpt><trkpt lat="45.55288130747347" lon="3.400056677681521"><ele>533.0</ele><time>2026-05-01T14:27:00Z</time></trkpt><trkpt lat="45.55287283593536" lon="3.4003897218346344"><ele>529.3333333333333</ele><time>2026-05-01T14:27:01Z</time></trkpt><trkpt lat="45.55280171109464" lon="3.4006454452211106"><ele>525.6666666666666</ele><time>2026-05-01T14:27:02Z</time></trkpt><trkpt lat="45.552738114425665" lon="3.400876838656438"><ele>522.0</ele><time>2026-05-01T14:27:03Z</time></trkpt><trkpt lat="45.55264122375368" lon="3.401167952793788"><ele>522.0</ele><time>2026-05-01T14:27:04Z</time></trkpt><trkpt lat="45.5526393206078" lon="3.401425299397018"><ele>522.0</ele><time>2026-05-01T14:27:05Z</time></trkpt><trkpt lat="45.55247870698331" lon="3.4017238950420405"><ele>522.0</ele><time>2026-05-01T14:27:06Z</time></trkpt><trkpt lat="45.5526384786434" lon="3.401965779102797"><ele>521.0</ele><time>2026-05-01T14:27:07Z</time></trkpt><trkpt lat="45.55283630392992" lon="3.402234479264605"><ele>520.0</ele><time>2026-05-01T14:27:08Z</time></trkpt><trkpt lat="45.552992667348846" lon="3.4024949531496276"><ele>532.5</ele><time>2026-05-01T14:27:09Z</time></trkpt><trkpt lat="45.55308091202796" lon="3.4028081052242936"><ele>545.0</ele><time>2026-05-01T14:27:10Z</time></trkpt><trkpt lat="45.553108947752634" lon="3.4031305924637505"><ele>545.0</ele><time>2026-05-01T14:27:11Z</time></trkpt><trkpt lat="45.55305632890878" lon="3.403455868176759"><ele>545.0</ele><time>2026-05-01T14:27:12Z</time></trkpt><trkpt lat="45.553002813859365" lon="3.403793389417712"><ele>533.5</ele><time>2026-05-01T14:27:13Z</time></trkpt><trkpt lat="45.55285234967353" lon="3.4040921461503117"><ele>522.0</ele><time>2026-05-01T14:27:14Z</time></trkpt><trkpt lat="45.55269658456851" lon="3.404293235098668"><ele>522.0</ele><time>2026-05-01T14:27:15Z</time></trkpt><trkpt lat="45.552559848837745" lon="3.4045600985368654"><ele>522.0</ele><time>2026-05-01T14:27:16Z</time></trkpt><trkpt lat="45.552371840538655" lon="3.4049062043749063"><ele>524.6666666666666</ele><time>2026-05-01T14:27:17Z</time></trkpt><trkpt lat="45.55226224895771" lon="3.4052137556241955"><ele>527.3333333333333</ele><time>2026-05-01T14:27:18Z</time></trkpt><trkpt lat="45.55222174096454" lon="3.40549993470403"><ele>530.0</ele><time>2026-05-01T14:27:19Z</time></trkpt><trkpt lat="45.552307046300825" lon="3.4057598650365013"><ele>530.0</ele><time>2026-05-01T14:27:20Z</time></trkpt><trkpt lat="45.55245303442189" lon="3.4060126866363705"><ele>530.0</ele><time>2026-05-01T14:27:21Z</time></trkpt><trkpt lat="45.552611134873146" lon="3.4062658307076683"><ele>529.5</ele><time>2026-05-01T14:27:22Z</time></trkpt><trkpt lat="45.55277622534949" lon="3.4065234735326935"><ele>529.0</ele><time>2026-05-01T14:27:23Z</time></trkpt><trkpt lat="45.55296642717716" lon="3.406772669744653"><ele>527.5</ele><time>2026-05-01T14:27:24Z</time></trkpt><trkpt lat="45.55316580967252" lon="3.407021560327584"><ele>526.0</ele><time>2026-05-01T14:27:25Z</time></trkpt><trkpt lat="45.55336909675775" lon="3.407281914868067"><ele>526.0</ele><time>2026-05-01T14:27:26Z</time></trkpt><trkpt lat="45.553565651470244" lon="3.407539953642064"><ele>526.0</ele><time>2026-05-01T14:27:27Z</time></trkpt><trkpt lat="45.55376833848692" lon="3.4078041444472253"><ele>526.5</ele><time>2026-05-01T14:27:28Z</time></trkpt><trkpt lat="45.55397651074708" lon="3.408015249653904"><ele>527.0</ele><time>2026-05-01T14:27:29Z</time></trkpt><trkpt lat="45.55422373141754" lon="3.408132908261664"><ele>527.0</ele><time>2026-05-01T14:27:30Z</time></trkpt><trkpt lat="45.55447638848489" lon="3.408209795286853"><ele>527.0</ele><time>2026-05-01T14:27:31Z</time></trkpt><trkpt lat="45.554725630613326" lon="3.408282609668731"><ele>533.0</ele><time>2026-05-01T14:27:32Z</time></trkpt><trkpt lat="45.55501316273232" lon="3.408374621816956"><ele>539.0</ele><time>2026-05-01T14:27:33Z</time></trkpt><trkpt lat="45.55525262704132" lon="3.408481333897774"><ele>541.5</ele><time>2026-05-01T14:27:34Z</time></trkpt><trkpt lat="45.55546749724778" lon="3.408644247122531"><ele>544.0</ele><time>2026-05-01T14:27:35Z</time></trkpt><trkpt lat="45.55559169820463" lon="3.4089145245085692"><ele>544.0</ele><time>2026-05-01T14:27:36Z</time></trkpt><trkpt lat="45.55566027420212" lon="3.409055836976715"><ele>544.0</ele><time>2026-05-01T14:27:37Z</time></trkpt><trkpt lat="45.55585452585732" lon="3.4091666004831307"><ele>544.0</ele><time>2026-05-01T14:27:38Z</time></trkpt><trkpt lat="45.55606652431713" lon="3.4092169601433286"><ele>558.5</ele><time>2026-05-01T14:27:39Z</time></trkpt><trkpt lat="45.55627361519528" lon="3.4093553567771613"><ele>573.0</ele><time>2026-05-01T14:27:40Z</time></trkpt><trkpt lat="45.556509590692826" lon="3.4095727295572376"><ele>567.0</ele><time>2026-05-01T14:27:41Z</time></trkpt><trkpt lat="45.556708249579486" lon="3.40974230392306"><ele>561.0</ele><time>2026-05-01T14:27:42Z</time></trkpt><trkpt lat="45.556656050507094" lon="3.410133139550013"><ele>561.0</ele><time>2026-05-01T14:27:43Z</time></trkpt><trkpt lat="45.55667348479928" lon="3.410429763822444"><ele>561.0</ele><time>2026-05-01T14:27:44Z</time></trkpt><trkpt lat="45.55663782355285" lon="3.4107243615620786"><ele>561.0</ele><time>2026-05-01T14:27:45Z</time></trkpt><trkpt lat="45.55656049463977" lon="3.4110994516316255"><ele>558.5</ele><time>2026-05-01T14:27:46Z</time></trkpt><trkpt lat="45.556389017079695" lon="3.411555650617535"><ele>556.0</ele><time>2026-05-01T14:27:47Z</time></trkpt><trkpt lat="45.55619413104974" lon="3.4119822314051946"><ele>559.5</ele><time>2026-05-01T14:27:48Z</time></trkpt><trkpt lat="45.55612965668596" lon="3.4123405261247743"><ele>563.0</ele><time>2026-05-01T14:27:49Z</time></trkpt><trkpt lat="45.55605749313597" lon="3.412689855173491"><ele>566.5</ele><time>2026-05-01T14:27:50Z</time></trkpt><trkpt lat="45.55603390116133" lon="3.4130364088861147"><ele>570.0</ele><time>2026-05-01T14:27:51Z</time></trkpt><trkpt lat="45.55599662423905" lon="3.4133817846938213"><ele>570.5</ele><time>2026-05-01T14:27:52Z</time></trkpt><trkpt lat="45.55603891458378" lon="3.4139152979956986"><ele>571.0</ele><time>2026-05-01T14:27:53Z</time></trkpt><trkpt lat="45.55600323865408" lon="3.4143151683056994"><ele>571.0</ele><time>2026-05-01T14:27:54Z</time></trkpt><trkpt lat="45.555916802440855" lon="3.414646508517981"><ele>571.0</ele><time>2026-05-01T14:27:55Z</time></trkpt><trkpt lat="45.55585667797308" lon="3.4149585505925275"><ele>572.0</ele><time>2026-05-01T14:27:56Z</time></trkpt><trkpt lat="45.555873435801914" lon="3.415277928094903"><ele>573.0</ele><time>2026-05-01T14:27:57Z</time></trkpt><trkpt lat="45.55593638492168" lon="3.4156030007065916"><ele>575.5</ele><time>2026-05-01T14:27:58Z</time></trkpt><trkpt lat="45.5560339641463" lon="3.4158775307707554"><ele>578.0</ele><time>2026-05-01T14:27:59Z</time></trkpt><trkpt lat="45.55619938677998" lon="3.41611445551491"><ele>580.3333333333333</ele><time>2026-05-01T14:28:00Z</time></trkpt><trkpt lat="45.556364117500735" lon="3.4163293853221828"><ele>582.6666666666666</ele><time>2026-05-01T14:28:01Z</time></trkpt><trkpt lat="45.55644555583107" lon="3.4165694900831887"><ele>585.0</ele><time>2026-05-01T14:28:02Z</time></trkpt><trkpt lat="45.55645194698822" lon="3.4168587557069565"><ele>584.0</ele><time>2026-05-01T14:28:03Z</time></trkpt><trkpt lat="45.5564085695846" lon="3.4171878797831505"><ele>583.0</ele><time>2026-05-01T14:28:04Z</time></trkpt><trkpt lat="45.55642994146553" lon="3.4174205031734157"><ele>582.0</ele><time>2026-05-01T14:28:05Z</time></trkpt><trkpt lat="45.55642224641848" lon="3.4175587178067697"><ele>582.0</ele><time>2026-05-01T14:28:06Z</time></trkpt><trkpt lat="45.556517648047496" lon="3.417799370037508"><ele>582.0</ele><time>2026-05-01T14:28:07Z</time></trkpt><trkpt lat="45.55657790759193" lon="3.4180576266966676"><ele>582.0</ele><time>2026-05-01T14:28:08Z</time></trkpt><trkpt lat="45.55660539079021" lon="3.418369457990788"><ele>581.6666666666666</ele><time>2026-05-01T14:28:09Z</time></trkpt><trkpt lat="45.55663386249391" lon="3.418685787285686"><ele>581.3333333333333</ele><time>2026-05-01T14:28:10Z</time></trkpt><trkpt lat="45.55669148276364" lon="3.4189626286451498"><ele>581.0</ele><time>2026-05-01T14:28:11Z</time></trkpt><trkpt lat="45.55667299405281" lon="3.4192881652777416"><ele>582.6666666666666</ele><time>2026-05-01T14:28:12Z</time></trkpt><trkpt lat="45.55663359976282" lon="3.419567634298863"><ele>584.3333333333334</ele><time>2026-05-01T14:28:13Z</time></trkpt><trkpt lat="45.55657227462362" lon="3.4198391007621916"><ele>586.0</ele><time>2026-05-01T14:28:14Z</time></trkpt><trkpt lat="45.55653318857943" lon="3.4201306892954455"><ele>581.0</ele><time>2026-05-01T14:28:15Z</time></trkpt><trkpt lat="45.556531657220305" lon="3.420390157100387"><ele>576.0</ele><time>2026-05-01T14:28:16.001Z</time></trkpt><trkpt lat="45.55593001575151" lon="3.4204079655621675"><ele>576.0</ele><time>2026-05-01T14:28:17.001Z</time></trkpt><trkpt lat="45.55571534305291" lon="3.420446635829081"><ele>576.0</ele><time>2026-05-01T14:28:18.001Z</time></trkpt><trkpt lat="45.55556033926874" lon="3.4205227999347656"><ele>576.0</ele><time>2026-05-01T14:28:19.001Z</time></trkpt><trkpt lat="45.555476534839826" lon="3.4207175084528276"><ele>579.5</ele><time>2026-05-01T14:28:20.001Z</time></trkpt><trkpt lat="45.55547299920233" lon="3.4210245358509943"><ele>583.0</ele><time>2026-05-01T14:28:21.001Z</time></trkpt><trkpt lat="45.55541018950382" lon="3.4213480246808645"><ele>581.0</ele><time>2026-05-01T14:28:22.001Z</time></trkpt><trkpt lat="45.555313204038534" lon="3.421614560381262"><ele>579.0</ele><time>2026-05-01T14:28:23.001Z</time></trkpt><trkpt lat="45.555225543701255" lon="3.421919289634286"><ele>577.0</ele><time>2026-05-01T14:28:24.001Z</time></trkpt><trkpt lat="45.55510064559076" lon="3.4222294874865313"><ele>582.0</ele><time>2026-05-01T14:28:25.001Z</time></trkpt><trkpt lat="45.554997623892284" lon="3.422514755250323"><ele>587.0</ele><time>2026-05-01T14:28:26.001Z</time></trkpt><trkpt lat="45.55484966866582" lon="3.42275118656292"><ele>592.0</ele><time>2026-05-01T14:28:27.001Z</time></trkpt><trkpt lat="45.55465695874341" lon="3.4228963889799986"><ele>601.0</ele><time>2026-05-01T14:28:28.001Z</time></trkpt><trkpt lat="45.55443178058359" lon="3.4230120389296865"><ele>610.0</ele><time>2026-05-01T14:28:29.001Z</time></trkpt><trkpt lat="45.5541524342746" lon="3.4230722353294"><ele>610.0</ele><time>2026-05-01T14:28:30.001Z</time></trkpt><trkpt lat="45.553893755490314" lon="3.4231695805817157"><ele>610.0</ele><time>2026-05-01T14:28:31.001Z</time></trkpt><trkpt lat="45.553652169505526" lon="3.4232309181501"><ele>609.3333333333334</ele><time>2026-05-01T14:28:32.001Z</time></trkpt><trkpt lat="45.5535071143941" lon="3.4232726286508797"><ele>608.6666666666666</ele><time>2026-05-01T14:28:33.001Z</time></trkpt><trkpt lat="45.55336357749375" lon="3.423437867982695"><ele>608.0</ele><time>2026-05-01T14:28:34.001Z</time></trkpt><trkpt lat="45.55330771749778" lon="3.423724493417406"><ele>605.6666666666666</ele><time>2026-05-01T14:28:35.001Z</time></trkpt><trkpt lat="45.55327401080956" lon="3.4240122556950765"><ele>603.3333333333334</ele><time>2026-05-01T14:28:36.001Z</time></trkpt><trkpt lat="45.55326494645936" lon="3.4243575313265593"><ele>601.0</ele><time>2026-05-01T14:28:37.001Z</time></trkpt><trkpt lat="45.55332509489187" lon="3.4246811708398344"><ele>600.6666666666667</ele><time>2026-05-01T14:28:38.001Z</time></trkpt><trkpt lat="45.553425409636006" lon="3.4249508690821377"><ele>600.3333333333334</ele><time>2026-05-01T14:28:39.001Z</time></trkpt><trkpt lat="45.5535744458724" lon="3.425208354849355"><ele>600.0</ele><time>2026-05-01T14:28:40.001Z</time></trkpt><trkpt lat="45.55377212007096" lon="3.4255033696261554"><ele>604.0</ele><time>2026-05-01T14:28:41.001Z</time></trkpt><trkpt lat="45.55394923194469" lon="3.425830171403159"><ele>608.0</ele><time>2026-05-01T14:28:42.001Z</time></trkpt><trkpt lat="45.55380371873276" lon="3.426219812253623"><ele>607.5</ele><time>2026-05-01T14:28:43.001Z</time></trkpt><trkpt lat="45.55394159646976" lon="3.426581551387918"><ele>607.0</ele><time>2026-05-01T14:28:44.001Z</time></trkpt><trkpt lat="45.553965787166206" lon="3.4269569827784747"><ele>616.0</ele><time>2026-05-01T14:28:45.001Z</time></trkpt><trkpt lat="45.55399007049512" lon="3.427309082773752"><ele>625.0</ele><time>2026-05-01T14:28:46.001Z</time></trkpt><trkpt lat="45.5539283403771" lon="3.4276347453721088"><ele>625.0</ele><time>2026-05-01T14:28:47.001Z</time></trkpt><trkpt lat="45.553945392619" lon="3.427962986159193"><ele>625.0</ele><time>2026-05-01T14:28:48.001Z</time></trkpt><trkpt lat="45.553950938580854" lon="3.4283094115975534"><ele>620.5</ele><time>2026-05-01T14:28:49.001Z</time></trkpt><trkpt lat="45.55378072216384" lon="3.428554507470978"><ele>616.0</ele><time>2026-05-01T14:28:50.001Z</time></trkpt><trkpt lat="45.55354701541657" lon="3.4287987177133314"><ele>622.0</ele><time>2026-05-01T14:28:51.001Z</time></trkpt><trkpt lat="45.553480123524565" lon="3.429081676908338"><ele>628.0</ele><time>2026-05-01T14:28:52.001Z</time></trkpt><trkpt lat="45.55318796204877" lon="3.4293819082650594"><ele>628.6666666666667</ele><time>2026-05-01T14:28:53.001Z</time></trkpt><trkpt lat="45.55306829707074" lon="3.4296786922998295"><ele>629.3333333333334</ele><time>2026-05-01T14:28:54.001Z</time></trkpt><trkpt lat="45.55296546380165" lon="3.4299174800937733"><ele>630.0</ele><time>2026-05-01T14:28:55.001Z</time></trkpt><trkpt lat="45.55291057202384" lon="3.430168969367399"><ele>630.0</ele><time>2026-05-01T14:28:56.001Z</time></trkpt><trkpt lat="45.55289644004838" lon="3.4304328975273255"><ele>630.0</ele><time>2026-05-01T14:28:57.001Z</time></trkpt><trkpt lat="45.55295861545858" lon="3.430679066133565"><ele>630.0</ele><time>2026-05-01T14:28:58.001Z</time></trkpt><trkpt lat="45.553057262014015" lon="3.430891623558587"><ele>633.3333333333334</ele><time>2026-05-01T14:28:59.001Z</time></trkpt><trkpt lat="45.553143020791126" lon="3.431133394119425"><ele>636.6666666666667</ele><time>2026-05-01T14:29:00.001Z</time></trkpt><trkpt lat="45.55315747312445" lon="3.431423935544361"><ele>640.0</ele><time>2026-05-01T14:29:01.001Z</time></trkpt><trkpt lat="45.553147767929346" lon="3.431726027437341"><ele>641.0</ele><time>2026-05-01T14:29:02.001Z</time></trkpt><trkpt lat="45.553126893710896" lon="3.4320273010988256"><ele>642.0</ele><time>2026-05-01T14:29:03.001Z</time></trkpt><trkpt lat="45.55314585421872" lon="3.432319028004005"><ele>643.0</ele><time>2026-05-01T14:29:04.001Z</time></trkpt><trkpt lat="45.553183102245036" lon="3.4325740040945876"><ele>646.0</ele><time>2026-05-01T14:29:05Z</time></trkpt><trkpt lat="45.55334765292887" lon="3.4328480665833863"><ele>649.0</ele><time>2026-05-01T14:29:06Z</time></trkpt><trkpt lat="45.553484062038784" lon="3.433154828786515"><ele>648.0</ele><time>2026-05-01T14:29:07Z</time></trkpt><trkpt lat="45.55363961999607" lon="3.4334619622409512"><ele>647.0</ele><time>2026-05-01T14:29:08Z</time></trkpt><trkpt lat="45.55373193498154" lon="3.4338276869753166"><ele>647.0</ele><time>2026-05-01T14:29:09Z</time></trkpt><trkpt lat="45.553789342960584" lon="3.434158074495949"><ele>647.0</ele><time>2026-05-01T14:29:10Z</time></trkpt><trkpt lat="45.55372935098083" lon="3.434505160361026"><ele>646.3333333333333</ele><time>2026-05-01T14:29:11Z</time></trkpt><trkpt lat="45.553701621784555" lon="3.434832463772388"><ele>645.6666666666666</ele><time>2026-05-01T14:29:12Z</time></trkpt><trkpt lat="45.55365869342917" lon="3.435112705529445"><ele>645.0</ele><time>2026-05-01T14:29:13Z</time></trkpt><trkpt lat="45.55355543954291" lon="3.4354160239966878"><ele>646.6666666666666</ele><time>2026-05-01T14:29:14Z</time></trkpt><trkpt lat="45.55346360014316" lon="3.4357134705383636"><ele>648.3333333333333</ele><time>2026-05-01T14:29:15Z</time></trkpt><trkpt lat="45.55343524756653" lon="3.4359588905158724"><ele>650.0</ele><time>2026-05-01T14:29:16Z</time></trkpt><trkpt lat="45.553492922747914" lon="3.436168709630963"><ele>647.3333333333333</ele><time>2026-05-01T14:29:17Z</time></trkpt><trkpt lat="45.55369499357201" lon="3.436306285617987"><ele>644.6666666666666</ele><time>2026-05-01T14:29:18Z</time></trkpt><trkpt lat="45.553851789875544" lon="3.436481013138797"><ele>642.0</ele><time>2026-05-01T14:29:19Z</time></trkpt><trkpt lat="45.554023841256644" lon="3.436676175779122"><ele>642.0</ele><time>2026-05-01T14:29:20Z</time></trkpt><trkpt lat="45.55415488383445" lon="3.4368674973883437"><ele>642.0</ele><time>2026-05-01T14:29:21Z</time></trkpt><trkpt lat="45.5542630881238" lon="3.4370858364641372"><ele>642.0</ele><time>2026-05-01T14:29:22Z</time></trkpt><trkpt lat="45.55436918622095" lon="3.4373306585734227"><ele>642.6666666666666</ele><time>2026-05-01T14:29:23Z</time></trkpt><trkpt lat="45.55440054228405" lon="3.4376455622296334"><ele>643.3333333333333</ele><time>2026-05-01T14:29:24Z</time></trkpt><trkpt lat="45.554369858347854" lon="3.4379560601167127"><ele>644.0</ele><time>2026-05-01T14:29:25Z</time></trkpt><trkpt lat="45.55427654070496" lon="3.4383044017633155"><ele>648.6666666666666</ele><time>2026-05-01T14:29:26Z</time></trkpt><trkpt lat="45.55417831202248" lon="3.4385718661192666"><ele>653.3333333333334</ele><time>2026-05-01T14:29:27Z</time></trkpt><trkpt lat="45.55422763730556" lon="3.438686003745648"><ele>658.0</ele><time>2026-05-01T14:29:28Z</time></trkpt><trkpt lat="45.554071680973756" lon="3.4390225221283703"><ele>667.0</ele><time>2026-05-01T14:29:29Z</time></trkpt><trkpt lat="45.55396968357644" lon="3.4392427927515565"><ele>676.0</ele><time>2026-05-01T14:29:30Z</time></trkpt><trkpt lat="45.55383429350213" lon="3.4394971236381853"><ele>685.0</ele><time>2026-05-01T14:29:31Z</time></trkpt><trkpt lat="45.55372102573747" lon="3.439705654809146"><ele>674.5</ele><time>2026-05-01T14:29:32Z</time></trkpt><trkpt lat="45.553616393156915" lon="3.4399699349714323"><ele>664.0</ele><time>2026-05-01T14:29:33Z</time></trkpt><trkpt lat="45.55334587744287" lon="3.4400138807669474"><ele>664.0</ele><time>2026-05-01T14:29:34Z</time></trkpt><trkpt lat="45.553249748201345" lon="3.44015787907755"><ele>664.0</ele><time>2026-05-01T14:29:35Z</time></trkpt><trkpt lat="45.55321268048098" lon="3.4403219521731723"><ele>664.0</ele><time>2026-05-01T14:29:36Z</time></trkpt><trkpt lat="45.55307398029227" lon="3.4404000093523575"><ele>664.0</ele><time>2026-05-01T14:29:37Z</time></trkpt><trkpt lat="45.55298421886297" lon="3.4404753722094985"><ele>664.75</ele><time>2026-05-01T14:29:38Z</time></trkpt><trkpt lat="45.55294399619806" lon="3.440682246057847"><ele>665.5</ele><time>2026-05-01T14:29:39Z</time></trkpt><trkpt lat="45.55286598016469" lon="3.440765770535269"><ele>666.25</ele><time>2026-05-01T14:29:40Z</time></trkpt><trkpt lat="45.5528705886825" lon="3.440970741822913"><ele>667.0</ele><time>2026-05-01T14:29:41Z</time></trkpt><trkpt lat="45.55295899521911" lon="3.441259422094463"><ele>665.0</ele><time>2026-05-01T14:29:42Z</time></trkpt><trkpt lat="45.55296751691543" lon="3.441492939138189"><ele>663.0</ele><time>2026-05-01T14:29:43Z</time></trkpt><trkpt lat="45.553776159487164" lon="3.441819225991517"><ele>663.0</ele><time>2026-05-01T14:29:44Z</time></trkpt><trkpt lat="45.55394048565694" lon="3.442029646495246"><ele>663.0</ele><time>2026-05-01T14:29:45Z</time></trkpt><trkpt lat="45.55397157111101" lon="3.4423069544827283"><ele>663.0</ele><time>2026-05-01T14:29:46Z</time></trkpt><trkpt lat="45.55395842356959" lon="3.4426376391992393"><ele>659.0</ele><time>2026-05-01T14:29:47Z</time></trkpt><trkpt lat="45.55395806395846" lon="3.443066087266982"><ele>655.0</ele><time>2026-05-01T14:29:48Z</time></trkpt><trkpt lat="45.55389789816448" lon="3.443472857718073"><ele>654.0</ele><time>2026-05-01T14:29:49Z</time></trkpt><trkpt lat="45.553769888226114" lon="3.443824193820685"><ele>653.0</ele><time>2026-05-01T14:29:50Z</time></trkpt><trkpt lat="45.55355982339446" lon="3.444128390496799"><ele>653.0</ele><time>2026-05-01T14:29:51Z</time></trkpt><trkpt lat="45.5533394126483" lon="3.4443980692789204"><ele>653.0</ele><time>2026-05-01T14:29:52Z</time></trkpt><trkpt lat="45.55312086543852" lon="3.444663952226242"><ele>652.0</ele><time>2026-05-01T14:29:53Z</time></trkpt><trkpt lat="45.55289917666449" lon="3.4449172043002205"><ele>651.0</ele><time>2026-05-01T14:29:54Z</time></trkpt><trkpt lat="45.552732525924206" lon="3.445099222300264"><ele>651.0</ele><time>2026-05-01T14:29:55Z</time></trkpt><trkpt lat="45.55258544594932" lon="3.445354722399149"><ele>651.0</ele><time>2026-05-01T14:29:56Z</time></trkpt><trkpt lat="45.55255731991894" lon="3.4456353300334595"><ele>651.0</ele><time>2026-05-01T14:29:57Z</time></trkpt><trkpt lat="45.55255499233776" lon="3.445972981703749"><ele>657.0</ele><time>2026-05-01T14:29:58Z</time></trkpt><trkpt lat="45.55251627847237" lon="3.446374723447279"><ele>663.0</ele><time>2026-05-01T14:29:59Z</time></trkpt><trkpt lat="45.55245465720287" lon="3.4467382652437206"><ele>663.0</ele><time>2026-05-01T14:30:00Z</time></trkpt><trkpt lat="45.55236502221155" lon="3.4470409952198886"><ele>663.0</ele><time>2026-05-01T14:30:01Z</time></trkpt><trkpt lat="45.55233018101177" lon="3.4473151723173383"><ele>663.0</ele><time>2026-05-01T14:30:02Z</time></trkpt><trkpt lat="45.55236095236898" lon="3.447572216275017"><ele>663.6666666666666</ele><time>2026-05-01T14:30:03Z</time></trkpt><trkpt lat="45.5523868758414" lon="3.4478714154981556"><ele>664.3333333333333</ele><time>2026-05-01T14:30:04Z</time></trkpt><trkpt lat="45.552496214772816" lon="3.448108517908795"><ele>665.0</ele><time>2026-05-01T14:30:05Z</time></trkpt><trkpt lat="45.552747748260884" lon="3.4481105188299717"><ele>666.5</ele><time>2026-05-01T14:30:06Z</time></trkpt><trkpt lat="45.55300067066726" lon="3.448182684464036"><ele>668.0</ele><time>2026-05-01T14:30:07Z</time></trkpt><trkpt lat="45.55331156447046" lon="3.448125892253734"><ele>668.0</ele><time>2026-05-01T14:30:08Z</time></trkpt><trkpt lat="45.55358945614424" lon="3.448038884830781"><ele>668.0</ele><time>2026-05-01T14:30:09Z</time></trkpt><trkpt lat="45.553838242786156" lon="3.4477693999953085"><ele>666.5</ele><time>2026-05-01T14:30:10Z</time></trkpt><trkpt lat="45.55400996139811" lon="3.447309538908376"><ele>665.0</ele><time>2026-05-01T14:30:11Z</time></trkpt><trkpt lat="45.55436804692401" lon="3.4470787030756975"><ele>671.0</ele><time>2026-05-01T14:30:12Z</time></trkpt><trkpt lat="45.55468426808089" lon="3.4470372402714466"><ele>677.0</ele><time>2026-05-01T14:30:13Z</time></trkpt><trkpt lat="45.554964834430535" lon="3.4470498269944807"><ele>677.0</ele><time>2026-05-01T14:30:14Z</time></trkpt><trkpt lat="45.55526779291271" lon="3.447088425871884"><ele>677.0</ele><time>2026-05-01T14:30:15Z</time></trkpt><trkpt lat="45.555516186939975" lon="3.4472060236642057"><ele>676.25</ele><time>2026-05-01T14:30:16Z</time></trkpt><trkpt lat="45.55563820877442" lon="3.447329073469983"><ele>675.5</ele><time>2026-05-01T14:30:17Z</time></trkpt><trkpt lat="45.555663005088455" lon="3.447503231577988"><ele>674.75</ele><time>2026-05-01T14:30:18Z</time></trkpt><trkpt lat="45.555679765918406" lon="3.4477029474306344"><ele>674.0</ele><time>2026-05-01T14:30:19Z</time></trkpt><trkpt lat="45.55564976457059" lon="3.4478850703092703"><ele>673.0</ele><time>2026-05-01T14:30:20Z</time></trkpt><trkpt lat="45.555628501470494" lon="3.448163825482421"><ele>672.0</ele><time>2026-05-01T14:30:21Z</time></trkpt><trkpt lat="45.55565780569708" lon="3.448509335494969"><ele>671.0</ele><time>2026-05-01T14:30:22Z</time></trkpt><trkpt lat="45.55578055648291" lon="3.4488286740704197"><ele>670.6666666666666</ele><time>2026-05-01T14:30:23Z</time></trkpt><trkpt lat="45.55589115041881" lon="3.4490990883209602"><ele>670.3333333333334</ele><time>2026-05-01T14:30:24Z</time></trkpt><trkpt lat="45.55597348111866" lon="3.449371407295203"><ele>670.0</ele><time>2026-05-01T14:30:25Z</time></trkpt><trkpt lat="45.556108828681914" lon="3.4495981410218186"><ele>674.3333333333334</ele><time>2026-05-01T14:30:26Z</time></trkpt><trkpt lat="45.55626731267892" lon="3.4497830501080595"><ele>678.6666666666666</ele><time>2026-05-01T14:30:27Z</time></trkpt><trkpt lat="45.55638293822804" lon="3.4499795443356387"><ele>683.0</ele><time>2026-05-01T14:30:28Z</time></trkpt><trkpt lat="45.55637565214348" lon="3.4501741712349894"><ele>683.0</ele><time>2026-05-01T14:30:29Z</time></trkpt><trkpt lat="45.55624571881182" lon="3.450328134118448"><ele>683.0</ele><time>2026-05-01T14:30:30Z</time></trkpt><trkpt lat="45.55620586020902" lon="3.450643014952207"><ele>683.0</ele><time>2026-05-01T14:30:31Z</time></trkpt><trkpt lat="45.556197379600114" lon="3.4509521516184596"><ele>685.6666666666666</ele><time>2026-05-01T14:30:32Z</time></trkpt><trkpt lat="45.556279596215525" lon="3.4511951914799357"><ele>688.3333333333334</ele><time>2026-05-01T14:30:33.001Z</time></trkpt><trkpt lat="45.556414083452594" lon="3.451421420145662"><ele>691.0</ele><time>2026-05-01T14:30:34.001Z</time></trkpt><trkpt lat="45.55652319366573" lon="3.4516422432827643"><ele>691.0</ele><time>2026-05-01T14:30:35.001Z</time></trkpt><trkpt lat="45.55654191783373" lon="3.45187198839631"><ele>691.0</ele><time>2026-05-01T14:30:36.001Z</time></trkpt><trkpt lat="45.556451971094056" lon="3.4519606300423282"><ele>691.0</ele><time>2026-05-01T14:30:37.001Z</time></trkpt><trkpt lat="45.55635875888899" lon="3.4519930884036625"><ele>691.0</ele><time>2026-05-01T14:30:38.001Z</time></trkpt><trkpt lat="45.55621687729341" lon="3.451983853582026"><ele>689.0</ele><time>2026-05-01T14:30:39.001Z</time></trkpt><trkpt lat="45.55594457678383" lon="3.4520405249405437"><ele>687.0</ele><time>2026-05-01T14:30:40.001Z</time></trkpt><trkpt lat="45.555805753307794" lon="3.452178186825639"><ele>685.0</ele><time>2026-05-01T14:30:41.001Z</time></trkpt><trkpt lat="45.555779994011445" lon="3.452380300872187"><ele>685.0</ele><time>2026-05-01T14:30:42.001Z</time></trkpt><trkpt lat="45.555707247645074" lon="3.4527058923316747"><ele>685.0</ele><time>2026-05-01T14:30:43.001Z</time></trkpt><trkpt lat="45.55563704332613" lon="3.4530266727276846"><ele>692.0</ele><time>2026-05-01T14:30:44.001Z</time></trkpt><trkpt lat="45.55554970486053" lon="3.4533470125091412"><ele>699.0</ele><time>2026-05-01T14:30:45.001Z</time></trkpt><trkpt lat="45.55541963934982" lon="3.4536766681007895"><ele>697.5</ele><time>2026-05-01T14:30:46.001Z</time></trkpt><trkpt lat="45.55527564550236" lon="3.4540006214034205"><ele>696.0</ele><time>2026-05-01T14:30:47.001Z</time></trkpt><trkpt lat="45.555105555886485" lon="3.4542960369773503"><ele>696.0</ele><time>2026-05-01T14:30:48.001Z</time></trkpt><trkpt lat="45.554941177936314" lon="3.454587192120536"><ele>696.0</ele><time>2026-05-01T14:30:49.001Z</time></trkpt><trkpt lat="45.554760880009034" lon="3.4548651511672053"><ele>698.6666666666666</ele><time>2026-05-01T14:30:50.001Z</time></trkpt><trkpt lat="45.55462865424232" lon="3.4550824390166475"><ele>701.3333333333333</ele><time>2026-05-01T14:30:51.001Z</time></trkpt><trkpt lat="45.55453555442387" lon="3.455353867782073"><ele>704.0</ele><time>2026-05-01T14:30:52.001Z</time></trkpt><trkpt lat="45.554519839692425" lon="3.4555184579608955"><ele>705.0</ele><time>2026-05-01T14:30:53.001Z</time></trkpt><trkpt lat="45.554583426262354" lon="3.455647457819153"><ele>706.0</ele><time>2026-05-01T14:30:54.001Z</time></trkpt><trkpt lat="45.55467177251958" lon="3.4558342220108877"><ele>707.0</ele><time>2026-05-01T14:30:55.001Z</time></trkpt><trkpt lat="45.55485392618921" lon="3.4560578602243366"><ele>705.3333333333333</ele><time>2026-05-01T14:30:56.001Z</time></trkpt><trkpt lat="45.55500494413295" lon="3.4563025976196697"><ele>703.6666666666666</ele><time>2026-05-01T14:30:57.001Z</time></trkpt><trkpt lat="45.555136129663694" lon="3.4565380095535194"><ele>702.0</ele><time>2026-05-01T14:30:58.001Z</time></trkpt><trkpt lat="45.555174936102176" lon="3.456811170288363"><ele>697.0</ele><time>2026-05-01T14:30:59.001Z</time></trkpt><trkpt lat="45.55523057242561" lon="3.4571345381461294"><ele>692.0</ele><time>2026-05-01T14:31:00.001Z</time></trkpt><trkpt lat="45.55534110303025" lon="3.457488799891673"><ele>703.0</ele><time>2026-05-01T14:31:01.001Z</time></trkpt><trkpt lat="45.55547356314353" lon="3.457794391525714"><ele>714.0</ele><time>2026-05-01T14:31:02.001Z</time></trkpt><trkpt lat="45.555533217192746" lon="3.458102443723439"><ele>714.0</ele><time>2026-05-01T14:31:03.001Z</time></trkpt><trkpt lat="45.55563877272735" lon="3.458381114958378"><ele>714.0</ele><time>2026-05-01T14:31:04.001Z</time></trkpt><trkpt lat="45.555735006697624" lon="3.45852392260644"><ele>714.0</ele><time>2026-05-01T14:31:05.001Z</time></trkpt><trkpt lat="45.555931389417744" lon="3.458734985634916"><ele>714.25</ele><time>2026-05-01T14:31:06.001Z</time></trkpt><trkpt lat="45.55605238783473" lon="3.4589112764724534"><ele>714.5</ele><time>2026-05-01T14:31:07.001Z</time></trkpt><trkpt lat="45.556110102307876" lon="3.459070764027355"><ele>714.75</ele><time>2026-05-01T14:31:08.001Z</time></trkpt><trkpt lat="45.5560850565693" lon="3.4592411528969644"><ele>715.0</ele><time>2026-05-01T14:31:09.001Z</time></trkpt><trkpt lat="45.55600310788359" lon="3.4594043974637647"><ele>715.0</ele><time>2026-05-01T14:31:10.001Z</time></trkpt><trkpt lat="45.555923048641134" lon="3.459462647090668"><ele>715.0</ele><time>2026-05-01T14:31:11Z</time></trkpt><trkpt lat="45.55582701157206" lon="3.4595299842341483"><ele>715.0</ele><time>2026-05-01T14:31:12Z</time></trkpt><trkpt lat="45.55572703670064" lon="3.4596718622034612"><ele>715.0</ele><time>2026-05-01T14:31:13Z</time></trkpt><trkpt lat="45.55517250082632" lon="3.459912864182476"><ele>712.6666666666667</ele><time>2026-05-01T14:31:14Z</time></trkpt><trkpt lat="45.55511804261162" lon="3.4602688297466746"><ele>710.3333333333334</ele><time>2026-05-01T14:31:15Z</time></trkpt><trkpt lat="45.555074385151705" lon="3.460458927435372"><ele>708.0</ele><time>2026-05-01T14:31:16Z</time></trkpt><trkpt lat="45.55505368000985" lon="3.460674409309778"><ele>708.0</ele><time>2026-05-01T14:31:17Z</time></trkpt><trkpt lat="45.55509079306041" lon="3.4608047078685042"><ele>708.0</ele><time>2026-05-01T14:31:18Z</time></trkpt><trkpt lat="45.55518046996194" lon="3.4609299946691556"><ele>708.0</ele><time>2026-05-01T14:31:19Z</time></trkpt><trkpt lat="45.55532560904728" lon="3.461087040504056"><ele>708.0</ele><time>2026-05-01T14:31:20Z</time></trkpt><trkpt lat="45.55550079024079" lon="3.461348152502989"><ele>717.5</ele><time>2026-05-01T14:31:21Z</time></trkpt><trkpt lat="45.55563842734507" lon="3.4615929892604176"><ele>727.0</ele><time>2026-05-01T14:31:22Z</time></trkpt><trkpt lat="45.55581619230862" lon="3.461856201124032"><ele>726.5</ele><time>2026-05-01T14:31:23Z</time></trkpt><trkpt lat="45.555953590495804" lon="3.4621674109213654"><ele>726.0</ele><time>2026-05-01T14:31:24Z</time></trkpt><trkpt lat="45.556070565108826" lon="3.462438522294339"><ele>726.0</ele><time>2026-05-01T14:31:25Z</time></trkpt><trkpt lat="45.55612038976648" lon="3.462666656350314"><ele>726.0</ele><time>2026-05-01T14:31:26Z</time></trkpt><trkpt lat="45.55610945657535" lon="3.4628628258192067"><ele>726.0</ele><time>2026-05-01T14:31:27Z</time></trkpt><trkpt lat="45.556069750889854" lon="3.463075677311731"><ele>728.6666666666666</ele><time>2026-05-01T14:31:28Z</time></trkpt><trkpt lat="45.55594949020886" lon="3.463050301614389"><ele>731.3333333333333</ele><time>2026-05-01T14:31:29Z</time></trkpt><trkpt lat="45.555838322530136" lon="3.463103622064235"><ele>734.0</ele><time>2026-05-01T14:31:30Z</time></trkpt><trkpt lat="45.55559057517248" lon="3.4632359502606946"><ele>729.0</ele><time>2026-05-01T14:31:31Z</time></trkpt><trkpt lat="45.555254433078545" lon="3.4634167666114157"><ele>724.0</ele><time>2026-05-01T14:31:32Z</time></trkpt><trkpt lat="45.55503287642875" lon="3.4636607025579265"><ele>726.6666666666667</ele><time>2026-05-01T14:31:33Z</time></trkpt><trkpt lat="45.55494053630266" lon="3.4638732494824906"><ele>729.3333333333334</ele><time>2026-05-01T14:31:34Z</time></trkpt><trkpt lat="45.554875302550094" lon="3.464155760072209"><ele>732.0</ele><time>2026-05-01T14:31:35Z</time></trkpt><trkpt lat="45.55483639118945" lon="3.464403071580911"><ele>733.3333333333334</ele><time>2026-05-01T14:31:36Z</time></trkpt><trkpt lat="45.554830971152576" lon="3.4646456289933667"><ele>734.6666666666667</ele><time>2026-05-01T14:31:37Z</time></trkpt><trkpt lat="45.55488578487562" lon="3.464862236710083"><ele>736.0</ele><time>2026-05-01T14:31:38Z</time></trkpt><trkpt lat="45.55499822587856" lon="3.4650909938402052"><ele>736.0</ele><time>2026-05-01T14:31:39Z</time></trkpt><trkpt lat="45.555172560063966" lon="3.4653744578416563"><ele>736.0</ele><time>2026-05-01T14:31:40Z</time></trkpt><trkpt lat="45.55532063814484" lon="3.465699838014547"><ele>743.0</ele><time>2026-05-01T14:31:41Z</time></trkpt><trkpt lat="45.55542789421854" lon="3.4660257785596373"><ele>750.0</ele><time>2026-05-01T14:31:42Z</time></trkpt><trkpt lat="45.555502945192025" lon="3.4663463262084457"><ele>751.0</ele><time>2026-05-01T14:31:43Z</time></trkpt><trkpt lat="45.55546934685504" lon="3.4665247833429182"><ele>752.0</ele><time>2026-05-01T14:31:44Z</time></trkpt><trkpt lat="45.555402590326075" lon="3.4666930016103135"><ele>753.0</ele><time>2026-05-01T14:31:45Z</time></trkpt><trkpt lat="45.55529954500878" lon="3.466901914247697"><ele>754.0</ele><time>2026-05-01T14:31:46Z</time></trkpt><trkpt lat="45.55515678405769" lon="3.4671627705439017"><ele>754.0</ele><time>2026-05-01T14:31:47Z</time></trkpt><trkpt lat="45.555002277003545" lon="3.4673829202967856"><ele>754.0</ele><time>2026-05-01T14:31:48Z</time></trkpt><trkpt lat="45.55491022837897" lon="3.467853424885866"><ele>749.0</ele><time>2026-05-01T14:31:49Z</time></trkpt><trkpt lat="45.55469327028148" lon="3.4681020767671336"><ele>744.0</ele><time>2026-05-01T14:31:50Z</time></trkpt><trkpt lat="45.554471071182746" lon="3.4683463978330344"><ele>744.0</ele><time>2026-05-01T14:31:51Z</time></trkpt><trkpt lat="45.55425981866483" lon="3.468588618703188"><ele>744.0</ele><time>2026-05-01T14:31:52Z</time></trkpt><trkpt lat="45.554049422467806" lon="3.468831487435172"><ele>754.5</ele><time>2026-05-01T14:31:53Z</time></trkpt><trkpt lat="45.55386506706194" lon="3.4690825785936172"><ele>765.0</ele><time>2026-05-01T14:31:54Z</time></trkpt><trkpt lat="45.55372317537321" lon="3.4692958853518063"><ele>757.6666666666666</ele><time>2026-05-01T14:31:55Z</time></trkpt><trkpt lat="45.5536085022421" lon="3.4695057236291933"><ele>750.3333333333333</ele><time>2026-05-01T14:31:56Z</time></trkpt><trkpt lat="45.55361611353851" lon="3.4698308672037834"><ele>743.0</ele><time>2026-05-01T14:31:57Z</time></trkpt><trkpt lat="45.55357801006484" lon="3.4701045031042326"><ele>743.0</ele><time>2026-05-01T14:31:58Z</time></trkpt><trkpt lat="45.553650030469896" lon="3.4703388218387237"><ele>743.0</ele><time>2026-05-01T14:31:59Z</time></trkpt><trkpt lat="45.55375307852731" lon="3.470539296718449"><ele>743.0</ele><time>2026-05-01T14:32:00Z</time></trkpt><trkpt lat="45.554055031734656" lon="3.470742179144186"><ele>750.0</ele><time>2026-05-01T14:32:01Z</time></trkpt><trkpt lat="45.55427818378321" lon="3.470884040170602"><ele>757.0</ele><time>2026-05-01T14:32:02Z</time></trkpt><trkpt lat="45.55440193783125" lon="3.4711224199195296"><ele>757.5</ele><time>2026-05-01T14:32:03Z</time></trkpt><trkpt lat="45.5543974085101" lon="3.471435356322204"><ele>758.0</ele><time>2026-05-01T14:32:04Z</time></trkpt><trkpt lat="45.55423890301379" lon="3.4717253060306246"><ele>758.0</ele><time>2026-05-01T14:32:05Z</time></trkpt><trkpt lat="45.55418166140786" lon="3.472000175356538"><ele>758.0</ele><time>2026-05-01T14:32:06Z</time></trkpt><trkpt lat="45.5540920808776" lon="3.472312495817052"><ele>758.0</ele><time>2026-05-01T14:32:07Z</time></trkpt><trkpt lat="45.554050259085706" lon="3.4726146841042396"><ele>757.6666666666666</ele><time>2026-05-01T14:32:08Z</time></trkpt><trkpt lat="45.554069812723775" lon="3.4728725743360638"><ele>757.3333333333334</ele><time>2026-05-01T14:32:09Z</time></trkpt><trkpt lat="45.5541457885098" lon="3.4731432450857307"><ele>757.0</ele><time>2026-05-01T14:32:10Z</time></trkpt><trkpt lat="45.55426242385836" lon="3.473423193988483"><ele>757.0</ele><time>2026-05-01T14:32:11Z</time></trkpt><trkpt lat="45.55442469233564" lon="3.4737612751807574"><ele>757.0</ele><time>2026-05-01T14:32:12Z</time></trkpt><trkpt lat="45.55454934213397" lon="3.4741049162370343"><ele>762.0</ele><time>2026-05-01T14:32:13Z</time></trkpt><trkpt lat="45.554609763628356" lon="3.4744514326044476"><ele>767.0</ele><time>2026-05-01T14:32:14Z</time></trkpt><trkpt lat="45.55471732876994" lon="3.474755072780623"><ele>767.0</ele><time>2026-05-01T14:32:15Z</time></trkpt><trkpt lat="45.55490057406154" lon="3.4749805257303894"><ele>767.0</ele><time>2026-05-01T14:32:16Z</time></trkpt><trkpt lat="45.555087855179515" lon="3.475210136026943"><ele>767.0</ele><time>2026-05-01T14:32:17Z</time></trkpt><trkpt lat="45.55527600164848" lon="3.4754360045818924"><ele>767.0</ele><time>2026-05-01T14:32:18Z</time></trkpt><trkpt lat="45.55539361727764" lon="3.4757158281778207"><ele>766.0</ele><time>2026-05-01T14:32:19Z</time></trkpt><trkpt lat="45.55544597423179" lon="3.475951909071031"><ele>765.0</ele><time>2026-05-01T14:32:20Z</time></trkpt><trkpt lat="45.55541827721156" lon="3.4762136869088613"><ele>764.0</ele><time>2026-05-01T14:32:21Z</time></trkpt><trkpt lat="45.55534073522881" lon="3.476472277793937"><ele>764.0</ele><time>2026-05-01T14:32:22Z</time></trkpt><trkpt lat="45.555171444562376" lon="3.476536987065954"><ele>764.0</ele><time>2026-05-01T14:32:23Z</time></trkpt><trkpt lat="45.55500504952904" lon="3.476612522502812"><ele>764.0</ele><time>2026-05-01T14:32:24Z</time></trkpt><trkpt lat="45.55477576232542" lon="3.4767506069440803"><ele>764.0</ele><time>2026-05-01T14:32:25Z</time></trkpt><trkpt lat="45.554594525993814" lon="3.476905746702451"><ele>764.0</ele><time>2026-05-01T14:32:26Z</time></trkpt><trkpt lat="45.554424902895704" lon="3.4770792483169894"><ele>764.0</ele><time>2026-05-01T14:32:27Z</time></trkpt><trkpt lat="45.55426484177046" lon="3.4773105801796675"><ele>764.0</ele><time>2026-05-01T14:32:28Z</time></trkpt><trkpt lat="45.55412582878755" lon="3.477587430151253"><ele>764.0</ele><time>2026-05-01T14:32:29Z</time></trkpt><trkpt lat="45.554022289412174" lon="3.477888419579929"><ele>766.5</ele><time>2026-05-01T14:32:30Z</time></trkpt><trkpt lat="45.55392651285935" lon="3.478225977087111"><ele>769.0</ele><time>2026-05-01T14:32:31Z</time></trkpt><trkpt lat="45.553836236207495" lon="3.478570738213817"><ele>771.3333333333333</ele><time>2026-05-01T14:32:32Z</time></trkpt><trkpt lat="45.553750900768975" lon="3.478902985776097"><ele>773.6666666666667</ele><time>2026-05-01T14:32:33Z</time></trkpt><trkpt lat="45.55369499052838" lon="3.4791579069357357"><ele>776.0</ele><time>2026-05-01T14:32:34Z</time></trkpt><trkpt lat="45.55366670108744" lon="3.4794363270380377"><ele>775.0</ele><time>2026-05-01T14:32:35Z</time></trkpt><trkpt lat="45.55372049886606" lon="3.4797515037590787"><ele>774.0</ele><time>2026-05-01T14:32:36Z</time></trkpt><trkpt lat="45.55381879957" lon="3.4800664879111167"><ele>774.0</ele><time>2026-05-01T14:32:37Z</time></trkpt><trkpt lat="45.55397140036649" lon="3.4803678667869575"><ele>774.0</ele><time>2026-05-01T14:32:38Z</time></trkpt><trkpt lat="45.55413660534633" lon="3.4806477970527943"><ele>771.0</ele><time>2026-05-01T14:32:39Z</time></trkpt><trkpt lat="45.554225146319546" lon="3.4809545482380546"><ele>768.0</ele><time>2026-05-01T14:32:40Z</time></trkpt><trkpt lat="45.5542825409447" lon="3.4812461322839225"><ele>765.0</ele><time>2026-05-01T14:32:41Z</time></trkpt><trkpt lat="45.55437192229716" lon="3.481514767715427"><ele>762.3333333333334</ele><time>2026-05-01T14:32:42.001Z</time></trkpt><trkpt lat="45.554510016050244" lon="3.4817348244597612"><ele>759.6666666666667</ele><time>2026-05-01T14:32:43.001Z</time></trkpt><trkpt lat="45.55468845661532" lon="3.481949399514978"><ele>757.0</ele><time>2026-05-01T14:32:44.001Z</time></trkpt><trkpt lat="45.554902648846024" lon="3.482085461949579"><ele>760.6666666666667</ele><time>2026-05-01T14:32:45.001Z</time></trkpt><trkpt lat="45.5551349677893" lon="3.482178781069399"><ele>764.3333333333334</ele><time>2026-05-01T14:32:46.001Z</time></trkpt><trkpt lat="45.5552870219775" lon="3.482371789666855"><ele>768.0</ele><time>2026-05-01T14:32:47.001Z</time></trkpt><trkpt lat="45.555361097234574" lon="3.4826345934791574"><ele>772.5</ele><time>2026-05-01T14:32:48.001Z</time></trkpt><trkpt lat="45.555463799655435" lon="3.482969180748525"><ele>777.0</ele><time>2026-05-01T14:32:49.001Z</time></trkpt><trkpt lat="45.555562614434386" lon="3.4832911022601816"><ele>777.0</ele><time>2026-05-01T14:32:50.001Z</time></trkpt><trkpt lat="45.555667724131425" lon="3.483618816415319"><ele>777.0</ele><time>2026-05-01T14:32:51.001Z</time></trkpt><trkpt lat="45.55589677764365" lon="3.483857822414015"><ele>775.0</ele><time>2026-05-01T14:32:52.001Z</time></trkpt><trkpt lat="45.55598893946717" lon="3.4841872947811927"><ele>773.0</ele><time>2026-05-01T14:32:53.001Z</time></trkpt><trkpt lat="45.556027748760386" lon="3.4845573799552483"><ele>771.0</ele><time>2026-05-01T14:32:54.001Z</time></trkpt><trkpt lat="45.556079526447746" lon="3.484927110574391"><ele>769.0</ele><time>2026-05-01T14:32:55.001Z</time></trkpt><trkpt lat="45.5561289855057" lon="3.4853072454792744"><ele>770.5</ele><time>2026-05-01T14:32:56.001Z</time></trkpt><trkpt lat="45.55615175840657" lon="3.48570222415698"><ele>772.0</ele><time>2026-05-01T14:32:57.001Z</time></trkpt><trkpt lat="45.556142481919444" lon="3.4860827543316653"><ele>774.3333333333333</ele><time>2026-05-01T14:32:58.001Z</time></trkpt><trkpt lat="45.55611361790636" lon="3.486391347484457"><ele>776.6666666666667</ele><time>2026-05-01T14:32:59.001Z</time></trkpt><trkpt lat="45.556056970110795" lon="3.486657173788462"><ele>779.0</ele><time>2026-05-01T14:33:00.001Z</time></trkpt><trkpt lat="45.55590037934321" lon="3.4868872411010257"><ele>779.0</ele><time>2026-05-01T14:33:01.001Z</time></trkpt><trkpt lat="45.555698064479856" lon="3.4870226952060888"><ele>779.0</ele><time>2026-05-01T14:33:02.001Z</time></trkpt><trkpt lat="45.555567557443055" lon="3.487135431542655"><ele>779.0</ele><time>2026-05-01T14:33:03.001Z</time></trkpt><trkpt lat="45.55550222017655" lon="3.4873326372944287"><ele>779.0</ele><time>2026-05-01T14:33:04.001Z</time></trkpt><trkpt lat="45.555537327301394" lon="3.4876199650312434"><ele>779.0</ele><time>2026-05-01T14:33:05.001Z</time></trkpt><trkpt lat="45.55564794555452" lon="3.4879022472081274"><ele>779.0</ele><time>2026-05-01T14:33:06.001Z</time></trkpt><trkpt lat="45.55578205442133" lon="3.4881749397631574"><ele>779.0</ele><time>2026-05-01T14:33:07.001Z</time></trkpt><trkpt lat="45.55589430454518" lon="3.4884598374417166"><ele>779.0</ele><time>2026-05-01T14:33:08.001Z</time></trkpt><trkpt lat="45.55600106069133" lon="3.488778525233643"><ele>776.0</ele><time>2026-05-01T14:33:09.001Z</time></trkpt><trkpt lat="45.55608964089685" lon="3.4890842752380125"><ele>773.0</ele><time>2026-05-01T14:33:10.001Z</time></trkpt><trkpt lat="45.556194842159584" lon="3.4893270014901856"><ele>770.0</ele><time>2026-05-01T14:33:11.001Z</time></trkpt><trkpt lat="45.55636207144244" lon="3.4895611063844405"><ele>777.0</ele><time>2026-05-01T14:33:12.001Z</time></trkpt><trkpt lat="45.556520137255085" lon="3.489780852157744"><ele>784.0</ele><time>2026-05-01T14:33:13.001Z</time></trkpt><trkpt lat="45.55665964157475" lon="3.489752228213386"><ele>791.0</ele><time>2026-05-01T14:33:14.001Z</time></trkpt><trkpt lat="45.55677918896212" lon="3.4899244766233295"><ele>791.0</ele><time>2026-05-01T14:33:15.001Z</time></trkpt><trkpt lat="45.55686649337085" lon="3.490082101634563"><ele>791.0</ele><time>2026-05-01T14:33:16.001Z</time></trkpt><trkpt lat="45.556684120675094" lon="3.4903381564841296"><ele>791.0</ele><time>2026-05-01T14:33:17Z</time></trkpt><trkpt lat="45.556487926178605" lon="3.490447212520828"><ele>789.0</ele><time>2026-05-01T14:33:18Z</time></trkpt><trkpt lat="45.55625891077658" lon="3.4905834878920494"><ele>787.0</ele><time>2026-05-01T14:33:19Z</time></trkpt><trkpt lat="45.55603846698927" lon="3.4906870852011282"><ele>787.0</ele><time>2026-05-01T14:33:20Z</time></trkpt><trkpt lat="45.55586685122197" lon="3.4909509759678263"><ele>787.0</ele><time>2026-05-01T14:33:21Z</time></trkpt><trkpt lat="45.55573077698434" lon="3.491224099327011"><ele>786.5</ele><time>2026-05-01T14:33:22Z</time></trkpt><trkpt lat="45.55555987417114" lon="3.49143626069164"><ele>786.0</ele><time>2026-05-01T14:33:23Z</time></trkpt><trkpt lat="45.55530467504524" lon="3.4915316114573764"><ele>786.0</ele><time>2026-05-01T14:33:24Z</time></trkpt><trkpt lat="45.5550328952527" lon="3.491626660560368"><ele>786.0</ele><time>2026-05-01T14:33:25Z</time></trkpt><trkpt lat="45.55476652996445" lon="3.4917241818151887"><ele>784.5</ele><time>2026-05-01T14:33:26Z</time></trkpt><trkpt lat="45.55451117592833" lon="3.491830732031973"><ele>783.0</ele><time>2026-05-01T14:33:27Z</time></trkpt><trkpt lat="45.554248297884776" lon="3.491943443856821"><ele>783.0</ele><time>2026-05-01T14:33:28Z</time></trkpt><trkpt lat="45.55398256017194" lon="3.492088791949624"><ele>783.0</ele><time>2026-05-01T14:33:29Z</time></trkpt><trkpt lat="45.55374667676993" lon="3.492281208039336"><ele>784.0</ele><time>2026-05-01T14:33:30Z</time></trkpt><trkpt lat="45.55362107571584" lon="3.4924078316401532"><ele>785.0</ele><time>2026-05-01T14:33:31Z</time></trkpt><trkpt lat="45.55351298467909" lon="3.4926721679198023"><ele>786.0</ele><time>2026-05-01T14:33:32Z</time></trkpt><trkpt lat="45.553447836963436" lon="3.4929951989395014"><ele>786.0</ele><time>2026-05-01T14:33:33Z</time></trkpt><trkpt lat="45.55344572983075" lon="3.4933285212666605"><ele>786.0</ele><time>2026-05-01T14:33:34Z</time></trkpt><trkpt lat="45.55353607778605" lon="3.4936635218963814"><ele>786.0</ele><time>2026-05-01T14:33:35Z</time></trkpt><trkpt lat="45.553627926707755" lon="3.494007995347388"><ele>786.0</ele><time>2026-05-01T14:33:36Z</time></trkpt><trkpt lat="45.55370387249243" lon="3.494347230530336"><ele>790.5</ele><time>2026-05-01T14:33:37Z</time></trkpt><trkpt lat="45.553779720901055" lon="3.4946796652359704"><ele>795.0</ele><time>2026-05-01T14:33:38Z</time></trkpt><trkpt lat="45.553932937193544" lon="3.494992915823627"><ele>795.0</ele><time>2026-05-01T14:33:39Z</time></trkpt><trkpt lat="45.55412198870628" lon="3.495279284679793"><ele>795.0</ele><time>2026-05-01T14:33:40Z</time></trkpt><trkpt lat="45.554295142594924" lon="3.495542257760346"><ele>794.0</ele><time>2026-05-01T14:33:41Z</time></trkpt><trkpt lat="45.55441388169139" lon="3.495798119289085"><ele>793.0</ele><time>2026-05-01T14:33:42Z</time></trkpt><trkpt lat="45.554357473233964" lon="3.4961307106530426"><ele>795.0</ele><time>2026-05-01T14:33:43Z</time></trkpt><trkpt lat="45.55426643255778" lon="3.4965175984562844"><ele>797.0</ele><time>2026-05-01T14:33:44Z</time></trkpt><trkpt lat="45.55413423650156" lon="3.4968619075863234"><ele>797.3333333333334</ele><time>2026-05-01T14:33:45Z</time></trkpt><trkpt lat="45.55401505479367" lon="3.4971726735943887"><ele>797.6666666666667</ele><time>2026-05-01T14:33:46Z</time></trkpt><trkpt lat="45.55389245624643" lon="3.4973716913891777"><ele>798.0</ele><time>2026-05-01T14:33:47Z</time></trkpt><trkpt lat="45.55368833539356" lon="3.4975056364581563"><ele>798.5</ele><time>2026-05-01T14:33:48Z</time></trkpt><trkpt lat="45.55346297257027" lon="3.4975735319049357"><ele>799.0</ele><time>2026-05-01T14:33:49Z</time></trkpt><trkpt lat="45.55320582496734" lon="3.497566273266455"><ele>799.0</ele><time>2026-05-01T14:33:50Z</time></trkpt><trkpt lat="45.55294405887431" lon="3.497448882980454"><ele>799.0</ele><time>2026-05-01T14:33:51Z</time></trkpt><trkpt lat="45.55269423339347" lon="3.497392842248133"><ele>799.0</ele><time>2026-05-01T14:33:52Z</time></trkpt><trkpt lat="45.552446327107816" lon="3.4974494352620686"><ele>799.0</ele><time>2026-05-01T14:33:53Z</time></trkpt><trkpt lat="45.55220281997313" lon="3.497583429572781"><ele>799.3333333333333</ele><time>2026-05-01T14:33:54Z</time></trkpt><trkpt lat="45.55201527254953" lon="3.497725110832535"><ele>799.6666666666667</ele><time>2026-05-01T14:33:55Z</time></trkpt><trkpt lat="45.551847206510026" lon="3.497911638551058"><ele>800.0</ele><time>2026-05-01T14:33:56Z</time></trkpt><trkpt lat="45.55173408876577" lon="3.498105164830506"><ele>800.0</ele><time>2026-05-01T14:33:57Z</time></trkpt><trkpt lat="45.55164453888545" lon="3.498292559920398"><ele>800.0</ele><time>2026-05-01T14:33:58Z</time></trkpt><trkpt lat="45.55157653016477" lon="3.4984102291718355"><ele>800.0</ele><time>2026-05-01T14:33:59Z</time></trkpt><trkpt lat="45.55145801487609" lon="3.498500154630966"><ele>800.0</ele><time>2026-05-01T14:34:00Z</time></trkpt><trkpt lat="45.55137344491455" lon="3.498600421311785"><ele>800.0000000000001</ele><time>2026-05-01T14:34:01Z</time></trkpt><trkpt lat="45.55129136265352" lon="3.4986767641743186"><ele>800.0</ele><time>2026-05-01T14:34:02Z</time></trkpt><trkpt lat="45.551218362016954" lon="3.498740499323772"><ele>800.0</ele><time>2026-05-01T14:34:03Z</time></trkpt><trkpt lat="45.551143939478706" lon="3.498813144338009"><ele>800.0</ele><time>2026-05-01T14:34:04Z</time></trkpt><trkpt lat="45.551082685106685" lon="3.4988696821950995"><ele>800.0000000000001</ele><time>2026-05-01T14:34:05Z</time></trkpt><trkpt lat="45.5510302480409" lon="3.498932192851647"><ele>800.0</ele><time>2026-05-01T14:34:06Z</time></trkpt><trkpt lat="45.55097043335456" lon="3.4990095678114588"><ele>800.3333333333334</ele><time>2026-05-01T14:34:07Z</time></trkpt><trkpt lat="45.55089565779771" lon="3.4990922521019354"><ele>800.6666666666667</ele><time>2026-05-01T14:34:08Z</time></trkpt><trkpt lat="45.55082741783762" lon="3.4991357450602485"><ele>801.0</ele><time>2026-05-01T14:34:09Z</time></trkpt><trkpt lat="45.55077167909398" lon="3.4991864436058524"><ele>801.3333333333333</ele><time>2026-05-01T14:34:10Z</time></trkpt><trkpt lat="45.55067748548903" lon="3.499267697032754"><ele>801.6666666666666</ele><time>2026-05-01T14:34:12Z</time></trkpt><trkpt lat="45.55059967077399" lon="3.4993064031660968"><ele>802.0</ele><time>2026-05-01T14:34:15Z</time></trkpt><trkpt lat="45.55079077674681" lon="3.4992274999937463"><ele>802.0</ele><time>2026-05-01T14:34:19Z</time></trkpt><trkpt lat="45.55090860171888" lon="3.499146158974699"><ele>802.0</ele><time>2026-05-01T14:34:20Z</time></trkpt><trkpt lat="45.551152406745565" lon="3.4989627090143136"><ele>802.0</ele><time>2026-05-01T14:34:21Z</time></trkpt><trkpt lat="45.5513033404442" lon="3.498821298853214"><ele>801.3333333333333</ele><time>2026-05-01T14:34:22Z</time></trkpt><trkpt lat="45.55145848737788" lon="3.4986644414057095"><ele>800.6666666666667</ele><time>2026-05-01T14:34:23Z</time></trkpt><trkpt lat="45.55161453110172" lon="3.4984871255842416"><ele>800.0</ele><time>2026-05-01T14:34:24Z</time></trkpt><trkpt lat="45.551781346438474" lon="3.4983318931309335"><ele>800.0</ele><time>2026-05-01T14:34:25Z</time></trkpt><trkpt lat="45.551939770480665" lon="3.498152704059777"><ele>800.0</ele><time>2026-05-01T14:34:26Z</time></trkpt><trkpt lat="45.55207432912846" lon="3.497990666766134"><ele>800.0</ele><time>2026-05-01T14:34:27Z</time></trkpt><trkpt lat="45.5522052405848" lon="3.497905218677639"><ele>799.6666666666667</ele><time>2026-05-01T14:34:28Z</time></trkpt><trkpt lat="45.552380602005194" lon="3.4978948357901753"><ele>799.3333333333333</ele><time>2026-05-01T14:34:29Z</time></trkpt><trkpt lat="45.552588121687705" lon="3.497950403810157"><ele>799.0</ele><time>2026-05-01T14:34:30Z</time></trkpt><trkpt lat="45.55278836281641" lon="3.4980097138120665"><ele>800.6666666666666</ele><time>2026-05-01T14:34:31Z</time></trkpt><trkpt lat="45.55295989399368" lon="3.498145659453836"><ele>802.3333333333333</ele><time>2026-05-01T14:34:32Z</time></trkpt><trkpt lat="45.553116593940786" lon="3.4983491027835267"><ele>804.0</ele><time>2026-05-01T14:34:33Z</time></trkpt><trkpt lat="45.55328130065235" lon="3.4985561811561996"><ele>804.0</ele><time>2026-05-01T14:34:34Z</time></trkpt><trkpt lat="45.55350587651189" lon="3.498703342430614"><ele>804.0</ele><time>2026-05-01T14:34:35Z</time></trkpt><trkpt lat="45.55367325282601" lon="3.4988747153643396"><ele>806.0</ele><time>2026-05-01T14:34:36Z</time></trkpt><trkpt lat="45.5537848440629" lon="3.4990686298289733"><ele>808.0</ele><time>2026-05-01T14:34:37Z</time></trkpt><trkpt lat="45.553832825180066" lon="3.4992831245600677"><ele>810.0</ele><time>2026-05-01T14:34:38Z</time></trkpt><trkpt lat="45.553769808819524" lon="3.499498671324739"><ele>812.6666666666667</ele><time>2026-05-01T14:34:39Z</time></trkpt><trkpt lat="45.5537106766377" lon="3.4997555513771115"><ele>815.3333333333334</ele><time>2026-05-01T14:34:40Z</time></trkpt><trkpt lat="45.553755484518454" lon="3.4999613472534783"><ele>818.0</ele><time>2026-05-01T14:34:41Z</time></trkpt><trkpt lat="45.55385007803233" lon="3.500160218845272"><ele>818.0</ele><time>2026-05-01T14:34:42Z</time></trkpt><trkpt lat="45.55395703120565" lon="3.5002832167136693"><ele>818.0</ele><time>2026-05-01T14:34:43Z</time></trkpt><trkpt lat="45.55404668693203" lon="3.5004043943158596"><ele>818.0</ele><time>2026-05-01T14:34:44Z</time></trkpt><trkpt lat="45.554363954359744" lon="3.5000504855756605"><ele>818.5</ele><time>2026-05-01T14:34:45Z</time></trkpt><trkpt lat="45.554557126190325" lon="3.500056396583497"><ele>819.0</ele><time>2026-05-01T14:34:46Z</time></trkpt><trkpt lat="45.55484273419492" lon="3.500127181353771"><ele>819.0</ele><time>2026-05-01T14:34:47Z</time></trkpt><trkpt lat="45.5550507867173" lon="3.5003535312020166"><ele>819.0</ele><time>2026-05-01T14:34:48.001Z</time></trkpt><trkpt lat="45.5552305628718" lon="3.500445119429634"><ele>820.3333333333333</ele><time>2026-05-01T14:34:49.001Z</time></trkpt><trkpt lat="45.55537050279684" lon="3.5004452906300534"><ele>821.6666666666666</ele><time>2026-05-01T14:34:50.001Z</time></trkpt><trkpt lat="45.55557784227924" lon="3.5003874334475067"><ele>823.0</ele><time>2026-05-01T14:34:51.001Z</time></trkpt><trkpt lat="45.555795346915744" lon="3.500363442975921"><ele>823.0</ele><time>2026-05-01T14:34:52.001Z</time></trkpt><trkpt lat="45.55600862750444" lon="3.500354978730615"><ele>823.0</ele><time>2026-05-01T14:34:53.001Z</time></trkpt><trkpt lat="45.55624680532516" lon="3.5003831913542456"><ele>824.5</ele><time>2026-05-01T14:34:54.001Z</time></trkpt><trkpt lat="45.556508909908715" lon="3.5003429390167278"><ele>826.0</ele><time>2026-05-01T14:34:55.001Z</time></trkpt><trkpt lat="45.55672460448984" lon="3.5004270591730062"><ele>829.5</ele><time>2026-05-01T14:34:56.001Z</time></trkpt><trkpt lat="45.556914642174966" lon="3.5005801337223077"><ele>833.0</ele><time>2026-05-01T14:34:57.001Z</time></trkpt><trkpt lat="45.557162746982804" lon="3.5007012945917007"><ele>834.0</ele><time>2026-05-01T14:34:58.001Z</time></trkpt><trkpt lat="45.557374916415945" lon="3.5007376374675396"><ele>835.0</ele><time>2026-05-01T14:34:59.001Z</time></trkpt><trkpt lat="45.55761239956306" lon="3.500731979556835"><ele>835.0</ele><time>2026-05-01T14:35:00.001Z</time></trkpt><trkpt lat="45.55782798517686" lon="3.5007591039869115"><ele>835.0</ele><time>2026-05-01T14:35:01.001Z</time></trkpt><trkpt lat="45.55799463192936" lon="3.5008063695046965"><ele>835.0</ele><time>2026-05-01T14:35:02.001Z</time></trkpt><trkpt lat="45.558119585664976" lon="3.500945160222616"><ele>834.6666666666666</ele><time>2026-05-01T14:35:03.001Z</time></trkpt><trkpt lat="45.55823832959707" lon="3.501132603582223"><ele>834.3333333333333</ele><time>2026-05-01T14:35:04.001Z</time></trkpt><trkpt lat="45.55830307104608" lon="3.501346965420002"><ele>834.0</ele><time>2026-05-01T14:35:05.001Z</time></trkpt><trkpt lat="45.55831693898823" lon="3.5015159823647326"><ele>834.0</ele><time>2026-05-01T14:35:06.001Z</time></trkpt><trkpt lat="45.55830654736858" lon="3.5016607344346067"><ele>834.0</ele><time>2026-05-01T14:35:07.001Z</time></trkpt><trkpt lat="45.558313072756484" lon="3.501808317230884"><ele>834.0</ele><time>2026-05-01T14:35:08.001Z</time></trkpt><trkpt lat="45.558813651513496" lon="3.5020249991129524"><ele>839.0</ele><time>2026-05-01T14:35:09.001Z</time></trkpt><trkpt lat="45.55826783230589" lon="3.502750631189944"><ele>839.0</ele><time>2026-05-01T14:35:10.001Z</time></trkpt><trkpt lat="45.55845620814167" lon="3.502844190998871"><ele>839.0</ele><time>2026-05-01T14:35:11.001Z</time></trkpt><trkpt lat="45.55866171409198" lon="3.502892023309681"><ele>839.0</ele><time>2026-05-01T14:35:12.001Z</time></trkpt><trkpt lat="45.5588462321457" lon="3.502876257601229"><ele>839.5</ele><time>2026-05-01T14:35:13.001Z</time></trkpt><trkpt lat="45.55908350724966" lon="3.502707669188554"><ele>840.0</ele><time>2026-05-01T14:35:14.001Z</time></trkpt><trkpt lat="45.55937333724076" lon="3.502658911854109"><ele>840.0</ele><time>2026-05-01T14:35:15.001Z</time></trkpt><trkpt lat="45.559644215205765" lon="3.502632851098549"><ele>840.0</ele><time>2026-05-01T14:35:16.001Z</time></trkpt><trkpt lat="45.559886988347515" lon="3.502585318298059"><ele>840.0</ele><time>2026-05-01T14:35:17.001Z</time></trkpt><trkpt lat="45.5600860491343" lon="3.502448286202207"><ele>840.0</ele><time>2026-05-01T14:35:18.001Z</time></trkpt><trkpt lat="45.56027429697265" lon="3.5022370371919904"><ele>841.0</ele><time>2026-05-01T14:35:19.001Z</time></trkpt><trkpt lat="45.5605166176416" lon="3.50205144981414"><ele>842.0</ele><time>2026-05-01T14:35:20.001Z</time></trkpt><trkpt lat="45.56074751560177" lon="3.501888355311766"><ele>842.0</ele><time>2026-05-01T14:35:21.001Z</time></trkpt><trkpt lat="45.5609918640236" lon="3.5017594393853346"><ele>842.0</ele><time>2026-05-01T14:35:22.001Z</time></trkpt><trkpt lat="45.5612405700071" lon="3.5016021690938217"><ele>845.0</ele><time>2026-05-01T14:35:23Z</time></trkpt><trkpt lat="45.56147407233774" lon="3.501409279698637"><ele>848.0</ele><time>2026-05-01T14:35:24Z</time></trkpt><trkpt lat="45.56170266717831" lon="3.501205412678445"><ele>848.0</ele><time>2026-05-01T14:35:25Z</time></trkpt><trkpt lat="45.56194296132205" lon="3.5010075340987754"><ele>848.0</ele><time>2026-05-01T14:35:26Z</time></trkpt><trkpt lat="45.56218824663552" lon="3.5008026625504405"><ele>851.5</ele><time>2026-05-01T14:35:27Z</time></trkpt><trkpt lat="45.5624384810912" lon="3.500587438725798"><ele>855.0</ele><time>2026-05-01T14:35:28Z</time></trkpt><trkpt lat="45.562662515746425" lon="3.500317294093084"><ele>857.5</ele><time>2026-05-01T14:35:29Z</time></trkpt><trkpt lat="45.56286657111334" lon="3.5000176102795053"><ele>860.0</ele><time>2026-05-01T14:35:30Z</time></trkpt><trkpt lat="45.56308086632084" lon="3.499732584044168"><ele>860.0</ele><time>2026-05-01T14:35:31Z</time></trkpt><trkpt lat="45.56333051168909" lon="3.4995056954472004"><ele>860.0</ele><time>2026-05-01T14:35:32Z</time></trkpt><trkpt lat="45.56357293838776" lon="3.4992621896189227"><ele>860.0</ele><time>2026-05-01T14:35:33Z</time></trkpt><trkpt lat="45.56382748686502" lon="3.4990445712342444"><ele>860.0</ele><time>2026-05-01T14:35:34Z</time></trkpt><trkpt lat="45.56408713868246" lon="3.49882213732987"><ele>860.0</ele><time>2026-05-01T14:35:35Z</time></trkpt><trkpt lat="45.56434179226435" lon="3.498582919804862"><ele>860.0</ele><time>2026-05-01T14:35:36Z</time></trkpt><trkpt lat="45.56457857000709" lon="3.4983724800295235"><ele>860.0</ele><time>2026-05-01T14:35:37Z</time></trkpt><trkpt lat="45.5647327568569" lon="3.4982382469199726"><ele>860.0</ele><time>2026-05-01T14:35:38Z</time></trkpt><trkpt lat="45.56499111745397" lon="3.4981519702914987"><ele>860.0</ele><time>2026-05-01T14:35:39Z</time></trkpt><trkpt lat="45.56523466373292" lon="3.498075307215579"><ele>859.0</ele><time>2026-05-01T14:35:40Z</time></trkpt><trkpt lat="45.56550304444722" lon="3.497993910551883"><ele>858.0</ele><time>2026-05-01T14:35:41Z</time></trkpt><trkpt lat="45.56577183482031" lon="3.49788718172525"><ele>858.0</ele><time>2026-05-01T14:35:42Z</time></trkpt><trkpt lat="45.56605364572804" lon="3.4978000765727564"><ele>858.0</ele><time>2026-05-01T14:35:43Z</time></trkpt><trkpt lat="45.56634540147198" lon="3.497706328318748"><ele>857.0</ele><time>2026-05-01T14:35:44Z</time></trkpt><trkpt lat="45.56664392594688" lon="3.4976200509492097"><ele>856.0</ele><time>2026-05-01T14:35:45Z</time></trkpt><trkpt lat="45.56693915577082" lon="3.497532917465089"><ele>856.0</ele><time>2026-05-01T14:35:46Z</time></trkpt><trkpt lat="45.56719810375887" lon="3.497446715811104"><ele>856.0</ele><time>2026-05-01T14:35:47Z</time></trkpt><trkpt lat="45.5674140147038" lon="3.4973226195615807"><ele>856.0</ele><time>2026-05-01T14:35:48Z</time></trkpt><trkpt lat="45.56763329185701" lon="3.497193031936742"><ele>856.0</ele><time>2026-05-01T14:35:49Z</time></trkpt><trkpt lat="45.56782323486625" lon="3.4970109694192977"><ele>855.6666666666666</ele><time>2026-05-01T14:35:50Z</time></trkpt><trkpt lat="45.56801136405704" lon="3.4968705684720534"><ele>855.3333333333333</ele><time>2026-05-01T14:35:51Z</time></trkpt><trkpt lat="45.568156195193154" lon="3.4967486251343423"><ele>855.0</ele><time>2026-05-01T14:35:52Z</time></trkpt><trkpt lat="45.568085356384465" lon="3.496102013000936"><ele>854.5</ele><time>2026-05-01T14:35:53Z</time></trkpt><trkpt lat="45.568068171009834" lon="3.495743050612698"><ele>854.0</ele><time>2026-05-01T14:35:54Z</time></trkpt><trkpt lat="45.568098071651995" lon="3.4954334693895985"><ele>851.5</ele><time>2026-05-01T14:35:55Z</time></trkpt><trkpt lat="45.56822957329845" lon="3.495166202603471"><ele>849.0</ele><time>2026-05-01T14:35:56Z</time></trkpt><trkpt lat="45.56841740443184" lon="3.494941712944371"><ele>849.0</ele><time>2026-05-01T14:35:57Z</time></trkpt><trkpt lat="45.56861812066087" lon="3.494729970591093"><ele>849.0</ele><time>2026-05-01T14:35:58Z</time></trkpt><trkpt lat="45.56888063894968" lon="3.4945721739731415"><ele>848.5</ele><time>2026-05-01T14:35:59Z</time></trkpt><trkpt lat="45.56911049884272" lon="3.4943509815228118"><ele>848.0</ele><time>2026-05-01T14:36:00Z</time></trkpt><trkpt lat="45.56934133087434" lon="3.4940585771716113"><ele>850.5</ele><time>2026-05-01T14:36:01Z</time></trkpt><trkpt lat="45.56955589857049" lon="3.493770924380134"><ele>853.0</ele><time>2026-05-01T14:36:02Z</time></trkpt><trkpt lat="45.56978986805039" lon="3.4935316547667092"><ele>846.5</ele><time>2026-05-01T14:36:03Z</time></trkpt><trkpt lat="45.570023840529494" lon="3.493315674009534"><ele>840.0</ele><time>2026-05-01T14:36:04Z</time></trkpt><trkpt lat="45.570296062691725" lon="3.493181811396395"><ele>842.0</ele><time>2026-05-01T14:36:05Z</time></trkpt><trkpt lat="45.5705936814771" lon="3.493069121458887"><ele>844.0</ele><time>2026-05-01T14:36:06Z</time></trkpt><trkpt lat="45.570841229321" lon="3.49288751190147"><ele>841.5</ele><time>2026-05-01T14:36:07Z</time></trkpt><trkpt lat="45.57107007404508" lon="3.492588258734475"><ele>839.0</ele><time>2026-05-01T14:36:08Z</time></trkpt><trkpt lat="45.571287177038194" lon="3.4923323687672894"><ele>839.0</ele><time>2026-05-01T14:36:09Z</time></trkpt><trkpt lat="45.57149266117491" lon="3.492153204861676"><ele>839.0</ele><time>2026-05-01T14:36:10Z</time></trkpt><trkpt lat="45.571744742351086" lon="3.4920546980835865"><ele>833.5</ele><time>2026-05-01T14:36:11Z</time></trkpt><trkpt lat="45.57201419436735" lon="3.4920157780901078"><ele>828.0</ele><time>2026-05-01T14:36:12Z</time></trkpt><trkpt lat="45.57229895662945" lon="3.4920066485453134"><ele>827.5</ele><time>2026-05-01T14:36:13Z</time></trkpt><trkpt lat="45.57258795119451" lon="3.4919637232434857"><ele>827.0</ele><time>2026-05-01T14:36:14Z</time></trkpt><trkpt lat="45.572866014210064" lon="3.4918889766801713"><ele>826.0</ele><time>2026-05-01T14:36:15Z</time></trkpt><trkpt lat="45.573098318867686" lon="3.491852108276254"><ele>825.0</ele><time>2026-05-01T14:36:16Z</time></trkpt><trkpt lat="45.573309283746866" lon="3.4918879980587385"><ele>824.0</ele><time>2026-05-01T14:36:17Z</time></trkpt><trkpt lat="45.57351306759082" lon="3.492031514811241"><ele>822.5</ele><time>2026-05-01T14:36:18Z</time></trkpt><trkpt lat="45.573729690388916" lon="3.492231077777615"><ele>821.0</ele><time>2026-05-01T14:36:19Z</time></trkpt><trkpt lat="45.57396405766984" lon="3.4924148367371837"><ele>821.0</ele><time>2026-05-01T14:36:20Z</time></trkpt><trkpt lat="45.574215615434284" lon="3.492585681874364"><ele>821.0</ele><time>2026-05-01T14:36:21Z</time></trkpt><trkpt lat="45.57443473291406" lon="3.4927344804509435"><ele>819.3333333333334</ele><time>2026-05-01T14:36:22Z</time></trkpt><trkpt lat="45.57460269369742" lon="3.4928554405050463"><ele>817.6666666666667</ele><time>2026-05-01T14:36:23Z</time></trkpt><trkpt lat="45.57473779442911" lon="3.4930083659560154"><ele>816.0</ele><time>2026-05-01T14:36:24Z</time></trkpt><trkpt lat="45.57483251929769" lon="3.4932412879886354"><ele>816.0</ele><time>2026-05-01T14:36:25Z</time></trkpt><trkpt lat="45.574874011862136" lon="3.493533465383898"><ele>816.0</ele><time>2026-05-01T14:36:26Z</time></trkpt><trkpt lat="45.57494177260067" lon="3.4937477464779363"><ele>816.0</ele><time>2026-05-01T14:36:27Z</time></trkpt><trkpt lat="45.57510217821327" lon="3.4938756857663686"><ele>816.3333333333333</ele><time>2026-05-01T14:36:28Z</time></trkpt><trkpt lat="45.57531386402242" lon="3.493911022323545"><ele>816.6666666666666</ele><time>2026-05-01T14:36:29Z</time></trkpt><trkpt lat="45.57554160470642" lon="3.493949112238568"><ele>817.0</ele><time>2026-05-01T14:36:30Z</time></trkpt><trkpt lat="45.57576866067438" lon="3.493949099286514"><ele>817.0</ele><time>2026-05-01T14:36:31Z</time></trkpt><trkpt lat="45.5759923194892" lon="3.4938894646565286"><ele>817.0</ele><time>2026-05-01T14:36:32Z</time></trkpt><trkpt lat="45.576247907451844" lon="3.4937562893182337"><ele>817.0</ele><time>2026-05-01T14:36:33Z</time></trkpt><trkpt lat="45.57650488391487" lon="3.493528355409379"><ele>817.0</ele><time>2026-05-01T14:36:34Z</time></trkpt><trkpt lat="45.57671419754848" lon="3.493262782207372"><ele>817.0</ele><time>2026-05-01T14:36:35Z</time></trkpt><trkpt lat="45.57689398490231" lon="3.492945462765726"><ele>817.0</ele><time>2026-05-01T14:36:36Z</time></trkpt><trkpt lat="45.577101364267584" lon="3.4926502390312666"><ele>818.0</ele><time>2026-05-01T14:36:37Z</time></trkpt><trkpt lat="45.5773217736941" lon="3.492435655954989"><ele>819.0</ele><time>2026-05-01T14:36:38Z</time></trkpt><trkpt lat="45.57752766306814" lon="3.4922917257991934"><ele>819.0</ele><time>2026-05-01T14:36:39Z</time></trkpt><trkpt lat="45.577716734781376" lon="3.492213074653933"><ele>819.0</ele><time>2026-05-01T14:36:40Z</time></trkpt><trkpt lat="45.57795215381218" lon="3.492225407370834"><ele>819.0</ele><time>2026-05-01T14:36:41Z</time></trkpt><trkpt lat="45.57819553327694" lon="3.4922701067809037"><ele>819.5</ele><time>2026-05-01T14:36:42Z</time></trkpt><trkpt lat="45.57845166323334" lon="3.4922579798655233"><ele>820.0</ele><time>2026-05-01T14:36:43Z</time></trkpt><trkpt lat="45.57871428344674" lon="3.4922216856097825"><ele>817.5</ele><time>2026-05-01T14:36:44Z</time></trkpt><trkpt lat="45.57898099010211" lon="3.4921768967142133"><ele>815.0</ele><time>2026-05-01T14:36:45Z</time></trkpt><trkpt lat="45.57924963446941" lon="3.4920928835653164"><ele>813.5</ele><time>2026-05-01T14:36:46Z</time></trkpt><trkpt lat="45.57951565321085" lon="3.4919553347391425"><ele>812.0</ele><time>2026-05-01T14:36:47Z</time></trkpt><trkpt lat="45.5797876702219" lon="3.491793135595711"><ele>811.5</ele><time>2026-05-01T14:36:48Z</time></trkpt><trkpt lat="45.580055562420554" lon="3.491618278649479"><ele>811.0</ele><time>2026-05-01T14:36:49Z</time></trkpt><trkpt lat="45.58030895974939" lon="3.4914673174368094"><ele>811.0</ele><time>2026-05-01T14:36:50Z</time></trkpt><trkpt lat="45.58052611823673" lon="3.49136296487152"><ele>811.0</ele><time>2026-05-01T14:36:51Z</time></trkpt><trkpt lat="45.58072908546824" lon="3.491382565312862"><ele>811.0</ele><time>2026-05-01T14:36:52Z</time></trkpt><trkpt lat="45.58091713369546" lon="3.491445008690651"><ele>811.0</ele><time>2026-05-01T14:36:53Z</time></trkpt><trkpt lat="45.58111402379958" lon="3.4916295989180632"><ele>811.0</ele><time>2026-05-01T14:36:54Z</time></trkpt><trkpt lat="45.581213331082296" lon="3.4918737866868828"><ele>811.0</ele><time>2026-05-01T14:36:55Z</time></trkpt><trkpt lat="45.58126268596709" lon="3.4921380699919338"><ele>811.5</ele><time>2026-05-01T14:36:56Z</time></trkpt><trkpt lat="45.58138491866645" lon="3.49224498703271"><ele>812.0</ele><time>2026-05-01T14:36:57.001Z</time></trkpt><trkpt lat="45.581518431881214" lon="3.492244292582322"><ele>812.5</ele><time>2026-05-01T14:36:58.001Z</time></trkpt><trkpt lat="45.581647817127255" lon="3.4921265298596924"><ele>813.0</ele><time>2026-05-01T14:36:59.001Z</time></trkpt><trkpt lat="45.58168730363148" lon="3.4918300183546656"><ele>811.0</ele><time>2026-05-01T14:37:00.001Z</time></trkpt><trkpt lat="45.58175798336281" lon="3.491504477347667"><ele>809.0</ele><time>2026-05-01T14:37:01.001Z</time></trkpt><trkpt lat="45.58188349442353" lon="3.491158642257835"><ele>811.0</ele><time>2026-05-01T14:37:02.001Z</time></trkpt><trkpt lat="45.582048990508895" lon="3.490884068149281"><ele>813.0</ele><time>2026-05-01T14:37:03.001Z</time></trkpt><trkpt lat="45.58220934632709" lon="3.490729598948505"><ele>815.0</ele><time>2026-05-01T14:37:04.001Z</time></trkpt><trkpt lat="45.582365277776084" lon="3.490609375785098"><ele>815.0</ele><time>2026-05-01T14:37:05.001Z</time></trkpt><trkpt lat="45.58256153259936" lon="3.4904775596269064"><ele>815.0</ele><time>2026-05-01T14:37:06.001Z</time></trkpt><trkpt lat="45.582764805771475" lon="3.490358781440294"><ele>815.0</ele><time>2026-05-01T14:37:07.001Z</time></trkpt><trkpt lat="45.58295496563719" lon="3.490307210015778"><ele>810.5</ele><time>2026-05-01T14:37:08.001Z</time></trkpt><trkpt lat="45.58316434456042" lon="3.4903358573138754"><ele>806.0</ele><time>2026-05-01T14:37:09.001Z</time></trkpt><trkpt lat="45.58341846088997" lon="3.4904153613142075"><ele>808.6666666666667</ele><time>2026-05-01T14:37:10.001Z</time></trkpt><trkpt lat="45.58364441736003" lon="3.4905153337011834"><ele>811.3333333333333</ele><time>2026-05-01T14:37:11.001Z</time></trkpt><trkpt lat="45.583826829588304" lon="3.490670699242788"><ele>814.0</ele><time>2026-05-01T14:37:12.001Z</time></trkpt><trkpt lat="45.58400097277277" lon="3.490875174645217"><ele>814.6666666666666</ele><time>2026-05-01T14:37:13.001Z</time></trkpt><trkpt lat="45.584179065146486" lon="3.491029005969887"><ele>815.3333333333333</ele><time>2026-05-01T14:37:14.001Z</time></trkpt><trkpt lat="45.584361820836776" lon="3.4910681692217302"><ele>816.0</ele><time>2026-05-01T14:37:15.001Z</time></trkpt><trkpt lat="45.584551992567306" lon="3.4910543497650552"><ele>817.3333333333333</ele><time>2026-05-01T14:37:16.001Z</time></trkpt><trkpt lat="45.584730416495255" lon="3.49100127121013"><ele>818.6666666666666</ele><time>2026-05-01T14:37:17.001Z</time></trkpt><trkpt lat="45.58489482002376" lon="3.490951557468697"><ele>820.0</ele><time>2026-05-01T14:37:18.001Z</time></trkpt><trkpt lat="45.58506071966511" lon="3.490903725376951"><ele>820.0</ele><time>2026-05-01T14:37:19.001Z</time></trkpt><trkpt lat="45.58519576608907" lon="3.490866427990627"><ele>820.0</ele><time>2026-05-01T14:37:20.001Z</time></trkpt><trkpt lat="45.58533042800237" lon="3.4908383509339673"><ele>820.0</ele><time>2026-05-01T14:37:21.001Z</time></trkpt><trkpt lat="45.585454708360835" lon="3.4908045462201414"><ele>820.0</ele><time>2026-05-01T14:37:22.001Z</time></trkpt><trkpt lat="45.585613526090505" lon="3.4907586510659647"><ele>820.0</ele><time>2026-05-01T14:37:23.001Z</time></trkpt><trkpt lat="45.58572145343104" lon="3.4907247359816784"><ele>820.0</ele><time>2026-05-01T14:37:24.001Z</time></trkpt><trkpt lat="45.58581629895952" lon="3.490703214944573"><ele>820.0</ele><time>2026-05-01T14:37:25.001Z</time></trkpt><trkpt lat="45.585902340060436" lon="3.4907243413942757"><ele>820.0</ele><time>2026-05-01T14:37:26.001Z</time></trkpt><trkpt lat="45.585985374269306" lon="3.4907495061058285"><ele>820.0</ele><time>2026-05-01T14:37:27.001Z</time></trkpt><trkpt lat="45.58607191865447" lon="3.490747992845035"><ele>819.9999999999999</ele><time>2026-05-01T14:37:28.001Z</time></trkpt><trkpt lat="45.586164082995424" lon="3.490785487064228"><ele>820.0</ele><time>2026-05-01T14:37:29Z</time></trkpt><trkpt lat="45.586252510064064" lon="3.490789613341761"><ele>820.0</ele><time>2026-05-01T14:37:30Z</time></trkpt><trkpt lat="45.58632384468374" lon="3.4907559048269774"><ele>820.0</ele><time>2026-05-01T14:37:31Z</time></trkpt><trkpt lat="45.58639001566157" lon="3.4906992649044533"><ele>819.9999999999999</ele><time>2026-05-01T14:37:32Z</time></trkpt><trkpt lat="45.58646378148336" lon="3.4906603897023687"><ele>820.0</ele><time>2026-05-01T14:37:33Z</time></trkpt><trkpt lat="45.58654650553627" lon="3.4906992564151595"><ele>819.2</ele><time>2026-05-01T14:37:34Z</time></trkpt><trkpt lat="45.58663574060463" lon="3.4907231726693513"><ele>818.4</ele><time>2026-05-01T14:37:35Z</time></trkpt><trkpt lat="45.58670581685165" lon="3.490797198188101"><ele>817.5999999999999</ele><time>2026-05-01T14:37:36Z</time></trkpt><trkpt lat="45.58679795745688" lon="3.490875663595881"><ele>816.8</ele><time>2026-05-01T14:37:37Z</time></trkpt><trkpt lat="45.586889367949084" lon="3.4909535857828087"><ele>816.0</ele><time>2026-05-01T14:37:38Z</time></trkpt><trkpt lat="45.586994922970185" lon="3.4910060941638843"><ele>816.25</ele><time>2026-05-01T14:37:39Z</time></trkpt><trkpt lat="45.587077926726664" lon="3.4911094431872765"><ele>816.5</ele><time>2026-05-01T14:37:40Z</time></trkpt><trkpt lat="45.58716259668924" lon="3.4912087820913857"><ele>816.75</ele><time>2026-05-01T14:37:41Z</time></trkpt><trkpt lat="45.58723842754821" lon="3.4913262834366976"><ele>817.0</ele><time>2026-05-01T14:37:42Z</time></trkpt><trkpt lat="45.587309034860915" lon="3.4914638098246877"><ele>817.0</ele><time>2026-05-01T14:37:43Z</time></trkpt><trkpt lat="45.58739875730345" lon="3.4915988722519704"><ele>817.0</ele><time>2026-05-01T14:37:44Z</time></trkpt><trkpt lat="45.587459319464564" lon="3.491756887003821"><ele>817.0</ele><time>2026-05-01T14:37:45Z</time></trkpt><trkpt lat="45.58754158154117" lon="3.4919005703172012"><ele>817.0</ele><time>2026-05-01T14:37:46Z</time></trkpt><trkpt lat="45.58765591654249" lon="3.4920011839532576"><ele>817.0</ele><time>2026-05-01T14:37:47Z</time></trkpt><trkpt lat="45.587802261284516" lon="3.4920410761383334"><ele>817.0</ele><time>2026-05-01T14:37:48Z</time></trkpt><trkpt lat="45.58795901640861" lon="3.4920742055002396"><ele>817.0</ele><time>2026-05-01T14:37:49Z</time></trkpt><trkpt lat="45.58813143630652" lon="3.4920807740565643"><ele>816.0</ele><time>2026-05-01T14:37:50Z</time></trkpt><trkpt lat="45.588325183183095" lon="3.4920354949688464"><ele>815.0</ele><time>2026-05-01T14:37:51Z</time></trkpt><trkpt lat="45.588542339104265" lon="3.4919626942362205"><ele>814.0</ele><time>2026-05-01T14:37:52Z</time></trkpt><trkpt lat="45.5887701555047" lon="3.4918952714098257"><ele>814.0</ele><time>2026-05-01T14:37:53Z</time></trkpt><trkpt lat="45.589014234090286" lon="3.491810585700494"><ele>814.0</ele><time>2026-05-01T14:37:54Z</time></trkpt><trkpt lat="45.589264532786444" lon="3.4916776683339408"><ele>816.0</ele><time>2026-05-01T14:37:55Z</time></trkpt><trkpt lat="45.58951451143982" lon="3.491493867038685"><ele>818.0</ele><time>2026-05-01T14:37:56Z</time></trkpt><trkpt lat="45.58975901919173" lon="3.49129694760435"><ele>814.0</ele><time>2026-05-01T14:37:57Z</time></trkpt><trkpt lat="45.58996801878793" lon="3.4910995065939403"><ele>810.0</ele><time>2026-05-01T14:37:58Z</time></trkpt><trkpt lat="45.590147767539186" lon="3.4909060651241903"><ele>810.0</ele><time>2026-05-01T14:37:59Z</time></trkpt><trkpt lat="45.59027748296323" lon="3.490654599084983"><ele>810.0</ele><time>2026-05-01T14:38:00Z</time></trkpt><trkpt lat="45.59036441192931" lon="3.4903624318546638"><ele>810.0</ele><time>2026-05-01T14:38:01Z</time></trkpt><trkpt lat="45.59037688874283" lon="3.4900239567548508"><ele>813.0</ele><time>2026-05-01T14:38:02Z</time></trkpt><trkpt lat="45.59036125999487" lon="3.489653370880611"><ele>816.0</ele><time>2026-05-01T14:38:03Z</time></trkpt><trkpt lat="45.59030719607858" lon="3.4892778081595335"><ele>809.0</ele><time>2026-05-01T14:38:04Z</time></trkpt><trkpt lat="45.590260041800555" lon="3.4889134656528693"><ele>802.0</ele><time>2026-05-01T14:38:05Z</time></trkpt><trkpt lat="45.59023137589544" lon="3.488621326579968"><ele>800.6666666666666</ele><time>2026-05-01T14:38:06Z</time></trkpt><trkpt lat="45.59022887119604" lon="3.4884088340560884"><ele>799.3333333333333</ele><time>2026-05-01T14:38:07Z</time></trkpt><trkpt lat="45.59029420043449" lon="3.4882063390315183"><ele>798.0</ele><time>2026-05-01T14:38:08Z</time></trkpt><trkpt lat="45.5904479641133" lon="3.48804211233671"><ele>798.0</ele><time>2026-05-01T14:38:09Z</time></trkpt><trkpt lat="45.590651293988536" lon="3.487939415100655"><ele>798.0</ele><time>2026-05-01T14:38:10Z</time></trkpt><trkpt lat="45.590866455858134" lon="3.4878730556993554"><ele>798.0</ele><time>2026-05-01T14:38:11Z</time></trkpt><trkpt lat="45.59109995720427" lon="3.4878137279093706"><ele>798.5</ele><time>2026-05-01T14:38:12Z</time></trkpt><trkpt lat="45.59132947976172" lon="3.487715953638785"><ele>799.0</ele><time>2026-05-01T14:38:13Z</time></trkpt><trkpt lat="45.59158639773192" lon="3.48759426144968"><ele>799.0</ele><time>2026-05-01T14:38:14Z</time></trkpt><trkpt lat="45.591850810133124" lon="3.487483887634716"><ele>799.0</ele><time>2026-05-01T14:38:15Z</time></trkpt><trkpt lat="45.592118561705455" lon="3.4873908000298948"><ele>796.0</ele><time>2026-05-01T14:38:16Z</time></trkpt><trkpt lat="45.592402225461484" lon="3.487302483869176"><ele>793.0</ele><time>2026-05-01T14:38:17Z</time></trkpt><trkpt lat="45.592664077240215" lon="3.487207940087118"><ele>791.0</ele><time>2026-05-01T14:38:18Z</time></trkpt><trkpt lat="45.592906101926665" lon="3.487130682994684"><ele>789.0</ele><time>2026-05-01T14:38:19Z</time></trkpt><trkpt lat="45.59311537761812" lon="3.487069100116494"><ele>788.0</ele><time>2026-05-01T14:38:20Z</time></trkpt><trkpt lat="45.593296735840035" lon="3.487006469651651"><ele>787.0</ele><time>2026-05-01T14:38:21Z</time></trkpt><trkpt lat="45.593475114668706" lon="3.48695120490209"><ele>786.0</ele><time>2026-05-01T14:38:22Z</time></trkpt><trkpt lat="45.59364385785772" lon="3.4869073078374835"><ele>784.3333333333333</ele><time>2026-05-01T14:38:23Z</time></trkpt><trkpt lat="45.59381182414027" lon="3.4868696220170023"><ele>782.6666666666666</ele><time>2026-05-01T14:38:24Z</time></trkpt><trkpt lat="45.59399636947024" lon="3.486880283487017"><ele>781.0</ele><time>2026-05-01T14:38:25Z</time></trkpt><trkpt lat="45.594182828530215" lon="3.4868825563550345"><ele>781.0</ele><time>2026-05-01T14:38:26Z</time></trkpt><trkpt lat="45.594346639898575" lon="3.4869005804299325"><ele>781.0</ele><time>2026-05-01T14:38:27Z</time></trkpt><trkpt lat="45.59449441695106" lon="3.486945202946896"><ele>781.0</ele><time>2026-05-01T14:38:28Z</time></trkpt><trkpt lat="45.594614092516814" lon="3.487048003585885"><ele>781.6666666666666</ele><time>2026-05-01T14:38:29Z</time></trkpt><trkpt lat="45.594718450495016" lon="3.487204085554431"><ele>782.3333333333333</ele><time>2026-05-01T14:38:30Z</time></trkpt><trkpt lat="45.59475863060286" lon="3.4873888399781268"><ele>783.0</ele><time>2026-05-01T14:38:31Z</time></trkpt><trkpt lat="45.594772134179365" lon="3.487629672716004"><ele>783.0</ele><time>2026-05-01T14:38:32Z</time></trkpt><trkpt lat="45.5947471220854" lon="3.487879946802912"><ele>783.0</ele><time>2026-05-01T14:38:33Z</time></trkpt><trkpt lat="45.59467421279429" lon="3.488102412440474"><ele>783.0</ele><time>2026-05-01T14:38:34Z</time></trkpt><trkpt lat="45.594566877286375" lon="3.488255228007848"><ele>782.6666666666667</ele><time>2026-05-01T14:38:35Z</time></trkpt><trkpt lat="45.59441114714134" lon="3.4883258656090246"><ele>782.3333333333334</ele><time>2026-05-01T14:38:36Z</time></trkpt><trkpt lat="45.59422015014775" lon="3.4884137025362154"><ele>782.0</ele><time>2026-05-01T14:38:37Z</time></trkpt><trkpt lat="45.59406013947473" lon="3.4885541853145545"><ele>782.0</ele><time>2026-05-01T14:38:38Z</time></trkpt><trkpt lat="45.59397079207248" lon="3.4887045175200364"><ele>782.0</ele><time>2026-05-01T14:38:39Z</time></trkpt><trkpt lat="45.59395687460023" lon="3.4889602154363097"><ele>782.0</ele><time>2026-05-01T14:38:40Z</time></trkpt><trkpt lat="45.59400412132492" lon="3.4892171084982593"><ele>781.3333333333334</ele><time>2026-05-01T14:38:41Z</time></trkpt><trkpt lat="45.594076764609866" lon="3.4895108728223816"><ele>780.6666666666667</ele><time>2026-05-01T14:38:42Z</time></trkpt><trkpt lat="45.59402263075009" lon="3.489749334428999"><ele>780.0</ele><time>2026-05-01T14:38:43Z</time></trkpt><trkpt lat="45.59396480805883" lon="3.48999707767239"><ele>778.6666666666667</ele><time>2026-05-01T14:38:44Z</time></trkpt><trkpt lat="45.593969425045536" lon="3.490295921589956"><ele>777.3333333333334</ele><time>2026-05-01T14:38:45Z</time></trkpt><trkpt lat="45.5940286134791" lon="3.4905995004614128"><ele>776.0</ele><time>2026-05-01T14:38:46Z</time></trkpt><trkpt lat="45.5941484117642" lon="3.490906358160465"><ele>776.0</ele><time>2026-05-01T14:38:47Z</time></trkpt><trkpt lat="45.59427798365703" lon="3.4912160377344796"><ele>776.0</ele><time>2026-05-01T14:38:48Z</time></trkpt><trkpt lat="45.59444571021015" lon="3.491488634091748"><ele>772.0</ele><time>2026-05-01T14:38:49Z</time></trkpt><trkpt lat="45.59465675692071" lon="3.491702467770842"><ele>768.0</ele><time>2026-05-01T14:38:50Z</time></trkpt><trkpt lat="45.59479607146486" lon="3.491885633717777"><ele>764.0</ele><time>2026-05-01T14:38:51Z</time></trkpt><trkpt lat="45.5948743613495" lon="3.4920392531538615"><ele>762.4000000000001</ele><time>2026-05-01T14:38:52Z</time></trkpt><trkpt lat="45.594908169416435" lon="3.4921937367121636"><ele>760.8</ele><time>2026-05-01T14:38:53Z</time></trkpt><trkpt lat="45.594865699219994" lon="3.4923231352840447"><ele>759.2</ele><time>2026-05-01T14:38:54Z</time></trkpt><trkpt lat="45.59481064601795" lon="3.4924015761865355"><ele>757.5999999999999</ele><time>2026-05-01T14:38:55Z</time></trkpt><trkpt lat="45.5947574788157" lon="3.4925169245223864"><ele>756.0</ele><time>2026-05-01T14:38:56Z</time></trkpt><trkpt lat="45.59464719625381" lon="3.492776908747432"><ele>750.0</ele><time>2026-05-01T14:38:57Z</time></trkpt><trkpt lat="45.5945775959879" lon="3.4932302467456946"><ele>744.0</ele><time>2026-05-01T14:38:58Z</time></trkpt><trkpt lat="45.59455776146864" lon="3.493569759302086"><ele>744.0</ele><time>2026-05-01T14:38:59Z</time></trkpt><trkpt lat="45.594517508638994" lon="3.4937207855815373"><ele>744.0</ele><time>2026-05-01T14:39:00Z</time></trkpt><trkpt lat="45.594429476572735" lon="3.4938340012017153"><ele>744.0</ele><time>2026-05-01T14:39:01Z</time></trkpt><trkpt lat="45.59426615619248" lon="3.493948300090553"><ele>744.0</ele><time>2026-05-01T14:39:02Z</time></trkpt><trkpt lat="45.594062321930906" lon="3.4940862242184902"><ele>745.6666666666666</ele><time>2026-05-01T14:39:03Z</time></trkpt><trkpt lat="45.59388192609979" lon="3.4942443434538584"><ele>747.3333333333333</ele><time>2026-05-01T14:39:04Z</time></trkpt><trkpt lat="45.59374791509661" lon="3.4944439045862685"><ele>749.0</ele><time>2026-05-01T14:39:05Z</time></trkpt><trkpt lat="45.59378220235206" lon="3.4946534645571767"><ele>749.0</ele><time>2026-05-01T14:39:06.001Z</time></trkpt><trkpt lat="45.59377856528577" lon="3.4949905001348625"><ele>749.0</ele><time>2026-05-01T14:39:07.001Z</time></trkpt><trkpt lat="45.59383731542871" lon="3.4952944471966036"><ele>751.0</ele><time>2026-05-01T14:39:08.001Z</time></trkpt><trkpt lat="45.59394333030283" lon="3.4956192498649656"><ele>753.0</ele><time>2026-05-01T14:39:09.001Z</time></trkpt><trkpt lat="45.594047920401806" lon="3.496019622367003"><ele>751.5</ele><time>2026-05-01T14:39:10.001Z</time></trkpt><trkpt lat="45.59411114211292" lon="3.4963778563111942"><ele>750.0</ele><time>2026-05-01T14:39:11.001Z</time></trkpt><trkpt lat="45.59414543995999" lon="3.4966966273371254"><ele>750.0</ele><time>2026-05-01T14:39:12.001Z</time></trkpt><trkpt lat="45.594184495395496" lon="3.496889569555505"><ele>750.0</ele><time>2026-05-01T14:39:13.001Z</time></trkpt><trkpt lat="45.59423611612967" lon="3.4970918819509946"><ele>750.0</ele><time>2026-05-01T14:39:14.001Z</time></trkpt><trkpt lat="45.59433301766989" lon="3.49714960623503"><ele>750.0</ele><time>2026-05-01T14:39:15.001Z</time></trkpt><trkpt lat="45.5944438224275" lon="3.497136124045885"><ele>754.75</ele><time>2026-05-01T14:39:16.001Z</time></trkpt><trkpt lat="45.59458082629608" lon="3.4970318270794785"><ele>759.5</ele><time>2026-05-01T14:39:17.001Z</time></trkpt><trkpt lat="45.594664965519655" lon="3.4968439829549705"><ele>764.25</ele><time>2026-05-01T14:39:18.001Z</time></trkpt><trkpt lat="45.59472358611875" lon="3.4966758378235117"><ele>769.0</ele><time>2026-05-01T14:39:19.001Z</time></trkpt><trkpt lat="45.59467239682625" lon="3.4965882794137304"><ele>769.0</ele><time>2026-05-01T14:39:20.001Z</time></trkpt><trkpt lat="45.594681610985226" lon="3.496343790933104"><ele>769.0</ele><time>2026-05-01T14:39:21.001Z</time></trkpt><trkpt lat="45.59469376103262" lon="3.4960276208825793"><ele>769.0</ele><time>2026-05-01T14:39:22.001Z</time></trkpt><trkpt lat="45.594715009037394" lon="3.4955997638131118"><ele>763.5</ele><time>2026-05-01T14:39:23.001Z</time></trkpt><trkpt lat="45.594768531093266" lon="3.4950654700648798"><ele>758.0</ele><time>2026-05-01T14:39:24.001Z</time></trkpt><trkpt lat="45.59494922805413" lon="3.4948213127017915"><ele>758.0</ele><time>2026-05-01T14:39:25.001Z</time></trkpt><trkpt lat="45.595064092934805" lon="3.4946502401318758"><ele>758.0</ele><time>2026-05-01T14:39:26.001Z</time></trkpt><trkpt lat="45.59522228440035" lon="3.4945385505585254"><ele>758.0</ele><time>2026-05-01T14:39:27.001Z</time></trkpt><trkpt lat="45.595406006827794" lon="3.494427600579526"><ele>758.0</ele><time>2026-05-01T14:39:28.001Z</time></trkpt><trkpt lat="45.59562174595584" lon="3.4943137772332302"><ele>758.0</ele><time>2026-05-01T14:39:29.001Z</time></trkpt><trkpt lat="45.59579555496277" lon="3.494130065409647"><ele>758.0</ele><time>2026-05-01T14:39:30.001Z</time></trkpt><trkpt lat="45.59600190693098" lon="3.4940506937099474"><ele>764.5</ele><time>2026-05-01T14:39:31.001Z</time></trkpt><trkpt lat="45.59620931859428" lon="3.493979552514942"><ele>771.0</ele><time>2026-05-01T14:39:32.001Z</time></trkpt><trkpt lat="45.59645792306991" lon="3.493882483057007"><ele>760.0</ele><time>2026-05-01T14:39:33.001Z</time></trkpt><trkpt lat="45.59669715189227" lon="3.4937450688414886"><ele>749.0</ele><time>2026-05-01T14:39:34.001Z</time></trkpt><trkpt lat="45.59691184800573" lon="3.493568938693333"><ele>759.0</ele><time>2026-05-01T14:39:35Z</time></trkpt><trkpt lat="45.59714358362322" lon="3.4933366540915203"><ele>769.0</ele><time>2026-05-01T14:39:36Z</time></trkpt><trkpt lat="45.597359763756366" lon="3.4931169900133483"><ele>769.0</ele><time>2026-05-01T14:39:37Z</time></trkpt><trkpt lat="45.59754709470105" lon="3.492990285089052"><ele>769.0</ele><time>2026-05-01T14:39:38Z</time></trkpt><trkpt lat="45.59771652170149" lon="3.4929384536854653"><ele>769.0</ele><time>2026-05-01T14:39:39Z</time></trkpt><trkpt lat="45.597857024558394" lon="3.4929855230626607"><ele>767.6666666666666</ele><time>2026-05-01T14:39:40Z</time></trkpt><trkpt lat="45.5979996711298" lon="3.493063664244015"><ele>766.3333333333333</ele><time>2026-05-01T14:39:41Z</time></trkpt><trkpt lat="45.59809733705092" lon="3.4931150415488514"><ele>765.0</ele><time>2026-05-01T14:39:42Z</time></trkpt><trkpt lat="45.598326668960375" lon="3.493193251464864"><ele>765.0</ele><time>2026-05-01T14:39:43Z</time></trkpt><trkpt lat="45.59858737758006" lon="3.493117772806037"><ele>765.0</ele><time>2026-05-01T14:39:44Z</time></trkpt><trkpt lat="45.59874440667159" lon="3.4929912172577575"><ele>765.0</ele><time>2026-05-01T14:39:45Z</time></trkpt><trkpt lat="45.59887318725496" lon="3.4928490377825088"><ele>764.25</ele><time>2026-05-01T14:39:46Z</time></trkpt><trkpt lat="45.59896988673339" lon="3.4927437122083913"><ele>763.5</ele><time>2026-05-01T14:39:47Z</time></trkpt><trkpt lat="45.59904343818863" lon="3.4926545110778857"><ele>762.75</ele><time>2026-05-01T14:39:48Z</time></trkpt><trkpt lat="45.59910658582933" lon="3.492624662670552"><ele>762.0</ele><time>2026-05-01T14:39:49Z</time></trkpt><trkpt lat="45.599176130106095" lon="3.4928448981605626"><ele>763.6666666666666</ele><time>2026-05-01T14:39:51Z</time></trkpt><trkpt lat="45.59916090240308" lon="3.4931743113415816"><ele>765.3333333333333</ele><time>2026-05-01T14:39:52Z</time></trkpt><trkpt lat="45.59910565085863" lon="3.4933999044671453"><ele>767.0</ele><time>2026-05-01T14:39:53Z</time></trkpt><trkpt lat="45.59902188722423" lon="3.493684921657785"><ele>768.3333333333333</ele><time>2026-05-01T14:39:54Z</time></trkpt><trkpt lat="45.598960181740665" lon="3.493953739058246"><ele>769.6666666666666</ele><time>2026-05-01T14:39:55Z</time></trkpt><trkpt lat="45.59887669779451" lon="3.4942480267040277"><ele>771.0</ele><time>2026-05-01T14:39:56Z</time></trkpt><trkpt lat="45.59878389567714" lon="3.4945692756985163"><ele>770.6666666666667</ele><time>2026-05-01T14:39:57Z</time></trkpt><trkpt lat="45.59868520176342" lon="3.4948899289858737"><ele>770.3333333333334</ele><time>2026-05-01T14:39:58Z</time></trkpt><trkpt lat="45.59862769272027" lon="3.49516633716457"><ele>770.0</ele><time>2026-05-01T14:39:59Z</time></trkpt><trkpt lat="45.5986288970861" lon="3.495402381305396"><ele>771.3333333333334</ele><time>2026-05-01T14:40:00Z</time></trkpt><trkpt lat="45.59868358243953" lon="3.4956725806493814"><ele>772.6666666666667</ele><time>2026-05-01T14:40:01Z</time></trkpt><trkpt lat="45.59877440378243" lon="3.4959669541343197"><ele>774.0</ele><time>2026-05-01T14:40:02Z</time></trkpt><trkpt lat="45.59885671162284" lon="3.496258624175111"><ele>776.0</ele><time>2026-05-01T14:40:03Z</time></trkpt><trkpt lat="45.59893370307214" lon="3.4965866420734333"><ele>778.0</ele><time>2026-05-01T14:40:04Z</time></trkpt><trkpt lat="45.59892173999773" lon="3.4968189919979187"><ele>780.0</ele><time>2026-05-01T14:40:05Z</time></trkpt><trkpt lat="45.598893518044946" lon="3.4970453114356457"><ele>780.3333333333333</ele><time>2026-05-01T14:40:06Z</time></trkpt><trkpt lat="45.59882059639531" lon="3.4971589634432316"><ele>780.6666666666666</ele><time>2026-05-01T14:40:07Z</time></trkpt><trkpt lat="45.59870161284722" lon="3.497335212620083"><ele>781.0</ele><time>2026-05-01T14:40:08Z</time></trkpt><trkpt lat="45.59849661906716" lon="3.4975078937629394"><ele>790.5</ele><time>2026-05-01T14:40:09Z</time></trkpt><trkpt lat="45.59828183030953" lon="3.497669374565385"><ele>800.0</ele><time>2026-05-01T14:40:10Z</time></trkpt><trkpt lat="45.59808065769383" lon="3.4978276025738286"><ele>798.0</ele><time>2026-05-01T14:40:11Z</time></trkpt><trkpt lat="45.597869652223515" lon="3.4979864753267096"><ele>796.0</ele><time>2026-05-01T14:40:12Z</time></trkpt><trkpt lat="45.59762072606297" lon="3.498173297678912"><ele>795.6666666666666</ele><time>2026-05-01T14:40:13Z</time></trkpt><trkpt lat="45.59741547776888" lon="3.4983647695532416"><ele>795.3333333333333</ele><time>2026-05-01T14:40:14Z</time></trkpt><trkpt lat="45.597300122325954" lon="3.4984967846115853"><ele>795.0</ele><time>2026-05-01T14:40:15Z</time></trkpt><trkpt lat="45.59720814250705" lon="3.4987175030550866"><ele>794.0</ele><time>2026-05-01T14:40:16Z</time></trkpt><trkpt lat="45.597228836967794" lon="3.499060060793456"><ele>793.0</ele><time>2026-05-01T14:40:17Z</time></trkpt><trkpt lat="45.597294236793196" lon="3.499401823060078"><ele>795.5</ele><time>2026-05-01T14:40:18Z</time></trkpt><trkpt lat="45.59738678833417" lon="3.499718858219476"><ele>798.0</ele><time>2026-05-01T14:40:19Z</time></trkpt><trkpt lat="45.59748525563366" lon="3.5000545524226037"><ele>798.0</ele><time>2026-05-01T14:40:20Z</time></trkpt><trkpt lat="45.59758013317012" lon="3.5004174202493137"><ele>798.0</ele><time>2026-05-01T14:40:21Z</time></trkpt><trkpt lat="45.597683015680865" lon="3.5007546309832698"><ele>798.0</ele><time>2026-05-01T14:40:22Z</time></trkpt><trkpt lat="45.59774725503674" lon="3.5010448622519905"><ele>798.0</ele><time>2026-05-01T14:40:23Z</time></trkpt><trkpt lat="45.59779221026831" lon="3.501209699018713"><ele>798.0</ele><time>2026-05-01T14:40:24Z</time></trkpt><trkpt lat="45.597795947311944" lon="3.501352391721653"><ele>798.0</ele><time>2026-05-01T14:40:25Z</time></trkpt><trkpt lat="45.59777563708848" lon="3.5015653317248736"><ele>799.0</ele><time>2026-05-01T14:40:26Z</time></trkpt><trkpt lat="45.59766799878377" lon="3.501698161161332"><ele>800.0</ele><time>2026-05-01T14:40:27Z</time></trkpt><trkpt lat="45.597553201410946" lon="3.501959195911606"><ele>801.0</ele><time>2026-05-01T14:40:28Z</time></trkpt><trkpt lat="45.59749259778019" lon="3.5021498766961225"><ele>801.25</ele><time>2026-05-01T14:40:29Z</time></trkpt><trkpt lat="45.597532201996295" lon="3.5023277904731627"><ele>801.5</ele><time>2026-05-01T14:40:30Z</time></trkpt><trkpt lat="45.597611047314324" lon="3.5024179186899507"><ele>801.75</ele><time>2026-05-01T14:40:31Z</time></trkpt><trkpt lat="45.59774486321644" lon="3.5025086436607205"><ele>802.0</ele><time>2026-05-01T14:40:32Z</time></trkpt><trkpt lat="45.597952792622166" lon="3.5025938630472306"><ele>800.5</ele><time>2026-05-01T14:40:33Z</time></trkpt><trkpt lat="45.59817636262429" lon="3.502676399170542"><ele>799.0</ele><time>2026-05-01T14:40:34Z</time></trkpt><trkpt lat="45.598389534481676" lon="3.502757300815605"><ele>799.0</ele><time>2026-05-01T14:40:35Z</time></trkpt><trkpt lat="45.59861338496932" lon="3.502847988461174"><ele>799.0</ele><time>2026-05-01T14:40:36Z</time></trkpt><trkpt lat="45.59886599570279" lon="3.502952176103635"><ele>795.5</ele><time>2026-05-01T14:40:37Z</time></trkpt><trkpt lat="45.59911176677458" lon="3.503127205722048"><ele>792.0</ele><time>2026-05-01T14:40:38Z</time></trkpt><trkpt lat="45.59930531279685" lon="3.502961843056513"><ele>786.5</ele><time>2026-05-01T14:40:39Z</time></trkpt><trkpt lat="45.59954821255809" lon="3.5029206125918106"><ele>781.0</ele><time>2026-05-01T14:40:40Z</time></trkpt><trkpt lat="45.59984719476771" lon="3.50289690114207"><ele>781.0</ele><time>2026-05-01T14:40:41Z</time></trkpt><trkpt lat="45.600153157158324" lon="3.502894117974844"><ele>781.0</ele><time>2026-05-01T14:40:42Z</time></trkpt><trkpt lat="45.60046586009305" lon="3.502911685187555"><ele>776.0</ele><time>2026-05-01T14:40:43Z</time></trkpt><trkpt lat="45.60076378047413" lon="3.502977467370998"><ele>771.0</ele><time>2026-05-01T14:40:44Z</time></trkpt><trkpt lat="45.60111547159013" lon="3.5030373995007897"><ele>767.0</ele><time>2026-05-01T14:40:45Z</time></trkpt><trkpt lat="45.60142843807921" lon="3.5030569347618328"><ele>763.0</ele><time>2026-05-01T14:40:46Z</time></trkpt><trkpt lat="45.60168515464491" lon="3.503138827128387"><ele>763.0</ele><time>2026-05-01T14:40:47Z</time></trkpt><trkpt lat="45.601926876954735" lon="3.5032569401849796"><ele>763.0</ele><time>2026-05-01T14:40:48Z</time></trkpt><trkpt lat="45.60218893525289" lon="3.5033842485158773"><ele>762.0</ele><time>2026-05-01T14:40:49Z</time></trkpt><trkpt lat="45.602417085798095" lon="3.503523240506478"><ele>761.0</ele><time>2026-05-01T14:40:50Z</time></trkpt><trkpt lat="45.60257856895804" lon="3.503670822328708"><ele>760.0</ele><time>2026-05-01T14:40:51Z</time></trkpt><trkpt lat="45.602690070461534" lon="3.503857318799413"><ele>760.0</ele><time>2026-05-01T14:40:52Z</time></trkpt><trkpt lat="45.60278120940769" lon="3.5040453448651654"><ele>760.0</ele><time>2026-05-01T14:40:53Z</time></trkpt><trkpt lat="45.602809882181774" lon="3.5042147465546223"><ele>760.0</ele><time>2026-05-01T14:40:54Z</time></trkpt><trkpt lat="45.60282962831513" lon="3.504388034760543"><ele>760.0</ele><time>2026-05-01T14:40:55Z</time></trkpt><trkpt lat="45.60282957461716" lon="3.5045031205521924"><ele>757.6666666666667</ele><time>2026-05-01T14:40:56Z</time></trkpt><trkpt lat="45.60276088783233" lon="3.504637882425821"><ele>755.3333333333334</ele><time>2026-05-01T14:40:58Z</time></trkpt><trkpt lat="45.602642519470734" lon="3.5049159761202264"><ele>753.0</ele><time>2026-05-01T14:40:59Z</time></trkpt><trkpt lat="45.60238848110141" lon="3.5051139474419823"><ele>753.0</ele><time>2026-05-01T14:41:00Z</time></trkpt><trkpt lat="45.60202524560332" lon="3.505279161185821"><ele>753.0</ele><time>2026-05-01T14:41:01Z</time></trkpt><trkpt lat="45.60170062282158" lon="3.505407947383978"><ele>750.6666666666666</ele><time>2026-05-01T14:41:02Z</time></trkpt><trkpt lat="45.60146193257283" lon="3.5056209482398244"><ele>748.3333333333333</ele><time>2026-05-01T14:41:03Z</time></trkpt><trkpt lat="45.6013535162239" lon="3.5057919219011704"><ele>746.0</ele><time>2026-05-01T14:41:04Z</time></trkpt><trkpt lat="45.601335896285654" lon="3.5060737403347604"><ele>742.6666666666666</ele><time>2026-05-01T14:41:05Z</time></trkpt><trkpt lat="45.60129025448804" lon="3.5064115105378417"><ele>739.3333333333334</ele><time>2026-05-01T14:41:06Z</time></trkpt><trkpt lat="45.60129493382285" lon="3.506695503517873"><ele>736.0</ele><time>2026-05-01T14:41:07Z</time></trkpt><trkpt lat="45.60128426382963" lon="3.5069586774306676"><ele>735.25</ele><time>2026-05-01T14:41:08Z</time></trkpt><trkpt lat="45.601258714092474" lon="3.507166748019331"><ele>734.5</ele><time>2026-05-01T14:41:09Z</time></trkpt><trkpt lat="45.60116302649754" lon="3.5073393479556922"><ele>733.75</ele><time>2026-05-01T14:41:10Z</time></trkpt><trkpt lat="45.60107684103908" lon="3.5075035342906955"><ele>733.0</ele><time>2026-05-01T14:41:11Z</time></trkpt><trkpt lat="45.60099348179355" lon="3.507681487896442"><ele>735.25</ele><time>2026-05-01T14:41:12Z</time></trkpt><trkpt lat="45.60094199351687" lon="3.5078081357215924"><ele>737.5</ele><time>2026-05-01T14:41:13Z</time></trkpt><trkpt lat="45.600904421765655" lon="3.507988950543235"><ele>739.75</ele><time>2026-05-01T14:41:14Z</time></trkpt><trkpt lat="45.600915346751364" lon="3.5081626381394084"><ele>742.0</ele><time>2026-05-01T14:41:15Z</time></trkpt><trkpt lat="45.600935406806194" lon="3.5083385552503477"><ele>742.0</ele><time>2026-05-01T14:41:16Z</time></trkpt><trkpt lat="45.60091858356665" lon="3.5084975094578557"><ele>742.0</ele><time>2026-05-01T14:41:17Z</time></trkpt><trkpt lat="45.60087144293324" lon="3.5086507467525827"><ele>742.0</ele><time>2026-05-01T14:41:18Z</time></trkpt><trkpt lat="45.60082807956546" lon="3.5087874943332813"><ele>742.0</ele><time>2026-05-01T14:41:19Z</time></trkpt><trkpt lat="45.600812643817015" lon="3.508959286000719"><ele>741.0</ele><time>2026-05-01T14:41:20Z</time></trkpt><trkpt lat="45.60081167247589" lon="3.5091493633618196"><ele>740.0</ele><time>2026-05-01T14:41:21.001Z</time></trkpt><trkpt lat="45.60082820730396" lon="3.509323834104956"><ele>739.0</ele><time>2026-05-01T14:41:22.001Z</time></trkpt><trkpt lat="45.600850690429034" lon="3.509467593861198"><ele>738.0</ele><time>2026-05-01T14:41:23.001Z</time></trkpt><trkpt lat="45.60089419753992" lon="3.5096002090046756"><ele>736.5999999999999</ele><time>2026-05-01T14:41:24.001Z</time></trkpt><trkpt lat="45.60094863894742" lon="3.5097171240406095"><ele>735.1999999999999</ele><time>2026-05-01T14:41:25.001Z</time></trkpt><trkpt lat="45.60100639254272" lon="3.5098186638245035"><ele>733.8</ele><time>2026-05-01T14:41:26.001Z</time></trkpt><trkpt lat="45.601052737895614" lon="3.5099091199201045"><ele>732.4</ele><time>2026-05-01T14:41:27.001Z</time></trkpt><trkpt lat="45.60109923608783" lon="3.509991214188724"><ele>731.0</ele><time>2026-05-01T14:41:28.001Z</time></trkpt><trkpt lat="45.60118554009166" lon="3.510115640889475"><ele>729.8</ele><time>2026-05-01T14:41:30.001Z</time></trkpt><trkpt lat="45.60129372351269" lon="3.5100866731259126"><ele>728.5999999999999</ele><time>2026-05-01T14:41:31.001Z</time></trkpt><trkpt lat="45.60140214597097" lon="3.510087990379618"><ele>727.4</ele><time>2026-05-01T14:41:32.001Z</time></trkpt><trkpt lat="45.60149115317819" lon="3.5100890717591025"><ele>726.2</ele><time>2026-05-01T14:41:33.001Z</time></trkpt><trkpt lat="45.60156681286796" lon="3.5101256613531544"><ele>725.0</ele><time>2026-05-01T14:41:34.001Z</time></trkpt><trkpt lat="45.60163722095227" lon="3.510080676130936"><ele>725.0</ele><time>2026-05-01T14:41:35.001Z</time></trkpt><trkpt lat="45.601699803769066" lon="3.509979134568902"><ele>725.0</ele><time>2026-05-01T14:41:36.001Z</time></trkpt><trkpt lat="45.60174031408909" lon="3.5098058980018783"><ele>725.0</ele><time>2026-05-01T14:41:37.001Z</time></trkpt><trkpt lat="45.60179917462288" lon="3.5096357723617744"><ele>725.0</ele><time>2026-05-01T14:41:38.001Z</time></trkpt><trkpt lat="45.60185731368554" lon="3.509461937779234"><ele>725.0</ele><time>2026-05-01T14:41:39.001Z</time></trkpt><trkpt lat="45.60190169735642" lon="3.509303959816509"><ele>725.0</ele><time>2026-05-01T14:41:40.001Z</time></trkpt><trkpt lat="45.60190828624529" lon="3.5091794495298845"><ele>725.0</ele><time>2026-05-01T14:41:41Z</time></trkpt><trkpt lat="45.60189556008436" lon="3.5090338945948183"><ele>725.0</ele><time>2026-05-01T14:41:42Z</time></trkpt><trkpt lat="45.601838054542405" lon="3.5088755420186626"><ele>725.0</ele><time>2026-05-01T14:41:43Z</time></trkpt><trkpt lat="45.60174665281545" lon="3.508718613604809"><ele>725.0</ele><time>2026-05-01T14:41:44Z</time></trkpt><trkpt lat="45.60165687294311" lon="3.508568076117152"><ele>725.0</ele><time>2026-05-01T14:41:45Z</time></trkpt><trkpt lat="45.60164717351386" lon="3.5083952532290716"><ele>725.0</ele><time>2026-05-01T14:41:46Z</time></trkpt><trkpt lat="45.601652853476224" lon="3.50821201256907"><ele>725.0</ele><time>2026-05-01T14:41:47Z</time></trkpt><trkpt lat="45.60177974716387" lon="3.508079872798515"><ele>725.0</ele><time>2026-05-01T14:41:48Z</time></trkpt><trkpt lat="45.601911347371235" lon="3.508033939778484"><ele>725.0</ele><time>2026-05-01T14:41:49Z</time></trkpt><trkpt lat="45.60202601926627" lon="3.5080874127431008"><ele>725.0</ele><time>2026-05-01T14:41:50Z</time></trkpt><trkpt lat="45.602121932416416" lon="3.508193963490517"><ele>725.0</ele><time>2026-05-01T14:41:51Z</time></trkpt><trkpt lat="45.602167945250756" lon="3.508304911931624"><ele>720.25</ele><time>2026-05-01T14:41:52Z</time></trkpt><trkpt lat="45.60218203704959" lon="3.5084688501099417"><ele>715.5</ele><time>2026-05-01T14:41:54Z</time></trkpt><trkpt lat="45.60218771569113" lon="3.5086186785704507"><ele>710.75</ele><time>2026-05-01T14:41:55Z</time></trkpt><trkpt lat="45.60221950614134" lon="3.5088741300671247"><ele>706.0</ele><time>2026-05-01T14:41:56Z</time></trkpt><trkpt lat="45.60224380119692" lon="3.5092304217244563"><ele>707.5</ele><time>2026-05-01T14:41:57Z</time></trkpt><trkpt lat="45.602305505621906" lon="3.509592352348945"><ele>709.0</ele><time>2026-05-01T14:41:58Z</time></trkpt><trkpt lat="45.60241890649914" lon="3.50994425671513"><ele>709.0</ele><time>2026-05-01T14:41:59Z</time></trkpt><trkpt lat="45.602550624789956" lon="3.5102477472668627"><ele>709.0</ele><time>2026-05-01T14:42:00Z</time></trkpt><trkpt lat="45.602683726791234" lon="3.51048870057287"><ele>709.0</ele><time>2026-05-01T14:42:01Z</time></trkpt><trkpt lat="45.60281325634035" lon="3.5106827577418627"><ele>709.0</ele><time>2026-05-01T14:42:02Z</time></trkpt><trkpt lat="45.602919380879996" lon="3.510827097725256"><ele>709.0</ele><time>2026-05-01T14:42:03Z</time></trkpt><trkpt lat="45.6030742791882" lon="3.5109789939521603"><ele>709.0</ele><time>2026-05-01T14:42:04Z</time></trkpt><trkpt lat="45.60316545453475" lon="3.511002844128661"><ele>709.0</ele><time>2026-05-01T14:42:06Z</time></trkpt><trkpt lat="45.60323449776428" lon="3.511018740212497"><ele>709.0</ele><time>2026-05-01T14:42:07Z</time></trkpt><trkpt lat="45.603337404224696" lon="3.510602782120756"><ele>709.3333333333334</ele><time>2026-05-01T14:42:08Z</time></trkpt><trkpt lat="45.60340261612189" lon="3.5103792983154944"><ele>709.6666666666666</ele><time>2026-05-01T14:42:09Z</time></trkpt><trkpt lat="45.60340055453804" lon="3.5101536841716245"><ele>710.0</ele><time>2026-05-01T14:42:10Z</time></trkpt><trkpt lat="45.603320497326365" lon="3.5099223404191124"><ele>710.0</ele><time>2026-05-01T14:42:11Z</time></trkpt><trkpt lat="45.60328087354323" lon="3.5096871130496043"><ele>710.0</ele><time>2026-05-01T14:42:12Z</time></trkpt><trkpt lat="45.60334957661401" lon="3.509506495261071"><ele>710.0</ele><time>2026-05-01T14:42:13Z</time></trkpt><trkpt lat="45.60342070983513" lon="3.509360561219238"><ele>710.0</ele><time>2026-05-01T14:42:14Z</time></trkpt><trkpt lat="45.60349643681176" lon="3.509174712678285"><ele>709.6666666666666</ele><time>2026-05-01T14:42:15Z</time></trkpt><trkpt lat="45.60360922830908" lon="3.5088863282194938"><ele>709.3333333333334</ele><time>2026-05-01T14:42:16Z</time></trkpt><trkpt lat="45.603712705964824" lon="3.508636477538721"><ele>709.0</ele><time>2026-05-01T14:42:17Z</time></trkpt><trkpt lat="45.60380581027624" lon="3.508494157380725"><ele>711.0</ele><time>2026-05-01T14:42:18Z</time></trkpt><trkpt lat="45.60388178076287" lon="3.508472726043988"><ele>711.0</ele><time>2026-05-01T14:42:19Z</time></trkpt><trkpt lat="45.6039885108808" lon="3.5085594280164965"><ele>711.0</ele><time>2026-05-01T14:42:21Z</time></trkpt><trkpt lat="45.60392316936679" lon="3.508552805538378"><ele>711.0</ele><time>2026-05-01T14:42:25Z</time></trkpt></trkseg><trkseg><trkpt lat="45.6062746826716" lon="3.5055575628514646"><ele>720.0</ele><time>2026-05-01T14:44:05.813Z</time></trkpt><trkpt lat="45.60631133854942" lon="3.5054787526842723"><ele>720.0</ele><time>2026-05-01T14:44:06.813Z</time></trkpt><trkpt lat="45.6063668891192" lon="3.5053791791417472"><ele>720.0</ele><time>2026-05-01T14:44:07.813Z</time></trkpt><trkpt lat="45.60643948501834" lon="3.5052481864692986"><ele>720.0</ele><time>2026-05-01T14:44:08.812Z</time></trkpt><trkpt lat="45.60651213217204" lon="3.5051157663231325"><ele>720.0</ele><time>2026-05-01T14:44:10Z</time></trkpt><trkpt lat="45.60657555221107" lon="3.5049991504254305"><ele>716.5</ele><time>2026-05-01T14:44:11Z</time></trkpt><trkpt lat="45.60663758035612" lon="3.5048815599762895"><ele>713.0</ele><time>2026-05-01T14:44:12Z</time></trkpt><trkpt lat="45.60672117155384" lon="3.5047230911053995"><ele>709.5</ele><time>2026-05-01T14:44:13Z</time></trkpt><trkpt lat="45.606773008858184" lon="3.5046224872378025"><ele>706.0</ele><time>2026-05-01T14:44:14Z</time></trkpt><trkpt lat="45.60685199460561" lon="3.504468235103641"><ele>702.75</ele><time>2026-05-01T14:44:15Z</time></trkpt><trkpt lat="45.606926307053016" lon="3.5043216633506473"><ele>699.5</ele><time>2026-05-01T14:44:16Z</time></trkpt><trkpt lat="45.60699628903572" lon="3.504168346530053"><ele>696.25</ele><time>2026-05-01T14:44:17Z</time></trkpt><trkpt lat="45.607049382653244" lon="3.5040278979088693"><ele>693.0</ele><time>2026-05-01T14:44:18Z</time></trkpt><trkpt lat="45.60707665742469" lon="3.5038927765242494"><ele>692.6666666666666</ele><time>2026-05-01T14:44:19Z</time></trkpt><trkpt lat="45.60709389774892" lon="3.503721734432279"><ele>692.3333333333333</ele><time>2026-05-01T14:44:20Z</time></trkpt><trkpt lat="45.60699685181853" lon="3.503496230759016"><ele>692.0</ele><time>2026-05-01T14:44:21Z</time></trkpt><trkpt lat="45.606877852950916" lon="3.5032515517104947"><ele>692.0</ele><time>2026-05-01T14:44:22Z</time></trkpt><trkpt lat="45.60680241445806" lon="3.50309878523384"><ele>692.0</ele><time>2026-05-01T14:44:23Z</time></trkpt><trkpt lat="45.60676788215589" lon="3.502965706756517"><ele>692.0</ele><time>2026-05-01T14:44:24Z</time></trkpt><trkpt lat="45.606717277516516" lon="3.5028701036649683"><ele>692.0</ele><time>2026-05-01T14:44:26Z</time></trkpt><trkpt lat="45.60674789696168" lon="3.502999051126628"><ele>692.0</ele><time>2026-05-01T14:44:29Z</time></trkpt><trkpt lat="45.60679993562811" lon="3.503090670407695"><ele>692.0</ele><time>2026-05-01T14:44:30Z</time></trkpt><trkpt lat="45.606864004914854" lon="3.5031959911403927"><ele>692.0</ele><time>2026-05-01T14:44:31Z</time></trkpt><trkpt lat="45.606928592729375" lon="3.5033030150436253"><ele>692.0</ele><time>2026-05-01T14:44:32Z</time></trkpt><trkpt lat="45.6069822817833" lon="3.5033635933487215"><ele>692.0</ele><time>2026-05-01T14:44:33Z</time></trkpt><trkpt lat="45.60704955789754" lon="3.503352519198308"><ele>692.0</ele><time>2026-05-01T14:44:34Z</time></trkpt><trkpt lat="45.607117644625575" lon="3.503304915640381"><ele>692.0</ele><time>2026-05-01T14:44:35Z</time></trkpt><trkpt lat="45.60725667971936" lon="3.503241225439362"><ele>691.25</ele><time>2026-05-01T14:44:36Z</time></trkpt><trkpt lat="45.60732891900512" lon="3.503046664774149"><ele>690.5</ele><time>2026-05-01T14:44:37Z</time></trkpt><trkpt lat="45.6073877917709" lon="3.5028733340391565"><ele>689.75</ele><time>2026-05-01T14:44:38Z</time></trkpt><trkpt lat="45.607461570835085" lon="3.5026735804304288"><ele>689.0</ele><time>2026-05-01T14:44:39Z</time></trkpt><trkpt lat="45.60755203495274" lon="3.5024990185632623"><ele>689.0</ele><time>2026-05-01T14:44:40Z</time></trkpt><trkpt lat="45.60765262780456" lon="3.502366851946269"><ele>689.0</ele><time>2026-05-01T14:44:41Z</time></trkpt><trkpt lat="45.607778280460636" lon="3.502362327812699"><ele>689.0</ele><time>2026-05-01T14:44:42Z</time></trkpt><trkpt lat="45.60792133680555" lon="3.5023202461462666"><ele>689.0</ele><time>2026-05-01T14:44:43Z</time></trkpt><trkpt lat="45.608116656309846" lon="3.5022236059977754"><ele>693.5</ele><time>2026-05-01T14:44:44Z</time></trkpt><trkpt lat="45.60826060257151" lon="3.502138053722706"><ele>698.0</ele><time>2026-05-01T14:44:45Z</time></trkpt><trkpt lat="45.60839495357619" lon="3.5020980474658505"><ele>702.5</ele><time>2026-05-01T14:44:46Z</time></trkpt><trkpt lat="45.60852369549889" lon="3.502118019346372"><ele>707.0</ele><time>2026-05-01T14:44:47Z</time></trkpt><trkpt lat="45.608664476176635" lon="3.5021641351307395"><ele>712.0</ele><time>2026-05-01T14:44:48Z</time></trkpt><trkpt lat="45.60887359672289" lon="3.502220399319194"><ele>717.0</ele><time>2026-05-01T14:44:49Z</time></trkpt><trkpt lat="45.60907432319911" lon="3.502278028107912"><ele>722.0</ele><time>2026-05-01T14:44:50Z</time></trkpt><trkpt lat="45.60928003853621" lon="3.5023447858106214"><ele>721.0</ele><time>2026-05-01T14:44:51Z</time></trkpt><trkpt lat="45.60950259739863" lon="3.5024203803220963"><ele>720.0</ele><time>2026-05-01T14:44:52Z</time></trkpt><trkpt lat="45.60974229221135" lon="3.5025133341101164"><ele>720.0</ele><time>2026-05-01T14:44:53Z</time></trkpt><trkpt lat="45.61000269676187" lon="3.502547139741035"><ele>720.0</ele><time>2026-05-01T14:44:54Z</time></trkpt><trkpt lat="45.6102510344351" lon="3.5023960235545712"><ele>718.6666666666666</ele><time>2026-05-01T14:44:55Z</time></trkpt><trkpt lat="45.61033796231288" lon="3.502215852426183"><ele>717.3333333333333</ele><time>2026-05-01T14:44:56Z</time></trkpt><trkpt lat="45.610362339513586" lon="3.5019983441143325"><ele>716.0</ele><time>2026-05-01T14:44:57Z</time></trkpt><trkpt lat="45.610302792139635" lon="3.501802138228486"><ele>716.0</ele><time>2026-05-01T14:44:58Z</time></trkpt><trkpt lat="45.610237130313244" lon="3.5016651129193246"><ele>716.0</ele><time>2026-05-01T14:44:59Z</time></trkpt><trkpt lat="45.61012907656783" lon="3.50147455860684"><ele>716.0</ele><time>2026-05-01T14:45:00Z</time></trkpt><trkpt lat="45.60998058650474" lon="3.501225560396458"><ele>718.0</ele><time>2026-05-01T14:45:01Z</time></trkpt><trkpt lat="45.609819187338374" lon="3.5010435151490986"><ele>720.0</ele><time>2026-05-01T14:45:02Z</time></trkpt><trkpt lat="45.609631516954146" lon="3.5008668067170223"><ele>722.0</ele><time>2026-05-01T14:45:03Z</time></trkpt><trkpt lat="45.6094756198957" lon="3.5005512936762853"><ele>721.6666666666666</ele><time>2026-05-01T14:45:04Z</time></trkpt><trkpt lat="45.60942966425843" lon="3.5002588642948704"><ele>721.3333333333334</ele><time>2026-05-01T14:45:05Z</time></trkpt><trkpt lat="45.609509643178264" lon="3.499976678443594"><ele>721.0</ele><time>2026-05-01T14:45:06Z</time></trkpt><trkpt lat="45.60955535461319" lon="3.499774044882536"><ele>711.0</ele><time>2026-05-01T14:45:07Z</time></trkpt><trkpt lat="45.60919331038762" lon="3.4993028596278792"><ele>711.0</ele><time>2026-05-01T14:45:08Z</time></trkpt><trkpt lat="45.609238482620256" lon="3.499039143265185"><ele>711.0</ele><time>2026-05-01T14:45:09.001Z</time></trkpt><trkpt lat="45.60927282706518" lon="3.498708690734742"><ele>711.0</ele><time>2026-05-01T14:45:10.001Z</time></trkpt><trkpt lat="45.60929591871021" lon="3.4984196847901368"><ele>711.0</ele><time>2026-05-01T14:45:11.001Z</time></trkpt><trkpt lat="45.60930738010472" lon="3.4981473229890496"><ele>711.0</ele><time>2026-05-01T14:45:12.001Z</time></trkpt><trkpt lat="45.609356856916136" lon="3.497915714678796"><ele>711.0</ele><time>2026-05-01T14:45:13.001Z</time></trkpt><trkpt lat="45.609479289519335" lon="3.497673646931024"><ele>716.5</ele><time>2026-05-01T14:45:14.001Z</time></trkpt><trkpt lat="45.60964298786424" lon="3.4974661281992168"><ele>722.0</ele><time>2026-05-01T14:45:15.001Z</time></trkpt><trkpt lat="45.60982843526978" lon="3.4972388704532222"><ele>721.0</ele><time>2026-05-01T14:45:16.001Z</time></trkpt><trkpt lat="45.61006621841548" lon="3.497010457563035"><ele>720.0</ele><time>2026-05-01T14:45:17.001Z</time></trkpt><trkpt lat="45.610289570550385" lon="3.4967036624302428"><ele>721.5</ele><time>2026-05-01T14:45:19.001Z</time></trkpt><trkpt lat="45.610519827497825" lon="3.4964401393546325"><ele>723.0</ele><time>2026-05-01T14:45:20.001Z</time></trkpt><trkpt lat="45.61074127828791" lon="3.4961536891614595"><ele>722.5</ele><time>2026-05-01T14:45:21.001Z</time></trkpt><trkpt lat="45.61098523130673" lon="3.495889013583636"><ele>722.0</ele><time>2026-05-01T14:45:22.001Z</time></trkpt><trkpt lat="45.61116548170482" lon="3.4956050515049806"><ele>711.0</ele><time>2026-05-01T14:45:23.001Z</time></trkpt><trkpt lat="45.611627976305805" lon="3.495251002638991"><ele>711.0</ele><time>2026-05-01T14:45:24.001Z</time></trkpt><trkpt lat="45.611890196655736" lon="3.4949662275440843"><ele>711.0</ele><time>2026-05-01T14:45:25.001Z</time></trkpt><trkpt lat="45.6120827027793" lon="3.494612402606278"><ele>714.0</ele><time>2026-05-01T14:45:26.001Z</time></trkpt><trkpt lat="45.612270562553086" lon="3.4942658602977317"><ele>717.0</ele><time>2026-05-01T14:45:27.001Z</time></trkpt><trkpt lat="45.61246478968424" lon="3.493902490458299"><ele>716.5</ele><time>2026-05-01T14:45:28.001Z</time></trkpt><trkpt lat="45.61266629519751" lon="3.493526230979873"><ele>716.0</ele><time>2026-05-01T14:45:29.001Z</time></trkpt><trkpt lat="45.612868675182106" lon="3.4931515014520014"><ele>713.5</ele><time>2026-05-01T14:45:30.001Z</time></trkpt><trkpt lat="45.61307491752098" lon="3.49280848488895"><ele>711.0</ele><time>2026-05-01T14:45:31.001Z</time></trkpt><trkpt lat="45.61327125953986" lon="3.492474330024243"><ele>711.0</ele><time>2026-05-01T14:45:32.001Z</time></trkpt><trkpt lat="45.61339909243849" lon="3.4922188502270117"><ele>711.0</ele><time>2026-05-01T14:45:33.001Z</time></trkpt><trkpt lat="45.61352901268098" lon="3.4918955354250176"><ele>706.0</ele><time>2026-05-01T14:45:34.001Z</time></trkpt><trkpt lat="45.61359864593781" lon="3.4915710766661974"><ele>701.0</ele><time>2026-05-01T14:45:35.001Z</time></trkpt><trkpt lat="45.61370870146022" lon="3.4912534160266198"><ele>700.5</ele><time>2026-05-01T14:45:36.001Z</time></trkpt><trkpt lat="45.6138600361268" lon="3.4909230496473977"><ele>700.0</ele><time>2026-05-01T14:45:37.001Z</time></trkpt><trkpt lat="45.613987719039024" lon="3.4906057946870996"><ele>698.0</ele><time>2026-05-01T14:45:38.001Z</time></trkpt><trkpt lat="45.614114597780286" lon="3.490371561152981"><ele>696.0</ele><time>2026-05-01T14:45:39.001Z</time></trkpt><trkpt lat="45.61425947893538" lon="3.490174594453364"><ele>694.0</ele><time>2026-05-01T14:45:40.001Z</time></trkpt><trkpt lat="45.61442085468916" lon="3.4900060856032744"><ele>695.0</ele><time>2026-05-01T14:45:41.001Z</time></trkpt><trkpt lat="45.61458677230288" lon="3.4898725149701124"><ele>696.0</ele><time>2026-05-01T14:45:42.001Z</time></trkpt><trkpt lat="45.61483721547203" lon="3.489735429094277"><ele>696.0</ele><time>2026-05-01T14:45:43.001Z</time></trkpt><trkpt lat="45.61502872486307" lon="3.4898196638646155"><ele>696.0</ele><time>2026-05-01T14:45:45.001Z</time></trkpt><trkpt lat="45.61523942060235" lon="3.489840759021954"><ele>696.0</ele><time>2026-05-01T14:45:46.001Z</time></trkpt><trkpt lat="45.615420113682994" lon="3.489849444839552"><ele>693.5</ele><time>2026-05-01T14:45:47.001Z</time></trkpt><trkpt lat="45.61561397154384" lon="3.4898587613525103"><ele>691.0</ele><time>2026-05-01T14:45:48.001Z</time></trkpt><trkpt lat="45.6158700277582" lon="3.4898710670263435"><ele>691.0</ele><time>2026-05-01T14:45:49.001Z</time></trkpt><trkpt lat="45.61611092253517" lon="3.489881618133822"><ele>691.0</ele><time>2026-05-01T14:45:50.001Z</time></trkpt><trkpt lat="45.61640674660659" lon="3.4897904936034236"><ele>689.3333333333334</ele><time>2026-05-01T14:45:51.001Z</time></trkpt><trkpt lat="45.6166383264303" lon="3.489660583582395"><ele>687.6666666666666</ele><time>2026-05-01T14:45:52.001Z</time></trkpt><trkpt lat="45.61682117419569" lon="3.4896576372956774"><ele>686.0</ele><time>2026-05-01T14:45:53.001Z</time></trkpt><trkpt lat="45.61699542120393" lon="3.4897229166944057"><ele>685.5</ele><time>2026-05-01T14:45:54.001Z</time></trkpt><trkpt lat="45.61718871379803" lon="3.4897968789703766"><ele>685.0</ele><time>2026-05-01T14:45:55.001Z</time></trkpt><trkpt lat="45.61746144809886" lon="3.4898870476093395"><ele>685.0</ele><time>2026-05-01T14:45:56.001Z</time></trkpt><trkpt lat="45.617731336454405" lon="3.4899235309348904"><ele>685.0</ele><time>2026-05-01T14:45:57.001Z</time></trkpt><trkpt lat="45.617955326990256" lon="3.4899688942594507"><ele>684.6666666666667</ele><time>2026-05-01T14:45:58.001Z</time></trkpt><trkpt lat="45.61814361741773" lon="3.490096778826056"><ele>684.3333333333334</ele><time>2026-05-01T14:45:59.001Z</time></trkpt><trkpt lat="45.61828244371289" lon="3.4902750326813385"><ele>684.0</ele><time>2026-05-01T14:46:00.001Z</time></trkpt><trkpt lat="45.618432248670494" lon="3.4905254191599866"><ele>684.0</ele><time>2026-05-01T14:46:01.001Z</time></trkpt><trkpt lat="45.618616853024704" lon="3.4908429973317294"><ele>684.0</ele><time>2026-05-01T14:46:02.001Z</time></trkpt><trkpt lat="45.61878329378657" lon="3.4910419464032323"><ele>683.6666666666666</ele><time>2026-05-01T14:46:03.001Z</time></trkpt><trkpt lat="45.618853188769826" lon="3.4912124750393825"><ele>683.3333333333333</ele><time>2026-05-01T14:46:04.001Z</time></trkpt><trkpt lat="45.6189555623381" lon="3.4914609345601706"><ele>683.0</ele><time>2026-05-01T14:46:05.001Z</time></trkpt><trkpt lat="45.619075000506065" lon="3.4916383491390777"><ele>683.0</ele><time>2026-05-01T14:46:06.001Z</time></trkpt><trkpt lat="45.6192258125039" lon="3.491720184396543"><ele>683.0</ele><time>2026-05-01T14:46:07.001Z</time></trkpt><trkpt lat="45.619363079867426" lon="3.4916398578468253"><ele>683.0</ele><time>2026-05-01T14:46:08.001Z</time></trkpt><trkpt lat="45.61945174472733" lon="3.491590204930147"><ele>683.0</ele><time>2026-05-01T14:46:09.001Z</time></trkpt><trkpt lat="45.619472467925355" lon="3.491449550935039"><ele>690.5</ele><time>2026-05-01T14:46:10.001Z</time></trkpt><trkpt lat="45.61953202238951" lon="3.4913780138395305"><ele>698.0</ele><time>2026-05-01T14:46:11.001Z</time></trkpt><trkpt lat="45.61988973860192" lon="3.4916444226369756"><ele>698.0</ele><time>2026-05-01T14:46:12.001Z</time></trkpt><trkpt lat="45.620000086826025" lon="3.4915058434732282"><ele>698.0</ele><time>2026-05-01T14:46:13Z</time></trkpt><trkpt lat="45.620117224593265" lon="3.491453168615248"><ele>698.0</ele><time>2026-05-01T14:46:14Z</time></trkpt><trkpt lat="45.62017885820516" lon="3.491299199921884"><ele>698.0</ele><time>2026-05-01T14:46:15Z</time></trkpt><trkpt lat="45.620296730648946" lon="3.491032881658296"><ele>699.5</ele><time>2026-05-01T14:46:16Z</time></trkpt><trkpt lat="45.62046696180872" lon="3.4907589940372548"><ele>701.0</ele><time>2026-05-01T14:46:17Z</time></trkpt><trkpt lat="45.62064193788914" lon="3.4904928861553755"><ele>696.0</ele><time>2026-05-01T14:46:18Z</time></trkpt><trkpt lat="45.620785975684946" lon="3.490233957159049"><ele>691.0</ele><time>2026-05-01T14:46:19Z</time></trkpt><trkpt lat="45.6209333949663" lon="3.490042577894033"><ele>686.0</ele><time>2026-05-01T14:46:20Z</time></trkpt><trkpt lat="45.621100805693814" lon="3.4898792201898545"><ele>671.0</ele><time>2026-05-01T14:46:21Z</time></trkpt><trkpt lat="45.62101133790988" lon="3.4889977786596056"><ele>672.0</ele><time>2026-05-01T14:46:22Z</time></trkpt><trkpt lat="45.62126634690347" lon="3.488859335165693"><ele>673.0</ele><time>2026-05-01T14:46:23Z</time></trkpt><trkpt lat="45.62153924622102" lon="3.488779188628124"><ele>673.0</ele><time>2026-05-01T14:46:24Z</time></trkpt><trkpt lat="45.62182011534915" lon="3.4888195935223543"><ele>673.0</ele><time>2026-05-01T14:46:25Z</time></trkpt><trkpt lat="45.62215122104448" lon="3.4888929456120943"><ele>674.0</ele><time>2026-05-01T14:46:26Z</time></trkpt><trkpt lat="45.62241557620238" lon="3.4889006034094"><ele>675.0</ele><time>2026-05-01T14:46:27Z</time></trkpt><trkpt lat="45.622692626278784" lon="3.4888972556029607"><ele>675.5</ele><time>2026-05-01T14:46:28Z</time></trkpt><trkpt lat="45.62293750568399" lon="3.4887678737707195"><ele>676.0</ele><time>2026-05-01T14:46:29Z</time></trkpt><trkpt lat="45.6231531376672" lon="3.488613308976358"><ele>676.0</ele><time>2026-05-01T14:46:30Z</time></trkpt><trkpt lat="45.62337128268918" lon="3.4884746127433135"><ele>676.0</ele><time>2026-05-01T14:46:31Z</time></trkpt><trkpt lat="45.62355905299827" lon="3.48834876035504"><ele>676.0</ele><time>2026-05-01T14:46:32Z</time></trkpt><trkpt lat="45.623742764319914" lon="3.4882279311086966"><ele>676.0</ele><time>2026-05-01T14:46:33Z</time></trkpt><trkpt lat="45.62390754517667" lon="3.4881252173263837"><ele>676.0</ele><time>2026-05-01T14:46:34Z</time></trkpt><trkpt lat="45.624086787897454" lon="3.488018913751167"><ele>676.0</ele><time>2026-05-01T14:46:35Z</time></trkpt><trkpt lat="45.62427955210282" lon="3.487930849807518"><ele>676.0</ele><time>2026-05-01T14:46:36Z</time></trkpt><trkpt lat="45.62448535529694" lon="3.487876276040875"><ele>676.0</ele><time>2026-05-01T14:46:37Z</time></trkpt><trkpt lat="45.624719698240646" lon="3.4878947340730675"><ele>676.0</ele><time>2026-05-01T14:46:38Z</time></trkpt><trkpt lat="45.62492902533173" lon="3.4879357425165143"><ele>676.0</ele><time>2026-05-01T14:46:39Z</time></trkpt><trkpt lat="45.62512032420615" lon="3.4879813464358276"><ele>676.0</ele><time>2026-05-01T14:46:40Z</time></trkpt><trkpt lat="45.625269384316006" lon="3.487897824848214"><ele>676.0</ele><time>2026-05-01T14:46:41Z</time></trkpt><trkpt lat="45.62544170152726" lon="3.48767726210284"><ele>671.5</ele><time>2026-05-01T14:46:42Z</time></trkpt><trkpt lat="45.62565873728589" lon="3.4874756981903885"><ele>667.0</ele><time>2026-05-01T14:46:43Z</time></trkpt><trkpt lat="45.625862066495635" lon="3.487307926304194"><ele>667.0</ele><time>2026-05-01T14:46:44Z</time></trkpt><trkpt lat="45.6260720774291" lon="3.4871899907312454"><ele>667.0</ele><time>2026-05-01T14:46:45Z</time></trkpt><trkpt lat="45.626341702141964" lon="3.487018526748452"><ele>662.5</ele><time>2026-05-01T14:46:46Z</time></trkpt><trkpt lat="45.626528704756716" lon="3.486801721076609"><ele>658.0</ele><time>2026-05-01T14:46:47Z</time></trkpt><trkpt lat="45.6266871270128" lon="3.486592979528306"><ele>658.0</ele><time>2026-05-01T14:46:48Z</time></trkpt><trkpt lat="45.62674707093915" lon="3.486430068026526"><ele>658.0</ele><time>2026-05-01T14:46:49Z</time></trkpt><trkpt lat="45.62691769376139" lon="3.486368721787095"><ele>658.0</ele><time>2026-05-01T14:46:50Z</time></trkpt><trkpt lat="45.62707267306524" lon="3.486352872701827"><ele>657.6666666666667</ele><time>2026-05-01T14:46:51Z</time></trkpt><trkpt lat="45.6272370912652" lon="3.486328868933963"><ele>657.3333333333334</ele><time>2026-05-01T14:46:52Z</time></trkpt><trkpt lat="45.62744135407301" lon="3.4863237016387587"><ele>657.0</ele><time>2026-05-01T14:46:53Z</time></trkpt><trkpt lat="45.62772010738824" lon="3.48637923627525"><ele>654.6666666666666</ele><time>2026-05-01T14:46:54Z</time></trkpt><trkpt lat="45.62793778969228" lon="3.486397902871732"><ele>652.3333333333333</ele><time>2026-05-01T14:46:55Z</time></trkpt><trkpt lat="45.62809341580877" lon="3.4864410949138898"><ele>650.0</ele><time>2026-05-01T14:46:56Z</time></trkpt><trkpt lat="45.628226415347406" lon="3.4865601796318315"><ele>650.0</ele><time>2026-05-01T14:46:57Z</time></trkpt><trkpt lat="45.628303921293025" lon="3.4867343340214534"><ele>650.0</ele><time>2026-05-01T14:46:58Z</time></trkpt><trkpt lat="45.628365551040964" lon="3.486942370530129"><ele>650.0</ele><time>2026-05-01T14:46:59Z</time></trkpt><trkpt lat="45.62836555327791" lon="3.4871394849013053"><ele>650.0</ele><time>2026-05-01T14:47:00Z</time></trkpt><trkpt lat="45.62835728144329" lon="3.4872930854062503"><ele>651.0</ele><time>2026-05-01T14:47:01Z</time></trkpt><trkpt lat="45.628369117935854" lon="3.4874329918974944"><ele>652.0</ele><time>2026-05-01T14:47:02Z</time></trkpt><trkpt lat="45.62815823854132" lon="3.4878242114566853"><ele>653.0</ele><time>2026-05-01T14:47:03Z</time></trkpt><trkpt lat="45.628062406994424" lon="3.488157973923469"><ele>654.0</ele><time>2026-05-01T14:47:04Z</time></trkpt><trkpt lat="45.628040478105504" lon="3.4883933026649254"><ele>655.0</ele><time>2026-05-01T14:47:05Z</time></trkpt><trkpt lat="45.62802445074935" lon="3.4886122414354346"><ele>656.0</ele><time>2026-05-01T14:47:06Z</time></trkpt><trkpt lat="45.62811586571839" lon="3.488796619379467"><ele>657.3333333333333</ele><time>2026-05-01T14:47:07Z</time></trkpt><trkpt lat="45.628232690357564" lon="3.488907119757582"><ele>658.6666666666666</ele><time>2026-05-01T14:47:08Z</time></trkpt><trkpt lat="45.62837637992968" lon="3.4889532251624598"><ele>660.0</ele><time>2026-05-01T14:47:09Z</time></trkpt><trkpt lat="45.62857126374419" lon="3.4889154810648346"><ele>658.6666666666666</ele><time>2026-05-01T14:47:10Z</time></trkpt><trkpt lat="45.62876734441352" lon="3.488849511053464"><ele>657.3333333333333</ele><time>2026-05-01T14:47:11Z</time></trkpt><trkpt lat="45.62893374903561" lon="3.4887914501242125"><ele>656.0</ele><time>2026-05-01T14:47:12Z</time></trkpt><trkpt lat="45.629072064526866" lon="3.488555215877083"><ele>649.5</ele><time>2026-05-01T14:47:13Z</time></trkpt><trkpt lat="45.62928543840426" lon="3.4883019791650307"><ele>643.0</ele><time>2026-05-01T14:47:14Z</time></trkpt><trkpt lat="45.62947317962904" lon="3.4879759098036307"><ele>642.5</ele><time>2026-05-01T14:47:15Z</time></trkpt><trkpt lat="45.629656025162" lon="3.4875952486282085"><ele>642.0</ele><time>2026-05-01T14:47:16Z</time></trkpt><trkpt lat="45.62979241035945" lon="3.4872560935828867"><ele>639.3333333333334</ele><time>2026-05-01T14:47:17Z</time></trkpt><trkpt lat="45.62990040914453" lon="3.486961208562921"><ele>636.6666666666667</ele><time>2026-05-01T14:47:18Z</time></trkpt><trkpt lat="45.629994370499745" lon="3.4867566106005685"><ele>634.0</ele><time>2026-05-01T14:47:19.001Z</time></trkpt><trkpt lat="45.630002568735264" lon="3.4864679119791293"><ele>633.3333333333334</ele><time>2026-05-01T14:47:20.001Z</time></trkpt><trkpt lat="45.62997752413581" lon="3.486247389738595"><ele>632.6666666666666</ele><time>2026-05-01T14:47:21.001Z</time></trkpt><trkpt lat="45.62983160806656" lon="3.4860847184505763"><ele>632.0</ele><time>2026-05-01T14:47:22.001Z</time></trkpt><trkpt lat="45.62967263570536" lon="3.4858725520471556"><ele>632.0</ele><time>2026-05-01T14:47:23.001Z</time></trkpt><trkpt lat="45.62955707356719" lon="3.4856784662195786"><ele>632.0</ele><time>2026-05-01T14:47:24.001Z</time></trkpt><trkpt lat="45.62954786000862" lon="3.4853504865033256"><ele>632.0</ele><time>2026-05-01T14:47:25.001Z</time></trkpt><trkpt lat="45.62943749589113" lon="3.485097459557144"><ele>630.6666666666666</ele><time>2026-05-01T14:47:26.001Z</time></trkpt><trkpt lat="45.62925615389798" lon="3.4849103019958756"><ele>629.3333333333334</ele><time>2026-05-01T14:47:27.001Z</time></trkpt><trkpt lat="45.629130022300856" lon="3.4847827197761045"><ele>628.0</ele><time>2026-05-01T14:47:28.001Z</time></trkpt><trkpt lat="45.62897324161106" lon="3.4846111437158447"><ele>625.3333333333334</ele><time>2026-05-01T14:47:29.001Z</time></trkpt><trkpt lat="45.62875803523718" lon="3.4845364234428793"><ele>622.6666666666666</ele><time>2026-05-01T14:47:30.001Z</time></trkpt><trkpt lat="45.62854387036194" lon="3.4844623808095783"><ele>620.0</ele><time>2026-05-01T14:47:31.001Z</time></trkpt><trkpt lat="45.62841011458636" lon="3.484320046361335"><ele>620.0</ele><time>2026-05-01T14:47:32.001Z</time></trkpt><trkpt lat="45.62832674812669" lon="3.484136813112152"><ele>620.0</ele><time>2026-05-01T14:47:33.001Z</time></trkpt><trkpt lat="45.62827660895433" lon="3.483940969412545"><ele>620.0</ele><time>2026-05-01T14:47:34.001Z</time></trkpt><trkpt lat="45.62825624358068" lon="3.483702940533057"><ele>617.0</ele><time>2026-05-01T14:47:35.001Z</time></trkpt><trkpt lat="45.62834270756405" lon="3.483673573853886"><ele>614.0</ele><time>2026-05-01T14:47:36.001Z</time></trkpt><trkpt lat="45.62816846788243" lon="3.482954165130024"><ele>613.5</ele><time>2026-05-01T14:47:37.001Z</time></trkpt><trkpt lat="45.62815111799333" lon="3.482855977004227"><ele>613.0</ele><time>2026-05-01T14:47:38.001Z</time></trkpt><trkpt lat="45.627905890769824" lon="3.482850590893983"><ele>612.5</ele><time>2026-05-01T14:47:39.001Z</time></trkpt><trkpt lat="45.62782589622536" lon="3.4828170498844044"><ele>612.0</ele><time>2026-05-01T14:47:40.001Z</time></trkpt><trkpt lat="45.62771768672203" lon="3.4827847715241487"><ele>612.0</ele><time>2026-05-01T14:47:41.001Z</time></trkpt><trkpt lat="45.62757835863078" lon="3.4827056605145024"><ele>612.0</ele><time>2026-05-01T14:47:42.001Z</time></trkpt><trkpt lat="45.62744664395075" lon="3.482605092440431"><ele>612.0</ele><time>2026-05-01T14:47:43.001Z</time></trkpt><trkpt lat="45.627422744936965" lon="3.4824431685506148"><ele>612.0</ele><time>2026-05-01T14:47:44.001Z</time></trkpt><trkpt lat="45.62741973294387" lon="3.4822494373840995"><ele>611.0</ele><time>2026-05-01T14:47:45.001Z</time></trkpt><trkpt lat="45.62738624959651" lon="3.4819708710723525"><ele>610.0</ele><time>2026-05-01T14:47:46.001Z</time></trkpt><trkpt lat="45.627359481632794" lon="3.481716714922356"><ele>609.0</ele><time>2026-05-01T14:47:47.001Z</time></trkpt><trkpt lat="45.62736074517434" lon="3.48151191714391"><ele>609.0</ele><time>2026-05-01T14:47:48.001Z</time></trkpt><trkpt lat="45.62741062397934" lon="3.4813021081241167"><ele>609.0</ele><time>2026-05-01T14:47:49.001Z</time></trkpt><trkpt lat="45.627489944194714" lon="3.4812958441406767"><ele>609.0</ele><time>2026-05-01T14:47:50.001Z</time></trkpt><trkpt lat="45.62757779496498" lon="3.4812286889103414"><ele>609.0</ele><time>2026-05-01T14:47:51.001Z</time></trkpt><trkpt lat="45.62771991147012" lon="3.4811405607013395"><ele>605.5</ele><time>2026-05-01T14:47:52.001Z</time></trkpt><trkpt lat="45.62790965496636" lon="3.4810078287695294"><ele>602.0</ele><time>2026-05-01T14:47:53.001Z</time></trkpt><trkpt lat="45.62819164103954" lon="3.4806740404249434"><ele>601.5</ele><time>2026-05-01T14:47:54.001Z</time></trkpt><trkpt lat="45.62842330962409" lon="3.480340138815398"><ele>601.0</ele><time>2026-05-01T14:47:55.001Z</time></trkpt><trkpt lat="45.628586019039574" lon="3.4800998019518135"><ele>599.0</ele><time>2026-05-01T14:47:56.001Z</time></trkpt><trkpt lat="45.628735505650745" lon="3.479895495335158"><ele>597.0</ele><time>2026-05-01T14:47:57.001Z</time></trkpt><trkpt lat="45.62888755876833" lon="3.4797646095343273"><ele>595.0</ele><time>2026-05-01T14:47:58.001Z</time></trkpt><trkpt lat="45.62910412821473" lon="3.4796290472262847"><ele>595.5</ele><time>2026-05-01T14:47:59.001Z</time></trkpt><trkpt lat="45.62935102311132" lon="3.479480873477566"><ele>596.0</ele><time>2026-05-01T14:48:00.001Z</time></trkpt><trkpt lat="45.629615533787614" lon="3.479308326892355"><ele>593.0</ele><time>2026-05-01T14:48:01.001Z</time></trkpt><trkpt lat="45.62990804772794" lon="3.4791046531537346"><ele>590.0</ele><time>2026-05-01T14:48:02.001Z</time></trkpt><trkpt lat="45.6301811917577" lon="3.478906413947901"><ele>590.5</ele><time>2026-05-01T14:48:03.001Z</time></trkpt><trkpt lat="45.63045644429566" lon="3.4787036368542266"><ele>591.0</ele><time>2026-05-01T14:48:04.001Z</time></trkpt><trkpt lat="45.630736918753605" lon="3.4784969818690388"><ele>591.0</ele><time>2026-05-01T14:48:05.001Z</time></trkpt><trkpt lat="45.630990235541184" lon="3.47830714078111"><ele>591.0</ele><time>2026-05-01T14:48:06.001Z</time></trkpt><trkpt lat="45.631236192603744" lon="3.478126401128163"><ele>593.0</ele><time>2026-05-01T14:48:07.001Z</time></trkpt><trkpt lat="45.631445680665536" lon="3.4779222351832413"><ele>595.0</ele><time>2026-05-01T14:48:08.001Z</time></trkpt><trkpt lat="45.63165130743845" lon="3.4776805002345945"><ele>595.0</ele><time>2026-05-01T14:48:09.001Z</time></trkpt><trkpt lat="45.631859607098725" lon="3.477423485153068"><ele>595.0</ele><time>2026-05-01T14:48:10.001Z</time></trkpt><trkpt lat="45.63208256680665" lon="3.4771530680307476"><ele>594.0</ele><time>2026-05-01T14:48:11.001Z</time></trkpt><trkpt lat="45.632294031228206" lon="3.4769141506836263"><ele>593.0</ele><time>2026-05-01T14:48:12.001Z</time></trkpt><trkpt lat="45.63250479200018" lon="3.476673543473902"><ele>593.0</ele><time>2026-05-01T14:48:13.001Z</time></trkpt><trkpt lat="45.6326985309948" lon="3.4765425615645573"><ele>593.0</ele><time>2026-05-01T14:48:14.001Z</time></trkpt><trkpt lat="45.632747218601466" lon="3.476091809547971"><ele>599.5</ele><time>2026-05-01T14:48:15.001Z</time></trkpt><trkpt lat="45.63284176323267" lon="3.475732797411111"><ele>606.0</ele><time>2026-05-01T14:48:16.001Z</time></trkpt><trkpt lat="45.63293417010477" lon="3.475468327214271"><ele>608.0</ele><time>2026-05-01T14:48:17.001Z</time></trkpt><trkpt lat="45.632956286998535" lon="3.4752260505063517"><ele>610.0</ele><time>2026-05-01T14:48:18.001Z</time></trkpt><trkpt lat="45.63289916728692" lon="3.4749801236025903"><ele>612.0</ele><time>2026-05-01T14:48:19Z</time></trkpt><trkpt lat="45.63275605417449" lon="3.4747428429192215"><ele>608.0</ele><time>2026-05-01T14:48:20Z</time></trkpt><trkpt lat="45.63258321861596" lon="3.474510009253627"><ele>604.0</ele><time>2026-05-01T14:48:21Z</time></trkpt><trkpt lat="45.63242035864553" lon="3.474283118278668"><ele>604.0</ele><time>2026-05-01T14:48:22Z</time></trkpt><trkpt lat="45.63230758559678" lon="3.4741161370316465"><ele>604.0</ele><time>2026-05-01T14:48:23Z</time></trkpt><trkpt lat="45.63233417344925" lon="3.4739531046444894"><ele>604.0</ele><time>2026-05-01T14:48:24Z</time></trkpt><trkpt lat="45.63238319673757" lon="3.4737890772033766"><ele>604.0</ele><time>2026-05-01T14:48:25Z</time></trkpt><trkpt lat="45.63251162455228" lon="3.4737355662950677"><ele>605.0</ele><time>2026-05-01T14:48:26Z</time></trkpt><trkpt lat="45.63262182746907" lon="3.473605044197032"><ele>606.0</ele><time>2026-05-01T14:48:27Z</time></trkpt><trkpt lat="45.632747634668725" lon="3.473458202618782"><ele>607.0</ele><time>2026-05-01T14:48:28Z</time></trkpt><trkpt lat="45.63285213447861" lon="3.473336230636184"><ele>608.0</ele><time>2026-05-01T14:48:29Z</time></trkpt><trkpt lat="45.63293270662258" lon="3.4732421871238315"><ele>608.0</ele><time>2026-05-01T14:48:30Z</time></trkpt><trkpt lat="45.633008135130595" lon="3.473159981486732"><ele>608.0</ele><time>2026-05-01T14:48:31Z</time></trkpt><trkpt lat="45.633084960194786" lon="3.473088982635628"><ele>608.0</ele><time>2026-05-01T14:48:32Z</time></trkpt><trkpt lat="45.63316984753611" lon="3.4730484810259785"><ele>608.0</ele><time>2026-05-01T14:48:33Z</time></trkpt><trkpt lat="45.63325669746577" lon="3.4730349200870214"><ele>608.0</ele><time>2026-05-01T14:48:34Z</time></trkpt><trkpt lat="45.63335358791315" lon="3.4730212177971422"><ele>608.0</ele><time>2026-05-01T14:48:35Z</time></trkpt><trkpt lat="45.63344676457804" lon="3.473000785764467"><ele>608.0</ele><time>2026-05-01T14:48:36Z</time></trkpt><trkpt lat="45.63352515570145" lon="3.472977442409822"><ele>608.0</ele><time>2026-05-01T14:48:37Z</time></trkpt><trkpt lat="45.633601712773064" lon="3.472947254131155"><ele>608.0</ele><time>2026-05-01T14:48:38Z</time></trkpt><trkpt lat="45.633692133493156" lon="3.472904001377164"><ele>608.0</ele><time>2026-05-01T14:48:39Z</time></trkpt><trkpt lat="45.633784611996596" lon="3.4728565018395035"><ele>608.0</ele><time>2026-05-01T14:48:40Z</time></trkpt><trkpt lat="45.63387563229959" lon="3.4728027105445216"><ele>605.4</ele><time>2026-05-01T14:48:41Z</time></trkpt><trkpt lat="45.633966875319906" lon="3.4727402196437676"><ele>602.8</ele><time>2026-05-01T14:48:42Z</time></trkpt><trkpt lat="45.63405199164099" lon="3.4726739395858273"><ele>600.2</ele><time>2026-05-01T14:48:43Z</time></trkpt><trkpt lat="45.63412805480703" lon="3.4726044539027336"><ele>597.6</ele><time>2026-05-01T14:48:44Z</time></trkpt><trkpt lat="45.63421134021531" lon="3.4725282812364906"><ele>595.0</ele><time>2026-05-01T14:48:45Z</time></trkpt><trkpt lat="45.634300100807344" lon="3.472446392781326"><ele>595.0</ele><time>2026-05-01T14:48:46Z</time></trkpt><trkpt lat="45.634394436868355" lon="3.4723663431330465"><ele>595.0</ele><time>2026-05-01T14:48:47Z</time></trkpt><trkpt lat="45.63447908109881" lon="3.4723034595631423"><ele>595.0</ele><time>2026-05-01T14:48:48Z</time></trkpt><trkpt lat="45.634577837100075" lon="3.47224131333743"><ele>595.0</ele><time>2026-05-01T14:48:49Z</time></trkpt><trkpt lat="45.63468075352893" lon="3.4721846410330732"><ele>595.0</ele><time>2026-05-01T14:48:50Z</time></trkpt><trkpt lat="45.634783322200306" lon="3.4721343787182892"><ele>593.5</ele><time>2026-05-01T14:48:51Z</time></trkpt><trkpt lat="45.6348803152442" lon="3.472076517733853"><ele>592.0</ele><time>2026-05-01T14:48:52Z</time></trkpt><trkpt lat="45.63497386868636" lon="3.4720050163557694"><ele>590.5</ele><time>2026-05-01T14:48:53Z</time></trkpt><trkpt lat="45.63504733291864" lon="3.471870349964033"><ele>589.0</ele><time>2026-05-01T14:48:54Z</time></trkpt><trkpt lat="45.635120778030476" lon="3.471694518299061"><ele>589.0</ele><time>2026-05-01T14:48:55Z</time></trkpt><trkpt lat="45.63520641017571" lon="3.4715040350912045"><ele>589.0</ele><time>2026-05-01T14:48:56Z</time></trkpt><trkpt lat="45.63530892357577" lon="3.4712958920569705"><ele>589.0</ele><time>2026-05-01T14:48:57Z</time></trkpt><trkpt lat="45.635421999034044" lon="3.4711198164809134"><ele>588.0</ele><time>2026-05-01T14:48:58Z</time></trkpt><trkpt lat="45.635533900610625" lon="3.4709742352620454"><ele>587.0</ele><time>2026-05-01T14:48:59Z</time></trkpt><trkpt lat="45.63567570916355" lon="3.4708706794145647"><ele>586.0</ele><time>2026-05-01T14:49:00Z</time></trkpt><trkpt lat="45.635829954225514" lon="3.4707845411092864"><ele>586.0</ele><time>2026-05-01T14:49:01Z</time></trkpt><trkpt lat="45.63602333227131" lon="3.4706884471792834"><ele>586.0</ele><time>2026-05-01T14:49:02Z</time></trkpt><trkpt lat="45.63619942760922" lon="3.4705604095020233"><ele>586.0</ele><time>2026-05-01T14:49:03Z</time></trkpt><trkpt lat="45.63637944576293" lon="3.4704969265616112"><ele>585.5</ele><time>2026-05-01T14:49:04Z</time></trkpt><trkpt lat="45.636487517455535" lon="3.4703875064323255"><ele>585.0</ele><time>2026-05-01T14:49:05Z</time></trkpt><trkpt lat="45.636593309273856" lon="3.4702631820308976"><ele>584.5</ele><time>2026-05-01T14:49:06Z</time></trkpt><trkpt lat="45.63672280677215" lon="3.470123932589039"><ele>584.0</ele><time>2026-05-01T14:49:07Z</time></trkpt><trkpt lat="45.636887982005454" lon="3.4700021744663614"><ele>584.3333333333333</ele><time>2026-05-01T14:49:08Z</time></trkpt><trkpt lat="45.63699053309205" lon="3.46991123335072"><ele>584.6666666666666</ele><time>2026-05-01T14:49:09Z</time></trkpt><trkpt lat="45.63718570547147" lon="3.469884053013055"><ele>585.0</ele><time>2026-05-01T14:49:10Z</time></trkpt><trkpt lat="45.63731456446457" lon="3.4697415685958672"><ele>582.6666666666666</ele><time>2026-05-01T14:49:11Z</time></trkpt><trkpt lat="45.637465159734234" lon="3.469561881738975"><ele>580.3333333333333</ele><time>2026-05-01T14:49:12Z</time></trkpt><trkpt lat="45.63767355795405" lon="3.4694464792363755"><ele>578.0</ele><time>2026-05-01T14:49:13Z</time></trkpt><trkpt lat="45.637866746457334" lon="3.469384138622314"><ele>578.0</ele><time>2026-05-01T14:49:14Z</time></trkpt><trkpt lat="45.63801588131977" lon="3.469358439617768"><ele>578.0</ele><time>2026-05-01T14:49:15.001Z</time></trkpt><trkpt lat="45.638109827932986" lon="3.4692507482253783"><ele>578.0</ele><time>2026-05-01T14:49:16.001Z</time></trkpt><trkpt lat="45.638170547328215" lon="3.4690198187994326"><ele>578.0</ele><time>2026-05-01T14:49:17.001Z</time></trkpt><trkpt lat="45.63820303394454" lon="3.4687757042894827"><ele>576.3333333333333</ele><time>2026-05-01T14:49:18.001Z</time></trkpt><trkpt lat="45.63823687706358" lon="3.468538338339869"><ele>574.6666666666666</ele><time>2026-05-01T14:49:19.001Z</time></trkpt><trkpt lat="45.63825500989812" lon="3.4683290711750807"><ele>573.0</ele><time>2026-05-01T14:49:20.001Z</time></trkpt><trkpt lat="45.63823463502795" lon="3.4681008974291916"><ele>570.0</ele><time>2026-05-01T14:49:21.001Z</time></trkpt><trkpt lat="45.638169169831166" lon="3.4678671351384733"><ele>567.0</ele><time>2026-05-01T14:49:22.001Z</time></trkpt><trkpt lat="45.63815755280258" lon="3.467697299831299"><ele>564.0</ele><time>2026-05-01T14:49:23.001Z</time></trkpt><trkpt lat="45.638187003312794" lon="3.467548967233877"><ele>561.0</ele><time>2026-05-01T14:49:24.001Z</time></trkpt><trkpt lat="45.638230154723814" lon="3.4674781855156667"><ele>561.0</ele><time>2026-05-01T14:49:25.001Z</time></trkpt><trkpt lat="45.638290699196865" lon="3.467365864391858"><ele>561.0</ele><time>2026-05-01T14:49:26.001Z</time></trkpt><trkpt lat="45.63841432370853" lon="3.4672733173822716"><ele>561.0</ele><time>2026-05-01T14:49:27.001Z</time></trkpt><trkpt lat="45.63856227791327" lon="3.4672525551463362"><ele>561.0</ele><time>2026-05-01T14:49:28.001Z</time></trkpt><trkpt lat="45.63875487541179" lon="3.467185366306428"><ele>563.5</ele><time>2026-05-01T14:49:29.001Z</time></trkpt><trkpt lat="45.63910191312109" lon="3.467186738756988"><ele>566.0</ele><time>2026-05-01T14:49:30.001Z</time></trkpt><trkpt lat="45.639441703123026" lon="3.467223976442671"><ele>566.0</ele><time>2026-05-01T14:49:31.001Z</time></trkpt><trkpt lat="45.63971457680823" lon="3.467172933199142"><ele>566.0</ele><time>2026-05-01T14:49:32.001Z</time></trkpt><trkpt lat="45.639963881996344" lon="3.467073980479045"><ele>560.0</ele><time>2026-05-01T14:49:33.001Z</time></trkpt><trkpt lat="45.64015644772242" lon="3.4670503934007875"><ele>554.0</ele><time>2026-05-01T14:49:34.001Z</time></trkpt><trkpt lat="45.64034572994297" lon="3.4670053979908007"><ele>548.0</ele><time>2026-05-01T14:49:35.001Z</time></trkpt><trkpt lat="45.6405133079843" lon="3.4669677619572665"><ele>548.0</ele><time>2026-05-01T14:49:36.001Z</time></trkpt><trkpt lat="45.640710193957" lon="3.4669217189281616"><ele>548.0</ele><time>2026-05-01T14:49:37.001Z</time></trkpt><trkpt lat="45.64090982881072" lon="3.4668643561264965"><ele>548.0</ele><time>2026-05-01T14:49:38.001Z</time></trkpt><trkpt lat="45.64110357134865" lon="3.466761439843719"><ele>549.3333333333333</ele><time>2026-05-01T14:49:39.001Z</time></trkpt><trkpt lat="45.64127088282334" lon="3.4667836269855767"><ele>550.6666666666666</ele><time>2026-05-01T14:49:40.001Z</time></trkpt><trkpt lat="45.64144932714708" lon="3.4667541942063376"><ele>552.0</ele><time>2026-05-01T14:49:41.001Z</time></trkpt><trkpt lat="45.641626750028536" lon="3.4666152946856283"><ele>552.0</ele><time>2026-05-01T14:49:42.001Z</time></trkpt><trkpt lat="45.64182941081897" lon="3.4664879750687714"><ele>552.0</ele><time>2026-05-01T14:49:43.001Z</time></trkpt><trkpt lat="45.6420171995306" lon="3.466325490721604"><ele>552.0</ele><time>2026-05-01T14:49:44.001Z</time></trkpt><trkpt lat="45.642190535058894" lon="3.4662250406645767"><ele>551.6666666666666</ele><time>2026-05-01T14:49:45.001Z</time></trkpt><trkpt lat="45.642296951565626" lon="3.4660659560558154"><ele>551.3333333333333</ele><time>2026-05-01T14:49:46.001Z</time></trkpt><trkpt lat="45.64235723314619" lon="3.4658761982661765"><ele>551.0</ele><time>2026-05-01T14:49:47.001Z</time></trkpt><trkpt lat="45.64238726254034" lon="3.46555140474037"><ele>546.0</ele><time>2026-05-01T14:49:48.001Z</time></trkpt><trkpt lat="45.64247058446236" lon="3.465289332285241"><ele>541.0</ele><time>2026-05-01T14:49:49.001Z</time></trkpt><trkpt lat="45.64262974454523" lon="3.465022686599019"><ele>536.0</ele><time>2026-05-01T14:49:50.001Z</time></trkpt><trkpt lat="45.64274732157716" lon="3.4647724944245244"><ele>534.0</ele><time>2026-05-01T14:49:51.001Z</time></trkpt><trkpt lat="45.64292149084097" lon="3.4646583809493388"><ele>532.0</ele><time>2026-05-01T14:49:52.001Z</time></trkpt><trkpt lat="45.643116632168585" lon="3.4645785990294313"><ele>530.0</ele><time>2026-05-01T14:49:53.001Z</time></trkpt><trkpt lat="45.64335820328423" lon="3.4645052861656556"><ele>530.0</ele><time>2026-05-01T14:49:54.001Z</time></trkpt><trkpt lat="45.643618107622636" lon="3.464397283806278"><ele>530.0</ele><time>2026-05-01T14:49:55.001Z</time></trkpt><trkpt lat="45.64385102171834" lon="3.464263956820143"><ele>530.3333333333333</ele><time>2026-05-01T14:49:56.001Z</time></trkpt><trkpt lat="45.644024763977164" lon="3.4641619216505593"><ele>530.6666666666666</ele><time>2026-05-01T14:49:57.001Z</time></trkpt><trkpt lat="45.64422172162071" lon="3.464012160378324"><ele>531.0</ele><time>2026-05-01T14:49:58.001Z</time></trkpt><trkpt lat="45.64437091242411" lon="3.4637863713891264"><ele>529.0</ele><time>2026-05-01T14:49:59.001Z</time></trkpt><trkpt lat="45.644553444449315" lon="3.4636978704194266"><ele>527.0</ele><time>2026-05-01T14:50:00.001Z</time></trkpt><trkpt lat="45.644722752161044" lon="3.4634871577811235"><ele>525.0</ele><time>2026-05-01T14:50:01.001Z</time></trkpt><trkpt lat="45.6448762282362" lon="3.46324785210148"><ele>525.0</ele><time>2026-05-01T14:50:02.001Z</time></trkpt><trkpt lat="45.645018667476" lon="3.4630377634864424"><ele>525.0</ele><time>2026-05-01T14:50:03.001Z</time></trkpt><trkpt lat="45.64514923799435" lon="3.4628532346355807"><ele>525.0</ele><time>2026-05-01T14:50:04.001Z</time></trkpt><trkpt lat="45.645268401307334" lon="3.462759859955501"><ele>523.6666666666666</ele><time>2026-05-01T14:50:05.001Z</time></trkpt><trkpt lat="45.64537906812455" lon="3.4626485519145302"><ele>522.3333333333333</ele><time>2026-05-01T14:50:06.001Z</time></trkpt><trkpt lat="45.645410011599644" lon="3.4624252301128267"><ele>521.0</ele><time>2026-05-01T14:50:07.001Z</time></trkpt><trkpt lat="45.64533094236263" lon="3.4621704897215255"><ele>516.0</ele><time>2026-05-01T14:50:08.001Z</time></trkpt><trkpt lat="45.64523141901396" lon="3.4619370592951064"><ele>511.0</ele><time>2026-05-01T14:50:09.001Z</time></trkpt><trkpt lat="45.64515568438415" lon="3.461692679991311"><ele>506.0</ele><time>2026-05-01T14:50:10.001Z</time></trkpt><trkpt lat="45.64528014301928" lon="3.462067779230116"><ele>500.0</ele><time>2026-05-01T14:50:11.001Z</time></trkpt><trkpt lat="45.64486667202789" lon="3.460754406826993"><ele>500.0</ele><time>2026-05-01T14:50:13.001Z</time></trkpt><trkpt lat="45.64476910733045" lon="3.4604533585005144"><ele>500.0</ele><time>2026-05-01T14:50:14.001Z</time></trkpt><trkpt lat="45.64471873149119" lon="3.4602635997263547"><ele>500.0</ele><time>2026-05-01T14:50:15.001Z</time></trkpt><trkpt lat="45.64471202645134" lon="3.4601528644171418"><ele>498.0</ele><time>2026-05-01T14:50:16.001Z</time></trkpt><trkpt lat="45.644871185878394" lon="3.460240051169274"><ele>496.0</ele><time>2026-05-01T14:50:18.001Z</time></trkpt><trkpt lat="45.64501957479237" lon="3.4602021514593875"><ele>494.0</ele><time>2026-05-01T14:50:19.001Z</time></trkpt><trkpt lat="45.64524823689466" lon="3.4601433979917"><ele>494.5</ele><time>2026-05-01T14:50:20.001Z</time></trkpt><trkpt lat="45.64548600907803" lon="3.460105273195539"><ele>495.0</ele><time>2026-05-01T14:50:21.001Z</time></trkpt><trkpt lat="45.645735689079494" lon="3.460083163160237"><ele>495.0</ele><time>2026-05-01T14:50:22.001Z</time></trkpt><trkpt lat="45.645969448532504" lon="3.4600650585344463"><ele>495.0</ele><time>2026-05-01T14:50:23.001Z</time></trkpt><trkpt lat="45.64623293253794" lon="3.460044651768271"><ele>494.5</ele><time>2026-05-01T14:50:24Z</time></trkpt><trkpt lat="45.64650062193053" lon="3.4600239193061473"><ele>494.0</ele><time>2026-05-01T14:50:25Z</time></trkpt><trkpt lat="45.64671786504169" lon="3.4600055732460673"><ele>494.0</ele><time>2026-05-01T14:50:26Z</time></trkpt><trkpt lat="45.646926815481656" lon="3.4599636184700704"><ele>494.0</ele><time>2026-05-01T14:50:27Z</time></trkpt><trkpt lat="45.64709879920305" lon="3.459982894465585"><ele>494.0</ele><time>2026-05-01T14:50:28Z</time></trkpt><trkpt lat="45.64725964692743" lon="3.45998074292107"><ele>493.3333333333333</ele><time>2026-05-01T14:50:29Z</time></trkpt><trkpt lat="45.64739686947536" lon="3.4600046837139633"><ele>492.66666666666663</ele><time>2026-05-01T14:50:30Z</time></trkpt><trkpt lat="45.64755697319347" lon="3.4599949588849097"><ele>492.0</ele><time>2026-05-01T14:50:31Z</time></trkpt><trkpt lat="45.647714031569194" lon="3.4599273990712813"><ele>492.0</ele><time>2026-05-01T14:50:32Z</time></trkpt><trkpt lat="45.64785602604516" lon="3.459839087672058"><ele>492.0</ele><time>2026-05-01T14:50:33Z</time></trkpt><trkpt lat="45.647993231817566" lon="3.4597541798409766"><ele>492.0</ele><time>2026-05-01T14:50:34Z</time></trkpt><trkpt lat="45.64812557199896" lon="3.4596783254037633"><ele>492.0</ele><time>2026-05-01T14:50:35Z</time></trkpt><trkpt lat="45.64826502090868" lon="3.4596801328649844"><ele>492.0</ele><time>2026-05-01T14:50:36Z</time></trkpt><trkpt lat="45.64837385632749" lon="3.45979255492327"><ele>492.0</ele><time>2026-05-01T14:50:37Z</time></trkpt><trkpt lat="45.64852616508504" lon="3.4598963194957517"><ele>492.0</ele><time>2026-05-01T14:50:38Z</time></trkpt><trkpt lat="45.648728618453774" lon="3.459963311309543"><ele>491.33333333333337</ele><time>2026-05-01T14:50:39Z</time></trkpt><trkpt lat="45.64892895822278" lon="3.4600110532895836"><ele>490.6666666666667</ele><time>2026-05-01T14:50:40Z</time></trkpt><trkpt lat="45.649139539377835" lon="3.4600599922120985"><ele>490.0</ele><time>2026-05-01T14:50:41Z</time></trkpt><trkpt lat="45.64936764153501" lon="3.460111266456526"><ele>489.5</ele><time>2026-05-01T14:50:42Z</time></trkpt><trkpt lat="45.64960900679432" lon="3.4601344832133765"><ele>489.0</ele><time>2026-05-01T14:50:43Z</time></trkpt><trkpt lat="45.64985390418348" lon="3.460174746892478"><ele>489.0</ele><time>2026-05-01T14:50:44Z</time></trkpt><trkpt lat="45.65010180283589" lon="3.460181797054427"><ele>489.0</ele><time>2026-05-01T14:50:45Z</time></trkpt><trkpt lat="45.6503485039806" lon="3.460140607005168"><ele>488.5</ele><time>2026-05-01T14:50:46Z</time></trkpt><trkpt lat="45.65058516229145" lon="3.4599869108451387"><ele>488.0</ele><time>2026-05-01T14:50:47Z</time></trkpt><trkpt lat="45.65081664679917" lon="3.4598206201901056"><ele>488.0</ele><time>2026-05-01T14:50:48Z</time></trkpt><trkpt lat="45.65107315417113" lon="3.4596715458830816"><ele>488.0</ele><time>2026-05-01T14:50:49Z</time></trkpt><trkpt lat="45.65133273476315" lon="3.459591154306456"><ele>485.5</ele><time>2026-05-01T14:50:50Z</time></trkpt><trkpt lat="45.65160159408826" lon="3.4595301358357076"><ele>483.0</ele><time>2026-05-01T14:50:51Z</time></trkpt><trkpt lat="45.65185316252938" lon="3.4594730415019743"><ele>483.33333333333337</ele><time>2026-05-01T14:50:52Z</time></trkpt><trkpt lat="45.65207864111681" lon="3.4594047733586195"><ele>483.6666666666667</ele><time>2026-05-01T14:50:53Z</time></trkpt><trkpt lat="45.65228400663172" lon="3.4593643217133487"><ele>484.0</ele><time>2026-05-01T14:50:54Z</time></trkpt><trkpt lat="45.65246105386798" lon="3.4593328690538057"><ele>484.0</ele><time>2026-05-01T14:50:55Z</time></trkpt><trkpt lat="45.65262519292857" lon="3.4593376055017617"><ele>484.0</ele><time>2026-05-01T14:50:56Z</time></trkpt><trkpt lat="45.65277682036533" lon="3.4593575719150755"><ele>484.0</ele><time>2026-05-01T14:50:57Z</time></trkpt><trkpt lat="45.652916422284186" lon="3.4593999616853703"><ele>484.0</ele><time>2026-05-01T14:50:58Z</time></trkpt><trkpt lat="45.65306066277104" lon="3.4594634907325714"><ele>484.0</ele><time>2026-05-01T14:50:59Z</time></trkpt><trkpt lat="45.65322219204493" lon="3.4595435302978053"><ele>484.0</ele><time>2026-05-01T14:51:00Z</time></trkpt><trkpt lat="45.65338615497366" lon="3.459641411443486"><ele>483.6666666666667</ele><time>2026-05-01T14:51:01Z</time></trkpt><trkpt lat="45.65354536184733" lon="3.4598120843477087"><ele>483.33333333333337</ele><time>2026-05-01T14:51:02Z</time></trkpt><trkpt lat="45.65371047815432" lon="3.4600159331743314"><ele>483.0</ele><time>2026-05-01T14:51:03Z</time></trkpt><trkpt lat="45.65388214564422" lon="3.4602476620862106"><ele>485.5</ele><time>2026-05-01T14:51:04Z</time></trkpt><trkpt lat="45.65408889663247" lon="3.460463420572158"><ele>488.0</ele><time>2026-05-01T14:51:05Z</time></trkpt><trkpt lat="45.654307242789464" lon="3.4606439205889665"><ele>490.5</ele><time>2026-05-01T14:51:06Z</time></trkpt><trkpt lat="45.65452698336492" lon="3.4608196144169843"><ele>493.0</ele><time>2026-05-01T14:51:07Z</time></trkpt><trkpt lat="45.65475755594913" lon="3.460987170997767"><ele>493.0</ele><time>2026-05-01T14:51:08Z</time></trkpt><trkpt lat="45.65500132858979" lon="3.4612168157166296"><ele>493.0</ele><time>2026-05-01T14:51:09Z</time></trkpt><trkpt lat="45.65520828708023" lon="3.4613735296670183"><ele>495.5</ele><time>2026-05-01T14:51:10Z</time></trkpt><trkpt lat="45.655414779101" lon="3.4614058334326323"><ele>498.0</ele><time>2026-05-01T14:51:11Z</time></trkpt><trkpt lat="45.65567473668317" lon="3.461433853086516"><ele>498.0</ele><time>2026-05-01T14:51:12Z</time></trkpt><trkpt lat="45.65591163608161" lon="3.4615433576421353"><ele>498.0</ele><time>2026-05-01T14:51:13Z</time></trkpt><trkpt lat="45.65611164573307" lon="3.461728446497715"><ele>501.0</ele><time>2026-05-01T14:51:14Z</time></trkpt><trkpt lat="45.65632049406214" lon="3.461928270203866"><ele>504.0</ele><time>2026-05-01T14:51:15Z</time></trkpt><trkpt lat="45.65652397521089" lon="3.4620933243163248"><ele>503.66666666666663</ele><time>2026-05-01T14:51:16Z</time></trkpt><trkpt lat="45.65670655404632" lon="3.4621840343842107"><ele>503.3333333333333</ele><time>2026-05-01T14:51:17Z</time></trkpt><trkpt lat="45.656895459666735" lon="3.462182448914594"><ele>503.0</ele><time>2026-05-01T14:51:18Z</time></trkpt><trkpt lat="45.65712067022848" lon="3.4621311609643146"><ele>502.0</ele><time>2026-05-01T14:51:19Z</time></trkpt><trkpt lat="45.657363717405396" lon="3.462117339147621"><ele>501.0</ele><time>2026-05-01T14:51:20Z</time></trkpt><trkpt lat="45.65760615882258" lon="3.462093219631023"><ele>501.0</ele><time>2026-05-01T14:51:21Z</time></trkpt><trkpt lat="45.65781315375948" lon="3.4621299589185344"><ele>501.0</ele><time>2026-05-01T14:51:22Z</time></trkpt><trkpt lat="45.657986090011995" lon="3.4622621095016393"><ele>501.0</ele><time>2026-05-01T14:51:23Z</time></trkpt><trkpt lat="45.658175213765055" lon="3.4624490772335985"><ele>501.0</ele><time>2026-05-01T14:51:24Z</time></trkpt><trkpt lat="45.65837409059394" lon="3.4626753243076154"><ele>501.0</ele><time>2026-05-01T14:51:25Z</time></trkpt><trkpt lat="45.65855857862963" lon="3.462926173980098"><ele>499.0</ele><time>2026-05-01T14:51:26Z</time></trkpt><trkpt lat="45.65873599985896" lon="3.463198791874785"><ele>497.0</ele><time>2026-05-01T14:51:27Z</time></trkpt><trkpt lat="45.65886089590679" lon="3.4634601924952286"><ele>496.0</ele><time>2026-05-01T14:51:28Z</time></trkpt><trkpt lat="45.6589447642112" lon="3.4637836817507512"><ele>495.0</ele><time>2026-05-01T14:51:29Z</time></trkpt><trkpt lat="45.65904197624637" lon="3.464069929723068"><ele>495.0</ele><time>2026-05-01T14:51:30Z</time></trkpt><trkpt lat="45.65920054545809" lon="3.4643245386518013"><ele>495.0</ele><time>2026-05-01T14:51:31Z</time></trkpt><trkpt lat="45.65936924530886" lon="3.464538422122155"><ele>495.66666666666663</ele><time>2026-05-01T14:51:32.001Z</time></trkpt><trkpt lat="45.659568987308155" lon="3.464743466315186"><ele>496.3333333333333</ele><time>2026-05-01T14:51:33.001Z</time></trkpt><trkpt lat="45.65971306956485" lon="3.4648961938011564"><ele>497.0</ele><time>2026-05-01T14:51:34.001Z</time></trkpt><trkpt lat="45.65997868863219" lon="3.4648716539964024"><ele>497.0</ele><time>2026-05-01T14:51:35.001Z</time></trkpt><trkpt lat="45.66025838650901" lon="3.4649112621022966"><ele>497.0</ele><time>2026-05-01T14:51:36.001Z</time></trkpt><trkpt lat="45.66051246851376" lon="3.464945126616854"><ele>496.5</ele><time>2026-05-01T14:51:37.001Z</time></trkpt><trkpt lat="45.660740253620844" lon="3.465055994866078"><ele>496.0</ele><time>2026-05-01T14:51:38.001Z</time></trkpt><trkpt lat="45.660484867857576" lon="3.4658735207918068"><ele>482.0</ele><time>2026-05-01T14:51:39.001Z</time></trkpt><trkpt lat="45.661165244418356" lon="3.4654388666220366"><ele>485.5</ele><time>2026-05-01T14:51:40.001Z</time></trkpt><trkpt lat="45.661375609766175" lon="3.4656187511513012"><ele>489.0</ele><time>2026-05-01T14:51:41.001Z</time></trkpt><trkpt lat="45.66159961769478" lon="3.4657375742486156"><ele>489.0</ele><time>2026-05-01T14:51:42.001Z</time></trkpt><trkpt lat="45.661862383183326" lon="3.4657846777058823"><ele>489.0</ele><time>2026-05-01T14:51:43.001Z</time></trkpt><trkpt lat="45.662126949238306" lon="3.4658419106192615"><ele>485.5</ele><time>2026-05-01T14:51:44.001Z</time></trkpt><trkpt lat="45.66237902675463" lon="3.46589530361704"><ele>482.0</ele><time>2026-05-01T14:51:45.001Z</time></trkpt><trkpt lat="45.662609714906836" lon="3.4659410283095093"><ele>480.3333333333333</ele><time>2026-05-01T14:51:46.001Z</time></trkpt><trkpt lat="45.662785336750424" lon="3.4659714612301493"><ele>478.66666666666663</ele><time>2026-05-01T14:51:47.001Z</time></trkpt><trkpt lat="45.66293044497542" lon="3.4659938313012533"><ele>477.0</ele><time>2026-05-01T14:51:48.001Z</time></trkpt><trkpt lat="45.66306537880036" lon="3.466058032308868"><ele>477.0</ele><time>2026-05-01T14:51:49.001Z</time></trkpt><trkpt lat="45.66322082413676" lon="3.466206061517263"><ele>477.0</ele><time>2026-05-01T14:51:50.001Z</time></trkpt><trkpt lat="45.663311626658434" lon="3.4664704223623537"><ele>477.0</ele><time>2026-05-01T14:51:51.001Z</time></trkpt><trkpt lat="45.66339277477139" lon="3.4667642244675116"><ele>477.5</ele><time>2026-05-01T14:51:52.001Z</time></trkpt><trkpt lat="45.66347071769588" lon="3.4670888941179214"><ele>478.0</ele><time>2026-05-01T14:51:53.001Z</time></trkpt><trkpt lat="45.663561260482815" lon="3.467425611521858"><ele>475.6666666666667</ele><time>2026-05-01T14:51:54.001Z</time></trkpt><trkpt lat="45.66363118340038" lon="3.467728227110283"><ele>473.33333333333337</ele><time>2026-05-01T14:51:55.001Z</time></trkpt><trkpt lat="45.66367018595597" lon="3.468025034288329"><ele>471.0</ele><time>2026-05-01T14:51:56.001Z</time></trkpt><trkpt lat="45.66379371586782" lon="3.4682287121946884"><ele>471.0</ele><time>2026-05-01T14:51:57.001Z</time></trkpt><trkpt lat="45.663982334624805" lon="3.468399312002052"><ele>471.0</ele><time>2026-05-01T14:51:58.001Z</time></trkpt><trkpt lat="45.664202685236" lon="3.4685317963537825"><ele>471.0</ele><time>2026-05-01T14:51:59.001Z</time></trkpt><trkpt lat="45.6644042459736" lon="3.468701239544356"><ele>471.0</ele><time>2026-05-01T14:52:00.001Z</time></trkpt><trkpt lat="45.66458154864173" lon="3.468941728355432"><ele>472.5</ele><time>2026-05-01T14:52:01.001Z</time></trkpt><trkpt lat="45.66473714617888" lon="3.469238460185476"><ele>474.0</ele><time>2026-05-01T14:52:02.001Z</time></trkpt><trkpt lat="45.66489600953844" lon="3.46951346783923"><ele>472.0</ele><time>2026-05-01T14:52:03.001Z</time></trkpt><trkpt lat="45.66505327390024" lon="3.469743997209154"><ele>470.0</ele><time>2026-05-01T14:52:04.001Z</time></trkpt><trkpt lat="45.66523458999133" lon="3.4699474602020057"><ele>471.0</ele><time>2026-05-01T14:52:05.001Z</time></trkpt><trkpt lat="45.66543808523681" lon="3.470117860650055"><ele>472.0</ele><time>2026-05-01T14:52:06.001Z</time></trkpt><trkpt lat="45.66565213532324" lon="3.4702396448289616"><ele>472.0</ele><time>2026-05-01T14:52:07.001Z</time></trkpt><trkpt lat="45.665889449636694" lon="3.470303765598155"><ele>472.0</ele><time>2026-05-01T14:52:08.001Z</time></trkpt><trkpt lat="45.666124960727274" lon="3.470334787429907"><ele>472.6666666666667</ele><time>2026-05-01T14:52:09.001Z</time></trkpt><trkpt lat="45.66633757691388" lon="3.470373513369275"><ele>473.33333333333337</ele><time>2026-05-01T14:52:10.001Z</time></trkpt><trkpt lat="45.66654841811661" lon="3.4705087459085218"><ele>474.0</ele><time>2026-05-01T14:52:11.001Z</time></trkpt><trkpt lat="45.66676438080292" lon="3.47073691618581"><ele>477.5</ele><time>2026-05-01T14:52:12.001Z</time></trkpt><trkpt lat="45.66694543329918" lon="3.4709836358373227"><ele>481.0</ele><time>2026-05-01T14:52:13.001Z</time></trkpt><trkpt lat="45.66709472966639" lon="3.471214494034347"><ele>480.0</ele><time>2026-05-01T14:52:14.001Z</time></trkpt><trkpt lat="45.66724003495389" lon="3.4714331046052793"><ele>479.0</ele><time>2026-05-01T14:52:15.001Z</time></trkpt><trkpt lat="45.66739703875329" lon="3.4716221150413515"><ele>478.0</ele><time>2026-05-01T14:52:16.001Z</time></trkpt><trkpt lat="45.6674651972348" lon="3.4720926631672073"><ele>478.0</ele><time>2026-05-01T14:52:17.001Z</time></trkpt><trkpt lat="45.66751814107321" lon="3.472625613388066"><ele>478.0</ele><time>2026-05-01T14:52:18.001Z</time></trkpt><trkpt lat="45.667596777116216" lon="3.472984772174437"><ele>476.5</ele><time>2026-05-01T14:52:19.001Z</time></trkpt><trkpt lat="45.66767144005762" lon="3.4733036300169804"><ele>475.0</ele><time>2026-05-01T14:52:20.001Z</time></trkpt><trkpt lat="45.6677305229963" lon="3.4736294785200807"><ele>475.0</ele><time>2026-05-01T14:52:21.001Z</time></trkpt><trkpt lat="45.66777372881623" lon="3.473988660395036"><ele>475.0</ele><time>2026-05-01T14:52:22.001Z</time></trkpt><trkpt lat="45.667821634985636" lon="3.4743484576855472"><ele>473.0</ele><time>2026-05-01T14:52:23.001Z</time></trkpt><trkpt lat="45.667884932614484" lon="3.474687318025381"><ele>471.0</ele><time>2026-05-01T14:52:24.001Z</time></trkpt><trkpt lat="45.66798981550857" lon="3.475000498500066"><ele>471.0</ele><time>2026-05-01T14:52:25.001Z</time></trkpt><trkpt lat="45.668114429610256" lon="3.4752848863648147"><ele>471.0</ele><time>2026-05-01T14:52:26.001Z</time></trkpt><trkpt lat="45.66821264277855" lon="3.4755098442028687"><ele>471.0</ele><time>2026-05-01T14:52:27.001Z</time></trkpt><trkpt lat="45.668307559394826" lon="3.4756847352368356"><ele>470.66666666666663</ele><time>2026-05-01T14:52:28.001Z</time></trkpt><trkpt lat="45.66841789929236" lon="3.4757950144639977"><ele>470.3333333333333</ele><time>2026-05-01T14:52:29.001Z</time></trkpt><trkpt lat="45.668572211113705" lon="3.475820114795059"><ele>470.0</ele><time>2026-05-01T14:52:30Z</time></trkpt><trkpt lat="45.66873380870271" lon="3.475703596549459"><ele>467.66666666666663</ele><time>2026-05-01T14:52:31Z</time></trkpt><trkpt lat="45.66886116818484" lon="3.475584314565532"><ele>465.33333333333337</ele><time>2026-05-01T14:52:32Z</time></trkpt><trkpt lat="45.66888237307482" lon="3.475469839943899"><ele>463.0</ele><time>2026-05-01T14:52:34Z</time></trkpt><trkpt lat="45.6688297368591" lon="3.4750104675879707"><ele>464.5</ele><time>2026-05-01T14:52:35Z</time></trkpt><trkpt lat="45.66883569877209" lon="3.474529052854795"><ele>466.0</ele><time>2026-05-01T14:52:36Z</time></trkpt><trkpt lat="45.66888075963875" lon="3.474209695576967"><ele>466.0</ele><time>2026-05-01T14:52:37Z</time></trkpt><trkpt lat="45.668978621700305" lon="3.4740206013607344"><ele>466.0</ele><time>2026-05-01T14:52:38Z</time></trkpt><trkpt lat="45.6690991543982" lon="3.4738723119590924"><ele>466.0</ele><time>2026-05-01T14:52:39Z</time></trkpt><trkpt lat="45.669248158769655" lon="3.4737417829267634"><ele>463.0</ele><time>2026-05-01T14:52:40Z</time></trkpt><trkpt lat="45.66946502485376" lon="3.4736295479455803"><ele>460.0</ele><time>2026-05-01T14:52:41Z</time></trkpt><trkpt lat="45.66967947008011" lon="3.4735473817697233"><ele>460.0</ele><time>2026-05-01T14:52:42Z</time></trkpt><trkpt lat="45.66995705407349" lon="3.473452499317978"><ele>460.0</ele><time>2026-05-01T14:52:43Z</time></trkpt><trkpt lat="45.67017873310897" lon="3.473380937283733"><ele>455.6666666666667</ele><time>2026-05-01T14:52:44Z</time></trkpt><trkpt lat="45.6703859495057" lon="3.473377557086741"><ele>451.33333333333337</ele><time>2026-05-01T14:52:45Z</time></trkpt><trkpt lat="45.67054822409128" lon="3.473623046563581"><ele>447.0</ele><time>2026-05-01T14:52:46Z</time></trkpt><trkpt lat="45.67071551018552" lon="3.4736577954921732"><ele>447.0</ele><time>2026-05-01T14:52:47Z</time></trkpt><trkpt lat="45.67078674796634" lon="3.473756597727639"><ele>447.0</ele><time>2026-05-01T14:52:48Z</time></trkpt><trkpt lat="45.67095361427716" lon="3.4739608402115354"><ele>447.0</ele><time>2026-05-01T14:52:49Z</time></trkpt><trkpt lat="45.67119108585428" lon="3.474229986089716"><ele>445.0</ele><time>2026-05-01T14:52:50Z</time></trkpt><trkpt lat="45.67146812142044" lon="3.474535030665695"><ele>443.0</ele><time>2026-05-01T14:52:51Z</time></trkpt><trkpt lat="45.67171940381501" lon="3.4748088469587937"><ele>445.0</ele><time>2026-05-01T14:52:52Z</time></trkpt><trkpt lat="45.671988510912364" lon="3.475102086527686"><ele>447.0</ele><time>2026-05-01T14:52:53Z</time></trkpt><trkpt lat="45.672232067596454" lon="3.4753688599882313"><ele>444.5</ele><time>2026-05-01T14:52:54Z</time></trkpt><trkpt lat="45.6724113811083" lon="3.475565472461135"><ele>442.0</ele><time>2026-05-01T14:52:55Z</time></trkpt><trkpt lat="45.672655114156214" lon="3.475832719215135"><ele>442.0</ele><time>2026-05-01T14:52:56Z</time></trkpt><trkpt lat="45.67287648307275" lon="3.4760754441153017"><ele>442.0</ele><time>2026-05-01T14:52:57Z</time></trkpt><trkpt lat="45.673075526708544" lon="3.4762904094797813"><ele>442.0</ele><time>2026-05-01T14:52:58Z</time></trkpt><trkpt lat="45.67325739289568" lon="3.4764854231026927"><ele>442.0</ele><time>2026-05-01T14:52:59Z</time></trkpt><trkpt lat="45.673422772842954" lon="3.476661385848894"><ele>442.0</ele><time>2026-05-01T14:53:00Z</time></trkpt><trkpt lat="45.67359629243273" lon="3.47683783917636"><ele>442.33333333333337</ele><time>2026-05-01T14:53:01Z</time></trkpt><trkpt lat="45.6737762477549" lon="3.4770149864782387"><ele>442.66666666666663</ele><time>2026-05-01T14:53:02Z</time></trkpt><trkpt lat="45.67396813787368" lon="3.4771801807436207"><ele>443.0</ele><time>2026-05-01T14:53:03Z</time></trkpt><trkpt lat="45.67416645791229" lon="3.4773453973881696"><ele>442.66666666666663</ele><time>2026-05-01T14:53:04Z</time></trkpt><trkpt lat="45.67435516198638" lon="3.4775042175969184"><ele>442.33333333333337</ele><time>2026-05-01T14:53:05Z</time></trkpt><trkpt lat="45.674529475821586" lon="3.477651450993539"><ele>442.0</ele><time>2026-05-01T14:53:06Z</time></trkpt><trkpt lat="45.67469655448091" lon="3.47776509313942"><ele>442.0</ele><time>2026-05-01T14:53:07Z</time></trkpt><trkpt lat="45.67482505844244" lon="3.4779012019257944"><ele>442.0</ele><time>2026-05-01T14:53:08Z</time></trkpt><trkpt lat="45.674946743981614" lon="3.4779772686420083"><ele>442.0</ele><time>2026-05-01T14:53:09Z</time></trkpt><trkpt lat="45.675039083088684" lon="3.478056098896563"><ele>442.0</ele><time>2026-05-01T14:53:10Z</time></trkpt><trkpt lat="45.67510459274726" lon="3.4781181332333624"><ele>442.0</ele><time>2026-05-01T14:53:11Z</time></trkpt><trkpt lat="45.67517502906773" lon="3.478202466355498"><ele>442.0</ele><time>2026-05-01T14:53:13Z</time></trkpt><trkpt lat="45.67523532281337" lon="3.4780353469090537"><ele>442.0</ele><time>2026-05-01T14:53:14Z</time></trkpt><trkpt lat="45.67521541243074" lon="3.477840218906379"><ele>442.0</ele><time>2026-05-01T14:53:15Z</time></trkpt><trkpt lat="45.67522238838803" lon="3.477625639731941"><ele>442.0</ele><time>2026-05-01T14:53:16Z</time></trkpt><trkpt lat="45.675224881032435" lon="3.4774015136185126"><ele>442.0</ele><time>2026-05-01T14:53:17Z</time></trkpt><trkpt lat="45.67521673388874" lon="3.4771450859767556"><ele>442.0</ele><time>2026-05-01T14:53:18Z</time></trkpt><trkpt lat="45.67517755518821" lon="3.476860356982397"><ele>442.0</ele><time>2026-05-01T14:53:19Z</time></trkpt><trkpt lat="45.67510955120922" lon="3.4765771475375282"><ele>442.0</ele><time>2026-05-01T14:53:20Z</time></trkpt><trkpt lat="45.67500615723953" lon="3.4762788710604897"><ele>442.0</ele><time>2026-05-01T14:53:21Z</time></trkpt><trkpt lat="45.6748944094661" lon="3.4759985386923278"><ele>442.0</ele><time>2026-05-01T14:53:22Z</time></trkpt><trkpt lat="45.67481634139114" lon="3.475763031474242"><ele>442.0</ele><time>2026-05-01T14:53:23Z</time></trkpt><trkpt lat="45.674817308704455" lon="3.4755258975692476"><ele>442.0</ele><time>2026-05-01T14:53:24Z</time></trkpt><trkpt lat="45.67487312685741" lon="3.4752542632989027"><ele>442.33333333333337</ele><time>2026-05-01T14:53:25Z</time></trkpt><trkpt lat="45.67494538975263" lon="3.4749478096934006"><ele>442.66666666666663</ele><time>2026-05-01T14:53:26Z</time></trkpt><trkpt lat="45.67501278471272" lon="3.474645947066027"><ele>443.0</ele><time>2026-05-01T14:53:27Z</time></trkpt><trkpt lat="45.675093456312815" lon="3.474286994015737"><ele>443.0</ele><time>2026-05-01T14:53:28Z</time></trkpt><trkpt lat="45.675172708586736" lon="3.4739570308998386"><ele>443.0</ele><time>2026-05-01T14:53:29Z</time></trkpt><trkpt lat="45.675242260208705" lon="3.473639350633098"><ele>444.0</ele><time>2026-05-01T14:53:30Z</time></trkpt><trkpt lat="45.675265633655435" lon="3.473302992990464"><ele>445.0</ele><time>2026-05-01T14:53:31Z</time></trkpt><trkpt lat="45.675259041766786" lon="3.4729551581380664"><ele>445.0</ele><time>2026-05-01T14:53:32Z</time></trkpt><trkpt lat="45.67523949287494" lon="3.4725874282783264"><ele>445.0</ele><time>2026-05-01T14:53:33Z</time></trkpt><trkpt lat="45.67521032843925" lon="3.472212937567552"><ele>446.5</ele><time>2026-05-01T14:53:34Z</time></trkpt><trkpt lat="45.67517230412529" lon="3.4718614794848457"><ele>448.0</ele><time>2026-05-01T14:53:35Z</time></trkpt><trkpt lat="45.675078742846345" lon="3.471515192652306"><ele>451.0</ele><time>2026-05-01T14:53:36Z</time></trkpt><trkpt lat="45.67493581900532" lon="3.4711892814240812"><ele>454.0</ele><time>2026-05-01T14:53:37Z</time></trkpt><trkpt lat="45.6748064996064" lon="3.4708604644687098"><ele>454.0</ele><time>2026-05-01T14:53:38.001Z</time></trkpt><trkpt lat="45.674690482759225" lon="3.4705776146928393"><ele>454.0</ele><time>2026-05-01T14:53:39.001Z</time></trkpt><trkpt lat="45.67463296581029" lon="3.4703170377335724"><ele>454.0</ele><time>2026-05-01T14:53:40.001Z</time></trkpt><trkpt lat="45.674606483517785" lon="3.470059074217771"><ele>454.6666666666667</ele><time>2026-05-01T14:53:41.001Z</time></trkpt><trkpt lat="45.674613514206634" lon="3.469802824661642"><ele>455.33333333333337</ele><time>2026-05-01T14:53:42.001Z</time></trkpt><trkpt lat="45.674656134030386" lon="3.4695109025574533"><ele>456.0</ele><time>2026-05-01T14:53:43.001Z</time></trkpt><trkpt lat="45.67469603447093" lon="3.469172923299643"><ele>456.0</ele><time>2026-05-01T14:53:44.001Z</time></trkpt><trkpt lat="45.674696638133256" lon="3.4688201318595757"><ele>456.0</ele><time>2026-05-01T14:53:45.001Z</time></trkpt><trkpt lat="45.674680068100635" lon="3.468453040743581"><ele>453.0</ele><time>2026-05-01T14:53:46.001Z</time></trkpt><trkpt lat="45.67466103430195" lon="3.4681004788398653"><ele>450.0</ele><time>2026-05-01T14:53:47.001Z</time></trkpt><trkpt lat="45.6746216933289" lon="3.4676907699872213"><ele>450.0</ele><time>2026-05-01T14:53:48.001Z</time></trkpt><trkpt lat="45.6745482622531" lon="3.467306515072682"><ele>450.0</ele><time>2026-05-01T14:53:49.001Z</time></trkpt><trkpt lat="45.67444745877243" lon="3.466926744947576"><ele>449.5</ele><time>2026-05-01T14:53:50.001Z</time></trkpt><trkpt lat="45.67433246793014" lon="3.4665519827810263"><ele>449.0</ele><time>2026-05-01T14:53:51.001Z</time></trkpt><trkpt lat="45.674237943803575" lon="3.4661525034635017"><ele>449.0</ele><time>2026-05-01T14:53:52.001Z</time></trkpt><trkpt lat="45.674135081810924" lon="3.465752136290001"><ele>449.0</ele><time>2026-05-01T14:53:53.001Z</time></trkpt><trkpt lat="45.67402991568219" lon="3.4653529900170814"><ele>450.5</ele><time>2026-05-01T14:53:54.001Z</time></trkpt><trkpt lat="45.67393075064727" lon="3.4649464132895154"><ele>452.0</ele><time>2026-05-01T14:53:55.001Z</time></trkpt><trkpt lat="45.67382773088281" lon="3.464563186198566"><ele>453.0</ele><time>2026-05-01T14:53:56.001Z</time></trkpt><trkpt lat="45.673691677065186" lon="3.4642332033723466"><ele>454.0</ele><time>2026-05-01T14:53:57.001Z</time></trkpt><trkpt lat="45.673516538479596" lon="3.463942114871273"><ele>456.5</ele><time>2026-05-01T14:53:58.001Z</time></trkpt><trkpt lat="45.67332107960845" lon="3.463672946351668"><ele>459.0</ele><time>2026-05-01T14:53:59.001Z</time></trkpt><trkpt lat="45.67309342496207" lon="3.4634539961853754"><ele>459.0</ele><time>2026-05-01T14:54:00.001Z</time></trkpt><trkpt lat="45.6728966149652" lon="3.463288209525993"><ele>459.0</ele><time>2026-05-01T14:54:01.001Z</time></trkpt><trkpt lat="45.67276774019928" lon="3.4631487168373156"><ele>459.0</ele><time>2026-05-01T14:54:02.001Z</time></trkpt><trkpt lat="45.67265268153949" lon="3.4629801816491215"><ele>457.0</ele><time>2026-05-01T14:54:03.001Z</time></trkpt><trkpt lat="45.67260978309719" lon="3.462736502526228"><ele>455.0</ele><time>2026-05-01T14:54:04.001Z</time></trkpt><trkpt lat="45.67263297851431" lon="3.4625333705709394"><ele>453.0</ele><time>2026-05-01T14:54:05.001Z</time></trkpt><trkpt lat="45.67269569338558" lon="3.462311855501006"><ele>453.5</ele><time>2026-05-01T14:54:06.001Z</time></trkpt><trkpt lat="45.67241761992997" lon="3.4619880019812643"><ele>454.0</ele><time>2026-05-01T14:54:07.001Z</time></trkpt><trkpt lat="45.67245331734963" lon="3.4616337300523337"><ele>454.0</ele><time>2026-05-01T14:54:08.001Z</time></trkpt><trkpt lat="45.67252013063619" lon="3.4613055727580577"><ele>454.0</ele><time>2026-05-01T14:54:09.001Z</time></trkpt><trkpt lat="45.672562456511834" lon="3.4610635316502982"><ele>454.0</ele><time>2026-05-01T14:54:10.001Z</time></trkpt><trkpt lat="45.67293799685451" lon="3.4610293951769218"><ele>456.33333333333337</ele><time>2026-05-01T14:54:11.001Z</time></trkpt><trkpt lat="45.67306176829136" lon="3.4608230299224334"><ele>458.66666666666663</ele><time>2026-05-01T14:54:12.001Z</time></trkpt><trkpt lat="45.67316068607512" lon="3.4607959565146764"><ele>461.0</ele><time>2026-05-01T14:54:13.001Z</time></trkpt><trkpt lat="45.67336493419688" lon="3.4607840296705032"><ele>461.0</ele><time>2026-05-01T14:54:15.001Z</time></trkpt><trkpt lat="45.673529729545386" lon="3.4606863714474527"><ele>461.0</ele><time>2026-05-01T14:54:16.001Z</time></trkpt><trkpt lat="45.673459226942995" lon="3.4594827948472098"><ele>461.5</ele><time>2026-05-01T14:54:17.001Z</time></trkpt><trkpt lat="45.67354493534221" lon="3.4591696940298986"><ele>462.0</ele><time>2026-05-01T14:54:18.001Z</time></trkpt><trkpt lat="45.67364161917783" lon="3.4588832220115884"><ele>463.5</ele><time>2026-05-01T14:54:19.001Z</time></trkpt><trkpt lat="45.67373570151737" lon="3.458558667618622"><ele>465.0</ele><time>2026-05-01T14:54:20.001Z</time></trkpt><trkpt lat="45.67377783330066" lon="3.4582242815997875"><ele>466.66666666666663</ele><time>2026-05-01T14:54:21.001Z</time></trkpt><trkpt lat="45.67377965400771" lon="3.4579189317475265"><ele>468.3333333333333</ele><time>2026-05-01T14:54:22.001Z</time></trkpt><trkpt lat="45.673753791092686" lon="3.457621589103768"><ele>470.0</ele><time>2026-05-01T14:54:23.001Z</time></trkpt><trkpt lat="45.673804589820996" lon="3.4573349761321492"><ele>470.3333333333333</ele><time>2026-05-01T14:54:24.001Z</time></trkpt><trkpt lat="45.67384988578891" lon="3.457021467798882"><ele>470.66666666666663</ele><time>2026-05-01T14:54:25.001Z</time></trkpt><trkpt lat="45.67390271705693" lon="3.4567853888607334"><ele>471.0</ele><time>2026-05-01T14:54:26.001Z</time></trkpt><trkpt lat="45.67390056038601" lon="3.456568454245648"><ele>471.0</ele><time>2026-05-01T14:54:27.001Z</time></trkpt><trkpt lat="45.673917470742815" lon="3.4563339376221536"><ele>471.0</ele><time>2026-05-01T14:54:28.001Z</time></trkpt><trkpt lat="45.674016687948736" lon="3.4561557988982994"><ele>471.0</ele><time>2026-05-01T14:54:29.001Z</time></trkpt><trkpt lat="45.674140918891126" lon="3.4558993806966085"><ele>472.33333333333337</ele><time>2026-05-01T14:54:30.001Z</time></trkpt><trkpt lat="45.67428715098163" lon="3.4557330278123177"><ele>473.6666666666667</ele><time>2026-05-01T14:54:31.001Z</time></trkpt><trkpt lat="45.6744975048274" lon="3.4555943062268595"><ele>475.0</ele><time>2026-05-01T14:54:32.001Z</time></trkpt><trkpt lat="45.67478808126392" lon="3.455506197004962"><ele>475.5</ele><time>2026-05-01T14:54:33.001Z</time></trkpt><trkpt lat="45.675038511037414" lon="3.4553646618123555"><ele>476.0</ele><time>2026-05-01T14:54:34.001Z</time></trkpt><trkpt lat="45.67528624453569" lon="3.4551971122976672"><ele>476.0</ele><time>2026-05-01T14:54:35.001Z</time></trkpt><trkpt lat="45.67556296300642" lon="3.455058309311144"><ele>476.0</ele><time>2026-05-01T14:54:36Z</time></trkpt><trkpt lat="45.67580533707107" lon="3.4548965954631656"><ele>476.0</ele><time>2026-05-01T14:54:37Z</time></trkpt><trkpt lat="45.676021559324376" lon="3.45468267275364"><ele>476.0</ele><time>2026-05-01T14:54:38Z</time></trkpt><trkpt lat="45.6762016498491" lon="3.454394660994874"><ele>477.0</ele><time>2026-05-01T14:54:39Z</time></trkpt><trkpt lat="45.67639747931519" lon="3.4540867081096733"><ele>478.0</ele><time>2026-05-01T14:54:40Z</time></trkpt><trkpt lat="45.67657346728546" lon="3.4537824119701495"><ele>480.6666666666667</ele><time>2026-05-01T14:54:41Z</time></trkpt><trkpt lat="45.67668508396589" lon="3.4535312591230367"><ele>483.33333333333337</ele><time>2026-05-01T14:54:42Z</time></trkpt><trkpt lat="45.67676317049252" lon="3.4533305982624136"><ele>486.0</ele><time>2026-05-01T14:54:43Z</time></trkpt><trkpt lat="45.67678600686182" lon="3.4530867602950766"><ele>486.33333333333337</ele><time>2026-05-01T14:54:44Z</time></trkpt><trkpt lat="45.676662856082416" lon="3.4528488341256307"><ele>486.6666666666667</ele><time>2026-05-01T14:54:45Z</time></trkpt><trkpt lat="45.67657268004672" lon="3.4526075411081343"><ele>487.0</ele><time>2026-05-01T14:54:46Z</time></trkpt><trkpt lat="45.67652331173886" lon="3.4523803084021174"><ele>487.0</ele><time>2026-05-01T14:54:47Z</time></trkpt><trkpt lat="45.676583175325334" lon="3.4521717485894627"><ele>487.0</ele><time>2026-05-01T14:54:48Z</time></trkpt><trkpt lat="45.67676607420498" lon="3.4520155710971356"><ele>487.0</ele><time>2026-05-01T14:54:49Z</time></trkpt><trkpt lat="45.67698416061327" lon="3.451847862977629"><ele>487.5</ele><time>2026-05-01T14:54:50Z</time></trkpt><trkpt lat="45.67721986398991" lon="3.4516528292878186"><ele>488.0</ele><time>2026-05-01T14:54:51Z</time></trkpt><trkpt lat="45.677433487352346" lon="3.4514781557318006"><ele>488.0</ele><time>2026-05-01T14:54:52Z</time></trkpt><trkpt lat="45.67765550514419" lon="3.4513876618354904"><ele>488.0</ele><time>2026-05-01T14:54:53Z</time></trkpt><trkpt lat="45.67785551732114" lon="3.451291055380409"><ele>488.0</ele><time>2026-05-01T14:54:54Z</time></trkpt><trkpt lat="45.67805686652028" lon="3.451245427321079"><ele>488.0</ele><time>2026-05-01T14:54:55Z</time></trkpt><trkpt lat="45.678260253002215" lon="3.4512513001778125"><ele>488.0</ele><time>2026-05-01T14:54:56Z</time></trkpt><trkpt lat="45.6784630008503" lon="3.4512893535645452"><ele>488.0</ele><time>2026-05-01T14:54:57Z</time></trkpt><trkpt lat="45.678698381866035" lon="3.4513347525609275"><ele>489.5</ele><time>2026-05-01T14:54:58Z</time></trkpt><trkpt lat="45.67895759374056" lon="3.451405551766093"><ele>491.0</ele><time>2026-05-01T14:54:59Z</time></trkpt><trkpt lat="45.67919578959881" lon="3.451479381276265"><ele>491.5</ele><time>2026-05-01T14:55:00Z</time></trkpt><trkpt lat="45.679485364817005" lon="3.451507830557046"><ele>492.0</ele><time>2026-05-01T14:55:01Z</time></trkpt><trkpt lat="45.679778495441916" lon="3.451526743078665"><ele>492.0</ele><time>2026-05-01T14:55:02Z</time></trkpt><trkpt lat="45.680071466123565" lon="3.4515476785495554"><ele>492.0</ele><time>2026-05-01T14:55:03Z</time></trkpt><trkpt lat="45.680357672442035" lon="3.4515508960921824"><ele>494.0</ele><time>2026-05-01T14:55:04Z</time></trkpt><trkpt lat="45.680671961872655" lon="3.4515667942159247"><ele>496.0</ele><time>2026-05-01T14:55:05Z</time></trkpt><trkpt lat="45.68095864623986" lon="3.4514679477657806"><ele>496.0</ele><time>2026-05-01T14:55:06Z</time></trkpt><trkpt lat="45.681234461412444" lon="3.4513714772851682"><ele>496.0</ele><time>2026-05-01T14:55:07Z</time></trkpt><trkpt lat="45.68147165567243" lon="3.451232887813838"><ele>496.0</ele><time>2026-05-01T14:55:08Z</time></trkpt><trkpt lat="45.68160836985557" lon="3.4511573924296166"><ele>496.0</ele><time>2026-05-01T14:55:09Z</time></trkpt><trkpt lat="45.681806190488864" lon="3.4510935169659693"><ele>496.0</ele><time>2026-05-01T14:55:10Z</time></trkpt><trkpt lat="45.68204732726536" lon="3.4509761014582536"><ele>498.0</ele><time>2026-05-01T14:55:11Z</time></trkpt><trkpt lat="45.68221267013209" lon="3.4509848657200184"><ele>500.0</ele><time>2026-05-01T14:55:12Z</time></trkpt><trkpt lat="45.68238849918734" lon="3.450933765844223"><ele>502.0</ele><time>2026-05-01T14:55:13Z</time></trkpt><trkpt lat="45.682702662436625" lon="3.450853938277956"><ele>503.5</ele><time>2026-05-01T14:55:15Z</time></trkpt><trkpt lat="45.68279931913213" lon="3.4506849915321416"><ele>505.0</ele><time>2026-05-01T14:55:16Z</time></trkpt><trkpt lat="45.68280811499536" lon="3.450474261072699"><ele>506.5</ele><time>2026-05-01T14:55:17Z</time></trkpt><trkpt lat="45.68290860235048" lon="3.4503313946086385"><ele>508.0</ele><time>2026-05-01T14:55:18Z</time></trkpt><trkpt lat="45.682218294203096" lon="3.4493797746319705"><ele>507.0</ele><time>2026-05-01T14:55:19Z</time></trkpt><trkpt lat="45.68204513413318" lon="3.4492064826284126"><ele>506.0</ele><time>2026-05-01T14:55:20Z</time></trkpt><trkpt lat="45.68180215168904" lon="3.4491751578040803"><ele>506.0</ele><time>2026-05-01T14:55:21Z</time></trkpt><trkpt lat="45.68157383765085" lon="3.449120170538742"><ele>506.0</ele><time>2026-05-01T14:55:22Z</time></trkpt><trkpt lat="45.681374284313506" lon="3.4490539255626667"><ele>506.0</ele><time>2026-05-01T14:55:23Z</time></trkpt><trkpt lat="45.68119288847312" lon="3.448970051849637"><ele>505.66666666666663</ele><time>2026-05-01T14:55:24Z</time></trkpt><trkpt lat="45.68106213101722" lon="3.448735698258487"><ele>505.33333333333337</ele><time>2026-05-01T14:55:25Z</time></trkpt><trkpt lat="45.68100316041691" lon="3.4484418180706475"><ele>505.0</ele><time>2026-05-01T14:55:26Z</time></trkpt><trkpt lat="45.68095994199681" lon="3.448141847124629"><ele>508.6666666666667</ele><time>2026-05-01T14:55:27Z</time></trkpt><trkpt lat="45.68095464568405" lon="3.447834667035101"><ele>512.3333333333334</ele><time>2026-05-01T14:55:28Z</time></trkpt><trkpt lat="45.68088073867326" lon="3.447527736146479"><ele>516.0</ele><time>2026-05-01T14:55:29Z</time></trkpt><trkpt lat="45.6807112351064" lon="3.447326803003836"><ele>516.0</ele><time>2026-05-01T14:55:30Z</time></trkpt><trkpt lat="45.68051022677124" lon="3.4471524668781393"><ele>516.0</ele><time>2026-05-01T14:55:31Z</time></trkpt><trkpt lat="45.68031405486344" lon="3.4469609934012206"><ele>520.5</ele><time>2026-05-01T14:55:32Z</time></trkpt><trkpt lat="45.68011422048917" lon="3.4467641338816435"><ele>525.0</ele><time>2026-05-01T14:55:33Z</time></trkpt><trkpt lat="45.6799148135005" lon="3.4466167796143163"><ele>525.0</ele><time>2026-05-01T14:55:34Z</time></trkpt><trkpt lat="45.67967877624505" lon="3.446525158546714"><ele>525.0</ele><time>2026-05-01T14:55:35Z</time></trkpt><trkpt lat="45.6794370418937" lon="3.4465280147651853"><ele>523.5</ele><time>2026-05-01T14:55:36Z</time></trkpt><trkpt lat="45.67916140449587" lon="3.446547810761899"><ele>522.0</ele><time>2026-05-01T14:55:37Z</time></trkpt><trkpt lat="45.678898853212615" lon="3.4465279279859757"><ele>522.0</ele><time>2026-05-01T14:55:38Z</time></trkpt><trkpt lat="45.678661089198044" lon="3.4463583045782262"><ele>522.0</ele><time>2026-05-01T14:55:39Z</time></trkpt><trkpt lat="45.67844551059644" lon="3.4462589654603693"><ele>522.3333333333334</ele><time>2026-05-01T14:55:40Z</time></trkpt><trkpt lat="45.678271399980694" lon="3.44612827456604"><ele>522.6666666666667</ele><time>2026-05-01T14:55:41Z</time></trkpt><trkpt lat="45.67810483189148" lon="3.445962704361568"><ele>523.0</ele><time>2026-05-01T14:55:42Z</time></trkpt><trkpt lat="45.67797417217481" lon="3.4457108568020933"><ele>525.5</ele><time>2026-05-01T14:55:43Z</time></trkpt><trkpt lat="45.67796858396034" lon="3.4453649350527784"><ele>528.0</ele><time>2026-05-01T14:55:44Z</time></trkpt><trkpt lat="45.67791779674428" lon="3.4450521145130746"><ele>528.0</ele><time>2026-05-01T14:55:45Z</time></trkpt><trkpt lat="45.677838556546796" lon="3.444755612119299"><ele>528.0</ele><time>2026-05-01T14:55:46Z</time></trkpt><trkpt lat="45.67776985194093" lon="3.4445087688729563"><ele>528.0</ele><time>2026-05-01T14:55:47Z</time></trkpt><trkpt lat="45.67770707101127" lon="3.444301918561233"><ele>527.75</ele><time>2026-05-01T14:55:48Z</time></trkpt><trkpt lat="45.677657229636914" lon="3.444110056891305"><ele>527.5</ele><time>2026-05-01T14:55:49Z</time></trkpt><trkpt lat="45.67764824057967" lon="3.443924971492221"><ele>527.25</ele><time>2026-05-01T14:55:50.001Z</time></trkpt><trkpt lat="45.67764149278235" lon="3.4437544538471956"><ele>527.0</ele><time>2026-05-01T14:55:51.001Z</time></trkpt><trkpt lat="45.67766759085348" lon="3.4436022067348913"><ele>527.0</ele><time>2026-05-01T14:55:52.001Z</time></trkpt><trkpt lat="45.677730947498645" lon="3.4434835411674114"><ele>527.0</ele><time>2026-05-01T14:55:53.001Z</time></trkpt><trkpt lat="45.67781565848615" lon="3.4433495289817"><ele>527.0</ele><time>2026-05-01T14:55:54.001Z</time></trkpt><trkpt lat="45.67792454103708" lon="3.443286333379499"><ele>527.0</ele><time>2026-05-01T14:55:55.001Z</time></trkpt><trkpt lat="45.6780683378806" lon="3.4432282037693844"><ele>526.6666666666666</ele><time>2026-05-01T14:55:56.001Z</time></trkpt><trkpt lat="45.678235368522195" lon="3.4431786670549385"><ele>526.3333333333334</ele><time>2026-05-01T14:55:57.001Z</time></trkpt><trkpt lat="45.67839936155703" lon="3.4431318579118697"><ele>526.0</ele><time>2026-05-01T14:55:58.001Z</time></trkpt><trkpt lat="45.67856682520982" lon="3.4430812714528742"><ele>526.0</ele><time>2026-05-01T14:55:59.001Z</time></trkpt><trkpt lat="45.678718862214424" lon="3.443031683361146"><ele>526.0</ele><time>2026-05-01T14:56:00.001Z</time></trkpt><trkpt lat="45.678861666286224" lon="3.4429650281523547"><ele>526.0</ele><time>2026-05-01T14:56:01.001Z</time></trkpt><trkpt lat="45.67901144842991" lon="3.4428945218961813"><ele>526.0</ele><time>2026-05-01T14:56:02.001Z</time></trkpt><trkpt lat="45.679151255531536" lon="3.4428122632910334"><ele>526.0</ele><time>2026-05-01T14:56:03.001Z</time></trkpt><trkpt lat="45.67928022036311" lon="3.4427283382563174"><ele>526.0</ele><time>2026-05-01T14:56:04.001Z</time></trkpt><trkpt lat="45.67940158581838" lon="3.4426512483834673"><ele>526.0</ele><time>2026-05-01T14:56:05.001Z</time></trkpt><trkpt lat="45.67950995074799" lon="3.4425868628034175"><ele>526.4</ele><time>2026-05-01T14:56:06.001Z</time></trkpt><trkpt lat="45.67961113592189" lon="3.442539137452255"><ele>526.8</ele><time>2026-05-01T14:56:07.001Z</time></trkpt><trkpt lat="45.67968854373594" lon="3.4424920953835905"><ele>527.1999999999999</ele><time>2026-05-01T14:56:08.001Z</time></trkpt><trkpt lat="45.6797572005931" lon="3.4424029051525507"><ele>527.6</ele><time>2026-05-01T14:56:09.001Z</time></trkpt><trkpt lat="45.679764767127246" lon="3.4422408823565775"><ele>528.0</ele><time>2026-05-01T14:56:10.001Z</time></trkpt><trkpt lat="45.67980186291869" lon="3.4420989707750875"><ele>528.0</ele><time>2026-05-01T14:56:11.001Z</time></trkpt><trkpt lat="45.679775854840074" lon="3.4419291767130344"><ele>528.0</ele><time>2026-05-01T14:56:12.001Z</time></trkpt><trkpt lat="45.6797385062761" lon="3.441777273623343"><ele>528.0</ele><time>2026-05-01T14:56:13.001Z</time></trkpt><trkpt lat="45.679710147712086" lon="3.441638477127453"><ele>528.0</ele><time>2026-05-01T14:56:14.001Z</time></trkpt><trkpt lat="45.67972704926716" lon="3.4415018098666246"><ele>528.0</ele><time>2026-05-01T14:56:15.001Z</time></trkpt><trkpt lat="45.679789299282405" lon="3.4413531866748706"><ele>525.75</ele><time>2026-05-01T14:56:16.001Z</time></trkpt><trkpt lat="45.6798848616436" lon="3.441225292168421"><ele>523.5</ele><time>2026-05-01T14:56:17.001Z</time></trkpt><trkpt lat="45.68001425314946" lon="3.441138836864313"><ele>521.25</ele><time>2026-05-01T14:56:18.001Z</time></trkpt><trkpt lat="45.680163493964145" lon="3.441098510097138"><ele>519.0</ele><time>2026-05-01T14:56:19.001Z</time></trkpt><trkpt lat="45.68034394893621" lon="3.441077963365274"><ele>519.0</ele><time>2026-05-01T14:56:20.001Z</time></trkpt><trkpt lat="45.680545285434945" lon="3.4410384942881804"><ele>519.0</ele><time>2026-05-01T14:56:21.001Z</time></trkpt><trkpt lat="45.6807694268365" lon="3.4410226859246817"><ele>519.0</ele><time>2026-05-01T14:56:22.001Z</time></trkpt><trkpt lat="45.681003184179026" lon="3.441013358217644"><ele>519.0</ele><time>2026-05-01T14:56:23.001Z</time></trkpt><trkpt lat="45.681215134651374" lon="3.441048263045003"><ele>519.0</ele><time>2026-05-01T14:56:24.001Z</time></trkpt><trkpt lat="45.68138364492145" lon="3.441167286276087"><ele>519.0</ele><time>2026-05-01T14:56:25.001Z</time></trkpt><trkpt lat="45.68154590514062" lon="3.4413141407197014"><ele>521.6666666666666</ele><time>2026-05-01T14:56:26.001Z</time></trkpt><trkpt lat="45.681734230018414" lon="3.441388871039212"><ele>524.3333333333333</ele><time>2026-05-01T14:56:27.001Z</time></trkpt><trkpt lat="45.68188701010791" lon="3.4414001445069355"><ele>527.0</ele><time>2026-05-01T14:56:28.001Z</time></trkpt><trkpt lat="45.68203198036698" lon="3.4412980579274373"><ele>527.6666666666666</ele><time>2026-05-01T14:56:29.001Z</time></trkpt><trkpt lat="45.68213940259363" lon="3.441131477669839"><ele>528.3333333333334</ele><time>2026-05-01T14:56:30.001Z</time></trkpt><trkpt lat="45.682209756696494" lon="3.440926641038719"><ele>529.0</ele><time>2026-05-01T14:56:31.001Z</time></trkpt><trkpt lat="45.68222434925419" lon="3.440729082543951"><ele>529.0</ele><time>2026-05-01T14:56:32.001Z</time></trkpt><trkpt lat="45.6822370604957" lon="3.440551718058809"><ele>529.0</ele><time>2026-05-01T14:56:33.001Z</time></trkpt><trkpt lat="45.68223548293347" lon="3.4404130095802445"><ele>529.0</ele><time>2026-05-01T14:56:34.001Z</time></trkpt><trkpt lat="45.68223747119921" lon="3.44028789939158"><ele>529.0</ele><time>2026-05-01T14:56:35.001Z</time></trkpt><trkpt lat="45.68225673387158" lon="3.440168224868593"><ele>529.0</ele><time>2026-05-01T14:56:36.001Z</time></trkpt><trkpt lat="45.68230342640874" lon="3.440034638543567"><ele>528.25</ele><time>2026-05-01T14:56:37.001Z</time></trkpt><trkpt lat="45.68238079929055" lon="3.439899603622356"><ele>527.5</ele><time>2026-05-01T14:56:38.001Z</time></trkpt><trkpt lat="45.68248276626269" lon="3.439808572207897"><ele>526.75</ele><time>2026-05-01T14:56:39.001Z</time></trkpt><trkpt lat="45.682606335851865" lon="3.4397395787232807"><ele>526.0</ele><time>2026-05-01T14:56:40.001Z</time></trkpt><trkpt lat="45.682740232883546" lon="3.439672642108323"><ele>525.0</ele><time>2026-05-01T14:56:41.001Z</time></trkpt><trkpt lat="45.682910020604645" lon="3.4396325422322063"><ele>524.0</ele><time>2026-05-01T14:56:42Z</time></trkpt><trkpt lat="45.68310921192907" lon="3.439607418159045"><ele>523.0</ele><time>2026-05-01T14:56:43Z</time></trkpt><trkpt lat="45.68332910614061" lon="3.4396065456066798"><ele>523.0</ele><time>2026-05-01T14:56:44Z</time></trkpt><trkpt lat="45.68355467469012" lon="3.4395862995496684"><ele>523.0</ele><time>2026-05-01T14:56:45Z</time></trkpt><trkpt lat="45.68379633127479" lon="3.439516944635979"><ele>523.3333333333334</ele><time>2026-05-01T14:56:46Z</time></trkpt><trkpt lat="45.684006994553144" lon="3.439427933979859"><ele>523.6666666666666</ele><time>2026-05-01T14:56:47Z</time></trkpt><trkpt lat="45.68420918864607" lon="3.439476292763668"><ele>524.0</ele><time>2026-05-01T14:56:48Z</time></trkpt><trkpt lat="45.68440107921674" lon="3.4395958349080313"><ele>527.0</ele><time>2026-05-01T14:56:49Z</time></trkpt><trkpt lat="45.68466153208543" lon="3.439687443490297"><ele>530.0</ele><time>2026-05-01T14:56:50Z</time></trkpt><trkpt lat="45.68493646680032" lon="3.439737815960263"><ele>530.0</ele><time>2026-05-01T14:56:51Z</time></trkpt><trkpt lat="45.68512475607505" lon="3.439802730885592"><ele>530.0</ele><time>2026-05-01T14:56:52Z</time></trkpt><trkpt lat="45.68532288225938" lon="3.4399332251286023"><ele>530.0</ele><time>2026-05-01T14:56:53Z</time></trkpt><trkpt lat="45.68542811797901" lon="3.4400624109067732"><ele>530.5</ele><time>2026-05-01T14:56:54Z</time></trkpt><trkpt lat="45.68550990977386" lon="3.4401829995302102"><ele>531.0</ele><time>2026-05-01T14:56:55Z</time></trkpt><trkpt lat="45.685751202302406" lon="3.4407540846866054"><ele>531.0</ele><time>2026-05-01T14:56:56Z</time></trkpt><trkpt lat="45.6860880780311" lon="3.4407024540017552"><ele>531.0</ele><time>2026-05-01T14:56:58Z</time></trkpt><trkpt lat="45.68622838122233" lon="3.44082201857546"><ele>531.5</ele><time>2026-05-01T14:56:59Z</time></trkpt><trkpt lat="45.686458285244875" lon="3.4407172791319756"><ele>532.0</ele><time>2026-05-01T14:57:00Z</time></trkpt><trkpt lat="45.68667016580871" lon="3.4408686687009973"><ele>532.0</ele><time>2026-05-01T14:57:01Z</time></trkpt><trkpt lat="45.686901968689334" lon="3.440991884871291"><ele>532.0</ele><time>2026-05-01T14:57:02Z</time></trkpt><trkpt lat="45.68714153572423" lon="3.4411163779813534"><ele>531.5</ele><time>2026-05-01T14:57:03Z</time></trkpt><trkpt lat="45.68738560470541" lon="3.441234848544297"><ele>531.0</ele><time>2026-05-01T14:57:04Z</time></trkpt><trkpt lat="45.68763762999109" lon="3.4413536956005113"><ele>528.5</ele><time>2026-05-01T14:57:05Z</time></trkpt><trkpt lat="45.68789889673485" lon="3.4414772565242333"><ele>526.0</ele><time>2026-05-01T14:57:06Z</time></trkpt><trkpt lat="45.688166610600575" lon="3.441614507782531"><ele>526.0</ele><time>2026-05-01T14:57:07Z</time></trkpt><trkpt lat="45.68844737458313" lon="3.441716275446767"><ele>526.0</ele><time>2026-05-01T14:57:08Z</time></trkpt><trkpt lat="45.6887050784946" lon="3.4418103342905852"><ele>527.6666666666667</ele><time>2026-05-01T14:57:09Z</time></trkpt><trkpt lat="45.68892736956864" lon="3.4419293148224956"><ele>529.3333333333334</ele><time>2026-05-01T14:57:10Z</time></trkpt><trkpt lat="45.689121783306256" lon="3.4420307876002902"><ele>531.0</ele><time>2026-05-01T14:57:11Z</time></trkpt><trkpt lat="45.68931564479896" lon="3.4421259494489376"><ele>533.0</ele><time>2026-05-01T14:57:12Z</time></trkpt><trkpt lat="45.68951432516378" lon="3.442218588425824"><ele>535.0</ele><time>2026-05-01T14:57:13Z</time></trkpt><trkpt lat="45.68971201960207" lon="3.4423342678429023"><ele>537.0</ele><time>2026-05-01T14:57:14Z</time></trkpt><trkpt lat="45.68990111432121" lon="3.4424545760138425"><ele>537.0</ele><time>2026-05-01T14:57:15Z</time></trkpt><trkpt lat="45.690074239438395" lon="3.4425701687046284"><ele>537.0</ele><time>2026-05-01T14:57:16Z</time></trkpt><trkpt lat="45.69022854475122" lon="3.4426679763027432"><ele>537.0</ele><time>2026-05-01T14:57:17Z</time></trkpt><trkpt lat="45.69034232453541" lon="3.4427155721336193"><ele>538.5</ele><time>2026-05-01T14:57:18Z</time></trkpt><trkpt lat="45.69046421828242" lon="3.4427601645372796"><ele>540.0</ele><time>2026-05-01T14:57:19Z</time></trkpt><trkpt lat="45.69059400733453" lon="3.4427331676540844"><ele>541.5</ele><time>2026-05-01T14:57:20Z</time></trkpt><trkpt lat="45.69070219644399" lon="3.442583699751216"><ele>543.0</ele><time>2026-05-01T14:57:21Z</time></trkpt><trkpt lat="45.69079035907214" lon="3.4424381319952393"><ele>543.0</ele><time>2026-05-01T14:57:22Z</time></trkpt><trkpt lat="45.690870754962255" lon="3.4423345634973765"><ele>543.0</ele><time>2026-05-01T14:57:23Z</time></trkpt><trkpt lat="45.69092207185872" lon="3.442253041099123"><ele>543.0</ele><time>2026-05-01T14:57:24Z</time></trkpt><trkpt lat="45.69071017450335" lon="3.441693211409074"><ele>543.3333333333334</ele><time>2026-05-01T14:57:25Z</time></trkpt><trkpt lat="45.69075703149785" lon="3.4414618171966644"><ele>543.6666666666667</ele><time>2026-05-01T14:57:26Z</time></trkpt><trkpt lat="45.69086955895534" lon="3.4412974956217925"><ele>544.0</ele><time>2026-05-01T14:57:27Z</time></trkpt><trkpt lat="45.69106224829765" lon="3.4411397013055245"><ele>544.6666666666667</ele><time>2026-05-01T14:57:28Z</time></trkpt><trkpt lat="45.69129780364044" lon="3.4410825091707253"><ele>545.3333333333334</ele><time>2026-05-01T14:57:29Z</time></trkpt><trkpt lat="45.69150643560777" lon="3.4410691007216503"><ele>546.0</ele><time>2026-05-01T14:57:30Z</time></trkpt><trkpt lat="45.691764263700605" lon="3.44109265945333"><ele>548.0</ele><time>2026-05-01T14:57:31Z</time></trkpt><trkpt lat="45.69202185464911" lon="3.4411027300235246"><ele>550.0</ele><time>2026-05-01T14:57:32Z</time></trkpt><trkpt lat="45.69228255420832" lon="3.4411330905445197"><ele>550.0</ele><time>2026-05-01T14:57:33Z</time></trkpt><trkpt lat="45.6925373638444" lon="3.4412056160002313"><ele>550.0</ele><time>2026-05-01T14:57:34Z</time></trkpt><trkpt lat="45.6928028705183" lon="3.4413019787376573"><ele>552.3333333333334</ele><time>2026-05-01T14:57:35Z</time></trkpt><trkpt lat="45.69303904725209" lon="3.441365713243052"><ele>554.6666666666666</ele><time>2026-05-01T14:57:36Z</time></trkpt><trkpt lat="45.693222116535516" lon="3.44136476937133"><ele>557.0</ele><time>2026-05-01T14:57:37Z</time></trkpt><trkpt lat="45.693362457092064" lon="3.441203689352261"><ele>557.0</ele><time>2026-05-01T14:57:38Z</time></trkpt><trkpt lat="45.69348768661588" lon="3.4410308972016908"><ele>557.0</ele><time>2026-05-01T14:57:39Z</time></trkpt><trkpt lat="45.69334423219522" lon="3.440706754902809"><ele>557.0</ele><time>2026-05-01T14:57:40Z</time></trkpt><trkpt lat="45.6932662110405" lon="3.4404739754877967"><ele>558.3333333333333</ele><time>2026-05-01T14:57:41Z</time></trkpt><trkpt lat="45.69307928313302" lon="3.440319190544628"><ele>559.6666666666666</ele><time>2026-05-01T14:57:42Z</time></trkpt><trkpt lat="45.69286416993399" lon="3.4402286284168007"><ele>561.0</ele><time>2026-05-01T14:57:43Z</time></trkpt><trkpt lat="45.69262910498701" lon="3.440120253185724"><ele>561.0</ele><time>2026-05-01T14:57:44Z</time></trkpt><trkpt lat="45.692450357657705" lon="3.4400173263992726"><ele>561.0</ele><time>2026-05-01T14:57:45Z</time></trkpt><trkpt lat="45.692363049284005" lon="3.439797217623959"><ele>561.0</ele><time>2026-05-01T14:57:46Z</time></trkpt><trkpt lat="45.692329860460646" lon="3.4395584188818824"><ele>564.0</ele><time>2026-05-01T14:57:47Z</time></trkpt><trkpt lat="45.692266901923745" lon="3.4393244937820677"><ele>567.0</ele><time>2026-05-01T14:57:48Z</time></trkpt><trkpt lat="45.692133460330616" lon="3.4391485270240354"><ele>570.0</ele><time>2026-05-01T14:57:49Z</time></trkpt><trkpt lat="45.69199439748702" lon="3.4390155359895127"><ele>568.0</ele><time>2026-05-01T14:57:50Z</time></trkpt><trkpt lat="45.69178253891825" lon="3.43913102890724"><ele>566.0</ele><time>2026-05-01T14:57:51Z</time></trkpt><trkpt lat="45.691528717247" lon="3.4393006348189226"><ele>566.0</ele><time>2026-05-01T14:57:52Z</time></trkpt><trkpt lat="45.69132196837905" lon="3.439383847132467"><ele>566.0</ele><time>2026-05-01T14:57:53Z</time></trkpt><trkpt lat="45.69112995057649" lon="3.4393674959826583"><ele>566.0</ele><time>2026-05-01T14:57:54.001Z</time></trkpt><trkpt lat="45.69096492667089" lon="3.4391744414767698"><ele>564.0</ele><time>2026-05-01T14:57:55.001Z</time></trkpt><trkpt lat="45.69085476535864" lon="3.4389011502591127"><ele>562.0</ele><time>2026-05-01T14:57:56.001Z</time></trkpt><trkpt lat="45.69072298901357" lon="3.438568950643072"><ele>566.5</ele><time>2026-05-01T14:57:57.001Z</time></trkpt><trkpt lat="45.69058066993197" lon="3.4382689381722678"><ele>571.0</ele><time>2026-05-01T14:57:58.001Z</time></trkpt><trkpt lat="45.69042069854574" lon="3.4379635680224196"><ele>574.5</ele><time>2026-05-01T14:57:59.001Z</time></trkpt><trkpt lat="45.69027301323507" lon="3.4376419443112773"><ele>578.0</ele><time>2026-05-01T14:58:00.001Z</time></trkpt><trkpt lat="45.69013119941334" lon="3.4373546873797105"><ele>573.6666666666666</ele><time>2026-05-01T14:58:01.001Z</time></trkpt><trkpt lat="45.69003072277776" lon="3.437120554692576"><ele>569.3333333333334</ele><time>2026-05-01T14:58:02.001Z</time></trkpt><trkpt lat="45.68996919918735" lon="3.436899972841987"><ele>565.0</ele><time>2026-05-01T14:58:03.001Z</time></trkpt><trkpt lat="45.68994577533529" lon="3.4366536406470334"><ele>565.0</ele><time>2026-05-01T14:58:04.001Z</time></trkpt><trkpt lat="45.69017550360963" lon="3.436438932781055"><ele>565.0</ele><time>2026-05-01T14:58:05.001Z</time></trkpt><trkpt lat="45.690420702332275" lon="3.4363911034015127"><ele>572.0</ele><time>2026-05-01T14:58:06.001Z</time></trkpt><trkpt lat="45.690663408524806" lon="3.4364098259529565"><ele>579.0</ele><time>2026-05-01T14:58:07.001Z</time></trkpt><trkpt lat="45.690946224632256" lon="3.436414858113197"><ele>582.5</ele><time>2026-05-01T14:58:08.001Z</time></trkpt><trkpt lat="45.69121089100819" lon="3.4363668255596087"><ele>586.0</ele><time>2026-05-01T14:58:09.001Z</time></trkpt><trkpt lat="45.69139782250233" lon="3.436231067572907"><ele>586.0</ele><time>2026-05-01T14:58:10.001Z</time></trkpt><trkpt lat="45.691508545664604" lon="3.435997252163469"><ele>586.0</ele><time>2026-05-01T14:58:11.001Z</time></trkpt><trkpt lat="45.69159375257448" lon="3.4357865516298824"><ele>586.0</ele><time>2026-05-01T14:58:12.001Z</time></trkpt><trkpt lat="45.69171324979305" lon="3.43564694884673"><ele>586.0</ele><time>2026-05-01T14:58:13.001Z</time></trkpt><trkpt lat="45.69186481776293" lon="3.435562512242279"><ele>586.0</ele><time>2026-05-01T14:58:14.001Z</time></trkpt><trkpt lat="45.69205179278248" lon="3.435497167360882"><ele>586.0</ele><time>2026-05-01T14:58:15.001Z</time></trkpt><trkpt lat="45.692273588299194" lon="3.4354191230015463"><ele>584.5</ele><time>2026-05-01T14:58:16.001Z</time></trkpt><trkpt lat="45.692489970610595" lon="3.435310557423724"><ele>583.0</ele><time>2026-05-01T14:58:17.001Z</time></trkpt><trkpt lat="45.69269731240269" lon="3.4351113096258072"><ele>584.5</ele><time>2026-05-01T14:58:18.001Z</time></trkpt><trkpt lat="45.69291950471896" lon="3.434845492928026"><ele>586.0</ele><time>2026-05-01T14:58:19.001Z</time></trkpt><trkpt lat="45.693130224583896" lon="3.4346183807484802"><ele>586.0</ele><time>2026-05-01T14:58:20.001Z</time></trkpt><trkpt lat="45.693364751852016" lon="3.434558772645609"><ele>586.0</ele><time>2026-05-01T14:58:21.001Z</time></trkpt><trkpt lat="45.69360747831845" lon="3.43457559305644"><ele>589.5</ele><time>2026-05-01T14:58:22.001Z</time></trkpt><trkpt lat="45.6938545621373" lon="3.4345936704409006"><ele>593.0</ele><time>2026-05-01T14:58:23.001Z</time></trkpt><trkpt lat="45.694116246937725" lon="3.434642031214894"><ele>594.3333333333333</ele><time>2026-05-01T14:58:24.001Z</time></trkpt><trkpt lat="45.694340202706975" lon="3.4346684552450664"><ele>595.6666666666666</ele><time>2026-05-01T14:58:25.001Z</time></trkpt><trkpt lat="45.69449812813089" lon="3.434634596207599"><ele>597.0</ele><time>2026-05-01T14:58:26.001Z</time></trkpt><trkpt lat="45.69465895353197" lon="3.434535623723556"><ele>597.0</ele><time>2026-05-01T14:58:27.001Z</time></trkpt><trkpt lat="45.69478061118411" lon="3.4342901041549894"><ele>597.0</ele><time>2026-05-01T14:58:28.001Z</time></trkpt><trkpt lat="45.694806007187616" lon="3.43398386163606"><ele>597.0</ele><time>2026-05-01T14:58:29.001Z</time></trkpt><trkpt lat="45.69475364022396" lon="3.433625539998904"><ele>597.0</ele><time>2026-05-01T14:58:30.001Z</time></trkpt><trkpt lat="45.69482918006524" lon="3.433286292588042"><ele>597.0</ele><time>2026-05-01T14:58:31.001Z</time></trkpt><trkpt lat="45.69490151802966" lon="3.4330247740230586"><ele>597.0</ele><time>2026-05-01T14:58:32.001Z</time></trkpt><trkpt lat="45.69494015267921" lon="3.432772773436267"><ele>597.25</ele><time>2026-05-01T14:58:33.001Z</time></trkpt><trkpt lat="45.694973582405936" lon="3.4325658540896797"><ele>597.5</ele><time>2026-05-01T14:58:34.001Z</time></trkpt><trkpt lat="45.69501160595855" lon="3.4323782412192947"><ele>597.75</ele><time>2026-05-01T14:58:35.001Z</time></trkpt><trkpt lat="45.695061951172775" lon="3.432211528619769"><ele>598.0</ele><time>2026-05-01T14:58:36.001Z</time></trkpt><trkpt lat="45.69514459182475" lon="3.4320390990585525"><ele>598.0</ele><time>2026-05-01T14:58:37.001Z</time></trkpt><trkpt lat="45.69521834341953" lon="3.4318685919093976"><ele>598.0</ele><time>2026-05-01T14:58:38.001Z</time></trkpt><trkpt lat="45.69529195255099" lon="3.431722355364229"><ele>598.0</ele><time>2026-05-01T14:58:39.001Z</time></trkpt><trkpt lat="45.69535168771188" lon="3.4316220199382084"><ele>598.0</ele><time>2026-05-01T14:58:40.001Z</time></trkpt><trkpt lat="45.69540963880094" lon="3.4315277910376127"><ele>598.0</ele><time>2026-05-01T14:58:41.001Z</time></trkpt><trkpt lat="45.6955262221247" lon="3.431374227806103"><ele>598.0</ele><time>2026-05-01T14:58:45.001Z</time></trkpt><trkpt lat="45.69563157884513" lon="3.431311461610711"><ele>598.0</ele><time>2026-05-01T14:58:46.001Z</time></trkpt><trkpt lat="45.695741734135744" lon="3.431196089124698"><ele>598.0</ele><time>2026-05-01T14:58:47.001Z</time></trkpt><trkpt lat="45.69584987905457" lon="3.4310968181260857"><ele>598.0</ele><time>2026-05-01T14:58:48Z</time></trkpt><trkpt lat="45.69595136464248" lon="3.431028935789468"><ele>598.0</ele><time>2026-05-01T14:58:49Z</time></trkpt><trkpt lat="45.69602896742805" lon="3.430986696998328"><ele>598.0</ele><time>2026-05-01T14:58:50Z</time></trkpt><trkpt lat="45.696099323603335" lon="3.430926962706787"><ele>598.0</ele><time>2026-05-01T14:58:52Z</time></trkpt><trkpt lat="45.696103958597384" lon="3.4308005018596517"><ele>598.0</ele><time>2026-05-01T14:58:53Z</time></trkpt><trkpt lat="45.696066660720255" lon="3.43063087795537"><ele>598.0</ele><time>2026-05-01T14:58:54Z</time></trkpt><trkpt lat="45.69602290079555" lon="3.4304458205128006"><ele>597.0</ele><time>2026-05-01T14:58:55Z</time></trkpt><trkpt lat="45.69599814135763" lon="3.43023934838546"><ele>596.0</ele><time>2026-05-01T14:58:56Z</time></trkpt><trkpt lat="45.69600160088122" lon="3.429995609348598"><ele>595.0</ele><time>2026-05-01T14:58:57Z</time></trkpt><trkpt lat="45.6960132152973" lon="3.429730887788205"><ele>594.6666666666667</ele><time>2026-05-01T14:58:58Z</time></trkpt><trkpt lat="45.69603709557503" lon="3.429454523217113"><ele>594.3333333333334</ele><time>2026-05-01T14:58:59Z</time></trkpt><trkpt lat="45.69609875511783" lon="3.4291637257245347"><ele>594.0</ele><time>2026-05-01T14:59:00Z</time></trkpt><trkpt lat="45.69620689616435" lon="3.4288870418882538"><ele>593.0</ele><time>2026-05-01T14:59:01Z</time></trkpt><trkpt lat="45.69632611821474" lon="3.428616467132242"><ele>592.0</ele><time>2026-05-01T14:59:02Z</time></trkpt><trkpt lat="45.69646563998257" lon="3.4283705745334068"><ele>591.0</ele><time>2026-05-01T14:59:03Z</time></trkpt><trkpt lat="45.696628461110755" lon="3.4281533469996965"><ele>589.5</ele><time>2026-05-01T14:59:04Z</time></trkpt><trkpt lat="45.69682321511652" lon="3.4279552576943755"><ele>588.0</ele><time>2026-05-01T14:59:05Z</time></trkpt><trkpt lat="45.697030679103364" lon="3.4277535340748524"><ele>585.5</ele><time>2026-05-01T14:59:06Z</time></trkpt><trkpt lat="45.697242866061245" lon="3.4275479442230288"><ele>583.0</ele><time>2026-05-01T14:59:07Z</time></trkpt><trkpt lat="45.697469385312786" lon="3.427328467012277"><ele>583.5</ele><time>2026-05-01T14:59:08Z</time></trkpt><trkpt lat="45.69769597293058" lon="3.427083039414343"><ele>584.0</ele><time>2026-05-01T14:59:09Z</time></trkpt><trkpt lat="45.69794499669316" lon="3.426858791786611"><ele>579.5</ele><time>2026-05-01T14:59:10Z</time></trkpt><trkpt lat="45.69818561475354" lon="3.426641699851536"><ele>575.0</ele><time>2026-05-01T14:59:11Z</time></trkpt><trkpt lat="45.69842543742082" lon="3.426421667640283"><ele>573.0</ele><time>2026-05-01T14:59:12Z</time></trkpt><trkpt lat="45.69866262311102" lon="3.426189524189387"><ele>571.0</ele><time>2026-05-01T14:59:13Z</time></trkpt><trkpt lat="45.69888479420366" lon="3.4259238858498304"><ele>571.0</ele><time>2026-05-01T14:59:14Z</time></trkpt><trkpt lat="45.69909265618884" lon="3.425638954741156"><ele>571.0</ele><time>2026-05-01T14:59:15Z</time></trkpt><trkpt lat="45.6992785988075" lon="3.4253089560669068"><ele>565.0</ele><time>2026-05-01T14:59:16Z</time></trkpt><trkpt lat="45.69942856801766" lon="3.4249530693443186"><ele>559.0</ele><time>2026-05-01T14:59:17Z</time></trkpt><trkpt lat="45.69954807347132" lon="3.4245669301308603"><ele>559.0</ele><time>2026-05-01T14:59:18Z</time></trkpt><trkpt lat="45.69964606041665" lon="3.4241714562105336"><ele>559.0</ele><time>2026-05-01T14:59:19Z</time></trkpt><trkpt lat="45.699723176507234" lon="3.423761206253635"><ele>557.0</ele><time>2026-05-01T14:59:20Z</time></trkpt><trkpt lat="45.699797648510234" lon="3.4233694555333027"><ele>555.0</ele><time>2026-05-01T14:59:21Z</time></trkpt><trkpt lat="45.69985396064637" lon="3.422983177158872"><ele>553.0</ele><time>2026-05-01T14:59:22Z</time></trkpt><trkpt lat="45.699953913160726" lon="3.4226266659234983"><ele>551.0</ele><time>2026-05-01T14:59:23Z</time></trkpt><trkpt lat="45.70006857048555" lon="3.4222890681534137"><ele>549.5</ele><time>2026-05-01T14:59:24Z</time></trkpt><trkpt lat="45.7002254984352" lon="3.42199305095946"><ele>548.0</ele><time>2026-05-01T14:59:25Z</time></trkpt><trkpt lat="45.70042480020892" lon="3.4217593933266186"><ele>548.0</ele><time>2026-05-01T14:59:26Z</time></trkpt><trkpt lat="45.70066031208984" lon="3.421570547425002"><ele>548.0</ele><time>2026-05-01T14:59:27Z</time></trkpt><trkpt lat="45.7009214395554" lon="3.421481671860766"><ele>547.5</ele><time>2026-05-01T14:59:28Z</time></trkpt><trkpt lat="45.7011769864073" lon="3.421392303471326"><ele>547.0</ele><time>2026-05-01T14:59:29Z</time></trkpt><trkpt lat="45.70141656808555" lon="3.4213464389452946"><ele>547.0</ele><time>2026-05-01T14:59:30Z</time></trkpt><trkpt lat="45.70166257511837" lon="3.4213454036633806"><ele>547.0</ele><time>2026-05-01T14:59:31Z</time></trkpt><trkpt lat="45.70187381911265" lon="3.4213941985763316"><ele>544.0</ele><time>2026-05-01T14:59:32Z</time></trkpt><trkpt lat="45.7021151054331" lon="3.421492134848023"><ele>541.0</ele><time>2026-05-01T14:59:33Z</time></trkpt><trkpt lat="45.702345836867835" lon="3.421608464719588"><ele>541.0</ele><time>2026-05-01T14:59:34Z</time></trkpt><trkpt lat="45.70255438839097" lon="3.4217158047290908"><ele>541.0</ele><time>2026-05-01T14:59:35Z</time></trkpt><trkpt lat="45.70280128598757" lon="3.4218428810706527"><ele>538.0</ele><time>2026-05-01T14:59:36Z</time></trkpt><trkpt lat="45.70305602495651" lon="3.421972774549986"><ele>535.0</ele><time>2026-05-01T14:59:37Z</time></trkpt><trkpt lat="45.70333270003017" lon="3.422113205918464"><ele>534.0</ele><time>2026-05-01T14:59:38Z</time></trkpt><trkpt lat="45.70360627958931" lon="3.422252066045683"><ele>533.0</ele><time>2026-05-01T14:59:39Z</time></trkpt><trkpt lat="45.70388063370582" lon="3.422389212651261"><ele>533.0</ele><time>2026-05-01T14:59:40Z</time></trkpt><trkpt lat="45.70416407934048" lon="3.4224964819896715"><ele>533.0</ele><time>2026-05-01T14:59:41Z</time></trkpt><trkpt lat="45.70444313511244" lon="3.422604993816892"><ele>531.5</ele><time>2026-05-01T14:59:42Z</time></trkpt><trkpt lat="45.70468831149382" lon="3.4227188439130845"><ele>530.0</ele><time>2026-05-01T14:59:43Z</time></trkpt><trkpt lat="45.70492869719002" lon="3.422792485393805"><ele>530.0</ele><time>2026-05-01T14:59:44Z</time></trkpt><trkpt lat="45.705231314717864" lon="3.4223541934677244"><ele>530.0</ele><time>2026-05-01T14:59:45Z</time></trkpt><trkpt lat="45.70544678330165" lon="3.4220855046310565"><ele>528.0</ele><time>2026-05-01T14:59:46Z</time></trkpt><trkpt lat="45.705615395114016" lon="3.4217694602641466"><ele>526.0</ele><time>2026-05-01T14:59:47Z</time></trkpt><trkpt lat="45.70574050185259" lon="3.421412848154517"><ele>525.0</ele><time>2026-05-01T14:59:48Z</time></trkpt><trkpt lat="45.70580590859851" lon="3.4210172439983833"><ele>524.0</ele><time>2026-05-01T14:59:49Z</time></trkpt><trkpt lat="45.70581507981176" lon="3.420608237753224"><ele>525.0</ele><time>2026-05-01T14:59:50Z</time></trkpt><trkpt lat="45.705800801911934" lon="3.4202194918302027"><ele>526.0</ele><time>2026-05-01T14:59:51Z</time></trkpt><trkpt lat="45.705779392186386" lon="3.419862447551191"><ele>530.5</ele><time>2026-05-01T14:59:52Z</time></trkpt><trkpt lat="45.70570952816168" lon="3.4195197535393356"><ele>535.0</ele><time>2026-05-01T14:59:53Z</time></trkpt><trkpt lat="45.70567335078441" lon="3.419179811994293"><ele>533.0</ele><time>2026-05-01T14:59:54Z</time></trkpt><trkpt lat="45.70521273093319" lon="3.41895615174201"><ele>537.5</ele><time>2026-05-01T14:59:55Z</time></trkpt><trkpt lat="45.705008391406444" lon="3.4186417956430617"><ele>542.0</ele><time>2026-05-01T14:59:56Z</time></trkpt><trkpt lat="45.70479702774175" lon="3.418325280794564"><ele>542.0</ele><time>2026-05-01T14:59:57Z</time></trkpt><trkpt lat="45.704614010734716" lon="3.4180142659211334"><ele>542.0</ele><time>2026-05-01T14:59:58Z</time></trkpt><trkpt lat="45.704487577869976" lon="3.417681622719976"><ele>538.5</ele><time>2026-05-01T14:59:59Z</time></trkpt><trkpt lat="45.70437086020466" lon="3.4173286809942476"><ele>535.0</ele><time>2026-05-01T15:00:00Z</time></trkpt><trkpt lat="45.704279721213936" lon="3.4169742745806695"><ele>535.0</ele><time>2026-05-01T15:00:01Z</time></trkpt><trkpt lat="45.70422410655797" lon="3.416610281496841"><ele>535.0</ele><time>2026-05-01T15:00:02Z</time></trkpt><trkpt lat="45.70414633430508" lon="3.416279404423538"><ele>535.0</ele><time>2026-05-01T15:00:03Z</time></trkpt><trkpt lat="45.70406376255197" lon="3.415906641415888"><ele>535.0</ele><time>2026-05-01T15:00:04Z</time></trkpt><trkpt lat="45.704020705867514" lon="3.4155465008936474"><ele>534.5</ele><time>2026-05-01T15:00:05Z</time></trkpt><trkpt lat="45.70407623300753" lon="3.4152261426815316"><ele>534.0</ele><time>2026-05-01T15:00:06Z</time></trkpt><trkpt lat="45.70465933545624" lon="3.415004743826885"><ele>535.0</ele><time>2026-05-01T15:00:07Z</time></trkpt><trkpt lat="45.70473992966804" lon="3.4144585217167602"><ele>536.0</ele><time>2026-05-01T15:00:08.001Z</time></trkpt><trkpt lat="45.70489820723925" lon="3.4141193845980626"><ele>534.0</ele><time>2026-05-01T15:00:09.001Z</time></trkpt><trkpt lat="45.70520939920997" lon="3.413772618913065"><ele>532.0</ele><time>2026-05-01T15:00:10.001Z</time></trkpt><trkpt lat="45.705402513298495" lon="3.4134081908571767"><ele>537.0</ele><time>2026-05-01T15:00:11.001Z</time></trkpt><trkpt lat="45.70556052827872" lon="3.413029034987505"><ele>542.0</ele><time>2026-05-01T15:00:12.001Z</time></trkpt><trkpt lat="45.70565377031644" lon="3.412657409728219"><ele>542.5</ele><time>2026-05-01T15:00:13.001Z</time></trkpt><trkpt lat="45.70576050164217" lon="3.4122943935051655"><ele>543.0</ele><time>2026-05-01T15:00:14.001Z</time></trkpt><trkpt lat="45.705795104802576" lon="3.411950925031117"><ele>543.0</ele><time>2026-05-01T15:00:15.001Z</time></trkpt><trkpt lat="45.705834038527556" lon="3.411609355568894"><ele>543.0</ele><time>2026-05-01T15:00:16.001Z</time></trkpt><trkpt lat="45.70589553851075" lon="3.411298929604034"><ele>541.3333333333334</ele><time>2026-05-01T15:00:17.001Z</time></trkpt><trkpt lat="45.70599059067025" lon="3.4110256169306252"><ele>539.6666666666667</ele><time>2026-05-01T15:00:18.001Z</time></trkpt><trkpt lat="45.706104695130726" lon="3.4107957293755495"><ele>538.0</ele><time>2026-05-01T15:00:19.001Z</time></trkpt><trkpt lat="45.70621183038901" lon="3.4105754759357585"><ele>540.6666666666667</ele><time>2026-05-01T15:00:20.001Z</time></trkpt><trkpt lat="45.70632357597075" lon="3.410359799278659"><ele>543.3333333333334</ele><time>2026-05-01T15:00:21.001Z</time></trkpt><trkpt lat="45.70643447715181" lon="3.41013468441653"><ele>546.0</ele><time>2026-05-01T15:00:22.001Z</time></trkpt><trkpt lat="45.706555032392764" lon="3.4099262197124087"><ele>546.0</ele><time>2026-05-01T15:00:23.001Z</time></trkpt><trkpt lat="45.70669244194289" lon="3.4097374035272128"><ele>546.0</ele><time>2026-05-01T15:00:24.001Z</time></trkpt><trkpt lat="45.70685024932185" lon="3.4095802806680156"><ele>546.0</ele><time>2026-05-01T15:00:25.001Z</time></trkpt><trkpt lat="45.707007864662906" lon="3.4094586883474944"><ele>545.6666666666666</ele><time>2026-05-01T15:00:26.001Z</time></trkpt><trkpt lat="45.707176380836984" lon="3.4093656765040747"><ele>545.3333333333333</ele><time>2026-05-01T15:00:27.001Z</time></trkpt><trkpt lat="45.70735412295661" lon="3.4093050787214887"><ele>545.0</ele><time>2026-05-01T15:00:28.001Z</time></trkpt><trkpt lat="45.70754986536856" lon="3.4092681036065384"><ele>545.6666666666666</ele><time>2026-05-01T15:00:29.001Z</time></trkpt><trkpt lat="45.70774885671334" lon="3.4092460227368324"><ele>546.3333333333334</ele><time>2026-05-01T15:00:30.001Z</time></trkpt><trkpt lat="45.70794548555222" lon="3.409232913212185"><ele>547.0</ele><time>2026-05-01T15:00:31.001Z</time></trkpt><trkpt lat="45.70813857763732" lon="3.40921131861499"><ele>547.0</ele><time>2026-05-01T15:00:32.001Z</time></trkpt><trkpt lat="45.70833121228316" lon="3.409175785689227"><ele>547.0</ele><time>2026-05-01T15:00:33.001Z</time></trkpt><trkpt lat="45.70852292907532" lon="3.4091385822656006"><ele>547.0</ele><time>2026-05-01T15:00:34.001Z</time></trkpt><trkpt lat="45.70871166466292" lon="3.4090926511189177"><ele>547.0</ele><time>2026-05-01T15:00:35.001Z</time></trkpt><trkpt lat="45.70890399379223" lon="3.4090541538889294"><ele>547.0</ele><time>2026-05-01T15:00:36.001Z</time></trkpt><trkpt lat="45.709095090704125" lon="3.4089916832661453"><ele>547.0</ele><time>2026-05-01T15:00:37.001Z</time></trkpt><trkpt lat="45.7092841156351" lon="3.408897795606371"><ele>546.0</ele><time>2026-05-01T15:00:38.001Z</time></trkpt><trkpt lat="45.70946619586368" lon="3.408775403118716"><ele>545.0</ele><time>2026-05-01T15:00:39.001Z</time></trkpt><trkpt lat="45.70963033029413" lon="3.408614356130083"><ele>544.0</ele><time>2026-05-01T15:00:40.001Z</time></trkpt><trkpt lat="45.70977604314172" lon="3.408417324033214"><ele>544.0</ele><time>2026-05-01T15:00:41.001Z</time></trkpt><trkpt lat="45.70991585690861" lon="3.4082016574310114"><ele>544.0</ele><time>2026-05-01T15:00:42.001Z</time></trkpt><trkpt lat="45.71003745515065" lon="3.407976259221791"><ele>544.0</ele><time>2026-05-01T15:00:43.001Z</time></trkpt><trkpt lat="45.710133530821494" lon="3.407742152775239"><ele>546.0</ele><time>2026-05-01T15:00:44.001Z</time></trkpt><trkpt lat="45.71021741049254" lon="3.4074961317425316"><ele>548.0</ele><time>2026-05-01T15:00:45.001Z</time></trkpt><trkpt lat="45.71029683077263" lon="3.4072436314125514"><ele>550.0</ele><time>2026-05-01T15:00:46.001Z</time></trkpt><trkpt lat="45.7103736903087" lon="3.4069832430752967"><ele>550.0</ele><time>2026-05-01T15:00:47.001Z</time></trkpt><trkpt lat="45.71045644029203" lon="3.4067233488547943"><ele>550.0</ele><time>2026-05-01T15:00:48.001Z</time></trkpt><trkpt lat="45.71053699660653" lon="3.4064626576320913"><ele>550.0</ele><time>2026-05-01T15:00:49.001Z</time></trkpt><trkpt lat="45.710600977356314" lon="3.40618842550666"><ele>546.6666666666667</ele><time>2026-05-01T15:00:50.001Z</time></trkpt><trkpt lat="45.7106412104896" lon="3.405907966338845"><ele>543.3333333333334</ele><time>2026-05-01T15:00:51.001Z</time></trkpt><trkpt lat="45.71066074469044" lon="3.4056185728569224"><ele>540.0</ele><time>2026-05-01T15:00:52.001Z</time></trkpt><trkpt lat="45.71065332418958" lon="3.4053291782843003"><ele>540.0</ele><time>2026-05-01T15:00:53.001Z</time></trkpt><trkpt lat="45.710624167685936" lon="3.405042518813307"><ele>540.0</ele><time>2026-05-01T15:00:54Z</time></trkpt><trkpt lat="45.71057893996742" lon="3.404762041867341"><ele>540.0</ele><time>2026-05-01T15:00:55Z</time></trkpt><trkpt lat="45.71051197561798" lon="3.4044892609367814"><ele>542.0</ele><time>2026-05-01T15:00:56Z</time></trkpt><trkpt lat="45.71043831270949" lon="3.404231626601325"><ele>544.0</ele><time>2026-05-01T15:00:57Z</time></trkpt><trkpt lat="45.710366995930485" lon="3.4039825530534142"><ele>546.0</ele><time>2026-05-01T15:00:58Z</time></trkpt><trkpt lat="45.71030579449504" lon="3.4037362717476904"><ele>548.3333333333334</ele><time>2026-05-01T15:00:59Z</time></trkpt><trkpt lat="45.71026218320598" lon="3.4034994438497104"><ele>550.6666666666667</ele><time>2026-05-01T15:01:00Z</time></trkpt><trkpt lat="45.71023237522427" lon="3.403265761713927"><ele>553.0</ele><time>2026-05-01T15:01:01Z</time></trkpt><trkpt lat="45.7102124999936" lon="3.403021585556136"><ele>552.3333333333334</ele><time>2026-05-01T15:01:02Z</time></trkpt><trkpt lat="45.71021422897164" lon="3.4027719955370204"><ele>551.6666666666666</ele><time>2026-05-01T15:01:03Z</time></trkpt><trkpt lat="45.71023593707147" lon="3.402528900799818"><ele>551.0</ele><time>2026-05-01T15:01:04Z</time></trkpt><trkpt lat="45.71027316757813" lon="3.4022880405049163"><ele>548.6666666666666</ele><time>2026-05-01T15:01:05Z</time></trkpt><trkpt lat="45.71032921708094" lon="3.4020495675975915"><ele>546.3333333333334</ele><time>2026-05-01T15:01:06Z</time></trkpt><trkpt lat="45.71040720115511" lon="3.401811939293253"><ele>544.0</ele><time>2026-05-01T15:01:07Z</time></trkpt><trkpt lat="45.710496860767876" lon="3.4015776391897727"><ele>544.0</ele><time>2026-05-01T15:01:08Z</time></trkpt><trkpt lat="45.71060337812537" lon="3.4013481122687566"><ele>544.0</ele><time>2026-05-01T15:01:09Z</time></trkpt><trkpt lat="45.71071850314887" lon="3.4011127949262856"><ele>544.0</ele><time>2026-05-01T15:01:10Z</time></trkpt><trkpt lat="45.71083499053301" lon="3.400873515352504"><ele>540.6666666666667</ele><time>2026-05-01T15:01:11Z</time></trkpt><trkpt lat="45.710953529028934" lon="3.4006355252995357"><ele>537.3333333333334</ele><time>2026-05-01T15:01:12Z</time></trkpt><trkpt lat="45.711074700426636" lon="3.4003887157655"><ele>534.0</ele><time>2026-05-01T15:01:13Z</time></trkpt><trkpt lat="45.71119477113279" lon="3.4001395852170746"><ele>532.6666666666666</ele><time>2026-05-01T15:01:14Z</time></trkpt><trkpt lat="45.71131876865078" lon="3.3998888524952093"><ele>531.3333333333333</ele><time>2026-05-01T15:01:15Z</time></trkpt><trkpt lat="45.711443914744464" lon="3.399635061582574"><ele>530.0</ele><time>2026-05-01T15:01:16Z</time></trkpt><trkpt lat="45.71156904438592" lon="3.3993741495654244"><ele>527.3333333333333</ele><time>2026-05-01T15:01:17Z</time></trkpt><trkpt lat="45.71169541286949" lon="3.3991127940494263"><ele>524.6666666666666</ele><time>2026-05-01T15:01:18Z</time></trkpt><trkpt lat="45.71182136452326" lon="3.3988511160647508"><ele>522.0</ele><time>2026-05-01T15:01:19Z</time></trkpt><trkpt lat="45.71194859229667" lon="3.3985876497393908"><ele>521.0</ele><time>2026-05-01T15:01:20Z</time></trkpt><trkpt lat="45.712074643543424" lon="3.3983270431800188"><ele>520.0</ele><time>2026-05-01T15:01:21Z</time></trkpt><trkpt lat="45.712203812213055" lon="3.3980659000384996"><ele>519.0</ele><time>2026-05-01T15:01:22Z</time></trkpt><trkpt lat="45.71233378477578" lon="3.397807954645044"><ele>518.0</ele><time>2026-05-01T15:01:23Z</time></trkpt><trkpt lat="45.71245843464949" lon="3.3975490559766137"><ele>517.0</ele><time>2026-05-01T15:01:24Z</time></trkpt><trkpt lat="45.71257807391142" lon="3.3973056662610324"><ele>516.0</ele><time>2026-05-01T15:01:25Z</time></trkpt><trkpt lat="45.71269157733625" lon="3.3970723420933995"><ele>513.6666666666666</ele><time>2026-05-01T15:01:26Z</time></trkpt><trkpt lat="45.712801888118406" lon="3.396849785962741"><ele>511.3333333333333</ele><time>2026-05-01T15:01:27Z</time></trkpt><trkpt lat="45.71291424143366" lon="3.3966361741067397"><ele>509.0</ele><time>2026-05-01T15:01:28Z</time></trkpt><trkpt lat="45.71302369142112" lon="3.3964174721826783"><ele>508.0</ele><time>2026-05-01T15:01:29Z</time></trkpt><trkpt lat="45.71313402391496" lon="3.3962075093221316"><ele>507.0</ele><time>2026-05-01T15:01:30Z</time></trkpt><trkpt lat="45.71323631270966" lon="3.3960074005412184"><ele>506.0</ele><time>2026-05-01T15:01:31Z</time></trkpt><trkpt lat="45.71333045841232" lon="3.3958177253604216"><ele>506.0</ele><time>2026-05-01T15:01:32Z</time></trkpt><trkpt lat="45.713417397234274" lon="3.395639520720769"><ele>506.0</ele><time>2026-05-01T15:01:33Z</time></trkpt><trkpt lat="45.7134948178229" lon="3.395482365109963"><ele>506.0</ele><time>2026-05-01T15:01:34Z</time></trkpt><trkpt lat="45.713562008099714" lon="3.395373414343782"><ele>506.0</ele><time>2026-05-01T15:01:35Z</time></trkpt><trkpt lat="45.71364192014324" lon="3.395318106105446"><ele>506.20000000000005</ele><time>2026-05-01T15:01:36Z</time></trkpt><trkpt lat="45.713730547196434" lon="3.3953460498653887"><ele>506.40000000000003</ele><time>2026-05-01T15:01:37Z</time></trkpt><trkpt lat="45.71380670383155" lon="3.3954030820052687"><ele>506.6</ele><time>2026-05-01T15:01:38Z</time></trkpt><trkpt lat="45.71388248268336" lon="3.395470743000283"><ele>506.8</ele><time>2026-05-01T15:01:39Z</time></trkpt><trkpt lat="45.71398600284911" lon="3.395547999129928"><ele>507.0</ele><time>2026-05-01T15:01:40Z</time></trkpt><trkpt lat="45.71413120637312" lon="3.3956424566916437"><ele>507.0</ele><time>2026-05-01T15:01:41Z</time></trkpt><trkpt lat="45.714289656383514" lon="3.395775674681191"><ele>507.0</ele><time>2026-05-01T15:01:42Z</time></trkpt><trkpt lat="45.71446574613462" lon="3.3959328957577077"><ele>507.0</ele><time>2026-05-01T15:01:43Z</time></trkpt><trkpt lat="45.71464613641883" lon="3.396100020284287"><ele>508.5</ele><time>2026-05-01T15:01:44Z</time></trkpt><trkpt lat="45.71484677113368" lon="3.396270731537562"><ele>510.0</ele><time>2026-05-01T15:01:45Z</time></trkpt><trkpt lat="45.71506073045757" lon="3.3964438748054917"><ele>508.5</ele><time>2026-05-01T15:01:46Z</time></trkpt><trkpt lat="45.71529028818721" lon="3.3966197121747896"><ele>507.0</ele><time>2026-05-01T15:01:47Z</time></trkpt><trkpt lat="45.71551417346631" lon="3.3968049105593807"><ele>507.0</ele><time>2026-05-01T15:01:48Z</time></trkpt><trkpt lat="45.71572420928131" lon="3.3969768396509012"><ele>507.0</ele><time>2026-05-01T15:01:49Z</time></trkpt><trkpt lat="45.715934873406596" lon="3.3971174357616345"><ele>509.0</ele><time>2026-05-01T15:01:50Z</time></trkpt><trkpt lat="45.71616348898694" lon="3.3971808491334237"><ele>511.0</ele><time>2026-05-01T15:01:51Z</time></trkpt><trkpt lat="45.716407124865235" lon="3.397112557245506"><ele>508.5</ele><time>2026-05-01T15:01:52Z</time></trkpt><trkpt lat="45.716655193488826" lon="3.396966700163431"><ele>506.0</ele><time>2026-05-01T15:01:53Z</time></trkpt><trkpt lat="45.71690757490988" lon="3.396811164120387"><ele>506.0</ele><time>2026-05-01T15:01:54Z</time></trkpt><trkpt lat="45.717164485714754" lon="3.396703691602105"><ele>506.0</ele><time>2026-05-01T15:01:55Z</time></trkpt><trkpt lat="45.717436433472415" lon="3.3965819042036567"><ele>506.0</ele><time>2026-05-01T15:01:56Z</time></trkpt><trkpt lat="45.71770873863001" lon="3.3964432676803624"><ele>506.0</ele><time>2026-05-01T15:01:57Z</time></trkpt><trkpt lat="45.71796691362705" lon="3.3963196679215257"><ele>507.0</ele><time>2026-05-01T15:01:58Z</time></trkpt><trkpt lat="45.71818386334612" lon="3.3962174910849137"><ele>508.0</ele><time>2026-05-01T15:01:59Z</time></trkpt><trkpt lat="45.71835628029287" lon="3.3961318114708425"><ele>509.0</ele><time>2026-05-01T15:02:00Z</time></trkpt><trkpt lat="45.718503797198444" lon="3.396074226568891"><ele>509.25</ele><time>2026-05-01T15:02:01Z</time></trkpt><trkpt lat="45.718633149532565" lon="3.3960265588879284"><ele>509.5</ele><time>2026-05-01T15:02:02Z</time></trkpt><trkpt lat="45.71875309782911" lon="3.3959732267222424"><ele>509.75</ele><time>2026-05-01T15:02:03Z</time></trkpt><trkpt lat="45.718864437736535" lon="3.395893268580586"><ele>510.0</ele><time>2026-05-01T15:02:04Z</time></trkpt><trkpt lat="45.71898553991591" lon="3.3957711499092116"><ele>510.0</ele><time>2026-05-01T15:02:05Z</time></trkpt><trkpt lat="45.71912119524111" lon="3.395648368943252"><ele>510.0</ele><time>2026-05-01T15:02:06Z</time></trkpt><trkpt lat="45.71927196061281" lon="3.3955292770122374"><ele>510.0</ele><time>2026-05-01T15:02:07Z</time></trkpt><trkpt lat="45.71943834816068" lon="3.395409290022905"><ele>507.66666666666663</ele><time>2026-05-01T15:02:08Z</time></trkpt><trkpt lat="45.71960765111447" lon="3.3952800848605897"><ele>505.3333333333333</ele><time>2026-05-01T15:02:09Z</time></trkpt><trkpt lat="45.71977878673131" lon="3.395161902127879"><ele>503.0</ele><time>2026-05-01T15:02:10Z</time></trkpt><trkpt lat="45.71995804531851" lon="3.3950515806525354"><ele>503.0</ele><time>2026-05-01T15:02:11Z</time></trkpt><trkpt lat="45.72013376617087" lon="3.3949368053716604"><ele>503.0</ele><time>2026-05-01T15:02:12Z</time></trkpt><trkpt lat="45.72028694063892" lon="3.394774173289613"><ele>503.0</ele><time>2026-05-01T15:02:13Z</time></trkpt><trkpt lat="45.72043065810251" lon="3.394578612641352"><ele>503.0</ele><time>2026-05-01T15:02:14Z</time></trkpt><trkpt lat="45.7205549463103" lon="3.394399237293259"><ele>503.0</ele><time>2026-05-01T15:02:15Z</time></trkpt><trkpt lat="45.72065672805827" lon="3.3942330860864414"><ele>503.0</ele><time>2026-05-01T15:02:16Z</time></trkpt><trkpt lat="45.7207417802328" lon="3.3940600727220356"><ele>503.0</ele><time>2026-05-01T15:02:17Z</time></trkpt><trkpt lat="45.72082236060119" lon="3.3939004307240506"><ele>502.99999999999994</ele><time>2026-05-01T15:02:18Z</time></trkpt><trkpt lat="45.72088727830323" lon="3.3937577720927163"><ele>502.99999999999994</ele><time>2026-05-01T15:02:19Z</time></trkpt><trkpt lat="45.72094423722471" lon="3.3936612649008784"><ele>503.0</ele><time>2026-05-01T15:02:20Z</time></trkpt><trkpt lat="45.72099260194634" lon="3.3935844876542065"><ele>503.0</ele><time>2026-05-01T15:02:21Z</time></trkpt><trkpt lat="45.72105421612694" lon="3.3934968834367636"><ele>501.5</ele><time>2026-05-01T15:02:23Z</time></trkpt><trkpt lat="45.72111374837499" lon="3.3933104251898842"><ele>500.0</ele><time>2026-05-01T15:02:25.001Z</time></trkpt><trkpt lat="45.72115277944382" lon="3.393155696942116"><ele>498.5</ele><time>2026-05-01T15:02:26.001Z</time></trkpt><trkpt lat="45.72121555963375" lon="3.3929923159722293"><ele>497.0</ele><time>2026-05-01T15:02:27.001Z</time></trkpt><trkpt lat="45.72128022309669" lon="3.3928276289357346"><ele>497.0</ele><time>2026-05-01T15:02:28.001Z</time></trkpt><trkpt lat="45.72134129152479" lon="3.39265523377915"><ele>497.0</ele><time>2026-05-01T15:02:29.001Z</time></trkpt><trkpt lat="45.72139374691823" lon="3.3924815385101983"><ele>497.0</ele><time>2026-05-01T15:02:30.001Z</time></trkpt><trkpt lat="45.72145791712139" lon="3.3923187199683325"><ele>497.0</ele><time>2026-05-01T15:02:31.001Z</time></trkpt><trkpt lat="45.72152180119226" lon="3.3921728651279452"><ele>498.40000000000003</ele><time>2026-05-01T15:02:32.001Z</time></trkpt><trkpt lat="45.72159115412475" lon="3.392067450488591"><ele>499.80000000000007</ele><time>2026-05-01T15:02:33.001Z</time></trkpt><trkpt lat="45.72167243863877" lon="3.3919974162828463"><ele>501.2</ele><time>2026-05-01T15:02:34.001Z</time></trkpt><trkpt lat="45.72176666828103" lon="3.3919403175641514"><ele>502.6</ele><time>2026-05-01T15:02:35.001Z</time></trkpt><trkpt lat="45.72185546720124" lon="3.3918569960863167"><ele>504.0</ele><time>2026-05-01T15:02:36.001Z</time></trkpt><trkpt lat="45.72195775926706" lon="3.391778915235126"><ele>504.0</ele><time>2026-05-01T15:02:37.001Z</time></trkpt><trkpt lat="45.72210813083868" lon="3.3916859549241547"><ele>504.0</ele><time>2026-05-01T15:02:38.001Z</time></trkpt><trkpt lat="45.72223075592034" lon="3.3915848340519674"><ele>504.0</ele><time>2026-05-01T15:02:39.001Z</time></trkpt><trkpt lat="45.72234485482546" lon="3.391475001731482"><ele>504.0</ele><time>2026-05-01T15:02:40.001Z</time></trkpt><trkpt lat="45.72244940230231" lon="3.3913519717150056"><ele>506.0</ele><time>2026-05-01T15:02:41.001Z</time></trkpt><trkpt lat="45.72252841245141" lon="3.3911908961029913"><ele>508.0</ele><time>2026-05-01T15:02:42.001Z</time></trkpt><trkpt lat="45.72258013387126" lon="3.3910023242895337"><ele>510.0</ele><time>2026-05-01T15:02:43.001Z</time></trkpt><trkpt lat="45.72261544381434" lon="3.3908322407357434"><ele>512.0</ele><time>2026-05-01T15:02:44.001Z</time></trkpt><trkpt lat="45.72269297058742" lon="3.390691595441135"><ele>512.25</ele><time>2026-05-01T15:02:45.001Z</time></trkpt><trkpt lat="45.72279334733139" lon="3.3906086637380883"><ele>512.5</ele><time>2026-05-01T15:02:46.001Z</time></trkpt><trkpt lat="45.722904490501726" lon="3.390591210762684"><ele>512.75</ele><time>2026-05-01T15:02:47.001Z</time></trkpt><trkpt lat="45.7230209666357" lon="3.3906794492617833"><ele>513.0</ele><time>2026-05-01T15:02:48.001Z</time></trkpt><trkpt lat="45.72315784690024" lon="3.3907967318980745"><ele>513.0</ele><time>2026-05-01T15:02:49.001Z</time></trkpt><trkpt lat="45.723315439939064" lon="3.3908788161976844"><ele>513.0</ele><time>2026-05-01T15:02:50.001Z</time></trkpt><trkpt lat="45.72349252939015" lon="3.39098386144056"><ele>513.0</ele><time>2026-05-01T15:02:51.001Z</time></trkpt><trkpt lat="45.72367881630166" lon="3.3910953080121584"><ele>513.3333333333334</ele><time>2026-05-01T15:02:52.001Z</time></trkpt><trkpt lat="45.723872711278794" lon="3.391211400401373"><ele>513.6666666666667</ele><time>2026-05-01T15:02:53.001Z</time></trkpt><trkpt lat="45.72406261577663" lon="3.39132006162132"><ele>514.0</ele><time>2026-05-01T15:02:54.001Z</time></trkpt><trkpt lat="45.72423462532189" lon="3.391425298547431"><ele>511.6666666666667</ele><time>2026-05-01T15:02:55.001Z</time></trkpt><trkpt lat="45.724392538608335" lon="3.3915211749076724"><ele>509.33333333333337</ele><time>2026-05-01T15:02:56.001Z</time></trkpt><trkpt lat="45.724547388259865" lon="3.391601650096374"><ele>507.0</ele><time>2026-05-01T15:02:57.001Z</time></trkpt><trkpt lat="45.724719784418156" lon="3.3916145584339517"><ele>506.33333333333337</ele><time>2026-05-01T15:02:58.001Z</time></trkpt><trkpt lat="45.724912949758426" lon="3.391553113791675"><ele>505.6666666666667</ele><time>2026-05-01T15:02:59.001Z</time></trkpt><trkpt lat="45.72512610136785" lon="3.391491702744207"><ele>505.0</ele><time>2026-05-01T15:03:00Z</time></trkpt><trkpt lat="45.72535159791952" lon="3.391494262195385"><ele>501.0</ele><time>2026-05-01T15:03:01Z</time></trkpt><trkpt lat="45.725573228823244" lon="3.391527413707278"><ele>497.0</ele><time>2026-05-01T15:03:02Z</time></trkpt><trkpt lat="45.725823324165475" lon="3.3915819758845376"><ele>494.0</ele><time>2026-05-01T15:03:03Z</time></trkpt><trkpt lat="45.72609780275548" lon="3.391630400833744"><ele>491.0</ele><time>2026-05-01T15:03:04Z</time></trkpt><trkpt lat="45.72636319677683" lon="3.391714539742568"><ele>491.0</ele><time>2026-05-01T15:03:05Z</time></trkpt><trkpt lat="45.726607922531215" lon="3.3917864695974695"><ele>491.0</ele><time>2026-05-01T15:03:06Z</time></trkpt><trkpt lat="45.72684377773726" lon="3.3918450482289213"><ele>488.5</ele><time>2026-05-01T15:03:07Z</time></trkpt><trkpt lat="45.72709728118043" lon="3.3918379718758276"><ele>486.0</ele><time>2026-05-01T15:03:08Z</time></trkpt><trkpt lat="45.727359363059946" lon="3.391721835656303"><ele>486.0</ele><time>2026-05-01T15:03:09Z</time></trkpt><trkpt lat="45.72760695462431" lon="3.391524323686607"><ele>486.0</ele><time>2026-05-01T15:03:10Z</time></trkpt><trkpt lat="45.727841143240475" lon="3.3912812964832675"><ele>486.5</ele><time>2026-05-01T15:03:11Z</time></trkpt><trkpt lat="45.728060594262224" lon="3.3910100186647685"><ele>487.0</ele><time>2026-05-01T15:03:12Z</time></trkpt><trkpt lat="45.72833382313541" lon="3.3908881889295412"><ele>486.5</ele><time>2026-05-01T15:03:13Z</time></trkpt><trkpt lat="45.728600454983244" lon="3.390795212604721"><ele>486.0</ele><time>2026-05-01T15:03:14Z</time></trkpt><trkpt lat="45.72889640892897" lon="3.3906640400278114"><ele>486.0</ele><time>2026-05-01T15:03:15Z</time></trkpt><trkpt lat="45.729152036851715" lon="3.3905258516112307"><ele>486.0</ele><time>2026-05-01T15:03:16Z</time></trkpt><trkpt lat="45.72938008082283" lon="3.3903826796780843"><ele>484.5</ele><time>2026-05-01T15:03:17Z</time></trkpt><trkpt lat="45.72962196688009" lon="3.3902742657616214"><ele>483.0</ele><time>2026-05-01T15:03:18Z</time></trkpt><trkpt lat="45.7298675536996" lon="3.3901534201503756"><ele>483.0</ele><time>2026-05-01T15:03:19Z</time></trkpt><trkpt lat="45.73013608046941" lon="3.3900236793285434"><ele>483.0</ele><time>2026-05-01T15:03:20Z</time></trkpt><trkpt lat="45.73039778514501" lon="3.3898564534937696"><ele>480.5</ele><time>2026-05-01T15:03:21Z</time></trkpt><trkpt lat="45.730671723628326" lon="3.3896954015519554"><ele>478.0</ele><time>2026-05-01T15:03:22Z</time></trkpt><trkpt lat="45.730947328420676" lon="3.389531003368924"><ele>477.0</ele><time>2026-05-01T15:03:23Z</time></trkpt><trkpt lat="45.73124046069315" lon="3.3894247788847776"><ele>476.0</ele><time>2026-05-01T15:03:24Z</time></trkpt><trkpt lat="45.731541784752984" lon="3.3893385486908767"><ele>476.0</ele><time>2026-05-01T15:03:25Z</time></trkpt><trkpt lat="45.731847376394335" lon="3.389284023194128"><ele>476.0</ele><time>2026-05-01T15:03:26Z</time></trkpt><trkpt lat="45.73215684934847" lon="3.3892543656243475"><ele>476.5</ele><time>2026-05-01T15:03:27Z</time></trkpt><trkpt lat="45.73246284321013" lon="3.3892603679806994"><ele>477.0</ele><time>2026-05-01T15:03:28Z</time></trkpt><trkpt lat="45.732767319667886" lon="3.38927893846414"><ele>477.5</ele><time>2026-05-01T15:03:29Z</time></trkpt><trkpt lat="45.73305851609864" lon="3.389269885681371"><ele>478.0</ele><time>2026-05-01T15:03:30Z</time></trkpt><trkpt lat="45.73333395844464" lon="3.3892346283391523"><ele>478.0</ele><time>2026-05-01T15:03:31Z</time></trkpt><trkpt lat="45.73361411365209" lon="3.389153491856689"><ele>478.0</ele><time>2026-05-01T15:03:32Z</time></trkpt><trkpt lat="45.73389191329162" lon="3.3890455961347015"><ele>478.0</ele><time>2026-05-01T15:03:33Z</time></trkpt><trkpt lat="45.734167594103766" lon="3.3889230887002766"><ele>478.0</ele><time>2026-05-01T15:03:34Z</time></trkpt><trkpt lat="45.7344476657505" lon="3.3887917407611217"><ele>477.5</ele><time>2026-05-01T15:03:35Z</time></trkpt><trkpt lat="45.734723291084144" lon="3.3886516380673"><ele>477.0</ele><time>2026-05-01T15:03:36Z</time></trkpt><trkpt lat="45.73500001592653" lon="3.388526315072956"><ele>478.5</ele><time>2026-05-01T15:03:37Z</time></trkpt><trkpt lat="45.73527269273651" lon="3.3883947147346483"><ele>480.0</ele><time>2026-05-01T15:03:38Z</time></trkpt><trkpt lat="45.73553294434357" lon="3.388239891336547"><ele>480.0</ele><time>2026-05-01T15:03:39Z</time></trkpt><trkpt lat="45.735788533594715" lon="3.388083587099015"><ele>480.0</ele><time>2026-05-01T15:03:40Z</time></trkpt><trkpt lat="45.736049495739664" lon="3.387954238034264"><ele>474.0</ele><time>2026-05-01T15:03:41Z</time></trkpt><trkpt lat="45.73633040450914" lon="3.387845399489629"><ele>468.0</ele><time>2026-05-01T15:03:42Z</time></trkpt><trkpt lat="45.73662450948282" lon="3.3877478010051743"><ele>467.0</ele><time>2026-05-01T15:03:43Z</time></trkpt><trkpt lat="45.736918390864666" lon="3.387650096562285"><ele>466.0</ele><time>2026-05-01T15:03:44Z</time></trkpt><trkpt lat="45.73719540341132" lon="3.3875631827411548"><ele>466.0</ele><time>2026-05-01T15:03:45Z</time></trkpt><trkpt lat="45.737439047562525" lon="3.3874898611281097"><ele>466.0</ele><time>2026-05-01T15:03:46Z</time></trkpt><trkpt lat="45.73766027515437" lon="3.3874000629011443"><ele>466.33333333333337</ele><time>2026-05-01T15:03:47Z</time></trkpt><trkpt lat="45.737858692274244" lon="3.387277392727619"><ele>466.66666666666663</ele><time>2026-05-01T15:03:48Z</time></trkpt><trkpt lat="45.73805190094247" lon="3.387108182558478"><ele>467.0</ele><time>2026-05-01T15:03:49Z</time></trkpt><trkpt lat="45.73823562605138" lon="3.3868900790702643"><ele>463.5</ele><time>2026-05-01T15:03:50Z</time></trkpt><trkpt lat="45.73842813818239" lon="3.38666361237755"><ele>460.0</ele><time>2026-05-01T15:03:51Z</time></trkpt><trkpt lat="45.738645617677165" lon="3.386460957365763"><ele>456.0</ele><time>2026-05-01T15:03:52Z</time></trkpt><trkpt lat="45.73888326671351" lon="3.3862867265286325"><ele>452.0</ele><time>2026-05-01T15:03:53Z</time></trkpt><trkpt lat="45.73912965277012" lon="3.386141087114471"><ele>452.0</ele><time>2026-05-01T15:03:54Z</time></trkpt><trkpt lat="45.7393712648527" lon="3.3860044886129943"><ele>452.0</ele><time>2026-05-01T15:03:55Z</time></trkpt><trkpt lat="45.73958203758616" lon="3.3858338840652444"><ele>452.66666666666663</ele><time>2026-05-01T15:03:56Z</time></trkpt><trkpt lat="45.73974550165063" lon="3.385635026505534"><ele>453.33333333333337</ele><time>2026-05-01T15:03:57Z</time></trkpt><trkpt lat="45.739853056934464" lon="3.385423014707951"><ele>454.0</ele><time>2026-05-01T15:03:58Z</time></trkpt><trkpt lat="45.73995213544175" lon="3.385222212849137"><ele>454.0</ele><time>2026-05-01T15:03:59Z</time></trkpt><trkpt lat="45.740049728898526" lon="3.3850567032634613"><ele>454.0</ele><time>2026-05-01T15:04:00Z</time></trkpt><trkpt lat="45.74015292600703" lon="3.384909518746734"><ele>454.0</ele><time>2026-05-01T15:04:01Z</time></trkpt><trkpt lat="45.74026928639985" lon="3.3847912447979356"><ele>454.0</ele><time>2026-05-01T15:04:02Z</time></trkpt><trkpt lat="45.7404046231344" lon="3.384700289106873"><ele>455.6666666666667</ele><time>2026-05-01T15:04:03Z</time></trkpt><trkpt lat="45.74055286376778" lon="3.3846401699486903"><ele>457.33333333333337</ele><time>2026-05-01T15:04:04Z</time></trkpt><trkpt lat="45.74070296035199" lon="3.384591881728217"><ele>459.0</ele><time>2026-05-01T15:04:05Z</time></trkpt><trkpt lat="45.74084206986237" lon="3.384518817393895"><ele>459.0</ele><time>2026-05-01T15:04:06Z</time></trkpt><trkpt lat="45.740965636441075" lon="3.384402709265799"><ele>459.0</ele><time>2026-05-01T15:04:07Z</time></trkpt><trkpt lat="45.74106812906223" lon="3.384245873280282"><ele>459.0</ele><time>2026-05-01T15:04:08Z</time></trkpt><trkpt lat="45.74114156903427" lon="3.3840765498549743"><ele>459.0</ele><time>2026-05-01T15:04:09Z</time></trkpt><trkpt lat="45.74120808180284" lon="3.383939756794139"><ele>458.6</ele><time>2026-05-01T15:04:10Z</time></trkpt><trkpt lat="45.7412760703945" lon="3.3838287260434115"><ele>458.2</ele><time>2026-05-01T15:04:11Z</time></trkpt><trkpt lat="45.74134206261347" lon="3.3837329200670276"><ele>457.80000000000007</ele><time>2026-05-01T15:04:12Z</time></trkpt><trkpt lat="45.741401463369705" lon="3.3836298014210833"><ele>457.40000000000003</ele><time>2026-05-01T15:04:13Z</time></trkpt><trkpt lat="45.74143549173747" lon="3.3834977138942324"><ele>457.0</ele><time>2026-05-01T15:04:14Z</time></trkpt><trkpt lat="45.741462163575264" lon="3.383340505105686"><ele>457.0</ele><time>2026-05-01T15:04:15Z</time></trkpt><trkpt lat="45.741476802773995" lon="3.3831968531315213"><ele>457.00000000000006</ele><time>2026-05-01T15:04:16Z</time></trkpt><trkpt lat="45.741522174297884" lon="3.383072546761417"><ele>457.00000000000006</ele><time>2026-05-01T15:04:17Z</time></trkpt><trkpt lat="45.741592319483395" lon="3.382964235982309"><ele>457.0</ele><time>2026-05-01T15:04:18Z</time></trkpt><trkpt lat="45.74168214777287" lon="3.382852195013194"><ele>457.0</ele><time>2026-05-01T15:04:19Z</time></trkpt><trkpt lat="45.74178285104459" lon="3.382750661554836"><ele>455.33333333333337</ele><time>2026-05-01T15:04:20Z</time></trkpt><trkpt lat="45.7418874141738" lon="3.38263973113389"><ele>453.66666666666663</ele><time>2026-05-01T15:04:21Z</time></trkpt><trkpt lat="45.7420442069312" lon="3.3824891665688472"><ele>452.0</ele><time>2026-05-01T15:04:22Z</time></trkpt><trkpt lat="45.74218381582212" lon="3.382344014240981"><ele>452.0</ele><time>2026-05-01T15:04:23Z</time></trkpt><trkpt lat="45.74232175862114" lon="3.3821891865327682"><ele>452.0</ele><time>2026-05-01T15:04:24Z</time></trkpt><trkpt lat="45.74245802264404" lon="3.382037104477104"><ele>452.0</ele><time>2026-05-01T15:04:25Z</time></trkpt><trkpt lat="45.742597664905645" lon="3.3818992883987713"><ele>453.66666666666663</ele><time>2026-05-01T15:04:26Z</time></trkpt><trkpt lat="45.74274544663088" lon="3.381773877332542"><ele>455.33333333333337</ele><time>2026-05-01T15:04:27Z</time></trkpt><trkpt lat="45.74289960322117" lon="3.3816427256949044"><ele>457.0</ele><time>2026-05-01T15:04:28Z</time></trkpt><trkpt lat="45.74305134634771" lon="3.3815083470870166"><ele>457.0</ele><time>2026-05-01T15:04:29Z</time></trkpt><trkpt lat="45.74319740411343" lon="3.3813678226419612"><ele>457.0</ele><time>2026-05-01T15:04:30Z</time></trkpt><trkpt lat="45.743339508311216" lon="3.381221715713537"><ele>457.0</ele><time>2026-05-01T15:04:31Z</time></trkpt><trkpt lat="45.74347528899041" lon="3.381077229495984"><ele>458.6666666666667</ele><time>2026-05-01T15:04:32Z</time></trkpt><trkpt lat="45.74360750325248" lon="3.3809186599769068"><ele>460.33333333333337</ele><time>2026-05-01T15:04:33Z</time></trkpt><trkpt lat="45.743754740252974" lon="3.380785544174843"><ele>462.0</ele><time>2026-05-01T15:04:34Z</time></trkpt><trkpt lat="45.74389350526589" lon="3.380680742033885"><ele>462.0</ele><time>2026-05-01T15:04:35Z</time></trkpt><trkpt lat="45.74401758365262" lon="3.3805942749837294"><ele>462.0</ele><time>2026-05-01T15:04:36Z</time></trkpt><trkpt lat="45.744119998234915" lon="3.3804594914235593"><ele>462.0</ele><time>2026-05-01T15:04:37Z</time></trkpt><trkpt lat="45.74418164809817" lon="3.380268717501392"><ele>462.0</ele><time>2026-05-01T15:04:38Z</time></trkpt><trkpt lat="45.744233871499425" lon="3.380065861536574"><ele>462.0</ele><time>2026-05-01T15:04:39Z</time></trkpt><trkpt lat="45.74430612864922" lon="3.3798802269620185"><ele>462.0</ele><time>2026-05-01T15:04:40Z</time></trkpt><trkpt lat="45.74441395419658" lon="3.379718017988257"><ele>462.0</ele><time>2026-05-01T15:04:41Z</time></trkpt><trkpt lat="45.744548519406294" lon="3.379564995440063"><ele>461.33333333333337</ele><time>2026-05-01T15:04:42Z</time></trkpt><trkpt lat="45.744700351124116" lon="3.3794195582832836"><ele>460.6666666666667</ele><time>2026-05-01T15:04:43Z</time></trkpt><trkpt lat="45.744861071632485" lon="3.379279191438494"><ele>460.0</ele><time>2026-05-01T15:04:44Z</time></trkpt><trkpt lat="45.74503481487111" lon="3.379157464412678"><ele>459.33333333333337</ele><time>2026-05-01T15:04:45Z</time></trkpt><trkpt lat="45.74521254412723" lon="3.379029150492281"><ele>458.66666666666663</ele><time>2026-05-01T15:04:46Z</time></trkpt><trkpt lat="45.74538357823647" lon="3.378896280953357"><ele>458.0</ele><time>2026-05-01T15:04:47.001Z</time></trkpt><trkpt lat="45.745531178073904" lon="3.3787571598845973"><ele>456.75</ele><time>2026-05-01T15:04:48.001Z</time></trkpt><trkpt lat="45.74564087676592" lon="3.378598577348996"><ele>455.5</ele><time>2026-05-01T15:04:49.001Z</time></trkpt><trkpt lat="45.745729537222026" lon="3.378445713536931"><ele>454.25</ele><time>2026-05-01T15:04:50.001Z</time></trkpt><trkpt lat="45.745819865010425" lon="3.378318984014945"><ele>453.0</ele><time>2026-05-01T15:04:51.001Z</time></trkpt><trkpt lat="45.74589460593706" lon="3.3782415165188606"><ele>453.0</ele><time>2026-05-01T15:04:52.001Z</time></trkpt><trkpt lat="45.74595277965552" lon="3.3781856473689102"><ele>452.99999999999994</ele><time>2026-05-01T15:04:53.001Z</time></trkpt><trkpt lat="45.74596224400411" lon="3.3780708468993104"><ele>452.99999999999994</ele><time>2026-05-01T15:04:54.001Z</time></trkpt><trkpt lat="45.74589327876063" lon="3.377933478307342"><ele>453.0</ele><time>2026-05-01T15:04:55.001Z</time></trkpt><trkpt lat="45.74582972786954" lon="3.3777685955175443"><ele>453.0</ele><time>2026-05-01T15:04:56.001Z</time></trkpt><trkpt lat="45.74578320667165" lon="3.3775996951049296"><ele>452.5</ele><time>2026-05-01T15:04:57.001Z</time></trkpt><trkpt lat="45.745744096924376" lon="3.377429667006705"><ele>452.0</ele><time>2026-05-01T15:04:58.001Z</time></trkpt><trkpt lat="45.745695858130865" lon="3.3772626674844193"><ele>451.5</ele><time>2026-05-01T15:04:59.001Z</time></trkpt><trkpt lat="45.74565358030144" lon="3.377094557348887"><ele>451.0</ele><time>2026-05-01T15:05:00.001Z</time></trkpt><trkpt lat="45.745619175718794" lon="3.376926163828325"><ele>451.0</ele><time>2026-05-01T15:05:01.001Z</time></trkpt><trkpt lat="45.745589112225765" lon="3.37677017036915"><ele>451.0</ele><time>2026-05-01T15:05:02.001Z</time></trkpt><trkpt lat="45.74556533978553" lon="3.376620488196727"><ele>451.0</ele><time>2026-05-01T15:05:03.001Z</time></trkpt><trkpt lat="45.74554690090445" lon="3.376477707877584"><ele>451.0</ele><time>2026-05-01T15:05:04.001Z</time></trkpt><trkpt lat="45.745531271546426" lon="3.3763278836879764"><ele>451.0</ele><time>2026-05-01T15:05:05Z</time></trkpt><trkpt lat="45.74550971635412" lon="3.3761778095464106"><ele>451.0</ele><time>2026-05-01T15:05:06Z</time></trkpt><trkpt lat="45.74547598233191" lon="3.376027085445126"><ele>451.0</ele><time>2026-05-01T15:05:07Z</time></trkpt><trkpt lat="45.7454375135242" lon="3.37590417386018"><ele>451.0</ele><time>2026-05-01T15:05:08Z</time></trkpt><trkpt lat="45.7453970882237" lon="3.375804250767473"><ele>451.0</ele><time>2026-05-01T15:05:09Z</time></trkpt><trkpt lat="45.745362559289575" lon="3.375721749886913"><ele>451.0</ele><time>2026-05-01T15:05:10Z</time></trkpt><trkpt lat="45.74531259636842" lon="3.3755788731428304"><ele>451.0</ele><time>2026-05-01T15:05:12Z</time></trkpt><trkpt lat="45.745316160130194" lon="3.375469036303032"><ele>451.0</ele><time>2026-05-01T15:05:14Z</time></trkpt><trkpt lat="45.745336375441376" lon="3.3751732191883037"><ele>451.0</ele><time>2026-05-01T15:05:27Z</time></trkpt><trkpt lat="45.7453342057589" lon="3.3750700156883395"><ele>451.0</ele><time>2026-05-01T15:05:28Z</time></trkpt><trkpt lat="45.745334771976324" lon="3.3749563544313133"><ele>451.0</ele><time>2026-05-01T15:05:29Z</time></trkpt><trkpt lat="45.745334438662724" lon="3.374840428263407"><ele>451.00000000000006</ele><time>2026-05-01T15:05:30Z</time></trkpt><trkpt lat="45.74532371010492" lon="3.3747303989313884"><ele>451.0</ele><time>2026-05-01T15:05:31Z</time></trkpt><trkpt lat="45.7453092228367" lon="3.3746260124044216"><ele>451.0</ele><time>2026-05-01T15:05:32Z</time></trkpt><trkpt lat="45.7453040154514" lon="3.3745341588388196"><ele>451.0</ele><time>2026-05-01T15:05:33Z</time></trkpt><trkpt lat="45.74531271258134" lon="3.3744070283384646"><ele>451.00000000000006</ele><time>2026-05-01T15:05:35Z</time></trkpt><trkpt lat="45.74523600136898" lon="3.3744690369663695"><ele>451.0</ele><time>2026-05-01T15:05:37Z</time></trkpt><trkpt lat="45.74525149852968" lon="3.3745582794788143"><ele>451.00000000000006</ele><time>2026-05-01T15:05:38Z</time></trkpt><trkpt lat="45.74528897015183" lon="3.3746737781397074"><ele>451.0</ele><time>2026-05-01T15:05:39Z</time></trkpt><trkpt lat="45.74530929620212" lon="3.3748075928451557"><ele>451.0</ele><time>2026-05-01T15:05:40Z</time></trkpt><trkpt lat="45.745319251336404" lon="3.37491789950016"><ele>451.0</ele><time>2026-05-01T15:05:41Z</time></trkpt><trkpt lat="45.74531855073559" lon="3.375041293908758"><ele>451.00000000000006</ele><time>2026-05-01T15:05:42Z</time></trkpt><trkpt lat="45.745317788177886" lon="3.3751579008119745"><ele>451.0</ele><time>2026-05-01T15:05:43Z</time></trkpt><trkpt lat="45.74531312125687" lon="3.37526208106401"><ele>451.0</ele><time>2026-05-01T15:05:44Z</time></trkpt><trkpt lat="45.74530146997726" lon="3.375361495359008"><ele>451.0</ele><time>2026-05-01T15:05:45Z</time></trkpt><trkpt lat="45.74528460525861" lon="3.375505848032101"><ele>451.0</ele><time>2026-05-01T15:05:47Z</time></trkpt><trkpt lat="45.74528038001243" lon="3.3756028955579467"><ele>451.0</ele><time>2026-05-01T15:05:49Z</time></trkpt><trkpt lat="45.74529363825871" lon="3.3755127611313784"><ele>451.0</ele><time>2026-05-01T15:06:06Z</time></trkpt></trkseg></trk></gpx>